<?xml version="1.0" encoding="UTF-8" standalone="no" ?>
<gpx xmlns="http://www.topografix.com/GPX/1/1" xmlns:xsi="http://www.w3.org/2001/XMLSchema-instance" xsi:schemaLocation="http://www.topografix.com/GPX/1/1 http://www.topografix.com/GPX/1/1/gpx.xsd" version="1.1" creator="VisuGPX - https://www.visugpx.com">
  <metadata>
    <name>Rando Vtt rand'Extrême 2022,étendue....</name>
    <desc><![CDATA[Rando sympathique.... ]]></desc>
  </metadata>
  <trk>
    <name><![CDATA[Rando Vtt rand'Extrême 2022,étendue...._1]]></name>
    <trkseg>
      <trkpt lat="46.5068" lon="0.3512">
        <ele>120.8</ele>
        <time>2022-06-26T05:57:02Z</time>
      </trkpt>
      <trkpt lat="46.50683" lon="0.35125">
        <ele>120.8</ele>
        <time>2022-06-26T05:57:09Z</time>
      </trkpt>
      <trkpt lat="46.50683" lon="0.35131">
        <ele>120.8</ele>
        <time>2022-06-26T05:57:11Z</time>
      </trkpt>
      <trkpt lat="46.50684" lon="0.35147">
        <ele>120.6</ele>
        <time>2022-06-26T05:57:16Z</time>
      </trkpt>
      <trkpt lat="46.50684" lon="0.35173">
        <ele>119.6</ele>
        <time>2022-06-26T05:57:20Z</time>
      </trkpt>
      <trkpt lat="46.50684" lon="0.35226">
        <ele>119.2</ele>
        <time>2022-06-26T05:57:28Z</time>
      </trkpt>
      <trkpt lat="46.50684" lon="0.35231">
        <ele>119.2</ele>
        <time>2022-06-26T05:57:29Z</time>
      </trkpt>
      <trkpt lat="46.50686" lon="0.35243">
        <ele>119</ele>
        <time>2022-06-26T05:57:32Z</time>
      </trkpt>
      <trkpt lat="46.50689" lon="0.35245">
        <ele>119</ele>
        <time>2022-06-26T05:57:33Z</time>
      </trkpt>
      <trkpt lat="46.50701" lon="0.35239">
        <ele>118.8</ele>
        <time>2022-06-26T05:57:37Z</time>
      </trkpt>
      <trkpt lat="46.50713" lon="0.35234">
        <ele>118.6</ele>
        <time>2022-06-26T05:57:40Z</time>
      </trkpt>
      <trkpt lat="46.50723" lon="0.3523">
        <ele>118.4</ele>
        <time>2022-06-26T05:57:42Z</time>
      </trkpt>
      <trkpt lat="46.5075" lon="0.35221">
        <ele>117.4</ele>
        <time>2022-06-26T05:57:47Z</time>
      </trkpt>
      <trkpt lat="46.50754" lon="0.3522">
        <ele>117.2</ele>
        <time>2022-06-26T05:57:48Z</time>
      </trkpt>
      <trkpt lat="46.50758" lon="0.3522">
        <ele>117</ele>
        <time>2022-06-26T05:57:49Z</time>
      </trkpt>
      <trkpt lat="46.50762" lon="0.35224">
        <ele>116.8</ele>
        <time>2022-06-26T05:57:51Z</time>
      </trkpt>
      <trkpt lat="46.50763" lon="0.35226">
        <ele>116.8</ele>
        <time>2022-06-26T05:57:52Z</time>
      </trkpt>
      <trkpt lat="46.50763" lon="0.3523">
        <ele>116.8</ele>
        <time>2022-06-26T05:57:53Z</time>
      </trkpt>
      <trkpt lat="46.5076" lon="0.3524">
        <ele>116.8</ele>
        <time>2022-06-26T05:57:56Z</time>
      </trkpt>
      <trkpt lat="46.50761" lon="0.35255">
        <ele>117.6</ele>
        <time>2022-06-26T05:58:00Z</time>
      </trkpt>
      <trkpt lat="46.50761" lon="0.35262">
        <ele>118.2</ele>
        <time>2022-06-26T05:58:02Z</time>
      </trkpt>
      <trkpt lat="46.50762" lon="0.35266">
        <ele>118.6</ele>
        <time>2022-06-26T05:58:03Z</time>
      </trkpt>
      <trkpt lat="46.50763" lon="0.35275">
        <ele>119.4</ele>
        <time>2022-06-26T05:58:06Z</time>
      </trkpt>
      <trkpt lat="46.50764" lon="0.35277">
        <ele>119.6</ele>
        <time>2022-06-26T05:58:07Z</time>
      </trkpt>
      <trkpt lat="46.50766" lon="0.35277">
        <ele>119.8</ele>
        <time>2022-06-26T05:58:08Z</time>
      </trkpt>
      <trkpt lat="46.50767" lon="0.35279">
        <ele>120.6</ele>
        <time>2022-06-26T05:58:11Z</time>
      </trkpt>
      <trkpt lat="46.50767" lon="0.35278">
        <ele>120.6</ele>
        <time>2022-06-26T05:58:12Z</time>
      </trkpt>
      <trkpt lat="46.50769" lon="0.3527">
        <ele>120.4</ele>
        <time>2022-06-26T05:58:17Z</time>
      </trkpt>
      <trkpt lat="46.50777" lon="0.35273">
        <ele>120.2</ele>
        <time>2022-06-26T05:58:22Z</time>
      </trkpt>
      <trkpt lat="46.50788" lon="0.35277">
        <ele>120.2</ele>
        <time>2022-06-26T05:58:27Z</time>
      </trkpt>
      <trkpt lat="46.50793" lon="0.35275">
        <ele>120</ele>
        <time>2022-06-26T05:58:29Z</time>
      </trkpt>
      <trkpt lat="46.50796" lon="0.35268">
        <ele>119.4</ele>
        <time>2022-06-26T05:58:34Z</time>
      </trkpt>
      <trkpt lat="46.50795" lon="0.35267">
        <ele>119.4</ele>
        <time>2022-06-26T05:58:35Z</time>
      </trkpt>
      <trkpt lat="46.50792" lon="0.35266">
        <ele>119.2</ele>
        <time>2022-06-26T05:58:38Z</time>
      </trkpt>
      <trkpt lat="46.50791" lon="0.35264">
        <ele>119.2</ele>
        <time>2022-06-26T05:58:39Z</time>
      </trkpt>
      <trkpt lat="46.50791" lon="0.3526">
        <ele>119</ele>
        <time>2022-06-26T05:58:41Z</time>
      </trkpt>
      <trkpt lat="46.5079" lon="0.35259">
        <ele>118.8</ele>
        <time>2022-06-26T05:58:42Z</time>
      </trkpt>
      <trkpt lat="46.50789" lon="0.35258">
        <ele>118.4</ele>
        <time>2022-06-26T05:58:44Z</time>
      </trkpt>
      <trkpt lat="46.50779" lon="0.35255">
        <ele>118.2</ele>
        <time>2022-06-26T05:58:50Z</time>
      </trkpt>
      <trkpt lat="46.50778" lon="0.35251">
        <ele>118.2</ele>
        <time>2022-06-26T05:58:52Z</time>
      </trkpt>
      <trkpt lat="46.5078" lon="0.35243">
        <ele>118</ele>
        <time>2022-06-26T05:58:54Z</time>
      </trkpt>
      <trkpt lat="46.50789" lon="0.35227">
        <ele>117.6</ele>
        <time>2022-06-26T05:58:59Z</time>
      </trkpt>
      <trkpt lat="46.50801" lon="0.35214">
        <ele>116.6</ele>
        <time>2022-06-26T05:59:04Z</time>
      </trkpt>
      <trkpt lat="46.50812" lon="0.35215">
        <ele>116.4</ele>
        <time>2022-06-26T05:59:09Z</time>
      </trkpt>
      <trkpt lat="46.5082" lon="0.35224">
        <ele>116.8</ele>
        <time>2022-06-26T05:59:14Z</time>
      </trkpt>
      <trkpt lat="46.50821" lon="0.35226">
        <ele>116.8</ele>
        <time>2022-06-26T05:59:15Z</time>
      </trkpt>
      <trkpt lat="46.50827" lon="0.35237">
        <ele>117.6</ele>
        <time>2022-06-26T05:59:20Z</time>
      </trkpt>
      <trkpt lat="46.50834" lon="0.35256">
        <ele>118.6</ele>
        <time>2022-06-26T05:59:27Z</time>
      </trkpt>
      <trkpt lat="46.50835" lon="0.35258">
        <ele>118.8</ele>
        <time>2022-06-26T05:59:28Z</time>
      </trkpt>
      <trkpt lat="46.50835" lon="0.35262">
        <ele>119</ele>
        <time>2022-06-26T05:59:30Z</time>
      </trkpt>
      <trkpt lat="46.50836" lon="0.35265">
        <ele>119</ele>
        <time>2022-06-26T05:59:31Z</time>
      </trkpt>
      <trkpt lat="46.50837" lon="0.35271">
        <ele>119.4</ele>
        <time>2022-06-26T05:59:33Z</time>
      </trkpt>
      <trkpt lat="46.50839" lon="0.35278">
        <ele>119.8</ele>
        <time>2022-06-26T05:59:36Z</time>
      </trkpt>
      <trkpt lat="46.5084" lon="0.35279">
        <ele>119.8</ele>
        <time>2022-06-26T05:59:37Z</time>
      </trkpt>
      <trkpt lat="46.50842" lon="0.35286">
        <ele>120.2</ele>
        <time>2022-06-26T05:59:39Z</time>
      </trkpt>
      <trkpt lat="46.5084" lon="0.35295">
        <ele>120.2</ele>
        <time>2022-06-26T05:59:41Z</time>
      </trkpt>
      <trkpt lat="46.50835" lon="0.3531">
        <ele>121</ele>
        <time>2022-06-26T05:59:47Z</time>
      </trkpt>
      <trkpt lat="46.50833" lon="0.35312">
        <ele>121.4</ele>
        <time>2022-06-26T05:59:48Z</time>
      </trkpt>
      <trkpt lat="46.5083" lon="0.35314">
        <ele>121.6</ele>
        <time>2022-06-26T05:59:50Z</time>
      </trkpt>
      <trkpt lat="46.5083" lon="0.3532">
        <ele>121.8</ele>
        <time>2022-06-26T05:59:52Z</time>
      </trkpt>
      <trkpt lat="46.50835" lon="0.35351">
        <ele>122</ele>
        <time>2022-06-26T05:59:57Z</time>
      </trkpt>
      <trkpt lat="46.50837" lon="0.35363">
        <ele>122.2</ele>
        <time>2022-06-26T05:59:59Z</time>
      </trkpt>
      <trkpt lat="46.50837" lon="0.35374">
        <ele>122.6</ele>
        <time>2022-06-26T06:00:01Z</time>
      </trkpt>
      <trkpt lat="46.50839" lon="0.35392">
        <ele>123.2</ele>
        <time>2022-06-26T06:00:05Z</time>
      </trkpt>
      <trkpt lat="46.50839" lon="0.35397">
        <ele>123.2</ele>
        <time>2022-06-26T06:00:06Z</time>
      </trkpt>
      <trkpt lat="46.5084" lon="0.35424">
        <ele>124</ele>
        <time>2022-06-26T06:00:11Z</time>
      </trkpt>
      <trkpt lat="46.50839" lon="0.35436">
        <ele>124.2</ele>
        <time>2022-06-26T06:00:13Z</time>
      </trkpt>
      <trkpt lat="46.50842" lon="0.35452">
        <ele>124.6</ele>
        <time>2022-06-26T06:00:16Z</time>
      </trkpt>
      <trkpt lat="46.50845" lon="0.35456">
        <ele>124.6</ele>
        <time>2022-06-26T06:00:17Z</time>
      </trkpt>
      <trkpt lat="46.50852" lon="0.3546">
        <ele>124.8</ele>
        <time>2022-06-26T06:00:19Z</time>
      </trkpt>
      <trkpt lat="46.50857" lon="0.35461">
        <ele>124.6</ele>
        <time>2022-06-26T06:00:20Z</time>
      </trkpt>
      <trkpt lat="46.50867" lon="0.35467">
        <ele>124.6</ele>
        <time>2022-06-26T06:00:22Z</time>
      </trkpt>
      <trkpt lat="46.50875" lon="0.35478">
        <ele>124.2</ele>
        <time>2022-06-26T06:00:24Z</time>
      </trkpt>
      <trkpt lat="46.50886" lon="0.35494">
        <ele>124</ele>
        <time>2022-06-26T06:00:27Z</time>
      </trkpt>
      <trkpt lat="46.50908" lon="0.35526">
        <ele>123.2</ele>
        <time>2022-06-26T06:00:33Z</time>
      </trkpt>
      <trkpt lat="46.50918" lon="0.35531">
        <ele>123.2</ele>
        <time>2022-06-26T06:00:35Z</time>
      </trkpt>
      <trkpt lat="46.50923" lon="0.35531">
        <ele>123.2</ele>
        <time>2022-06-26T06:00:36Z</time>
      </trkpt>
      <trkpt lat="46.50928" lon="0.3553">
        <ele>123</ele>
        <time>2022-06-26T06:00:37Z</time>
      </trkpt>
      <trkpt lat="46.50935" lon="0.35523">
        <ele>122.8</ele>
        <time>2022-06-26T06:00:39Z</time>
      </trkpt>
      <trkpt lat="46.5094" lon="0.35516">
        <ele>122.4</ele>
        <time>2022-06-26T06:00:41Z</time>
      </trkpt>
      <trkpt lat="46.50945" lon="0.35518">
        <ele>122.2</ele>
        <time>2022-06-26T06:00:43Z</time>
      </trkpt>
      <trkpt lat="46.50952" lon="0.35526">
        <ele>122</ele>
        <time>2022-06-26T06:00:46Z</time>
      </trkpt>
      <trkpt lat="46.50952" lon="0.35529">
        <ele>122</ele>
        <time>2022-06-26T06:00:47Z</time>
      </trkpt>
      <trkpt lat="46.50945" lon="0.35542">
        <ele>122.2</ele>
        <time>2022-06-26T06:00:50Z</time>
      </trkpt>
      <trkpt lat="46.50927" lon="0.35576">
        <ele>123.2</ele>
        <time>2022-06-26T06:00:57Z</time>
      </trkpt>
      <trkpt lat="46.50924" lon="0.35582">
        <ele>123.4</ele>
        <time>2022-06-26T06:00:58Z</time>
      </trkpt>
      <trkpt lat="46.50906" lon="0.35613">
        <ele>124</ele>
        <time>2022-06-26T06:01:04Z</time>
      </trkpt>
      <trkpt lat="46.50903" lon="0.35618">
        <ele>124.4</ele>
        <time>2022-06-26T06:01:05Z</time>
      </trkpt>
      <trkpt lat="46.50883" lon="0.35648">
        <ele>125.4</ele>
        <time>2022-06-26T06:01:11Z</time>
      </trkpt>
      <trkpt lat="46.50879" lon="0.35654">
        <ele>125.4</ele>
        <time>2022-06-26T06:01:12Z</time>
      </trkpt>
      <trkpt lat="46.50862" lon="0.35674">
        <ele>126</ele>
        <time>2022-06-26T06:01:16Z</time>
      </trkpt>
      <trkpt lat="46.50857" lon="0.35679">
        <ele>126</ele>
        <time>2022-06-26T06:01:17Z</time>
      </trkpt>
      <trkpt lat="46.50847" lon="0.35691">
        <ele>126</ele>
        <time>2022-06-26T06:01:19Z</time>
      </trkpt>
      <trkpt lat="46.5084" lon="0.35704">
        <ele>126</ele>
        <time>2022-06-26T06:01:21Z</time>
      </trkpt>
      <trkpt lat="46.50828" lon="0.35729">
        <ele>126.2</ele>
        <time>2022-06-26T06:01:25Z</time>
      </trkpt>
      <trkpt lat="46.50823" lon="0.35734">
        <ele>126.2</ele>
        <time>2022-06-26T06:01:26Z</time>
      </trkpt>
      <trkpt lat="46.50814" lon="0.35744">
        <ele>126.2</ele>
        <time>2022-06-26T06:01:28Z</time>
      </trkpt>
      <trkpt lat="46.50802" lon="0.3576">
        <ele>126.2</ele>
        <time>2022-06-26T06:01:31Z</time>
      </trkpt>
      <trkpt lat="46.50793" lon="0.35771">
        <ele>126.4</ele>
        <time>2022-06-26T06:01:33Z</time>
      </trkpt>
      <trkpt lat="46.50779" lon="0.35793">
        <ele>126.6</ele>
        <time>2022-06-26T06:01:37Z</time>
      </trkpt>
      <trkpt lat="46.50767" lon="0.35818">
        <ele>127</ele>
        <time>2022-06-26T06:01:41Z</time>
      </trkpt>
      <trkpt lat="46.50761" lon="0.35839">
        <ele>126.8</ele>
        <time>2022-06-26T06:01:44Z</time>
      </trkpt>
      <trkpt lat="46.50755" lon="0.35861">
        <ele>126.8</ele>
        <time>2022-06-26T06:01:47Z</time>
      </trkpt>
      <trkpt lat="46.50756" lon="0.35876">
        <ele>126.8</ele>
        <time>2022-06-26T06:01:49Z</time>
      </trkpt>
      <trkpt lat="46.50758" lon="0.35884">
        <ele>126.6</ele>
        <time>2022-06-26T06:01:50Z</time>
      </trkpt>
      <trkpt lat="46.50767" lon="0.3592">
        <ele>126</ele>
        <time>2022-06-26T06:01:54Z</time>
      </trkpt>
      <trkpt lat="46.50772" lon="0.35951">
        <ele>125.4</ele>
        <time>2022-06-26T06:01:57Z</time>
      </trkpt>
      <trkpt lat="46.50776" lon="0.35982">
        <ele>125</ele>
        <time>2022-06-26T06:02:00Z</time>
      </trkpt>
      <trkpt lat="46.50778" lon="0.36003">
        <ele>124.4</ele>
        <time>2022-06-26T06:02:02Z</time>
      </trkpt>
      <trkpt lat="46.50781" lon="0.36048">
        <ele>123</ele>
        <time>2022-06-26T06:02:06Z</time>
      </trkpt>
      <trkpt lat="46.50781" lon="0.36048">
        <ele>121.4</ele>
        <time>2022-06-26T06:02:08Z</time>
      </trkpt>
      <trkpt lat="46.50781" lon="0.36075">
        <ele>120.4</ele>
        <time>2022-06-26T06:02:09Z</time>
      </trkpt>
      <trkpt lat="46.50782" lon="0.36084">
        <ele>119.4</ele>
        <time>2022-06-26T06:02:10Z</time>
      </trkpt>
      <trkpt lat="46.50783" lon="0.36092">
        <ele>119.4</ele>
        <time>2022-06-26T06:02:11Z</time>
      </trkpt>
      <trkpt lat="46.50781" lon="0.361">
        <ele>119.2</ele>
        <time>2022-06-26T06:02:12Z</time>
      </trkpt>
      <trkpt lat="46.50776" lon="0.36114">
        <ele>119.2</ele>
        <time>2022-06-26T06:02:14Z</time>
      </trkpt>
      <trkpt lat="46.50766" lon="0.36129">
        <ele>119.6</ele>
        <time>2022-06-26T06:02:17Z</time>
      </trkpt>
      <trkpt lat="46.50761" lon="0.3614">
        <ele>120.4</ele>
        <time>2022-06-26T06:02:19Z</time>
      </trkpt>
      <trkpt lat="46.50749" lon="0.36182">
        <ele>121</ele>
        <time>2022-06-26T06:02:25Z</time>
      </trkpt>
      <trkpt lat="46.50737" lon="0.36258">
        <ele>119.8</ele>
        <time>2022-06-26T06:02:34Z</time>
      </trkpt>
      <trkpt lat="46.50729" lon="0.36311">
        <ele>119.4</ele>
        <time>2022-06-26T06:02:40Z</time>
      </trkpt>
      <trkpt lat="46.50725" lon="0.36338">
        <ele>118.6</ele>
        <time>2022-06-26T06:02:43Z</time>
      </trkpt>
      <trkpt lat="46.50723" lon="0.36357">
        <ele>118.2</ele>
        <time>2022-06-26T06:02:45Z</time>
      </trkpt>
      <trkpt lat="46.50716" lon="0.36408">
        <ele>117</ele>
        <time>2022-06-26T06:02:50Z</time>
      </trkpt>
      <trkpt lat="46.50714" lon="0.3643">
        <ele>116.6</ele>
        <time>2022-06-26T06:02:52Z</time>
      </trkpt>
      <trkpt lat="46.50711" lon="0.36451">
        <ele>115.8</ele>
        <time>2022-06-26T06:02:54Z</time>
      </trkpt>
      <trkpt lat="46.50708" lon="0.36473">
        <ele>114.8</ele>
        <time>2022-06-26T06:02:56Z</time>
      </trkpt>
      <trkpt lat="46.50704" lon="0.36505">
        <ele>114</ele>
        <time>2022-06-26T06:02:59Z</time>
      </trkpt>
      <trkpt lat="46.50703" lon="0.36515">
        <ele>113.8</ele>
        <time>2022-06-26T06:03:00Z</time>
      </trkpt>
      <trkpt lat="46.50702" lon="0.36526">
        <ele>113.4</ele>
        <time>2022-06-26T06:03:01Z</time>
      </trkpt>
      <trkpt lat="46.50695" lon="0.36568">
        <ele>112.6</ele>
        <time>2022-06-26T06:03:05Z</time>
      </trkpt>
      <trkpt lat="46.50689" lon="0.36585">
        <ele>112.4</ele>
        <time>2022-06-26T06:03:07Z</time>
      </trkpt>
      <trkpt lat="46.50679" lon="0.366">
        <ele>112.4</ele>
        <time>2022-06-26T06:03:09Z</time>
      </trkpt>
      <trkpt lat="46.50669" lon="0.36611">
        <ele>112.6</ele>
        <time>2022-06-26T06:03:11Z</time>
      </trkpt>
      <trkpt lat="46.50661" lon="0.36618">
        <ele>113</ele>
        <time>2022-06-26T06:03:13Z</time>
      </trkpt>
      <trkpt lat="46.50658" lon="0.36623">
        <ele>113.4</ele>
        <time>2022-06-26T06:03:14Z</time>
      </trkpt>
      <trkpt lat="46.50655" lon="0.36627">
        <ele>113.6</ele>
        <time>2022-06-26T06:03:15Z</time>
      </trkpt>
      <trkpt lat="46.50651" lon="0.36638">
        <ele>114.4</ele>
        <time>2022-06-26T06:03:17Z</time>
      </trkpt>
      <trkpt lat="46.50649" lon="0.36644">
        <ele>114.6</ele>
        <time>2022-06-26T06:03:18Z</time>
      </trkpt>
      <trkpt lat="46.50648" lon="0.36649">
        <ele>115</ele>
        <time>2022-06-26T06:03:19Z</time>
      </trkpt>
      <trkpt lat="46.50647" lon="0.36661">
        <ele>115.8</ele>
        <time>2022-06-26T06:03:21Z</time>
      </trkpt>
      <trkpt lat="46.50644" lon="0.36678">
        <ele>116.8</ele>
        <time>2022-06-26T06:03:24Z</time>
      </trkpt>
      <trkpt lat="46.50644" lon="0.36694">
        <ele>117.8</ele>
        <time>2022-06-26T06:03:27Z</time>
      </trkpt>
      <trkpt lat="46.50644" lon="0.36701">
        <ele>118.2</ele>
        <time>2022-06-26T06:03:28Z</time>
      </trkpt>
      <trkpt lat="46.50644" lon="0.36723">
        <ele>119.4</ele>
        <time>2022-06-26T06:03:32Z</time>
      </trkpt>
      <trkpt lat="46.50646" lon="0.36732">
        <ele>120</ele>
        <time>2022-06-26T06:03:34Z</time>
      </trkpt>
      <trkpt lat="46.5065" lon="0.36739">
        <ele>120.4</ele>
        <time>2022-06-26T06:03:36Z</time>
      </trkpt>
      <trkpt lat="46.50653" lon="0.36741">
        <ele>120.4</ele>
        <time>2022-06-26T06:03:37Z</time>
      </trkpt>
      <trkpt lat="46.50674" lon="0.36744">
        <ele>121</ele>
        <time>2022-06-26T06:03:42Z</time>
      </trkpt>
      <trkpt lat="46.50686" lon="0.36747">
        <ele>121.4</ele>
        <time>2022-06-26T06:03:45Z</time>
      </trkpt>
      <trkpt lat="46.50699" lon="0.36754">
        <ele>121.6</ele>
        <time>2022-06-26T06:03:48Z</time>
      </trkpt>
      <trkpt lat="46.50718" lon="0.36769">
        <ele>121.8</ele>
        <time>2022-06-26T06:03:53Z</time>
      </trkpt>
      <trkpt lat="46.50722" lon="0.3677">
        <ele>121.8</ele>
        <time>2022-06-26T06:03:54Z</time>
      </trkpt>
      <trkpt lat="46.50726" lon="0.36771">
        <ele>122</ele>
        <time>2022-06-26T06:03:55Z</time>
      </trkpt>
      <trkpt lat="46.50747" lon="0.36771">
        <ele>122.2</ele>
        <time>2022-06-26T06:04:00Z</time>
      </trkpt>
      <trkpt lat="46.5078" lon="0.36769">
        <ele>121.8</ele>
        <time>2022-06-26T06:04:06Z</time>
      </trkpt>
      <trkpt lat="46.50799" lon="0.36766">
        <ele>121.6</ele>
        <time>2022-06-26T06:04:10Z</time>
      </trkpt>
      <trkpt lat="46.50808" lon="0.36769">
        <ele>121.6</ele>
        <time>2022-06-26T06:04:12Z</time>
      </trkpt>
      <trkpt lat="46.50814" lon="0.36776">
        <ele>121.6</ele>
        <time>2022-06-26T06:04:14Z</time>
      </trkpt>
      <trkpt lat="46.50819" lon="0.36785">
        <ele>121.8</ele>
        <time>2022-06-26T06:04:16Z</time>
      </trkpt>
      <trkpt lat="46.50827" lon="0.36795">
        <ele>122</ele>
        <time>2022-06-26T06:04:19Z</time>
      </trkpt>
      <trkpt lat="46.50835" lon="0.36798">
        <ele>122.4</ele>
        <time>2022-06-26T06:04:21Z</time>
      </trkpt>
      <trkpt lat="46.50853" lon="0.36804">
        <ele>122.6</ele>
        <time>2022-06-26T06:04:26Z</time>
      </trkpt>
      <trkpt lat="46.50861" lon="0.36806">
        <ele>122.6</ele>
        <time>2022-06-26T06:04:28Z</time>
      </trkpt>
      <trkpt lat="46.50874" lon="0.36813">
        <ele>122.8</ele>
        <time>2022-06-26T06:04:31Z</time>
      </trkpt>
      <trkpt lat="46.50886" lon="0.36822">
        <ele>122.8</ele>
        <time>2022-06-26T06:04:34Z</time>
      </trkpt>
      <trkpt lat="46.5089" lon="0.36825">
        <ele>123</ele>
        <time>2022-06-26T06:04:35Z</time>
      </trkpt>
      <trkpt lat="46.50893" lon="0.36828">
        <ele>123</ele>
        <time>2022-06-26T06:04:36Z</time>
      </trkpt>
      <trkpt lat="46.50899" lon="0.36836">
        <ele>123</ele>
        <time>2022-06-26T06:04:38Z</time>
      </trkpt>
      <trkpt lat="46.50901" lon="0.36841">
        <ele>123</ele>
        <time>2022-06-26T06:04:39Z</time>
      </trkpt>
      <trkpt lat="46.50908" lon="0.36853">
        <ele>123</ele>
        <time>2022-06-26T06:04:42Z</time>
      </trkpt>
      <trkpt lat="46.5092" lon="0.36873">
        <ele>123.6</ele>
        <time>2022-06-26T06:04:46Z</time>
      </trkpt>
      <trkpt lat="46.50937" lon="0.36904">
        <ele>123.6</ele>
        <time>2022-06-26T06:04:53Z</time>
      </trkpt>
      <trkpt lat="46.50958" lon="0.36941">
        <ele>123.6</ele>
        <time>2022-06-26T06:05:00Z</time>
      </trkpt>
      <trkpt lat="46.50968" lon="0.3695">
        <ele>124</ele>
        <time>2022-06-26T06:05:02Z</time>
      </trkpt>
      <trkpt lat="46.50977" lon="0.36954">
        <ele>124</ele>
        <time>2022-06-26T06:05:04Z</time>
      </trkpt>
      <trkpt lat="46.5098" lon="0.36955">
        <ele>124</ele>
        <time>2022-06-26T06:05:05Z</time>
      </trkpt>
      <trkpt lat="46.50985" lon="0.36954">
        <ele>124</ele>
        <time>2022-06-26T06:05:06Z</time>
      </trkpt>
      <trkpt lat="46.51012" lon="0.36953">
        <ele>123.6</ele>
        <time>2022-06-26T06:05:10Z</time>
      </trkpt>
      <trkpt lat="46.51025" lon="0.36952">
        <ele>123.4</ele>
        <time>2022-06-26T06:05:12Z</time>
      </trkpt>
      <trkpt lat="46.51034" lon="0.36953">
        <ele>123.4</ele>
        <time>2022-06-26T06:05:14Z</time>
      </trkpt>
      <trkpt lat="46.5104" lon="0.36954">
        <ele>123.4</ele>
        <time>2022-06-26T06:05:15Z</time>
      </trkpt>
      <trkpt lat="46.51046" lon="0.36953">
        <ele>123.2</ele>
        <time>2022-06-26T06:05:16Z</time>
      </trkpt>
      <trkpt lat="46.51053" lon="0.3695">
        <ele>123</ele>
        <time>2022-06-26T06:05:18Z</time>
      </trkpt>
      <trkpt lat="46.51056" lon="0.36947">
        <ele>122.8</ele>
        <time>2022-06-26T06:05:19Z</time>
      </trkpt>
      <trkpt lat="46.51057" lon="0.36944">
        <ele>122.8</ele>
        <time>2022-06-26T06:05:20Z</time>
      </trkpt>
      <trkpt lat="46.51062" lon="0.36932">
        <ele>122.6</ele>
        <time>2022-06-26T06:05:23Z</time>
      </trkpt>
      <trkpt lat="46.51064" lon="0.36929">
        <ele>122.6</ele>
        <time>2022-06-26T06:05:24Z</time>
      </trkpt>
      <trkpt lat="46.51066" lon="0.36925">
        <ele>122.6</ele>
        <time>2022-06-26T06:05:25Z</time>
      </trkpt>
      <trkpt lat="46.51076" lon="0.36915">
        <ele>122.2</ele>
        <time>2022-06-26T06:05:29Z</time>
      </trkpt>
      <trkpt lat="46.51079" lon="0.36915">
        <ele>122</ele>
        <time>2022-06-26T06:05:31Z</time>
      </trkpt>
      <trkpt lat="46.51086" lon="0.36915">
        <ele>122</ele>
        <time>2022-06-26T06:05:34Z</time>
      </trkpt>
      <trkpt lat="46.51094" lon="0.36913">
        <ele>121.8</ele>
        <time>2022-06-26T06:05:38Z</time>
      </trkpt>
      <trkpt lat="46.51096" lon="0.36911">
        <ele>121.8</ele>
        <time>2022-06-26T06:05:39Z</time>
      </trkpt>
      <trkpt lat="46.51106" lon="0.3689">
        <ele>121.8</ele>
        <time>2022-06-26T06:05:45Z</time>
      </trkpt>
      <trkpt lat="46.51108" lon="0.36879">
        <ele>121.6</ele>
        <time>2022-06-26T06:05:47Z</time>
      </trkpt>
      <trkpt lat="46.51111" lon="0.36867">
        <ele>121.6</ele>
        <time>2022-06-26T06:05:49Z</time>
      </trkpt>
      <trkpt lat="46.51113" lon="0.36856">
        <ele>121.2</ele>
        <time>2022-06-26T06:05:51Z</time>
      </trkpt>
      <trkpt lat="46.51118" lon="0.36845">
        <ele>120.8</ele>
        <time>2022-06-26T06:05:53Z</time>
      </trkpt>
      <trkpt lat="46.51124" lon="0.36838">
        <ele>120.4</ele>
        <time>2022-06-26T06:05:55Z</time>
      </trkpt>
      <trkpt lat="46.51129" lon="0.36835">
        <ele>120.2</ele>
        <time>2022-06-26T06:05:57Z</time>
      </trkpt>
      <trkpt lat="46.51138" lon="0.3683">
        <ele>119.8</ele>
        <time>2022-06-26T06:06:00Z</time>
      </trkpt>
      <trkpt lat="46.51145" lon="0.36819">
        <ele>119.4</ele>
        <time>2022-06-26T06:06:04Z</time>
      </trkpt>
      <trkpt lat="46.51147" lon="0.36817">
        <ele>119.2</ele>
        <time>2022-06-26T06:06:05Z</time>
      </trkpt>
      <trkpt lat="46.5115" lon="0.36817">
        <ele>119.2</ele>
        <time>2022-06-26T06:06:06Z</time>
      </trkpt>
      <trkpt lat="46.51161" lon="0.36815">
        <ele>118.8</ele>
        <time>2022-06-26T06:06:11Z</time>
      </trkpt>
      <trkpt lat="46.5117" lon="0.36816">
        <ele>118.8</ele>
        <time>2022-06-26T06:06:15Z</time>
      </trkpt>
      <trkpt lat="46.51173" lon="0.36815">
        <ele>118.8</ele>
        <time>2022-06-26T06:06:17Z</time>
      </trkpt>
      <trkpt lat="46.51187" lon="0.36811">
        <ele>118.6</ele>
        <time>2022-06-26T06:06:23Z</time>
      </trkpt>
      <trkpt lat="46.51196" lon="0.36811">
        <ele>118.2</ele>
        <time>2022-06-26T06:06:27Z</time>
      </trkpt>
      <trkpt lat="46.512" lon="0.36811">
        <ele>118.2</ele>
        <time>2022-06-26T06:06:29Z</time>
      </trkpt>
      <trkpt lat="46.51214" lon="0.36809">
        <ele>118.2</ele>
        <time>2022-06-26T06:06:36Z</time>
      </trkpt>
      <trkpt lat="46.51222" lon="0.36808">
        <ele>118</ele>
        <time>2022-06-26T06:06:39Z</time>
      </trkpt>
      <trkpt lat="46.51227" lon="0.36808">
        <ele>117.8</ele>
        <time>2022-06-26T06:06:41Z</time>
      </trkpt>
      <trkpt lat="46.51248" lon="0.36811">
        <ele>117</ele>
        <time>2022-06-26T06:06:47Z</time>
      </trkpt>
      <trkpt lat="46.5125" lon="0.36811">
        <ele>116.8</ele>
        <time>2022-06-26T06:06:48Z</time>
      </trkpt>
      <trkpt lat="46.51262" lon="0.36812">
        <ele>115.8</ele>
        <time>2022-06-26T06:06:52Z</time>
      </trkpt>
      <trkpt lat="46.51269" lon="0.3681">
        <ele>115.4</ele>
        <time>2022-06-26T06:06:54Z</time>
      </trkpt>
      <trkpt lat="46.5128" lon="0.36811">
        <ele>114.8</ele>
        <time>2022-06-26T06:06:58Z</time>
      </trkpt>
      <trkpt lat="46.51282" lon="0.36812">
        <ele>114.6</ele>
        <time>2022-06-26T06:06:59Z</time>
      </trkpt>
      <trkpt lat="46.5129" lon="0.36814">
        <ele>113.8</ele>
        <time>2022-06-26T06:07:02Z</time>
      </trkpt>
      <trkpt lat="46.51292" lon="0.36815">
        <ele>112.6</ele>
        <time>2022-06-26T06:07:04Z</time>
      </trkpt>
      <trkpt lat="46.51294" lon="0.36816">
        <ele>112.4</ele>
        <time>2022-06-26T06:07:05Z</time>
      </trkpt>
      <trkpt lat="46.51297" lon="0.36817">
        <ele>112.2</ele>
        <time>2022-06-26T06:07:06Z</time>
      </trkpt>
      <trkpt lat="46.51309" lon="0.36818">
        <ele>111.6</ele>
        <time>2022-06-26T06:07:09Z</time>
      </trkpt>
      <trkpt lat="46.51312" lon="0.36817">
        <ele>111.4</ele>
        <time>2022-06-26T06:07:10Z</time>
      </trkpt>
      <trkpt lat="46.51318" lon="0.36817">
        <ele>110.8</ele>
        <time>2022-06-26T06:07:12Z</time>
      </trkpt>
      <trkpt lat="46.51327" lon="0.3682">
        <ele>110.6</ele>
        <time>2022-06-26T06:07:15Z</time>
      </trkpt>
      <trkpt lat="46.51333" lon="0.36824">
        <ele>109.6</ele>
        <time>2022-06-26T06:07:18Z</time>
      </trkpt>
      <trkpt lat="46.51338" lon="0.36827">
        <ele>109.6</ele>
        <time>2022-06-26T06:07:20Z</time>
      </trkpt>
      <trkpt lat="46.5134" lon="0.36827">
        <ele>109.4</ele>
        <time>2022-06-26T06:07:21Z</time>
      </trkpt>
      <trkpt lat="46.51346" lon="0.36828">
        <ele>109.4</ele>
        <time>2022-06-26T06:07:23Z</time>
      </trkpt>
      <trkpt lat="46.51354" lon="0.36831">
        <ele>108.2</ele>
        <time>2022-06-26T06:07:26Z</time>
      </trkpt>
      <trkpt lat="46.51365" lon="0.36834">
        <ele>106.8</ele>
        <time>2022-06-26T06:07:30Z</time>
      </trkpt>
      <trkpt lat="46.51368" lon="0.36837">
        <ele>105.6</ele>
        <time>2022-06-26T06:07:32Z</time>
      </trkpt>
      <trkpt lat="46.51375" lon="0.3684">
        <ele>104.4</ele>
        <time>2022-06-26T06:07:35Z</time>
      </trkpt>
      <trkpt lat="46.51378" lon="0.36839">
        <ele>104.2</ele>
        <time>2022-06-26T06:07:36Z</time>
      </trkpt>
      <trkpt lat="46.51385" lon="0.36841">
        <ele>103.2</ele>
        <time>2022-06-26T06:07:38Z</time>
      </trkpt>
      <trkpt lat="46.51395" lon="0.36843">
        <ele>102</ele>
        <time>2022-06-26T06:07:41Z</time>
      </trkpt>
      <trkpt lat="46.51399" lon="0.36843">
        <ele>101.4</ele>
        <time>2022-06-26T06:07:42Z</time>
      </trkpt>
      <trkpt lat="46.51403" lon="0.36843">
        <ele>100.4</ele>
        <time>2022-06-26T06:07:43Z</time>
      </trkpt>
      <trkpt lat="46.51409" lon="0.36845">
        <ele>99.2</ele>
        <time>2022-06-26T06:07:45Z</time>
      </trkpt>
      <trkpt lat="46.51411" lon="0.36847">
        <ele>98.8</ele>
        <time>2022-06-26T06:07:46Z</time>
      </trkpt>
      <trkpt lat="46.51414" lon="0.36851">
        <ele>98</ele>
        <time>2022-06-26T06:07:48Z</time>
      </trkpt>
      <trkpt lat="46.51418" lon="0.36856">
        <ele>97.6</ele>
        <time>2022-06-26T06:07:50Z</time>
      </trkpt>
      <trkpt lat="46.51425" lon="0.36864">
        <ele>96.2</ele>
        <time>2022-06-26T06:07:54Z</time>
      </trkpt>
      <trkpt lat="46.51429" lon="0.36868">
        <ele>95.4</ele>
        <time>2022-06-26T06:07:56Z</time>
      </trkpt>
      <trkpt lat="46.51431" lon="0.3687">
        <ele>95</ele>
        <time>2022-06-26T06:07:57Z</time>
      </trkpt>
      <trkpt lat="46.51435" lon="0.36874">
        <ele>94.4</ele>
        <time>2022-06-26T06:08:00Z</time>
      </trkpt>
      <trkpt lat="46.51438" lon="0.36876">
        <ele>94.4</ele>
        <time>2022-06-26T06:08:01Z</time>
      </trkpt>
      <trkpt lat="46.51443" lon="0.36878">
        <ele>93.6</ele>
        <time>2022-06-26T06:08:02Z</time>
      </trkpt>
      <trkpt lat="46.51449" lon="0.36883">
        <ele>92.4</ele>
        <time>2022-06-26T06:08:04Z</time>
      </trkpt>
      <trkpt lat="46.51453" lon="0.36888">
        <ele>91.2</ele>
        <time>2022-06-26T06:08:06Z</time>
      </trkpt>
      <trkpt lat="46.5146" lon="0.36892">
        <ele>90.6</ele>
        <time>2022-06-26T06:08:08Z</time>
      </trkpt>
      <trkpt lat="46.51462" lon="0.36893">
        <ele>90</ele>
        <time>2022-06-26T06:08:09Z</time>
      </trkpt>
      <trkpt lat="46.51466" lon="0.369">
        <ele>88.8</ele>
        <time>2022-06-26T06:08:12Z</time>
      </trkpt>
      <trkpt lat="46.51467" lon="0.36903">
        <ele>88.6</ele>
        <time>2022-06-26T06:08:13Z</time>
      </trkpt>
      <trkpt lat="46.51468" lon="0.36915">
        <ele>88</ele>
        <time>2022-06-26T06:08:18Z</time>
      </trkpt>
      <trkpt lat="46.51468" lon="0.36917">
        <ele>87.8</ele>
        <time>2022-06-26T06:08:19Z</time>
      </trkpt>
      <trkpt lat="46.51468" lon="0.36919">
        <ele>87.6</ele>
        <time>2022-06-26T06:08:20Z</time>
      </trkpt>
      <trkpt lat="46.51475" lon="0.3693">
        <ele>87.4</ele>
        <time>2022-06-26T06:08:24Z</time>
      </trkpt>
      <trkpt lat="46.5148" lon="0.36936">
        <ele>87.2</ele>
        <time>2022-06-26T06:08:26Z</time>
      </trkpt>
      <trkpt lat="46.5149" lon="0.36953">
        <ele>86.6</ele>
        <time>2022-06-26T06:08:30Z</time>
      </trkpt>
      <trkpt lat="46.51491" lon="0.36957">
        <ele>86.4</ele>
        <time>2022-06-26T06:08:31Z</time>
      </trkpt>
      <trkpt lat="46.51493" lon="0.36966">
        <ele>86</ele>
        <time>2022-06-26T06:08:33Z</time>
      </trkpt>
      <trkpt lat="46.51494" lon="0.36972">
        <ele>85.8</ele>
        <time>2022-06-26T06:08:34Z</time>
      </trkpt>
      <trkpt lat="46.51495" lon="0.36978">
        <ele>85.6</ele>
        <time>2022-06-26T06:08:35Z</time>
      </trkpt>
      <trkpt lat="46.51498" lon="0.36999">
        <ele>85.4</ele>
        <time>2022-06-26T06:08:38Z</time>
      </trkpt>
      <trkpt lat="46.51502" lon="0.37005">
        <ele>85.4</ele>
        <time>2022-06-26T06:08:39Z</time>
      </trkpt>
      <trkpt lat="46.51505" lon="0.37013">
        <ele>85.4</ele>
        <time>2022-06-26T06:08:40Z</time>
      </trkpt>
      <trkpt lat="46.51506" lon="0.37023">
        <ele>85.4</ele>
        <time>2022-06-26T06:08:42Z</time>
      </trkpt>
      <trkpt lat="46.51506" lon="0.37031">
        <ele>85.4</ele>
        <time>2022-06-26T06:08:43Z</time>
      </trkpt>
      <trkpt lat="46.51499" lon="0.37039">
        <ele>85.4</ele>
        <time>2022-06-26T06:08:46Z</time>
      </trkpt>
      <trkpt lat="46.51492" lon="0.3705">
        <ele>86.8</ele>
        <time>2022-06-26T06:08:51Z</time>
      </trkpt>
      <trkpt lat="46.51491" lon="0.37053">
        <ele>87.4</ele>
        <time>2022-06-26T06:08:52Z</time>
      </trkpt>
      <trkpt lat="46.5149" lon="0.37055">
        <ele>88.2</ele>
        <time>2022-06-26T06:08:53Z</time>
      </trkpt>
      <trkpt lat="46.51492" lon="0.37061">
        <ele>89.4</ele>
        <time>2022-06-26T06:08:56Z</time>
      </trkpt>
      <trkpt lat="46.5149" lon="0.37064">
        <ele>89.6</ele>
        <time>2022-06-26T06:08:57Z</time>
      </trkpt>
      <trkpt lat="46.51488" lon="0.37067">
        <ele>89.8</ele>
        <time>2022-06-26T06:08:58Z</time>
      </trkpt>
      <trkpt lat="46.51482" lon="0.37072">
        <ele>90.4</ele>
        <time>2022-06-26T06:09:00Z</time>
      </trkpt>
      <trkpt lat="46.51478" lon="0.37078">
        <ele>92</ele>
        <time>2022-06-26T06:09:04Z</time>
      </trkpt>
      <trkpt lat="46.51477" lon="0.37079">
        <ele>92.4</ele>
        <time>2022-06-26T06:09:05Z</time>
      </trkpt>
      <trkpt lat="46.51476" lon="0.37082">
        <ele>93</ele>
        <time>2022-06-26T06:09:07Z</time>
      </trkpt>
      <trkpt lat="46.51475" lon="0.37085">
        <ele>94.2</ele>
        <time>2022-06-26T06:09:10Z</time>
      </trkpt>
      <trkpt lat="46.51474" lon="0.37088">
        <ele>95</ele>
        <time>2022-06-26T06:09:12Z</time>
      </trkpt>
      <trkpt lat="46.51473" lon="0.37089">
        <ele>95.4</ele>
        <time>2022-06-26T06:09:13Z</time>
      </trkpt>
      <trkpt lat="46.51469" lon="0.37097">
        <ele>96.6</ele>
        <time>2022-06-26T06:09:17Z</time>
      </trkpt>
      <trkpt lat="46.51467" lon="0.37101">
        <ele>97.2</ele>
        <time>2022-06-26T06:09:20Z</time>
      </trkpt>
      <trkpt lat="46.51466" lon="0.37103">
        <ele>97.6</ele>
        <time>2022-06-26T06:09:21Z</time>
      </trkpt>
      <trkpt lat="46.51464" lon="0.37107">
        <ele>98.8</ele>
        <time>2022-06-26T06:09:24Z</time>
      </trkpt>
      <trkpt lat="46.51457" lon="0.37112">
        <ele>99.8</ele>
        <time>2022-06-26T06:09:28Z</time>
      </trkpt>
      <trkpt lat="46.51456" lon="0.37113">
        <ele>100.2</ele>
        <time>2022-06-26T06:09:29Z</time>
      </trkpt>
      <trkpt lat="46.51454" lon="0.37114">
        <ele>100.4</ele>
        <time>2022-06-26T06:09:30Z</time>
      </trkpt>
      <trkpt lat="46.51451" lon="0.37115">
        <ele>100.8</ele>
        <time>2022-06-26T06:09:32Z</time>
      </trkpt>
      <trkpt lat="46.51447" lon="0.37116">
        <ele>101.2</ele>
        <time>2022-06-26T06:09:34Z</time>
      </trkpt>
      <trkpt lat="46.51444" lon="0.37116">
        <ele>101.6</ele>
        <time>2022-06-26T06:09:36Z</time>
      </trkpt>
      <trkpt lat="46.51439" lon="0.37114">
        <ele>102.2</ele>
        <time>2022-06-26T06:09:41Z</time>
      </trkpt>
      <trkpt lat="46.51437" lon="0.37112">
        <ele>102.2</ele>
        <time>2022-06-26T06:09:42Z</time>
      </trkpt>
      <trkpt lat="46.51433" lon="0.37106">
        <ele>101.4</ele>
        <time>2022-06-26T06:09:46Z</time>
      </trkpt>
      <trkpt lat="46.51431" lon="0.371">
        <ele>101</ele>
        <time>2022-06-26T06:09:48Z</time>
      </trkpt>
      <trkpt lat="46.5143" lon="0.37097">
        <ele>100.2</ele>
        <time>2022-06-26T06:09:49Z</time>
      </trkpt>
      <trkpt lat="46.5143" lon="0.37092">
        <ele>99.8</ele>
        <time>2022-06-26T06:09:50Z</time>
      </trkpt>
      <trkpt lat="46.51434" lon="0.37084">
        <ele>98.6</ele>
        <time>2022-06-26T06:09:52Z</time>
      </trkpt>
      <trkpt lat="46.51435" lon="0.37075">
        <ele>98.2</ele>
        <time>2022-06-26T06:09:54Z</time>
      </trkpt>
      <trkpt lat="46.51432" lon="0.37063">
        <ele>97.8</ele>
        <time>2022-06-26T06:09:57Z</time>
      </trkpt>
      <trkpt lat="46.51431" lon="0.3706">
        <ele>97.8</ele>
        <time>2022-06-26T06:09:58Z</time>
      </trkpt>
      <trkpt lat="46.51425" lon="0.37049">
        <ele>99.2</ele>
        <time>2022-06-26T06:10:03Z</time>
      </trkpt>
      <trkpt lat="46.51424" lon="0.37047">
        <ele>99.6</ele>
        <time>2022-06-26T06:10:04Z</time>
      </trkpt>
      <trkpt lat="46.51421" lon="0.37043">
        <ele>101</ele>
        <time>2022-06-26T06:10:08Z</time>
      </trkpt>
      <trkpt lat="46.51419" lon="0.37042">
        <ele>101.6</ele>
        <time>2022-06-26T06:10:10Z</time>
      </trkpt>
      <trkpt lat="46.51418" lon="0.37041">
        <ele>101.8</ele>
        <time>2022-06-26T06:10:11Z</time>
      </trkpt>
      <trkpt lat="46.51417" lon="0.3704">
        <ele>102.4</ele>
        <time>2022-06-26T06:10:12Z</time>
      </trkpt>
      <trkpt lat="46.51416" lon="0.37037">
        <ele>102.8</ele>
        <time>2022-06-26T06:10:14Z</time>
      </trkpt>
      <trkpt lat="46.51414" lon="0.37033">
        <ele>103.6</ele>
        <time>2022-06-26T06:10:16Z</time>
      </trkpt>
      <trkpt lat="46.51413" lon="0.37029">
        <ele>104.4</ele>
        <time>2022-06-26T06:10:19Z</time>
      </trkpt>
      <trkpt lat="46.51412" lon="0.37027">
        <ele>104.6</ele>
        <time>2022-06-26T06:10:20Z</time>
      </trkpt>
      <trkpt lat="46.51411" lon="0.37025">
        <ele>105</ele>
        <time>2022-06-26T06:10:21Z</time>
      </trkpt>
      <trkpt lat="46.51408" lon="0.37021">
        <ele>105.8</ele>
        <time>2022-06-26T06:10:24Z</time>
      </trkpt>
      <trkpt lat="46.51404" lon="0.3702">
        <ele>106.2</ele>
        <time>2022-06-26T06:10:26Z</time>
      </trkpt>
      <trkpt lat="46.51403" lon="0.3702">
        <ele>106.4</ele>
        <time>2022-06-26T06:10:27Z</time>
      </trkpt>
      <trkpt lat="46.51401" lon="0.37019">
        <ele>106.4</ele>
        <time>2022-06-26T06:10:28Z</time>
      </trkpt>
      <trkpt lat="46.51397" lon="0.37018">
        <ele>106.8</ele>
        <time>2022-06-26T06:10:31Z</time>
      </trkpt>
      <trkpt lat="46.51396" lon="0.37018">
        <ele>107</ele>
        <time>2022-06-26T06:10:32Z</time>
      </trkpt>
      <trkpt lat="46.51389" lon="0.37017">
        <ele>107.8</ele>
        <time>2022-06-26T06:10:36Z</time>
      </trkpt>
      <trkpt lat="46.51387" lon="0.37016">
        <ele>107.8</ele>
        <time>2022-06-26T06:10:37Z</time>
      </trkpt>
      <trkpt lat="46.51386" lon="0.37015">
        <ele>108.2</ele>
        <time>2022-06-26T06:10:38Z</time>
      </trkpt>
      <trkpt lat="46.51382" lon="0.37012">
        <ele>108.6</ele>
        <time>2022-06-26T06:10:40Z</time>
      </trkpt>
      <trkpt lat="46.51377" lon="0.3701">
        <ele>109.4</ele>
        <time>2022-06-26T06:10:43Z</time>
      </trkpt>
      <trkpt lat="46.51374" lon="0.37007">
        <ele>110</ele>
        <time>2022-06-26T06:10:45Z</time>
      </trkpt>
      <trkpt lat="46.51372" lon="0.37004">
        <ele>110.4</ele>
        <time>2022-06-26T06:10:47Z</time>
      </trkpt>
      <trkpt lat="46.51369" lon="0.37001">
        <ele>110.6</ele>
        <time>2022-06-26T06:10:49Z</time>
      </trkpt>
      <trkpt lat="46.51367" lon="0.36998">
        <ele>111.2</ele>
        <time>2022-06-26T06:10:51Z</time>
      </trkpt>
      <trkpt lat="46.51364" lon="0.36996">
        <ele>111.4</ele>
        <time>2022-06-26T06:10:53Z</time>
      </trkpt>
      <trkpt lat="46.51363" lon="0.36994">
        <ele>111.6</ele>
        <time>2022-06-26T06:10:54Z</time>
      </trkpt>
      <trkpt lat="46.5136" lon="0.36992">
        <ele>111.8</ele>
        <time>2022-06-26T06:10:56Z</time>
      </trkpt>
      <trkpt lat="46.51356" lon="0.3699">
        <ele>112.2</ele>
        <time>2022-06-26T06:10:58Z</time>
      </trkpt>
      <trkpt lat="46.51354" lon="0.36989">
        <ele>112.4</ele>
        <time>2022-06-26T06:10:59Z</time>
      </trkpt>
      <trkpt lat="46.51352" lon="0.36987">
        <ele>112.6</ele>
        <time>2022-06-26T06:11:00Z</time>
      </trkpt>
      <trkpt lat="46.51345" lon="0.36984">
        <ele>113.2</ele>
        <time>2022-06-26T06:11:03Z</time>
      </trkpt>
      <trkpt lat="46.51342" lon="0.36984">
        <ele>113.4</ele>
        <time>2022-06-26T06:11:05Z</time>
      </trkpt>
      <trkpt lat="46.51334" lon="0.36977">
        <ele>114.6</ele>
        <time>2022-06-26T06:11:11Z</time>
      </trkpt>
      <trkpt lat="46.51325" lon="0.36968">
        <ele>115.6</ele>
        <time>2022-06-26T06:11:18Z</time>
      </trkpt>
      <trkpt lat="46.5132" lon="0.36966">
        <ele>115.8</ele>
        <time>2022-06-26T06:11:21Z</time>
      </trkpt>
      <trkpt lat="46.51316" lon="0.36967">
        <ele>116.2</ele>
        <time>2022-06-26T06:11:23Z</time>
      </trkpt>
      <trkpt lat="46.51307" lon="0.36967">
        <ele>116.8</ele>
        <time>2022-06-26T06:11:27Z</time>
      </trkpt>
      <trkpt lat="46.51305" lon="0.36968">
        <ele>117</ele>
        <time>2022-06-26T06:11:28Z</time>
      </trkpt>
      <trkpt lat="46.51301" lon="0.36968">
        <ele>117.2</ele>
        <time>2022-06-26T06:11:30Z</time>
      </trkpt>
      <trkpt lat="46.51292" lon="0.36968">
        <ele>117.6</ele>
        <time>2022-06-26T06:11:34Z</time>
      </trkpt>
      <trkpt lat="46.51287" lon="0.3697">
        <ele>117.8</ele>
        <time>2022-06-26T06:11:36Z</time>
      </trkpt>
      <trkpt lat="46.51279" lon="0.36976">
        <ele>118.2</ele>
        <time>2022-06-26T06:11:41Z</time>
      </trkpt>
      <trkpt lat="46.51268" lon="0.36981">
        <ele>118.4</ele>
        <time>2022-06-26T06:11:47Z</time>
      </trkpt>
      <trkpt lat="46.51261" lon="0.36982">
        <ele>118.6</ele>
        <time>2022-06-26T06:11:50Z</time>
      </trkpt>
      <trkpt lat="46.51253" lon="0.36986">
        <ele>118.6</ele>
        <time>2022-06-26T06:11:53Z</time>
      </trkpt>
      <trkpt lat="46.5125" lon="0.36987">
        <ele>119</ele>
        <time>2022-06-26T06:11:54Z</time>
      </trkpt>
      <trkpt lat="46.51239" lon="0.36993">
        <ele>119.6</ele>
        <time>2022-06-26T06:11:58Z</time>
      </trkpt>
      <trkpt lat="46.51224" lon="0.37006">
        <ele>120</ele>
        <time>2022-06-26T06:12:04Z</time>
      </trkpt>
      <trkpt lat="46.51222" lon="0.37007">
        <ele>120</ele>
        <time>2022-06-26T06:12:05Z</time>
      </trkpt>
      <trkpt lat="46.51204" lon="0.37015">
        <ele>120.6</ele>
        <time>2022-06-26T06:12:11Z</time>
      </trkpt>
      <trkpt lat="46.51201" lon="0.37017">
        <ele>120.6</ele>
        <time>2022-06-26T06:12:12Z</time>
      </trkpt>
      <trkpt lat="46.51187" lon="0.37022">
        <ele>121</ele>
        <time>2022-06-26T06:12:16Z</time>
      </trkpt>
      <trkpt lat="46.51184" lon="0.37021">
        <ele>121.2</ele>
        <time>2022-06-26T06:12:17Z</time>
      </trkpt>
      <trkpt lat="46.51166" lon="0.37022">
        <ele>121.8</ele>
        <time>2022-06-26T06:12:23Z</time>
      </trkpt>
      <trkpt lat="46.51165" lon="0.37023">
        <ele>121.8</ele>
        <time>2022-06-26T06:12:24Z</time>
      </trkpt>
      <trkpt lat="46.51162" lon="0.37028">
        <ele>122.2</ele>
        <time>2022-06-26T06:12:26Z</time>
      </trkpt>
      <trkpt lat="46.51159" lon="0.37033">
        <ele>122.6</ele>
        <time>2022-06-26T06:12:28Z</time>
      </trkpt>
      <trkpt lat="46.51154" lon="0.37043">
        <ele>122.6</ele>
        <time>2022-06-26T06:12:32Z</time>
      </trkpt>
      <trkpt lat="46.51152" lon="0.37044">
        <ele>122.6</ele>
        <time>2022-06-26T06:12:33Z</time>
      </trkpt>
      <trkpt lat="46.51135" lon="0.37049">
        <ele>123</ele>
        <time>2022-06-26T06:12:39Z</time>
      </trkpt>
      <trkpt lat="46.51124" lon="0.37053">
        <ele>123.2</ele>
        <time>2022-06-26T06:12:43Z</time>
      </trkpt>
      <trkpt lat="46.51117" lon="0.37054">
        <ele>123.2</ele>
        <time>2022-06-26T06:12:46Z</time>
      </trkpt>
      <trkpt lat="46.51106" lon="0.37059">
        <ele>123.4</ele>
        <time>2022-06-26T06:12:51Z</time>
      </trkpt>
      <trkpt lat="46.51088" lon="0.37061">
        <ele>124</ele>
        <time>2022-06-26T06:12:58Z</time>
      </trkpt>
      <trkpt lat="46.51084" lon="0.37061">
        <ele>124</ele>
        <time>2022-06-26T06:13:00Z</time>
      </trkpt>
      <trkpt lat="46.51081" lon="0.37066">
        <ele>124.2</ele>
        <time>2022-06-26T06:13:02Z</time>
      </trkpt>
      <trkpt lat="46.51078" lon="0.3707">
        <ele>124.2</ele>
        <time>2022-06-26T06:13:03Z</time>
      </trkpt>
      <trkpt lat="46.51075" lon="0.3708">
        <ele>124.2</ele>
        <time>2022-06-26T06:13:05Z</time>
      </trkpt>
      <trkpt lat="46.51072" lon="0.3709">
        <ele>124.4</ele>
        <time>2022-06-26T06:13:07Z</time>
      </trkpt>
      <trkpt lat="46.51068" lon="0.37107">
        <ele>124.6</ele>
        <time>2022-06-26T06:13:10Z</time>
      </trkpt>
      <trkpt lat="46.51067" lon="0.37117">
        <ele>124.6</ele>
        <time>2022-06-26T06:13:12Z</time>
      </trkpt>
      <trkpt lat="46.51062" lon="0.37139">
        <ele>124.4</ele>
        <time>2022-06-26T06:13:16Z</time>
      </trkpt>
      <trkpt lat="46.51066" lon="0.37147">
        <ele>124.4</ele>
        <time>2022-06-26T06:13:18Z</time>
      </trkpt>
      <trkpt lat="46.5107" lon="0.37155">
        <ele>124.6</ele>
        <time>2022-06-26T06:13:20Z</time>
      </trkpt>
      <trkpt lat="46.51083" lon="0.37172">
        <ele>124.4</ele>
        <time>2022-06-26T06:13:24Z</time>
      </trkpt>
      <trkpt lat="46.51091" lon="0.37184">
        <ele>124.6</ele>
        <time>2022-06-26T06:13:27Z</time>
      </trkpt>
      <trkpt lat="46.51096" lon="0.37194">
        <ele>124.6</ele>
        <time>2022-06-26T06:13:29Z</time>
      </trkpt>
      <trkpt lat="46.51098" lon="0.372">
        <ele>124.4</ele>
        <time>2022-06-26T06:13:30Z</time>
      </trkpt>
      <trkpt lat="46.51099" lon="0.37207">
        <ele>124.4</ele>
        <time>2022-06-26T06:13:31Z</time>
      </trkpt>
      <trkpt lat="46.51105" lon="0.37238">
        <ele>124.2</ele>
        <time>2022-06-26T06:13:35Z</time>
      </trkpt>
      <trkpt lat="46.51109" lon="0.37263">
        <ele>124.2</ele>
        <time>2022-06-26T06:13:39Z</time>
      </trkpt>
      <trkpt lat="46.5111" lon="0.37276">
        <ele>124.2</ele>
        <time>2022-06-26T06:13:41Z</time>
      </trkpt>
      <trkpt lat="46.51111" lon="0.37282">
        <ele>124.2</ele>
        <time>2022-06-26T06:13:42Z</time>
      </trkpt>
      <trkpt lat="46.51114" lon="0.37296">
        <ele>124.2</ele>
        <time>2022-06-26T06:13:44Z</time>
      </trkpt>
      <trkpt lat="46.51119" lon="0.37308">
        <ele>123.8</ele>
        <time>2022-06-26T06:13:46Z</time>
      </trkpt>
      <trkpt lat="46.51133" lon="0.37349">
        <ele>123.8</ele>
        <time>2022-06-26T06:13:52Z</time>
      </trkpt>
      <trkpt lat="46.5114" lon="0.37369">
        <ele>123.2</ele>
        <time>2022-06-26T06:13:55Z</time>
      </trkpt>
      <trkpt lat="46.51145" lon="0.3739">
        <ele>122.8</ele>
        <time>2022-06-26T06:13:58Z</time>
      </trkpt>
      <trkpt lat="46.51149" lon="0.37395">
        <ele>122.8</ele>
        <time>2022-06-26T06:14:00Z</time>
      </trkpt>
      <trkpt lat="46.51154" lon="0.37397">
        <ele>122.8</ele>
        <time>2022-06-26T06:14:02Z</time>
      </trkpt>
      <trkpt lat="46.51171" lon="0.37396">
        <ele>122.8</ele>
        <time>2022-06-26T06:14:08Z</time>
      </trkpt>
      <trkpt lat="46.51187" lon="0.37391">
        <ele>122.8</ele>
        <time>2022-06-26T06:14:12Z</time>
      </trkpt>
      <trkpt lat="46.51194" lon="0.37389">
        <ele>122.8</ele>
        <time>2022-06-26T06:14:14Z</time>
      </trkpt>
      <trkpt lat="46.51209" lon="0.3739">
        <ele>122.8</ele>
        <time>2022-06-26T06:14:17Z</time>
      </trkpt>
      <trkpt lat="46.51216" lon="0.37388">
        <ele>122.4</ele>
        <time>2022-06-26T06:14:19Z</time>
      </trkpt>
      <trkpt lat="46.51221" lon="0.37387">
        <ele>122.4</ele>
        <time>2022-06-26T06:14:20Z</time>
      </trkpt>
      <trkpt lat="46.51231" lon="0.37385">
        <ele>122.2</ele>
        <time>2022-06-26T06:14:22Z</time>
      </trkpt>
      <trkpt lat="46.51248" lon="0.37379">
        <ele>121.6</ele>
        <time>2022-06-26T06:14:27Z</time>
      </trkpt>
      <trkpt lat="46.51269" lon="0.3737">
        <ele>121.2</ele>
        <time>2022-06-26T06:14:33Z</time>
      </trkpt>
      <trkpt lat="46.51288" lon="0.37361">
        <ele>120.2</ele>
        <time>2022-06-26T06:14:39Z</time>
      </trkpt>
      <trkpt lat="46.51291" lon="0.37362">
        <ele>119.8</ele>
        <time>2022-06-26T06:14:40Z</time>
      </trkpt>
      <trkpt lat="46.51293" lon="0.37363">
        <ele>119.6</ele>
        <time>2022-06-26T06:14:41Z</time>
      </trkpt>
      <trkpt lat="46.51308" lon="0.3737">
        <ele>119</ele>
        <time>2022-06-26T06:14:45Z</time>
      </trkpt>
      <trkpt lat="46.51317" lon="0.37373">
        <ele>118.6</ele>
        <time>2022-06-26T06:14:47Z</time>
      </trkpt>
      <trkpt lat="46.51328" lon="0.37374">
        <ele>118.4</ele>
        <time>2022-06-26T06:14:49Z</time>
      </trkpt>
      <trkpt lat="46.51335" lon="0.37377">
        <ele>117.8</ele>
        <time>2022-06-26T06:14:51Z</time>
      </trkpt>
      <trkpt lat="46.51338" lon="0.37379">
        <ele>117.6</ele>
        <time>2022-06-26T06:14:52Z</time>
      </trkpt>
      <trkpt lat="46.5134" lon="0.37382">
        <ele>117.4</ele>
        <time>2022-06-26T06:14:53Z</time>
      </trkpt>
      <trkpt lat="46.51347" lon="0.37386">
        <ele>116.4</ele>
        <time>2022-06-26T06:14:55Z</time>
      </trkpt>
      <trkpt lat="46.51354" lon="0.37388">
        <ele>116</ele>
        <time>2022-06-26T06:14:57Z</time>
      </trkpt>
      <trkpt lat="46.51358" lon="0.37389">
        <ele>115.8</ele>
        <time>2022-06-26T06:14:58Z</time>
      </trkpt>
      <trkpt lat="46.51363" lon="0.3739">
        <ele>115.4</ele>
        <time>2022-06-26T06:14:59Z</time>
      </trkpt>
      <trkpt lat="46.51384" lon="0.37395">
        <ele>114.4</ele>
        <time>2022-06-26T06:15:02Z</time>
      </trkpt>
      <trkpt lat="46.51395" lon="0.37396">
        <ele>113</ele>
        <time>2022-06-26T06:15:04Z</time>
      </trkpt>
      <trkpt lat="46.51407" lon="0.37399">
        <ele>111.8</ele>
        <time>2022-06-26T06:15:06Z</time>
      </trkpt>
      <trkpt lat="46.51418" lon="0.37401">
        <ele>110.2</ele>
        <time>2022-06-26T06:15:08Z</time>
      </trkpt>
      <trkpt lat="46.51428" lon="0.37401">
        <ele>108.6</ele>
        <time>2022-06-26T06:15:10Z</time>
      </trkpt>
      <trkpt lat="46.51441" lon="0.37396">
        <ele>106.8</ele>
        <time>2022-06-26T06:15:13Z</time>
      </trkpt>
      <trkpt lat="46.51452" lon="0.37387">
        <ele>105.2</ele>
        <time>2022-06-26T06:15:16Z</time>
      </trkpt>
      <trkpt lat="46.51457" lon="0.37384">
        <ele>104.8</ele>
        <time>2022-06-26T06:15:17Z</time>
      </trkpt>
      <trkpt lat="46.51461" lon="0.37381">
        <ele>104.4</ele>
        <time>2022-06-26T06:15:18Z</time>
      </trkpt>
      <trkpt lat="46.51464" lon="0.37379">
        <ele>104.2</ele>
        <time>2022-06-26T06:15:19Z</time>
      </trkpt>
      <trkpt lat="46.51466" lon="0.37379">
        <ele>102.8</ele>
        <time>2022-06-26T06:15:21Z</time>
      </trkpt>
      <trkpt lat="46.51466" lon="0.37381">
        <ele>102.6</ele>
        <time>2022-06-26T06:15:22Z</time>
      </trkpt>
      <trkpt lat="46.51471" lon="0.3739">
        <ele>102.4</ele>
        <time>2022-06-26T06:15:26Z</time>
      </trkpt>
      <trkpt lat="46.51473" lon="0.37393">
        <ele>102.8</ele>
        <time>2022-06-26T06:15:27Z</time>
      </trkpt>
      <trkpt lat="46.51474" lon="0.37394">
        <ele>103</ele>
        <time>2022-06-26T06:15:28Z</time>
      </trkpt>
      <trkpt lat="46.5148" lon="0.3739">
        <ele>103.2</ele>
        <time>2022-06-26T06:15:31Z</time>
      </trkpt>
      <trkpt lat="46.51484" lon="0.37391">
        <ele>102.2</ele>
        <time>2022-06-26T06:15:34Z</time>
      </trkpt>
      <trkpt lat="46.51486" lon="0.37393">
        <ele>101.8</ele>
        <time>2022-06-26T06:15:35Z</time>
      </trkpt>
      <trkpt lat="46.51487" lon="0.37395">
        <ele>101.8</ele>
        <time>2022-06-26T06:15:36Z</time>
      </trkpt>
      <trkpt lat="46.51489" lon="0.37401">
        <ele>102.8</ele>
        <time>2022-06-26T06:15:39Z</time>
      </trkpt>
      <trkpt lat="46.5149" lon="0.37403">
        <ele>103.4</ele>
        <time>2022-06-26T06:15:40Z</time>
      </trkpt>
      <trkpt lat="46.51491" lon="0.37405">
        <ele>103.8</ele>
        <time>2022-06-26T06:15:41Z</time>
      </trkpt>
      <trkpt lat="46.515" lon="0.37415">
        <ele>104.4</ele>
        <time>2022-06-26T06:15:46Z</time>
      </trkpt>
      <trkpt lat="46.51501" lon="0.37418">
        <ele>104.4</ele>
        <time>2022-06-26T06:15:47Z</time>
      </trkpt>
      <trkpt lat="46.51504" lon="0.3743">
        <ele>105.8</ele>
        <time>2022-06-26T06:15:52Z</time>
      </trkpt>
      <trkpt lat="46.51506" lon="0.37434">
        <ele>107</ele>
        <time>2022-06-26T06:15:54Z</time>
      </trkpt>
      <trkpt lat="46.51508" lon="0.37435">
        <ele>107.2</ele>
        <time>2022-06-26T06:15:55Z</time>
      </trkpt>
      <trkpt lat="46.51516" lon="0.37446">
        <ele>107.4</ele>
        <time>2022-06-26T06:15:59Z</time>
      </trkpt>
      <trkpt lat="46.51519" lon="0.3745">
        <ele>107.6</ele>
        <time>2022-06-26T06:16:03Z</time>
      </trkpt>
      <trkpt lat="46.51517" lon="0.37451">
        <ele>107.8</ele>
        <time>2022-06-26T06:16:04Z</time>
      </trkpt>
      <trkpt lat="46.51517" lon="0.37452">
        <ele>107.8</ele>
        <time>2022-06-26T06:16:07Z</time>
      </trkpt>
      <trkpt lat="46.51517" lon="0.37458">
        <ele>108</ele>
        <time>2022-06-26T06:16:10Z</time>
      </trkpt>
      <trkpt lat="46.51517" lon="0.3746">
        <ele>108.2</ele>
        <time>2022-06-26T06:16:11Z</time>
      </trkpt>
      <trkpt lat="46.51515" lon="0.37465">
        <ele>109.4</ele>
        <time>2022-06-26T06:16:15Z</time>
      </trkpt>
      <trkpt lat="46.51515" lon="0.37467">
        <ele>109.4</ele>
        <time>2022-06-26T06:16:16Z</time>
      </trkpt>
      <trkpt lat="46.51515" lon="0.37473">
        <ele>109.6</ele>
        <time>2022-06-26T06:16:19Z</time>
      </trkpt>
      <trkpt lat="46.51516" lon="0.37474">
        <ele>109.6</ele>
        <time>2022-06-26T06:16:20Z</time>
      </trkpt>
      <trkpt lat="46.51515" lon="0.37477">
        <ele>109.8</ele>
        <time>2022-06-26T06:16:22Z</time>
      </trkpt>
      <trkpt lat="46.51516" lon="0.37475">
        <ele>110.2</ele>
        <time>2022-06-26T06:16:25Z</time>
      </trkpt>
      <trkpt lat="46.51513" lon="0.37472">
        <ele>110.2</ele>
        <time>2022-06-26T06:16:29Z</time>
      </trkpt>
      <trkpt lat="46.51513" lon="0.3747">
        <ele>110.2</ele>
        <time>2022-06-26T06:16:30Z</time>
      </trkpt>
      <trkpt lat="46.51514" lon="0.37468">
        <ele>110</ele>
        <time>2022-06-26T06:16:31Z</time>
      </trkpt>
      <trkpt lat="46.51513" lon="0.37463">
        <ele>109.2</ele>
        <time>2022-06-26T06:16:35Z</time>
      </trkpt>
      <trkpt lat="46.51513" lon="0.37463">
        <ele>109</ele>
        <time>2022-06-26T06:16:36Z</time>
      </trkpt>
      <trkpt lat="46.51508" lon="0.37464">
        <ele>109</ele>
        <time>2022-06-26T06:16:40Z</time>
      </trkpt>
      <trkpt lat="46.51508" lon="0.37462">
        <ele>109</ele>
        <time>2022-06-26T06:16:41Z</time>
      </trkpt>
      <trkpt lat="46.51507" lon="0.37454">
        <ele>108.6</ele>
        <time>2022-06-26T06:16:45Z</time>
      </trkpt>
      <trkpt lat="46.51502" lon="0.37449">
        <ele>108.6</ele>
        <time>2022-06-26T06:16:48Z</time>
      </trkpt>
      <trkpt lat="46.515" lon="0.3745">
        <ele>108.6</ele>
        <time>2022-06-26T06:16:49Z</time>
      </trkpt>
      <trkpt lat="46.51488" lon="0.37454">
        <ele>110.4</ele>
        <time>2022-06-26T06:16:57Z</time>
      </trkpt>
      <trkpt lat="46.51487" lon="0.37454">
        <ele>110.4</ele>
        <time>2022-06-26T06:16:58Z</time>
      </trkpt>
      <trkpt lat="46.51475" lon="0.3745">
        <ele>111</ele>
        <time>2022-06-26T06:17:03Z</time>
      </trkpt>
      <trkpt lat="46.51467" lon="0.37453">
        <ele>111.8</ele>
        <time>2022-06-26T06:17:07Z</time>
      </trkpt>
      <trkpt lat="46.51461" lon="0.37455">
        <ele>112.6</ele>
        <time>2022-06-26T06:17:09Z</time>
      </trkpt>
      <trkpt lat="46.51459" lon="0.37458">
        <ele>113</ele>
        <time>2022-06-26T06:17:11Z</time>
      </trkpt>
      <trkpt lat="46.51451" lon="0.37474">
        <ele>113.4</ele>
        <time>2022-06-26T06:17:18Z</time>
      </trkpt>
      <trkpt lat="46.51445" lon="0.37485">
        <ele>114.2</ele>
        <time>2022-06-26T06:17:21Z</time>
      </trkpt>
      <trkpt lat="46.51436" lon="0.37502">
        <ele>114.4</ele>
        <time>2022-06-26T06:17:25Z</time>
      </trkpt>
      <trkpt lat="46.51428" lon="0.37513">
        <ele>114.2</ele>
        <time>2022-06-26T06:17:29Z</time>
      </trkpt>
      <trkpt lat="46.51425" lon="0.37514">
        <ele>114.4</ele>
        <time>2022-06-26T06:17:31Z</time>
      </trkpt>
      <trkpt lat="46.51417" lon="0.37515">
        <ele>114.6</ele>
        <time>2022-06-26T06:17:35Z</time>
      </trkpt>
      <trkpt lat="46.51404" lon="0.37519">
        <ele>115.2</ele>
        <time>2022-06-26T06:17:40Z</time>
      </trkpt>
      <trkpt lat="46.51402" lon="0.3752">
        <ele>115.4</ele>
        <time>2022-06-26T06:17:41Z</time>
      </trkpt>
      <trkpt lat="46.51388" lon="0.37518">
        <ele>116.2</ele>
        <time>2022-06-26T06:17:48Z</time>
      </trkpt>
      <trkpt lat="46.51386" lon="0.37516">
        <ele>116.4</ele>
        <time>2022-06-26T06:17:49Z</time>
      </trkpt>
      <trkpt lat="46.51382" lon="0.37514">
        <ele>116.8</ele>
        <time>2022-06-26T06:17:51Z</time>
      </trkpt>
      <trkpt lat="46.51371" lon="0.37515">
        <ele>117.2</ele>
        <time>2022-06-26T06:17:54Z</time>
      </trkpt>
      <trkpt lat="46.51364" lon="0.37515">
        <ele>117.4</ele>
        <time>2022-06-26T06:17:56Z</time>
      </trkpt>
      <trkpt lat="46.51349" lon="0.37512">
        <ele>118.6</ele>
        <time>2022-06-26T06:18:02Z</time>
      </trkpt>
      <trkpt lat="46.51347" lon="0.37512">
        <ele>118.6</ele>
        <time>2022-06-26T06:18:03Z</time>
      </trkpt>
      <trkpt lat="46.51339" lon="0.37517">
        <ele>118.8</ele>
        <time>2022-06-26T06:18:07Z</time>
      </trkpt>
      <trkpt lat="46.51322" lon="0.37529">
        <ele>119.2</ele>
        <time>2022-06-26T06:18:15Z</time>
      </trkpt>
      <trkpt lat="46.51317" lon="0.37532">
        <ele>119.6</ele>
        <time>2022-06-26T06:18:17Z</time>
      </trkpt>
      <trkpt lat="46.51303" lon="0.37541">
        <ele>120.4</ele>
        <time>2022-06-26T06:18:21Z</time>
      </trkpt>
      <trkpt lat="46.5129" lon="0.37554">
        <ele>120.2</ele>
        <time>2022-06-26T06:18:27Z</time>
      </trkpt>
      <trkpt lat="46.51287" lon="0.37558">
        <ele>120.2</ele>
        <time>2022-06-26T06:18:29Z</time>
      </trkpt>
      <trkpt lat="46.51274" lon="0.37571">
        <ele>120</ele>
        <time>2022-06-26T06:18:33Z</time>
      </trkpt>
      <trkpt lat="46.51253" lon="0.37582">
        <ele>120.6</ele>
        <time>2022-06-26T06:18:39Z</time>
      </trkpt>
      <trkpt lat="46.51248" lon="0.37584">
        <ele>120.8</ele>
        <time>2022-06-26T06:18:41Z</time>
      </trkpt>
      <trkpt lat="46.51235" lon="0.37592">
        <ele>120.8</ele>
        <time>2022-06-26T06:18:45Z</time>
      </trkpt>
      <trkpt lat="46.51231" lon="0.37598">
        <ele>120.8</ele>
        <time>2022-06-26T06:18:47Z</time>
      </trkpt>
      <trkpt lat="46.51226" lon="0.37605">
        <ele>120.6</ele>
        <time>2022-06-26T06:18:49Z</time>
      </trkpt>
      <trkpt lat="46.51224" lon="0.37608">
        <ele>120.6</ele>
        <time>2022-06-26T06:18:50Z</time>
      </trkpt>
      <trkpt lat="46.51216" lon="0.37617">
        <ele>120.6</ele>
        <time>2022-06-26T06:18:53Z</time>
      </trkpt>
      <trkpt lat="46.51212" lon="0.37624">
        <ele>120.6</ele>
        <time>2022-06-26T06:18:55Z</time>
      </trkpt>
      <trkpt lat="46.5121" lon="0.37628">
        <ele>120.6</ele>
        <time>2022-06-26T06:18:56Z</time>
      </trkpt>
      <trkpt lat="46.51208" lon="0.37633">
        <ele>120.6</ele>
        <time>2022-06-26T06:18:57Z</time>
      </trkpt>
      <trkpt lat="46.51198" lon="0.37654">
        <ele>119.8</ele>
        <time>2022-06-26T06:19:02Z</time>
      </trkpt>
      <trkpt lat="46.51198" lon="0.37658">
        <ele>119.8</ele>
        <time>2022-06-26T06:19:03Z</time>
      </trkpt>
      <trkpt lat="46.512" lon="0.37664">
        <ele>119.4</ele>
        <time>2022-06-26T06:19:05Z</time>
      </trkpt>
      <trkpt lat="46.51202" lon="0.37668">
        <ele>119.4</ele>
        <time>2022-06-26T06:19:06Z</time>
      </trkpt>
      <trkpt lat="46.51205" lon="0.37673">
        <ele>119.4</ele>
        <time>2022-06-26T06:19:08Z</time>
      </trkpt>
      <trkpt lat="46.51205" lon="0.37679">
        <ele>119.4</ele>
        <time>2022-06-26T06:19:10Z</time>
      </trkpt>
      <trkpt lat="46.51204" lon="0.37684">
        <ele>119.4</ele>
        <time>2022-06-26T06:19:11Z</time>
      </trkpt>
      <trkpt lat="46.51201" lon="0.37693">
        <ele>119.4</ele>
        <time>2022-06-26T06:19:13Z</time>
      </trkpt>
      <trkpt lat="46.51194" lon="0.37711">
        <ele>118.6</ele>
        <time>2022-06-26T06:19:17Z</time>
      </trkpt>
      <trkpt lat="46.51185" lon="0.37747">
        <ele>117.6</ele>
        <time>2022-06-26T06:19:24Z</time>
      </trkpt>
      <trkpt lat="46.51176" lon="0.37778">
        <ele>116</ele>
        <time>2022-06-26T06:19:28Z</time>
      </trkpt>
      <trkpt lat="46.51173" lon="0.37788">
        <ele>115.4</ele>
        <time>2022-06-26T06:19:29Z</time>
      </trkpt>
      <trkpt lat="46.51173" lon="0.37788">
        <ele>114.6</ele>
        <time>2022-06-26T06:19:30Z</time>
      </trkpt>
      <trkpt lat="46.51161" lon="0.37821">
        <ele>113.2</ele>
        <time>2022-06-26T06:19:33Z</time>
      </trkpt>
      <trkpt lat="46.51155" lon="0.37839">
        <ele>111.2</ele>
        <time>2022-06-26T06:19:35Z</time>
      </trkpt>
      <trkpt lat="46.51153" lon="0.37844">
        <ele>109.6</ele>
        <time>2022-06-26T06:19:36Z</time>
      </trkpt>
      <trkpt lat="46.51151" lon="0.37849">
        <ele>108.4</ele>
        <time>2022-06-26T06:19:37Z</time>
      </trkpt>
      <trkpt lat="46.51149" lon="0.37853">
        <ele>107.2</ele>
        <time>2022-06-26T06:19:38Z</time>
      </trkpt>
      <trkpt lat="46.51147" lon="0.37858">
        <ele>105.6</ele>
        <time>2022-06-26T06:19:39Z</time>
      </trkpt>
      <trkpt lat="46.51145" lon="0.37862">
        <ele>104</ele>
        <time>2022-06-26T06:19:40Z</time>
      </trkpt>
      <trkpt lat="46.51142" lon="0.37871">
        <ele>102.4</ele>
        <time>2022-06-26T06:19:42Z</time>
      </trkpt>
      <trkpt lat="46.5114" lon="0.37876">
        <ele>101</ele>
        <time>2022-06-26T06:19:43Z</time>
      </trkpt>
      <trkpt lat="46.51138" lon="0.37879">
        <ele>99.2</ele>
        <time>2022-06-26T06:19:44Z</time>
      </trkpt>
      <trkpt lat="46.51136" lon="0.37883">
        <ele>97.4</ele>
        <time>2022-06-26T06:19:45Z</time>
      </trkpt>
      <trkpt lat="46.51133" lon="0.37886">
        <ele>96</ele>
        <time>2022-06-26T06:19:47Z</time>
      </trkpt>
      <trkpt lat="46.5112" lon="0.37901">
        <ele>95.8</ele>
        <time>2022-06-26T06:19:52Z</time>
      </trkpt>
      <trkpt lat="46.51106" lon="0.37909">
        <ele>96.4</ele>
        <time>2022-06-26T06:19:57Z</time>
      </trkpt>
      <trkpt lat="46.51101" lon="0.37914">
        <ele>97</ele>
        <time>2022-06-26T06:20:00Z</time>
      </trkpt>
      <trkpt lat="46.51097" lon="0.37916">
        <ele>98</ele>
        <time>2022-06-26T06:20:03Z</time>
      </trkpt>
      <trkpt lat="46.51096" lon="0.37915">
        <ele>98.4</ele>
        <time>2022-06-26T06:20:04Z</time>
      </trkpt>
      <trkpt lat="46.51094" lon="0.37916">
        <ele>99</ele>
        <time>2022-06-26T06:20:06Z</time>
      </trkpt>
      <trkpt lat="46.51091" lon="0.37915">
        <ele>99.8</ele>
        <time>2022-06-26T06:20:09Z</time>
      </trkpt>
      <trkpt lat="46.51088" lon="0.37913">
        <ele>101.4</ele>
        <time>2022-06-26T06:20:11Z</time>
      </trkpt>
      <trkpt lat="46.51086" lon="0.37912">
        <ele>102</ele>
        <time>2022-06-26T06:20:12Z</time>
      </trkpt>
      <trkpt lat="46.51083" lon="0.37909">
        <ele>102.6</ele>
        <time>2022-06-26T06:20:15Z</time>
      </trkpt>
      <trkpt lat="46.51076" lon="0.37907">
        <ele>102.8</ele>
        <time>2022-06-26T06:20:18Z</time>
      </trkpt>
      <trkpt lat="46.51074" lon="0.37903">
        <ele>103.6</ele>
        <time>2022-06-26T06:20:20Z</time>
      </trkpt>
      <trkpt lat="46.51074" lon="0.37902">
        <ele>104</ele>
        <time>2022-06-26T06:20:21Z</time>
      </trkpt>
      <trkpt lat="46.51073" lon="0.37898">
        <ele>104.8</ele>
        <time>2022-06-26T06:20:25Z</time>
      </trkpt>
      <trkpt lat="46.51073" lon="0.37897">
        <ele>105</ele>
        <time>2022-06-26T06:20:26Z</time>
      </trkpt>
      <trkpt lat="46.51073" lon="0.37895">
        <ele>105</ele>
        <time>2022-06-26T06:20:27Z</time>
      </trkpt>
      <trkpt lat="46.51071" lon="0.3789">
        <ele>105.8</ele>
        <time>2022-06-26T06:20:30Z</time>
      </trkpt>
      <trkpt lat="46.51071" lon="0.37884">
        <ele>106.8</ele>
        <time>2022-06-26T06:20:34Z</time>
      </trkpt>
      <trkpt lat="46.5107" lon="0.37883">
        <ele>107</ele>
        <time>2022-06-26T06:20:35Z</time>
      </trkpt>
      <trkpt lat="46.51067" lon="0.37873">
        <ele>108.4</ele>
        <time>2022-06-26T06:20:40Z</time>
      </trkpt>
      <trkpt lat="46.51067" lon="0.37871">
        <ele>108.6</ele>
        <time>2022-06-26T06:20:41Z</time>
      </trkpt>
      <trkpt lat="46.51068" lon="0.37866">
        <ele>109</ele>
        <time>2022-06-26T06:20:43Z</time>
      </trkpt>
      <trkpt lat="46.51069" lon="0.37862">
        <ele>109.4</ele>
        <time>2022-06-26T06:20:45Z</time>
      </trkpt>
      <trkpt lat="46.5107" lon="0.37856">
        <ele>109.8</ele>
        <time>2022-06-26T06:20:48Z</time>
      </trkpt>
      <trkpt lat="46.51071" lon="0.37845">
        <ele>110.6</ele>
        <time>2022-06-26T06:20:52Z</time>
      </trkpt>
      <trkpt lat="46.5107" lon="0.37839">
        <ele>111.4</ele>
        <time>2022-06-26T06:20:55Z</time>
      </trkpt>
      <trkpt lat="46.5107" lon="0.37835">
        <ele>111.6</ele>
        <time>2022-06-26T06:20:57Z</time>
      </trkpt>
      <trkpt lat="46.5107" lon="0.37828">
        <ele>112.8</ele>
        <time>2022-06-26T06:21:01Z</time>
      </trkpt>
      <trkpt lat="46.51069" lon="0.37822">
        <ele>113.2</ele>
        <time>2022-06-26T06:21:04Z</time>
      </trkpt>
      <trkpt lat="46.51068" lon="0.37821">
        <ele>113.2</ele>
        <time>2022-06-26T06:21:05Z</time>
      </trkpt>
      <trkpt lat="46.51065" lon="0.37813">
        <ele>113.4</ele>
        <time>2022-06-26T06:21:09Z</time>
      </trkpt>
      <trkpt lat="46.51061" lon="0.37805">
        <ele>113.2</ele>
        <time>2022-06-26T06:21:13Z</time>
      </trkpt>
      <trkpt lat="46.51061" lon="0.37803">
        <ele>113.8</ele>
        <time>2022-06-26T06:21:14Z</time>
      </trkpt>
      <trkpt lat="46.51062" lon="0.37795">
        <ele>114.4</ele>
        <time>2022-06-26T06:21:20Z</time>
      </trkpt>
      <trkpt lat="46.51065" lon="0.37798">
        <ele>114.4</ele>
        <time>2022-06-26T06:21:26Z</time>
      </trkpt>
      <trkpt lat="46.51068" lon="0.378">
        <ele>114.6</ele>
        <time>2022-06-26T06:21:30Z</time>
      </trkpt>
      <trkpt lat="46.51071" lon="0.37798">
        <ele>114.6</ele>
        <time>2022-06-26T06:21:32Z</time>
      </trkpt>
      <trkpt lat="46.51075" lon="0.37794">
        <ele>114.8</ele>
        <time>2022-06-26T06:21:36Z</time>
      </trkpt>
      <trkpt lat="46.51078" lon="0.37786">
        <ele>115.8</ele>
        <time>2022-06-26T06:21:40Z</time>
      </trkpt>
      <trkpt lat="46.51078" lon="0.37782">
        <ele>116</ele>
        <time>2022-06-26T06:21:42Z</time>
      </trkpt>
      <trkpt lat="46.51075" lon="0.3777">
        <ele>116.4</ele>
        <time>2022-06-26T06:21:47Z</time>
      </trkpt>
      <trkpt lat="46.51065" lon="0.37755">
        <ele>117</ele>
        <time>2022-06-26T06:21:54Z</time>
      </trkpt>
      <trkpt lat="46.5106" lon="0.3775">
        <ele>117.6</ele>
        <time>2022-06-26T06:21:58Z</time>
      </trkpt>
      <trkpt lat="46.51059" lon="0.3775">
        <ele>117.8</ele>
        <time>2022-06-26T06:21:59Z</time>
      </trkpt>
      <trkpt lat="46.51058" lon="0.37752">
        <ele>117.8</ele>
        <time>2022-06-26T06:22:00Z</time>
      </trkpt>
      <trkpt lat="46.51051" lon="0.37762">
        <ele>116.8</ele>
        <time>2022-06-26T06:22:04Z</time>
      </trkpt>
      <trkpt lat="46.51049" lon="0.37766">
        <ele>116.6</ele>
        <time>2022-06-26T06:22:05Z</time>
      </trkpt>
      <trkpt lat="46.5104" lon="0.37781">
        <ele>115.8</ele>
        <time>2022-06-26T06:22:09Z</time>
      </trkpt>
      <trkpt lat="46.51034" lon="0.37792">
        <ele>114.8</ele>
        <time>2022-06-26T06:22:12Z</time>
      </trkpt>
      <trkpt lat="46.51032" lon="0.37797">
        <ele>114.6</ele>
        <time>2022-06-26T06:22:13Z</time>
      </trkpt>
      <trkpt lat="46.51024" lon="0.37814">
        <ele>113.8</ele>
        <time>2022-06-26T06:22:16Z</time>
      </trkpt>
      <trkpt lat="46.51018" lon="0.37826">
        <ele>112.2</ele>
        <time>2022-06-26T06:22:18Z</time>
      </trkpt>
      <trkpt lat="46.51013" lon="0.37839">
        <ele>110.8</ele>
        <time>2022-06-26T06:22:20Z</time>
      </trkpt>
      <trkpt lat="46.5101" lon="0.37847">
        <ele>109.6</ele>
        <time>2022-06-26T06:22:22Z</time>
      </trkpt>
      <trkpt lat="46.51008" lon="0.3785">
        <ele>108.8</ele>
        <time>2022-06-26T06:22:23Z</time>
      </trkpt>
      <trkpt lat="46.51006" lon="0.37854">
        <ele>108.2</ele>
        <time>2022-06-26T06:22:24Z</time>
      </trkpt>
      <trkpt lat="46.51004" lon="0.37859">
        <ele>108</ele>
        <time>2022-06-26T06:22:25Z</time>
      </trkpt>
      <trkpt lat="46.51" lon="0.37875">
        <ele>106.4</ele>
        <time>2022-06-26T06:22:28Z</time>
      </trkpt>
      <trkpt lat="46.50998" lon="0.37884">
        <ele>105</ele>
        <time>2022-06-26T06:22:30Z</time>
      </trkpt>
      <trkpt lat="46.50997" lon="0.37887">
        <ele>103.4</ele>
        <time>2022-06-26T06:22:31Z</time>
      </trkpt>
      <trkpt lat="46.50995" lon="0.37892">
        <ele>102.4</ele>
        <time>2022-06-26T06:22:32Z</time>
      </trkpt>
      <trkpt lat="46.50992" lon="0.37897">
        <ele>101.6</ele>
        <time>2022-06-26T06:22:33Z</time>
      </trkpt>
      <trkpt lat="46.50987" lon="0.37907">
        <ele>100.6</ele>
        <time>2022-06-26T06:22:35Z</time>
      </trkpt>
      <trkpt lat="46.50984" lon="0.37911">
        <ele>100.6</ele>
        <time>2022-06-26T06:22:36Z</time>
      </trkpt>
      <trkpt lat="46.50981" lon="0.37915">
        <ele>100.4</ele>
        <time>2022-06-26T06:22:37Z</time>
      </trkpt>
      <trkpt lat="46.50975" lon="0.37921">
        <ele>100.6</ele>
        <time>2022-06-26T06:22:40Z</time>
      </trkpt>
      <trkpt lat="46.50972" lon="0.37921">
        <ele>100.6</ele>
        <time>2022-06-26T06:22:41Z</time>
      </trkpt>
      <trkpt lat="46.5097" lon="0.37921">
        <ele>100.6</ele>
        <time>2022-06-26T06:22:42Z</time>
      </trkpt>
      <trkpt lat="46.50965" lon="0.37919">
        <ele>100.6</ele>
        <time>2022-06-26T06:22:45Z</time>
      </trkpt>
      <trkpt lat="46.50964" lon="0.37919">
        <ele>100.6</ele>
        <time>2022-06-26T06:22:46Z</time>
      </trkpt>
      <trkpt lat="46.50963" lon="0.37919">
        <ele>100.8</ele>
        <time>2022-06-26T06:22:48Z</time>
      </trkpt>
      <trkpt lat="46.50961" lon="0.37919">
        <ele>102</ele>
        <time>2022-06-26T06:22:50Z</time>
      </trkpt>
      <trkpt lat="46.50958" lon="0.37917">
        <ele>102.6</ele>
        <time>2022-06-26T06:22:52Z</time>
      </trkpt>
      <trkpt lat="46.50957" lon="0.37916">
        <ele>102.6</ele>
        <time>2022-06-26T06:22:53Z</time>
      </trkpt>
      <trkpt lat="46.50956" lon="0.37914">
        <ele>103</ele>
        <time>2022-06-26T06:22:54Z</time>
      </trkpt>
      <trkpt lat="46.50956" lon="0.37914">
        <ele>103.2</ele>
        <time>2022-06-26T06:22:55Z</time>
      </trkpt>
      <trkpt lat="46.50957" lon="0.37912">
        <ele>104.2</ele>
        <time>2022-06-26T06:22:57Z</time>
      </trkpt>
      <trkpt lat="46.50957" lon="0.37911">
        <ele>104.4</ele>
        <time>2022-06-26T06:22:58Z</time>
      </trkpt>
      <trkpt lat="46.50959" lon="0.37909">
        <ele>105.4</ele>
        <time>2022-06-26T06:23:01Z</time>
      </trkpt>
      <trkpt lat="46.5096" lon="0.37907">
        <ele>106.4</ele>
        <time>2022-06-26T06:23:05Z</time>
      </trkpt>
      <trkpt lat="46.50961" lon="0.37906">
        <ele>106.8</ele>
        <time>2022-06-26T06:23:06Z</time>
      </trkpt>
      <trkpt lat="46.50964" lon="0.37898">
        <ele>107.6</ele>
        <time>2022-06-26T06:23:12Z</time>
      </trkpt>
      <trkpt lat="46.50965" lon="0.37893">
        <ele>108</ele>
        <time>2022-06-26T06:23:15Z</time>
      </trkpt>
      <trkpt lat="46.50967" lon="0.37887">
        <ele>108.8</ele>
        <time>2022-06-26T06:23:18Z</time>
      </trkpt>
      <trkpt lat="46.5097" lon="0.37876">
        <ele>109.6</ele>
        <time>2022-06-26T06:23:23Z</time>
      </trkpt>
      <trkpt lat="46.50971" lon="0.37872">
        <ele>110</ele>
        <time>2022-06-26T06:23:26Z</time>
      </trkpt>
      <trkpt lat="46.50974" lon="0.37866">
        <ele>111.2</ele>
        <time>2022-06-26T06:23:30Z</time>
      </trkpt>
      <trkpt lat="46.50981" lon="0.37851">
        <ele>112</ele>
        <time>2022-06-26T06:23:36Z</time>
      </trkpt>
      <trkpt lat="46.50983" lon="0.37847">
        <ele>112.4</ele>
        <time>2022-06-26T06:23:38Z</time>
      </trkpt>
      <trkpt lat="46.50985" lon="0.37841">
        <ele>113.4</ele>
        <time>2022-06-26T06:23:41Z</time>
      </trkpt>
      <trkpt lat="46.50986" lon="0.3784">
        <ele>113.6</ele>
        <time>2022-06-26T06:23:42Z</time>
      </trkpt>
      <trkpt lat="46.50987" lon="0.37832">
        <ele>114.4</ele>
        <time>2022-06-26T06:23:46Z</time>
      </trkpt>
      <trkpt lat="46.5099" lon="0.37825">
        <ele>115</ele>
        <time>2022-06-26T06:23:49Z</time>
      </trkpt>
      <trkpt lat="46.50996" lon="0.37811">
        <ele>115.6</ele>
        <time>2022-06-26T06:23:55Z</time>
      </trkpt>
      <trkpt lat="46.51" lon="0.37804">
        <ele>115.8</ele>
        <time>2022-06-26T06:23:58Z</time>
      </trkpt>
      <trkpt lat="46.51006" lon="0.3779">
        <ele>116.6</ele>
        <time>2022-06-26T06:24:04Z</time>
      </trkpt>
      <trkpt lat="46.51007" lon="0.37786">
        <ele>116.8</ele>
        <time>2022-06-26T06:24:06Z</time>
      </trkpt>
      <trkpt lat="46.51007" lon="0.37785">
        <ele>116.8</ele>
        <time>2022-06-26T06:24:07Z</time>
      </trkpt>
      <trkpt lat="46.51004" lon="0.37779">
        <ele>117.4</ele>
        <time>2022-06-26T06:24:12Z</time>
      </trkpt>
      <trkpt lat="46.51003" lon="0.37775">
        <ele>117.4</ele>
        <time>2022-06-26T06:24:14Z</time>
      </trkpt>
      <trkpt lat="46.51002" lon="0.3777">
        <ele>117.6</ele>
        <time>2022-06-26T06:24:16Z</time>
      </trkpt>
      <trkpt lat="46.51001" lon="0.37768">
        <ele>117.8</ele>
        <time>2022-06-26T06:24:17Z</time>
      </trkpt>
      <trkpt lat="46.51001" lon="0.37757">
        <ele>118</ele>
        <time>2022-06-26T06:24:21Z</time>
      </trkpt>
      <trkpt lat="46.51" lon="0.37755">
        <ele>118</ele>
        <time>2022-06-26T06:24:22Z</time>
      </trkpt>
      <trkpt lat="46.51" lon="0.37751">
        <ele>118.2</ele>
        <time>2022-06-26T06:24:24Z</time>
      </trkpt>
      <trkpt lat="46.51001" lon="0.37737">
        <ele>118</ele>
        <time>2022-06-26T06:24:29Z</time>
      </trkpt>
      <trkpt lat="46.51005" lon="0.3772">
        <ele>118.8</ele>
        <time>2022-06-26T06:24:35Z</time>
      </trkpt>
      <trkpt lat="46.51008" lon="0.37711">
        <ele>119</ele>
        <time>2022-06-26T06:24:41Z</time>
      </trkpt>
      <trkpt lat="46.51017" lon="0.37702">
        <ele>119.2</ele>
        <time>2022-06-26T06:24:47Z</time>
      </trkpt>
      <trkpt lat="46.51017" lon="0.37689">
        <ele>119.2</ele>
        <time>2022-06-26T06:24:50Z</time>
      </trkpt>
      <trkpt lat="46.51017" lon="0.37684">
        <ele>119.2</ele>
        <time>2022-06-26T06:24:51Z</time>
      </trkpt>
      <trkpt lat="46.5102" lon="0.37667">
        <ele>119.8</ele>
        <time>2022-06-26T06:24:55Z</time>
      </trkpt>
      <trkpt lat="46.51022" lon="0.37664">
        <ele>120</ele>
        <time>2022-06-26T06:24:56Z</time>
      </trkpt>
      <trkpt lat="46.51029" lon="0.37631">
        <ele>120.6</ele>
        <time>2022-06-26T06:25:04Z</time>
      </trkpt>
      <trkpt lat="46.51031" lon="0.37623">
        <ele>120.8</ele>
        <time>2022-06-26T06:25:06Z</time>
      </trkpt>
      <trkpt lat="46.5103" lon="0.37617">
        <ele>121</ele>
        <time>2022-06-26T06:25:09Z</time>
      </trkpt>
      <trkpt lat="46.51026" lon="0.3761">
        <ele>121.2</ele>
        <time>2022-06-26T06:25:14Z</time>
      </trkpt>
      <trkpt lat="46.51023" lon="0.37605">
        <ele>121.4</ele>
        <time>2022-06-26T06:25:16Z</time>
      </trkpt>
      <trkpt lat="46.51013" lon="0.37597">
        <ele>121.6</ele>
        <time>2022-06-26T06:25:20Z</time>
      </trkpt>
      <trkpt lat="46.51008" lon="0.37597">
        <ele>121.4</ele>
        <time>2022-06-26T06:25:22Z</time>
      </trkpt>
      <trkpt lat="46.50991" lon="0.37605">
        <ele>120.4</ele>
        <time>2022-06-26T06:25:28Z</time>
      </trkpt>
      <trkpt lat="46.50974" lon="0.37615">
        <ele>119.6</ele>
        <time>2022-06-26T06:25:32Z</time>
      </trkpt>
      <trkpt lat="46.5097" lon="0.37616">
        <ele>119.4</ele>
        <time>2022-06-26T06:25:33Z</time>
      </trkpt>
      <trkpt lat="46.50957" lon="0.37622">
        <ele>118.6</ele>
        <time>2022-06-26T06:25:35Z</time>
      </trkpt>
      <trkpt lat="46.50954" lon="0.37624">
        <ele>118.2</ele>
        <time>2022-06-26T06:25:36Z</time>
      </trkpt>
      <trkpt lat="46.5095" lon="0.37628">
        <ele>117.8</ele>
        <time>2022-06-26T06:25:37Z</time>
      </trkpt>
      <trkpt lat="46.50947" lon="0.3763">
        <ele>117.6</ele>
        <time>2022-06-26T06:25:38Z</time>
      </trkpt>
      <trkpt lat="46.50942" lon="0.37636">
        <ele>117</ele>
        <time>2022-06-26T06:25:40Z</time>
      </trkpt>
      <trkpt lat="46.5093" lon="0.37648">
        <ele>116</ele>
        <time>2022-06-26T06:25:42Z</time>
      </trkpt>
      <trkpt lat="46.50926" lon="0.37653">
        <ele>115.8</ele>
        <time>2022-06-26T06:25:43Z</time>
      </trkpt>
      <trkpt lat="46.50918" lon="0.37665">
        <ele>115</ele>
        <time>2022-06-26T06:25:45Z</time>
      </trkpt>
      <trkpt lat="46.50908" lon="0.37681">
        <ele>113</ele>
        <time>2022-06-26T06:25:48Z</time>
      </trkpt>
      <trkpt lat="46.50905" lon="0.37684">
        <ele>112</ele>
        <time>2022-06-26T06:25:49Z</time>
      </trkpt>
      <trkpt lat="46.50903" lon="0.37687">
        <ele>111</ele>
        <time>2022-06-26T06:25:50Z</time>
      </trkpt>
      <trkpt lat="46.509" lon="0.37689">
        <ele>110.4</ele>
        <time>2022-06-26T06:25:51Z</time>
      </trkpt>
      <trkpt lat="46.50895" lon="0.37693">
        <ele>110</ele>
        <time>2022-06-26T06:25:52Z</time>
      </trkpt>
      <trkpt lat="46.50893" lon="0.37693">
        <ele>109.6</ele>
        <time>2022-06-26T06:25:53Z</time>
      </trkpt>
      <trkpt lat="46.50888" lon="0.37693">
        <ele>109.2</ele>
        <time>2022-06-26T06:25:55Z</time>
      </trkpt>
      <trkpt lat="46.50886" lon="0.37693">
        <ele>109</ele>
        <time>2022-06-26T06:25:56Z</time>
      </trkpt>
      <trkpt lat="46.50878" lon="0.37689">
        <ele>108.2</ele>
        <time>2022-06-26T06:25:59Z</time>
      </trkpt>
      <trkpt lat="46.50873" lon="0.37686">
        <ele>107.8</ele>
        <time>2022-06-26T06:26:01Z</time>
      </trkpt>
      <trkpt lat="46.5087" lon="0.37684">
        <ele>107.4</ele>
        <time>2022-06-26T06:26:02Z</time>
      </trkpt>
      <trkpt lat="46.50864" lon="0.3768">
        <ele>107.2</ele>
        <time>2022-06-26T06:26:04Z</time>
      </trkpt>
      <trkpt lat="46.50862" lon="0.37679">
        <ele>106.6</ele>
        <time>2022-06-26T06:26:05Z</time>
      </trkpt>
      <trkpt lat="46.50855" lon="0.37678">
        <ele>106.2</ele>
        <time>2022-06-26T06:26:07Z</time>
      </trkpt>
      <trkpt lat="46.50853" lon="0.3768">
        <ele>106</ele>
        <time>2022-06-26T06:26:08Z</time>
      </trkpt>
      <trkpt lat="46.50849" lon="0.37681">
        <ele>105.8</ele>
        <time>2022-06-26T06:26:09Z</time>
      </trkpt>
      <trkpt lat="46.50834" lon="0.3769">
        <ele>105.2</ele>
        <time>2022-06-26T06:26:12Z</time>
      </trkpt>
      <trkpt lat="46.50812" lon="0.3771">
        <ele>106</ele>
        <time>2022-06-26T06:26:18Z</time>
      </trkpt>
      <trkpt lat="46.50809" lon="0.37714">
        <ele>106.2</ele>
        <time>2022-06-26T06:26:19Z</time>
      </trkpt>
      <trkpt lat="46.50807" lon="0.37717">
        <ele>106.2</ele>
        <time>2022-06-26T06:26:20Z</time>
      </trkpt>
      <trkpt lat="46.50803" lon="0.3772">
        <ele>106.4</ele>
        <time>2022-06-26T06:26:22Z</time>
      </trkpt>
      <trkpt lat="46.50801" lon="0.3772">
        <ele>106.4</ele>
        <time>2022-06-26T06:26:23Z</time>
      </trkpt>
      <trkpt lat="46.50798" lon="0.37719">
        <ele>106.6</ele>
        <time>2022-06-26T06:26:25Z</time>
      </trkpt>
      <trkpt lat="46.50796" lon="0.37714">
        <ele>106.8</ele>
        <time>2022-06-26T06:26:28Z</time>
      </trkpt>
      <trkpt lat="46.50796" lon="0.37709">
        <ele>107</ele>
        <time>2022-06-26T06:26:30Z</time>
      </trkpt>
      <trkpt lat="46.508" lon="0.37693">
        <ele>107.4</ele>
        <time>2022-06-26T06:26:35Z</time>
      </trkpt>
      <trkpt lat="46.50808" lon="0.37665">
        <ele>107.2</ele>
        <time>2022-06-26T06:26:40Z</time>
      </trkpt>
      <trkpt lat="46.50819" lon="0.3763">
        <ele>106.2</ele>
        <time>2022-06-26T06:26:45Z</time>
      </trkpt>
      <trkpt lat="46.50822" lon="0.37624">
        <ele>106.6</ele>
        <time>2022-06-26T06:26:46Z</time>
      </trkpt>
      <trkpt lat="46.50829" lon="0.37597">
        <ele>108.2</ele>
        <time>2022-06-26T06:26:51Z</time>
      </trkpt>
      <trkpt lat="46.50833" lon="0.37583">
        <ele>109.6</ele>
        <time>2022-06-26T06:26:54Z</time>
      </trkpt>
      <trkpt lat="46.50833" lon="0.37577">
        <ele>110</ele>
        <time>2022-06-26T06:26:56Z</time>
      </trkpt>
      <trkpt lat="46.50833" lon="0.37568">
        <ele>110.6</ele>
        <time>2022-06-26T06:26:59Z</time>
      </trkpt>
      <trkpt lat="46.50833" lon="0.37559">
        <ele>111.8</ele>
        <time>2022-06-26T06:27:02Z</time>
      </trkpt>
      <trkpt lat="46.50833" lon="0.37555">
        <ele>112.2</ele>
        <time>2022-06-26T06:27:03Z</time>
      </trkpt>
      <trkpt lat="46.50835" lon="0.37546">
        <ele>113</ele>
        <time>2022-06-26T06:27:06Z</time>
      </trkpt>
      <trkpt lat="46.50838" lon="0.37538">
        <ele>114.2</ele>
        <time>2022-06-26T06:27:10Z</time>
      </trkpt>
      <trkpt lat="46.50838" lon="0.37535">
        <ele>114.4</ele>
        <time>2022-06-26T06:27:11Z</time>
      </trkpt>
      <trkpt lat="46.50838" lon="0.37528">
        <ele>115</ele>
        <time>2022-06-26T06:27:14Z</time>
      </trkpt>
      <trkpt lat="46.50837" lon="0.37525">
        <ele>115</ele>
        <time>2022-06-26T06:27:15Z</time>
      </trkpt>
      <trkpt lat="46.50836" lon="0.37523">
        <ele>115.2</ele>
        <time>2022-06-26T06:27:16Z</time>
      </trkpt>
      <trkpt lat="46.50836" lon="0.37521">
        <ele>115.4</ele>
        <time>2022-06-26T06:27:17Z</time>
      </trkpt>
      <trkpt lat="46.50837" lon="0.37515">
        <ele>115.4</ele>
        <time>2022-06-26T06:27:20Z</time>
      </trkpt>
      <trkpt lat="46.50836" lon="0.37513">
        <ele>115.6</ele>
        <time>2022-06-26T06:27:21Z</time>
      </trkpt>
      <trkpt lat="46.50833" lon="0.37505">
        <ele>116</ele>
        <time>2022-06-26T06:27:25Z</time>
      </trkpt>
      <trkpt lat="46.50835" lon="0.37494">
        <ele>116.6</ele>
        <time>2022-06-26T06:27:29Z</time>
      </trkpt>
      <trkpt lat="46.50835" lon="0.37489">
        <ele>116.8</ele>
        <time>2022-06-26T06:27:31Z</time>
      </trkpt>
      <trkpt lat="46.50832" lon="0.37485">
        <ele>117</ele>
        <time>2022-06-26T06:27:33Z</time>
      </trkpt>
      <trkpt lat="46.50829" lon="0.37479">
        <ele>117.2</ele>
        <time>2022-06-26T06:27:36Z</time>
      </trkpt>
      <trkpt lat="46.50814" lon="0.37461">
        <ele>117</ele>
        <time>2022-06-26T06:27:43Z</time>
      </trkpt>
      <trkpt lat="46.50795" lon="0.37441">
        <ele>116.4</ele>
        <time>2022-06-26T06:27:49Z</time>
      </trkpt>
      <trkpt lat="46.50792" lon="0.37438">
        <ele>116</ele>
        <time>2022-06-26T06:27:50Z</time>
      </trkpt>
      <trkpt lat="46.50781" lon="0.37431">
        <ele>115.8</ele>
        <time>2022-06-26T06:27:52Z</time>
      </trkpt>
      <trkpt lat="46.50771" lon="0.37425">
        <ele>115.6</ele>
        <time>2022-06-26T06:27:54Z</time>
      </trkpt>
      <trkpt lat="46.50765" lon="0.37419">
        <ele>115.6</ele>
        <time>2022-06-26T06:27:55Z</time>
      </trkpt>
      <trkpt lat="46.50754" lon="0.3741">
        <ele>114.4</ele>
        <time>2022-06-26T06:27:57Z</time>
      </trkpt>
      <trkpt lat="46.50742" lon="0.37401">
        <ele>113.8</ele>
        <time>2022-06-26T06:27:59Z</time>
      </trkpt>
      <trkpt lat="46.50737" lon="0.37396">
        <ele>113.2</ele>
        <time>2022-06-26T06:28:00Z</time>
      </trkpt>
      <trkpt lat="46.50721" lon="0.37384">
        <ele>112</ele>
        <time>2022-06-26T06:28:03Z</time>
      </trkpt>
      <trkpt lat="46.50713" lon="0.3738">
        <ele>111.6</ele>
        <time>2022-06-26T06:28:04Z</time>
      </trkpt>
      <trkpt lat="46.50707" lon="0.37376">
        <ele>111.2</ele>
        <time>2022-06-26T06:28:05Z</time>
      </trkpt>
      <trkpt lat="46.50696" lon="0.37371">
        <ele>111</ele>
        <time>2022-06-26T06:28:06Z</time>
      </trkpt>
      <trkpt lat="46.50691" lon="0.37363">
        <ele>110.6</ele>
        <time>2022-06-26T06:28:09Z</time>
      </trkpt>
      <trkpt lat="46.50691" lon="0.3736">
        <ele>110.6</ele>
        <time>2022-06-26T06:28:10Z</time>
      </trkpt>
      <trkpt lat="46.50693" lon="0.37356">
        <ele>110.8</ele>
        <time>2022-06-26T06:28:12Z</time>
      </trkpt>
      <trkpt lat="46.50695" lon="0.37356">
        <ele>110.8</ele>
        <time>2022-06-26T06:28:13Z</time>
      </trkpt>
      <trkpt lat="46.50702" lon="0.37353">
        <ele>112.2</ele>
        <time>2022-06-26T06:28:18Z</time>
      </trkpt>
      <trkpt lat="46.50703" lon="0.37352">
        <ele>112.6</ele>
        <time>2022-06-26T06:28:19Z</time>
      </trkpt>
      <trkpt lat="46.50709" lon="0.37348">
        <ele>113.4</ele>
        <time>2022-06-26T06:28:24Z</time>
      </trkpt>
      <trkpt lat="46.5071" lon="0.37347">
        <ele>113.6</ele>
        <time>2022-06-26T06:28:25Z</time>
      </trkpt>
      <trkpt lat="46.5071" lon="0.37345">
        <ele>113.8</ele>
        <time>2022-06-26T06:28:26Z</time>
      </trkpt>
      <trkpt lat="46.50714" lon="0.37326">
        <ele>114.4</ele>
        <time>2022-06-26T06:28:33Z</time>
      </trkpt>
      <trkpt lat="46.50714" lon="0.37323">
        <ele>114.8</ele>
        <time>2022-06-26T06:28:34Z</time>
      </trkpt>
      <trkpt lat="46.50717" lon="0.37312">
        <ele>115.4</ele>
        <time>2022-06-26T06:28:38Z</time>
      </trkpt>
      <trkpt lat="46.50716" lon="0.37306">
        <ele>115.8</ele>
        <time>2022-06-26T06:28:40Z</time>
      </trkpt>
      <trkpt lat="46.50711" lon="0.37301">
        <ele>115.8</ele>
        <time>2022-06-26T06:28:43Z</time>
      </trkpt>
      <trkpt lat="46.50711" lon="0.37298">
        <ele>115.6</ele>
        <time>2022-06-26T06:28:45Z</time>
      </trkpt>
      <trkpt lat="46.50712" lon="0.37296">
        <ele>115.6</ele>
        <time>2022-06-26T06:28:46Z</time>
      </trkpt>
      <trkpt lat="46.50714" lon="0.3729">
        <ele>115.8</ele>
        <time>2022-06-26T06:28:49Z</time>
      </trkpt>
      <trkpt lat="46.50717" lon="0.37275">
        <ele>116.4</ele>
        <time>2022-06-26T06:28:55Z</time>
      </trkpt>
      <trkpt lat="46.50718" lon="0.37273">
        <ele>116.6</ele>
        <time>2022-06-26T06:28:56Z</time>
      </trkpt>
      <trkpt lat="46.50719" lon="0.37268">
        <ele>117.6</ele>
        <time>2022-06-26T06:28:59Z</time>
      </trkpt>
      <trkpt lat="46.50718" lon="0.3726">
        <ele>118.4</ele>
        <time>2022-06-26T06:29:03Z</time>
      </trkpt>
      <trkpt lat="46.50719" lon="0.3725">
        <ele>118.8</ele>
        <time>2022-06-26T06:29:07Z</time>
      </trkpt>
      <trkpt lat="46.50718" lon="0.37244">
        <ele>119</ele>
        <time>2022-06-26T06:29:10Z</time>
      </trkpt>
      <trkpt lat="46.50717" lon="0.3724">
        <ele>119</ele>
        <time>2022-06-26T06:29:12Z</time>
      </trkpt>
      <trkpt lat="46.50714" lon="0.37237">
        <ele>119</ele>
        <time>2022-06-26T06:29:14Z</time>
      </trkpt>
      <trkpt lat="46.50709" lon="0.37227">
        <ele>119</ele>
        <time>2022-06-26T06:29:19Z</time>
      </trkpt>
      <trkpt lat="46.50705" lon="0.37227">
        <ele>119</ele>
        <time>2022-06-26T06:29:20Z</time>
      </trkpt>
      <trkpt lat="46.50699" lon="0.37233">
        <ele>118.4</ele>
        <time>2022-06-26T06:29:23Z</time>
      </trkpt>
      <trkpt lat="46.50694" lon="0.37244">
        <ele>117.8</ele>
        <time>2022-06-26T06:29:26Z</time>
      </trkpt>
      <trkpt lat="46.50692" lon="0.37247">
        <ele>117.6</ele>
        <time>2022-06-26T06:29:27Z</time>
      </trkpt>
      <trkpt lat="46.5069" lon="0.3725">
        <ele>117.4</ele>
        <time>2022-06-26T06:29:28Z</time>
      </trkpt>
      <trkpt lat="46.50688" lon="0.37252">
        <ele>117</ele>
        <time>2022-06-26T06:29:29Z</time>
      </trkpt>
      <trkpt lat="46.50685" lon="0.37252">
        <ele>116.8</ele>
        <time>2022-06-26T06:29:30Z</time>
      </trkpt>
      <trkpt lat="46.5068" lon="0.37251">
        <ele>116</ele>
        <time>2022-06-26T06:29:32Z</time>
      </trkpt>
      <trkpt lat="46.50679" lon="0.37249">
        <ele>115.6</ele>
        <time>2022-06-26T06:29:33Z</time>
      </trkpt>
      <trkpt lat="46.50677" lon="0.37242">
        <ele>115.4</ele>
        <time>2022-06-26T06:29:37Z</time>
      </trkpt>
      <trkpt lat="46.50669" lon="0.37225">
        <ele>116.4</ele>
        <time>2022-06-26T06:29:44Z</time>
      </trkpt>
      <trkpt lat="46.50667" lon="0.37221">
        <ele>116.8</ele>
        <time>2022-06-26T06:29:46Z</time>
      </trkpt>
      <trkpt lat="46.50664" lon="0.37211">
        <ele>117.8</ele>
        <time>2022-06-26T06:29:52Z</time>
      </trkpt>
      <trkpt lat="46.50663" lon="0.37209">
        <ele>117.8</ele>
        <time>2022-06-26T06:29:53Z</time>
      </trkpt>
      <trkpt lat="46.5066" lon="0.37204">
        <ele>118.2</ele>
        <time>2022-06-26T06:29:57Z</time>
      </trkpt>
      <trkpt lat="46.50658" lon="0.37202">
        <ele>118.2</ele>
        <time>2022-06-26T06:29:59Z</time>
      </trkpt>
      <trkpt lat="46.50649" lon="0.37198">
        <ele>118</ele>
        <time>2022-06-26T06:30:04Z</time>
      </trkpt>
      <trkpt lat="46.50645" lon="0.37202">
        <ele>117.4</ele>
        <time>2022-06-26T06:30:07Z</time>
      </trkpt>
      <trkpt lat="46.50641" lon="0.37209">
        <ele>116.6</ele>
        <time>2022-06-26T06:30:10Z</time>
      </trkpt>
      <trkpt lat="46.50637" lon="0.37212">
        <ele>115</ele>
        <time>2022-06-26T06:30:12Z</time>
      </trkpt>
      <trkpt lat="46.50637" lon="0.37212">
        <ele>114.4</ele>
        <time>2022-06-26T06:30:13Z</time>
      </trkpt>
      <trkpt lat="46.50637" lon="0.37214">
        <ele>114.2</ele>
        <time>2022-06-26T06:30:14Z</time>
      </trkpt>
      <trkpt lat="46.50635" lon="0.37217">
        <ele>113.8</ele>
        <time>2022-06-26T06:30:16Z</time>
      </trkpt>
      <trkpt lat="46.50635" lon="0.37217">
        <ele>113.6</ele>
        <time>2022-06-26T06:30:17Z</time>
      </trkpt>
      <trkpt lat="46.50637" lon="0.37218">
        <ele>113.2</ele>
        <time>2022-06-26T06:30:20Z</time>
      </trkpt>
      <trkpt lat="46.50636" lon="0.37223">
        <ele>113.2</ele>
        <time>2022-06-26T06:30:23Z</time>
      </trkpt>
      <trkpt lat="46.50634" lon="0.37229">
        <ele>113</ele>
        <time>2022-06-26T06:30:25Z</time>
      </trkpt>
      <trkpt lat="46.50629" lon="0.37253">
        <ele>113.6</ele>
        <time>2022-06-26T06:30:31Z</time>
      </trkpt>
      <trkpt lat="46.50626" lon="0.37262">
        <ele>114</ele>
        <time>2022-06-26T06:30:34Z</time>
      </trkpt>
      <trkpt lat="46.50625" lon="0.37271">
        <ele>114.2</ele>
        <time>2022-06-26T06:30:37Z</time>
      </trkpt>
      <trkpt lat="46.50626" lon="0.3729">
        <ele>114.4</ele>
        <time>2022-06-26T06:30:42Z</time>
      </trkpt>
      <trkpt lat="46.50625" lon="0.37293">
        <ele>114.4</ele>
        <time>2022-06-26T06:30:43Z</time>
      </trkpt>
      <trkpt lat="46.50622" lon="0.37301">
        <ele>114.8</ele>
        <time>2022-06-26T06:30:44Z</time>
      </trkpt>
      <trkpt lat="46.50618" lon="0.37314">
        <ele>115.2</ele>
        <time>2022-06-26T06:30:49Z</time>
      </trkpt>
      <trkpt lat="46.50617" lon="0.37317">
        <ele>115.2</ele>
        <time>2022-06-26T06:30:50Z</time>
      </trkpt>
      <trkpt lat="46.50613" lon="0.37335">
        <ele>116</ele>
        <time>2022-06-26T06:30:54Z</time>
      </trkpt>
      <trkpt lat="46.50612" lon="0.37341">
        <ele>116.4</ele>
        <time>2022-06-26T06:30:55Z</time>
      </trkpt>
      <trkpt lat="46.50609" lon="0.3735">
        <ele>117.2</ele>
        <time>2022-06-26T06:30:57Z</time>
      </trkpt>
      <trkpt lat="46.50605" lon="0.37362">
        <ele>118.6</ele>
        <time>2022-06-26T06:31:00Z</time>
      </trkpt>
      <trkpt lat="46.50602" lon="0.37372">
        <ele>119.4</ele>
        <time>2022-06-26T06:31:02Z</time>
      </trkpt>
      <trkpt lat="46.506" lon="0.37376">
        <ele>119.4</ele>
        <time>2022-06-26T06:31:03Z</time>
      </trkpt>
      <trkpt lat="46.50593" lon="0.37392">
        <ele>119.6</ele>
        <time>2022-06-26T06:31:06Z</time>
      </trkpt>
      <trkpt lat="46.50589" lon="0.37404">
        <ele>119.8</ele>
        <time>2022-06-26T06:31:08Z</time>
      </trkpt>
      <trkpt lat="46.50577" lon="0.37438">
        <ele>119.8</ele>
        <time>2022-06-26T06:31:14Z</time>
      </trkpt>
      <trkpt lat="46.50575" lon="0.37445">
        <ele>119.8</ele>
        <time>2022-06-26T06:31:15Z</time>
      </trkpt>
      <trkpt lat="46.50573" lon="0.37453">
        <ele>119.8</ele>
        <time>2022-06-26T06:31:16Z</time>
      </trkpt>
      <trkpt lat="46.50568" lon="0.37468">
        <ele>119.6</ele>
        <time>2022-06-26T06:31:18Z</time>
      </trkpt>
      <trkpt lat="46.50564" lon="0.37483">
        <ele>119.4</ele>
        <time>2022-06-26T06:31:20Z</time>
      </trkpt>
      <trkpt lat="46.50554" lon="0.37523">
        <ele>118.4</ele>
        <time>2022-06-26T06:31:25Z</time>
      </trkpt>
      <trkpt lat="46.5055" lon="0.37536">
        <ele>117.8</ele>
        <time>2022-06-26T06:31:27Z</time>
      </trkpt>
      <trkpt lat="46.50548" lon="0.37543">
        <ele>117.4</ele>
        <time>2022-06-26T06:31:28Z</time>
      </trkpt>
      <trkpt lat="46.50546" lon="0.37549">
        <ele>116.4</ele>
        <time>2022-06-26T06:31:29Z</time>
      </trkpt>
      <trkpt lat="46.50543" lon="0.37561">
        <ele>114.8</ele>
        <time>2022-06-26T06:31:31Z</time>
      </trkpt>
      <trkpt lat="46.5054" lon="0.37567">
        <ele>113.6</ele>
        <time>2022-06-26T06:31:32Z</time>
      </trkpt>
      <trkpt lat="46.50538" lon="0.37571">
        <ele>112.2</ele>
        <time>2022-06-26T06:31:33Z</time>
      </trkpt>
      <trkpt lat="46.50532" lon="0.37578">
        <ele>111</ele>
        <time>2022-06-26T06:31:35Z</time>
      </trkpt>
      <trkpt lat="46.50528" lon="0.3758">
        <ele>110.8</ele>
        <time>2022-06-26T06:31:37Z</time>
      </trkpt>
      <trkpt lat="46.50526" lon="0.37581">
        <ele>111</ele>
        <time>2022-06-26T06:31:38Z</time>
      </trkpt>
      <trkpt lat="46.50524" lon="0.37581">
        <ele>111</ele>
        <time>2022-06-26T06:31:39Z</time>
      </trkpt>
      <trkpt lat="46.50519" lon="0.37585">
        <ele>111.2</ele>
        <time>2022-06-26T06:31:41Z</time>
      </trkpt>
      <trkpt lat="46.50513" lon="0.37586">
        <ele>111.6</ele>
        <time>2022-06-26T06:31:44Z</time>
      </trkpt>
      <trkpt lat="46.5051" lon="0.37586">
        <ele>111.8</ele>
        <time>2022-06-26T06:31:45Z</time>
      </trkpt>
      <trkpt lat="46.50507" lon="0.37587">
        <ele>111.8</ele>
        <time>2022-06-26T06:31:46Z</time>
      </trkpt>
      <trkpt lat="46.505" lon="0.37588">
        <ele>112.2</ele>
        <time>2022-06-26T06:31:48Z</time>
      </trkpt>
      <trkpt lat="46.50487" lon="0.3759">
        <ele>112.4</ele>
        <time>2022-06-26T06:31:51Z</time>
      </trkpt>
      <trkpt lat="46.50474" lon="0.37587">
        <ele>113</ele>
        <time>2022-06-26T06:31:55Z</time>
      </trkpt>
      <trkpt lat="46.50464" lon="0.37589">
        <ele>113.4</ele>
        <time>2022-06-26T06:31:57Z</time>
      </trkpt>
      <trkpt lat="46.50458" lon="0.37586">
        <ele>114</ele>
        <time>2022-06-26T06:31:59Z</time>
      </trkpt>
      <trkpt lat="46.50443" lon="0.37578">
        <ele>114.8</ele>
        <time>2022-06-26T06:32:04Z</time>
      </trkpt>
      <trkpt lat="46.5044" lon="0.37574">
        <ele>114.8</ele>
        <time>2022-06-26T06:32:05Z</time>
      </trkpt>
      <trkpt lat="46.50437" lon="0.3757">
        <ele>115</ele>
        <time>2022-06-26T06:32:06Z</time>
      </trkpt>
      <trkpt lat="46.50428" lon="0.37554">
        <ele>115.6</ele>
        <time>2022-06-26T06:32:10Z</time>
      </trkpt>
      <trkpt lat="46.50427" lon="0.37551">
        <ele>115.8</ele>
        <time>2022-06-26T06:32:11Z</time>
      </trkpt>
      <trkpt lat="46.50426" lon="0.3754">
        <ele>116.8</ele>
        <time>2022-06-26T06:32:15Z</time>
      </trkpt>
      <trkpt lat="46.50426" lon="0.37533">
        <ele>117.2</ele>
        <time>2022-06-26T06:32:17Z</time>
      </trkpt>
      <trkpt lat="46.50427" lon="0.37521">
        <ele>118</ele>
        <time>2022-06-26T06:32:21Z</time>
      </trkpt>
      <trkpt lat="46.50427" lon="0.37514">
        <ele>118.6</ele>
        <time>2022-06-26T06:32:23Z</time>
      </trkpt>
      <trkpt lat="46.50429" lon="0.37509">
        <ele>119.2</ele>
        <time>2022-06-26T06:32:25Z</time>
      </trkpt>
      <trkpt lat="46.50435" lon="0.37492">
        <ele>120</ele>
        <time>2022-06-26T06:32:30Z</time>
      </trkpt>
      <trkpt lat="46.50439" lon="0.37482">
        <ele>120.2</ele>
        <time>2022-06-26T06:32:33Z</time>
      </trkpt>
      <trkpt lat="46.50444" lon="0.37473">
        <ele>120.6</ele>
        <time>2022-06-26T06:32:37Z</time>
      </trkpt>
      <trkpt lat="46.5045" lon="0.37472">
        <ele>121</ele>
        <time>2022-06-26T06:32:40Z</time>
      </trkpt>
      <trkpt lat="46.50459" lon="0.37467">
        <ele>121</ele>
        <time>2022-06-26T06:32:43Z</time>
      </trkpt>
      <trkpt lat="46.50465" lon="0.37463">
        <ele>121</ele>
        <time>2022-06-26T06:32:45Z</time>
      </trkpt>
      <trkpt lat="46.50469" lon="0.37458">
        <ele>120.8</ele>
        <time>2022-06-26T06:32:47Z</time>
      </trkpt>
      <trkpt lat="46.50471" lon="0.37454">
        <ele>121</ele>
        <time>2022-06-26T06:32:48Z</time>
      </trkpt>
      <trkpt lat="46.50486" lon="0.37422">
        <ele>121.4</ele>
        <time>2022-06-26T06:32:56Z</time>
      </trkpt>
      <trkpt lat="46.50487" lon="0.37418">
        <ele>121.4</ele>
        <time>2022-06-26T06:32:57Z</time>
      </trkpt>
      <trkpt lat="46.50487" lon="0.37414">
        <ele>121.6</ele>
        <time>2022-06-26T06:32:58Z</time>
      </trkpt>
      <trkpt lat="46.50487" lon="0.37407">
        <ele>121.8</ele>
        <time>2022-06-26T06:33:01Z</time>
      </trkpt>
      <trkpt lat="46.5049" lon="0.37391">
        <ele>121.8</ele>
        <time>2022-06-26T06:33:06Z</time>
      </trkpt>
      <trkpt lat="46.505" lon="0.37369">
        <ele>121.2</ele>
        <time>2022-06-26T06:33:12Z</time>
      </trkpt>
      <trkpt lat="46.50516" lon="0.37342">
        <ele>120.4</ele>
        <time>2022-06-26T06:33:18Z</time>
      </trkpt>
      <trkpt lat="46.50516" lon="0.37342">
        <ele>119.8</ele>
        <time>2022-06-26T06:33:20Z</time>
      </trkpt>
      <trkpt lat="46.50524" lon="0.37333">
        <ele>119.8</ele>
        <time>2022-06-26T06:33:22Z</time>
      </trkpt>
      <trkpt lat="46.50528" lon="0.37328">
        <ele>119.4</ele>
        <time>2022-06-26T06:33:24Z</time>
      </trkpt>
      <trkpt lat="46.5053" lon="0.37324">
        <ele>119.4</ele>
        <time>2022-06-26T06:33:25Z</time>
      </trkpt>
      <trkpt lat="46.50532" lon="0.3732">
        <ele>119.2</ele>
        <time>2022-06-26T06:33:26Z</time>
      </trkpt>
      <trkpt lat="46.50533" lon="0.37316">
        <ele>118.8</ele>
        <time>2022-06-26T06:33:27Z</time>
      </trkpt>
      <trkpt lat="46.50535" lon="0.37307">
        <ele>118.8</ele>
        <time>2022-06-26T06:33:29Z</time>
      </trkpt>
      <trkpt lat="46.50541" lon="0.37287">
        <ele>118.6</ele>
        <time>2022-06-26T06:33:33Z</time>
      </trkpt>
      <trkpt lat="46.50543" lon="0.37274">
        <ele>118.2</ele>
        <time>2022-06-26T06:33:35Z</time>
      </trkpt>
      <trkpt lat="46.50545" lon="0.37255">
        <ele>117.8</ele>
        <time>2022-06-26T06:33:38Z</time>
      </trkpt>
      <trkpt lat="46.50547" lon="0.37232">
        <ele>116.4</ele>
        <time>2022-06-26T06:33:41Z</time>
      </trkpt>
      <trkpt lat="46.50564" lon="0.37199">
        <ele>116.4</ele>
        <time>2022-06-26T06:33:46Z</time>
      </trkpt>
      <trkpt lat="46.50574" lon="0.3718">
        <ele>117.6</ele>
        <time>2022-06-26T06:33:50Z</time>
      </trkpt>
      <trkpt lat="46.5058" lon="0.37171">
        <ele>118.4</ele>
        <time>2022-06-26T06:33:53Z</time>
      </trkpt>
      <trkpt lat="46.50581" lon="0.37168">
        <ele>118.8</ele>
        <time>2022-06-26T06:33:54Z</time>
      </trkpt>
      <trkpt lat="46.50584" lon="0.37158">
        <ele>119.8</ele>
        <time>2022-06-26T06:33:57Z</time>
      </trkpt>
      <trkpt lat="46.50587" lon="0.3715">
        <ele>120.2</ele>
        <time>2022-06-26T06:33:59Z</time>
      </trkpt>
      <trkpt lat="46.5059" lon="0.37148">
        <ele>120.4</ele>
        <time>2022-06-26T06:34:00Z</time>
      </trkpt>
      <trkpt lat="46.50593" lon="0.37147">
        <ele>121</ele>
        <time>2022-06-26T06:34:01Z</time>
      </trkpt>
      <trkpt lat="46.50604" lon="0.37147">
        <ele>121.6</ele>
        <time>2022-06-26T06:34:05Z</time>
      </trkpt>
      <trkpt lat="46.50619" lon="0.37151">
        <ele>121.4</ele>
        <time>2022-06-26T06:34:10Z</time>
      </trkpt>
      <trkpt lat="46.50626" lon="0.37153">
        <ele>121</ele>
        <time>2022-06-26T06:34:12Z</time>
      </trkpt>
      <trkpt lat="46.50634" lon="0.37154">
        <ele>120.8</ele>
        <time>2022-06-26T06:34:14Z</time>
      </trkpt>
      <trkpt lat="46.5064" lon="0.37151">
        <ele>121</ele>
        <time>2022-06-26T06:34:17Z</time>
      </trkpt>
      <trkpt lat="46.50643" lon="0.37146">
        <ele>121</ele>
        <time>2022-06-26T06:34:19Z</time>
      </trkpt>
      <trkpt lat="46.50645" lon="0.37136">
        <ele>121.4</ele>
        <time>2022-06-26T06:34:22Z</time>
      </trkpt>
      <trkpt lat="46.50651" lon="0.37126">
        <ele>121.8</ele>
        <time>2022-06-26T06:34:26Z</time>
      </trkpt>
      <trkpt lat="46.50653" lon="0.37126">
        <ele>121.8</ele>
        <time>2022-06-26T06:34:27Z</time>
      </trkpt>
      <trkpt lat="46.50655" lon="0.37125">
        <ele>122</ele>
        <time>2022-06-26T06:34:28Z</time>
      </trkpt>
      <trkpt lat="46.50657" lon="0.37124">
        <ele>122</ele>
        <time>2022-06-26T06:34:29Z</time>
      </trkpt>
      <trkpt lat="46.50663" lon="0.37118">
        <ele>122.6</ele>
        <time>2022-06-26T06:34:33Z</time>
      </trkpt>
      <trkpt lat="46.50664" lon="0.37114">
        <ele>122.8</ele>
        <time>2022-06-26T06:34:37Z</time>
      </trkpt>
      <trkpt lat="46.50666" lon="0.37113">
        <ele>122.8</ele>
        <time>2022-06-26T06:34:39Z</time>
      </trkpt>
      <trkpt lat="46.50668" lon="0.37111">
        <ele>123</ele>
        <time>2022-06-26T06:34:40Z</time>
      </trkpt>
      <trkpt lat="46.50669" lon="0.37111">
        <ele>123</ele>
        <time>2022-06-26T06:34:41Z</time>
      </trkpt>
      <trkpt lat="46.50676" lon="0.37109">
        <ele>122.8</ele>
        <time>2022-06-26T06:34:44Z</time>
      </trkpt>
      <trkpt lat="46.50691" lon="0.37101">
        <ele>123.2</ele>
        <time>2022-06-26T06:34:51Z</time>
      </trkpt>
      <trkpt lat="46.50693" lon="0.37091">
        <ele>123.6</ele>
        <time>2022-06-26T06:34:56Z</time>
      </trkpt>
      <trkpt lat="46.50692" lon="0.37088">
        <ele>123.4</ele>
        <time>2022-06-26T06:34:58Z</time>
      </trkpt>
      <trkpt lat="46.50689" lon="0.37087">
        <ele>123.6</ele>
        <time>2022-06-26T06:35:01Z</time>
      </trkpt>
      <trkpt lat="46.50675" lon="0.37095">
        <ele>123.6</ele>
        <time>2022-06-26T06:35:07Z</time>
      </trkpt>
      <trkpt lat="46.5067" lon="0.37094">
        <ele>123.4</ele>
        <time>2022-06-26T06:35:09Z</time>
      </trkpt>
      <trkpt lat="46.50667" lon="0.3709">
        <ele>123.2</ele>
        <time>2022-06-26T06:35:11Z</time>
      </trkpt>
      <trkpt lat="46.50667" lon="0.37077">
        <ele>123.2</ele>
        <time>2022-06-26T06:35:15Z</time>
      </trkpt>
      <trkpt lat="46.50668" lon="0.37072">
        <ele>123.4</ele>
        <time>2022-06-26T06:35:17Z</time>
      </trkpt>
      <trkpt lat="46.5067" lon="0.37072">
        <ele>123.4</ele>
        <time>2022-06-26T06:35:20Z</time>
      </trkpt>
      <trkpt lat="46.50673" lon="0.37071">
        <ele>123.4</ele>
        <time>2022-06-26T06:35:23Z</time>
      </trkpt>
      <trkpt lat="46.50675" lon="0.37069">
        <ele>123.6</ele>
        <time>2022-06-26T06:35:25Z</time>
      </trkpt>
      <trkpt lat="46.50679" lon="0.37059">
        <ele>123.6</ele>
        <time>2022-06-26T06:35:29Z</time>
      </trkpt>
      <trkpt lat="46.50678" lon="0.37054">
        <ele>123.8</ele>
        <time>2022-06-26T06:35:31Z</time>
      </trkpt>
      <trkpt lat="46.50678" lon="0.37051">
        <ele>124</ele>
        <time>2022-06-26T06:35:32Z</time>
      </trkpt>
      <trkpt lat="46.50673" lon="0.37046">
        <ele>124.4</ele>
        <time>2022-06-26T06:35:35Z</time>
      </trkpt>
      <trkpt lat="46.50672" lon="0.37047">
        <ele>124.4</ele>
        <time>2022-06-26T06:35:36Z</time>
      </trkpt>
      <trkpt lat="46.50658" lon="0.37053">
        <ele>124</ele>
        <time>2022-06-26T06:35:41Z</time>
      </trkpt>
      <trkpt lat="46.50653" lon="0.37055">
        <ele>123.6</ele>
        <time>2022-06-26T06:35:44Z</time>
      </trkpt>
      <trkpt lat="46.50652" lon="0.37053">
        <ele>123.4</ele>
        <time>2022-06-26T06:35:45Z</time>
      </trkpt>
      <trkpt lat="46.50647" lon="0.37042">
        <ele>123.4</ele>
        <time>2022-06-26T06:35:50Z</time>
      </trkpt>
      <trkpt lat="46.50646" lon="0.37038">
        <ele>123.4</ele>
        <time>2022-06-26T06:35:51Z</time>
      </trkpt>
      <trkpt lat="46.50645" lon="0.37031">
        <ele>123.6</ele>
        <time>2022-06-26T06:35:53Z</time>
      </trkpt>
      <trkpt lat="46.50645" lon="0.37025">
        <ele>123.6</ele>
        <time>2022-06-26T06:35:55Z</time>
      </trkpt>
      <trkpt lat="46.50645" lon="0.37009">
        <ele>123.8</ele>
        <time>2022-06-26T06:35:59Z</time>
      </trkpt>
      <trkpt lat="46.50638" lon="0.36992">
        <ele>124.4</ele>
        <time>2022-06-26T06:36:03Z</time>
      </trkpt>
      <trkpt lat="46.50631" lon="0.36977">
        <ele>125</ele>
        <time>2022-06-26T06:36:07Z</time>
      </trkpt>
      <trkpt lat="46.50624" lon="0.36971">
        <ele>124.8</ele>
        <time>2022-06-26T06:36:09Z</time>
      </trkpt>
      <trkpt lat="46.50615" lon="0.36956">
        <ele>124.4</ele>
        <time>2022-06-26T06:36:13Z</time>
      </trkpt>
      <trkpt lat="46.50606" lon="0.36943">
        <ele>124.4</ele>
        <time>2022-06-26T06:36:18Z</time>
      </trkpt>
      <trkpt lat="46.50604" lon="0.36943">
        <ele>124.4</ele>
        <time>2022-06-26T06:36:19Z</time>
      </trkpt>
      <trkpt lat="46.50597" lon="0.36944">
        <ele>124</ele>
        <time>2022-06-26T06:36:22Z</time>
      </trkpt>
      <trkpt lat="46.50582" lon="0.3695">
        <ele>124</ele>
        <time>2022-06-26T06:36:28Z</time>
      </trkpt>
      <trkpt lat="46.50576" lon="0.36954">
        <ele>124</ele>
        <time>2022-06-26T06:36:31Z</time>
      </trkpt>
      <trkpt lat="46.50571" lon="0.36956">
        <ele>124</ele>
        <time>2022-06-26T06:36:33Z</time>
      </trkpt>
      <trkpt lat="46.50566" lon="0.36958">
        <ele>123.8</ele>
        <time>2022-06-26T06:36:35Z</time>
      </trkpt>
      <trkpt lat="46.50553" lon="0.36961">
        <ele>123.4</ele>
        <time>2022-06-26T06:36:39Z</time>
      </trkpt>
      <trkpt lat="46.50547" lon="0.36964">
        <ele>123</ele>
        <time>2022-06-26T06:36:41Z</time>
      </trkpt>
      <trkpt lat="46.50545" lon="0.36967">
        <ele>123</ele>
        <time>2022-06-26T06:36:42Z</time>
      </trkpt>
      <trkpt lat="46.50541" lon="0.3697">
        <ele>122.8</ele>
        <time>2022-06-26T06:36:43Z</time>
      </trkpt>
      <trkpt lat="46.50538" lon="0.36974">
        <ele>122.8</ele>
        <time>2022-06-26T06:36:44Z</time>
      </trkpt>
      <trkpt lat="46.50533" lon="0.36984">
        <ele>122</ele>
        <time>2022-06-26T06:36:46Z</time>
      </trkpt>
      <trkpt lat="46.50527" lon="0.36993">
        <ele>121.6</ele>
        <time>2022-06-26T06:36:48Z</time>
      </trkpt>
      <trkpt lat="46.50525" lon="0.36997">
        <ele>121.2</ele>
        <time>2022-06-26T06:36:49Z</time>
      </trkpt>
      <trkpt lat="46.50523" lon="0.37">
        <ele>120.6</ele>
        <time>2022-06-26T06:36:50Z</time>
      </trkpt>
      <trkpt lat="46.50514" lon="0.37007">
        <ele>119.4</ele>
        <time>2022-06-26T06:36:53Z</time>
      </trkpt>
      <trkpt lat="46.50512" lon="0.37007">
        <ele>119</ele>
        <time>2022-06-26T06:36:54Z</time>
      </trkpt>
      <trkpt lat="46.50507" lon="0.37003">
        <ele>118.4</ele>
        <time>2022-06-26T06:36:57Z</time>
      </trkpt>
      <trkpt lat="46.50504" lon="0.37">
        <ele>118.6</ele>
        <time>2022-06-26T06:36:59Z</time>
      </trkpt>
      <trkpt lat="46.50501" lon="0.36994">
        <ele>119.4</ele>
        <time>2022-06-26T06:37:02Z</time>
      </trkpt>
      <trkpt lat="46.50495" lon="0.36988">
        <ele>120.2</ele>
        <time>2022-06-26T06:37:06Z</time>
      </trkpt>
      <trkpt lat="46.50492" lon="0.36987">
        <ele>120.6</ele>
        <time>2022-06-26T06:37:07Z</time>
      </trkpt>
      <trkpt lat="46.50488" lon="0.36984">
        <ele>120.8</ele>
        <time>2022-06-26T06:37:09Z</time>
      </trkpt>
      <trkpt lat="46.50488" lon="0.36982">
        <ele>121</ele>
        <time>2022-06-26T06:37:11Z</time>
      </trkpt>
      <trkpt lat="46.50476" lon="0.36969">
        <ele>121.8</ele>
        <time>2022-06-26T06:37:17Z</time>
      </trkpt>
      <trkpt lat="46.50475" lon="0.36966">
        <ele>122</ele>
        <time>2022-06-26T06:37:18Z</time>
      </trkpt>
      <trkpt lat="46.50468" lon="0.36957">
        <ele>122.6</ele>
        <time>2022-06-26T06:37:22Z</time>
      </trkpt>
      <trkpt lat="46.50466" lon="0.36956">
        <ele>122.6</ele>
        <time>2022-06-26T06:37:23Z</time>
      </trkpt>
      <trkpt lat="46.50456" lon="0.36954">
        <ele>122.6</ele>
        <time>2022-06-26T06:37:26Z</time>
      </trkpt>
      <trkpt lat="46.50449" lon="0.36951">
        <ele>122.6</ele>
        <time>2022-06-26T06:37:28Z</time>
      </trkpt>
      <trkpt lat="46.50448" lon="0.36946">
        <ele>122.8</ele>
        <time>2022-06-26T06:37:30Z</time>
      </trkpt>
      <trkpt lat="46.50447" lon="0.36942">
        <ele>122.8</ele>
        <time>2022-06-26T06:37:31Z</time>
      </trkpt>
      <trkpt lat="46.50445" lon="0.36932">
        <ele>123.2</ele>
        <time>2022-06-26T06:37:33Z</time>
      </trkpt>
      <trkpt lat="46.50444" lon="0.36912">
        <ele>123.2</ele>
        <time>2022-06-26T06:37:39Z</time>
      </trkpt>
      <trkpt lat="46.50446" lon="0.3691">
        <ele>123</ele>
        <time>2022-06-26T06:37:43Z</time>
      </trkpt>
      <trkpt lat="46.50448" lon="0.36906">
        <ele>123</ele>
        <time>2022-06-26T06:37:45Z</time>
      </trkpt>
      <trkpt lat="46.50451" lon="0.36903">
        <ele>123</ele>
        <time>2022-06-26T06:37:47Z</time>
      </trkpt>
      <trkpt lat="46.50454" lon="0.36894">
        <ele>123</ele>
        <time>2022-06-26T06:37:50Z</time>
      </trkpt>
      <trkpt lat="46.50463" lon="0.3688">
        <ele>123.6</ele>
        <time>2022-06-26T06:37:57Z</time>
      </trkpt>
      <trkpt lat="46.50477" lon="0.36873">
        <ele>123.4</ele>
        <time>2022-06-26T06:38:03Z</time>
      </trkpt>
      <trkpt lat="46.50481" lon="0.36872">
        <ele>123.2</ele>
        <time>2022-06-26T06:38:05Z</time>
      </trkpt>
      <trkpt lat="46.50485" lon="0.3687">
        <ele>123.2</ele>
        <time>2022-06-26T06:38:07Z</time>
      </trkpt>
      <trkpt lat="46.50486" lon="0.36869">
        <ele>123.2</ele>
        <time>2022-06-26T06:38:08Z</time>
      </trkpt>
      <trkpt lat="46.50496" lon="0.36856">
        <ele>123.2</ele>
        <time>2022-06-26T06:38:14Z</time>
      </trkpt>
      <trkpt lat="46.50501" lon="0.36852">
        <ele>123.2</ele>
        <time>2022-06-26T06:38:16Z</time>
      </trkpt>
      <trkpt lat="46.50507" lon="0.36847">
        <ele>123</ele>
        <time>2022-06-26T06:38:18Z</time>
      </trkpt>
      <trkpt lat="46.50509" lon="0.36842">
        <ele>122.8</ele>
        <time>2022-06-26T06:38:20Z</time>
      </trkpt>
      <trkpt lat="46.50515" lon="0.36821">
        <ele>122.6</ele>
        <time>2022-06-26T06:38:26Z</time>
      </trkpt>
      <trkpt lat="46.50517" lon="0.36814">
        <ele>122.6</ele>
        <time>2022-06-26T06:38:28Z</time>
      </trkpt>
      <trkpt lat="46.50518" lon="0.36807">
        <ele>122.2</ele>
        <time>2022-06-26T06:38:30Z</time>
      </trkpt>
      <trkpt lat="46.50517" lon="0.36798">
        <ele>122</ele>
        <time>2022-06-26T06:38:32Z</time>
      </trkpt>
      <trkpt lat="46.50517" lon="0.36794">
        <ele>121.6</ele>
        <time>2022-06-26T06:38:33Z</time>
      </trkpt>
      <trkpt lat="46.50516" lon="0.36792">
        <ele>121.6</ele>
        <time>2022-06-26T06:38:34Z</time>
      </trkpt>
      <trkpt lat="46.50515" lon="0.3679">
        <ele>121.4</ele>
        <time>2022-06-26T06:38:35Z</time>
      </trkpt>
      <trkpt lat="46.50514" lon="0.36788">
        <ele>121.2</ele>
        <time>2022-06-26T06:38:36Z</time>
      </trkpt>
      <trkpt lat="46.50511" lon="0.3678">
        <ele>120.8</ele>
        <time>2022-06-26T06:38:40Z</time>
      </trkpt>
      <trkpt lat="46.5051" lon="0.36776">
        <ele>120.6</ele>
        <time>2022-06-26T06:38:41Z</time>
      </trkpt>
      <trkpt lat="46.50505" lon="0.36763">
        <ele>120.2</ele>
        <time>2022-06-26T06:38:45Z</time>
      </trkpt>
      <trkpt lat="46.505" lon="0.36759">
        <ele>120.2</ele>
        <time>2022-06-26T06:38:47Z</time>
      </trkpt>
      <trkpt lat="46.50495" lon="0.36755">
        <ele>120.2</ele>
        <time>2022-06-26T06:38:49Z</time>
      </trkpt>
      <trkpt lat="46.50487" lon="0.36751">
        <ele>120</ele>
        <time>2022-06-26T06:38:51Z</time>
      </trkpt>
      <trkpt lat="46.5048" lon="0.36749">
        <ele>120</ele>
        <time>2022-06-26T06:38:53Z</time>
      </trkpt>
      <trkpt lat="46.50468" lon="0.36747">
        <ele>119.8</ele>
        <time>2022-06-26T06:38:56Z</time>
      </trkpt>
      <trkpt lat="46.50461" lon="0.36747">
        <ele>119.8</ele>
        <time>2022-06-26T06:38:58Z</time>
      </trkpt>
      <trkpt lat="46.50451" lon="0.36745">
        <ele>120</ele>
        <time>2022-06-26T06:39:00Z</time>
      </trkpt>
      <trkpt lat="46.50441" lon="0.36741">
        <ele>120.2</ele>
        <time>2022-06-26T06:39:02Z</time>
      </trkpt>
      <trkpt lat="46.50432" lon="0.36737">
        <ele>120.2</ele>
        <time>2022-06-26T06:39:04Z</time>
      </trkpt>
      <trkpt lat="46.50424" lon="0.36731">
        <ele>120.4</ele>
        <time>2022-06-26T06:39:06Z</time>
      </trkpt>
      <trkpt lat="46.50419" lon="0.36728">
        <ele>120.4</ele>
        <time>2022-06-26T06:39:07Z</time>
      </trkpt>
      <trkpt lat="46.50406" lon="0.36718">
        <ele>120.6</ele>
        <time>2022-06-26T06:39:11Z</time>
      </trkpt>
      <trkpt lat="46.50395" lon="0.36711">
        <ele>120.6</ele>
        <time>2022-06-26T06:39:14Z</time>
      </trkpt>
      <trkpt lat="46.50378" lon="0.36703">
        <ele>120.8</ele>
        <time>2022-06-26T06:39:18Z</time>
      </trkpt>
      <trkpt lat="46.50376" lon="0.36699">
        <ele>120.8</ele>
        <time>2022-06-26T06:39:19Z</time>
      </trkpt>
      <trkpt lat="46.5037" lon="0.36679">
        <ele>120</ele>
        <time>2022-06-26T06:39:24Z</time>
      </trkpt>
      <trkpt lat="46.50367" lon="0.36672">
        <ele>119.6</ele>
        <time>2022-06-26T06:39:26Z</time>
      </trkpt>
      <trkpt lat="46.50363" lon="0.36667">
        <ele>119.2</ele>
        <time>2022-06-26T06:39:28Z</time>
      </trkpt>
      <trkpt lat="46.50361" lon="0.36666">
        <ele>119.2</ele>
        <time>2022-06-26T06:39:29Z</time>
      </trkpt>
      <trkpt lat="46.50351" lon="0.36664">
        <ele>119.4</ele>
        <time>2022-06-26T06:39:34Z</time>
      </trkpt>
      <trkpt lat="46.50349" lon="0.36665">
        <ele>119.6</ele>
        <time>2022-06-26T06:39:36Z</time>
      </trkpt>
      <trkpt lat="46.50341" lon="0.36665">
        <ele>119.8</ele>
        <time>2022-06-26T06:39:39Z</time>
      </trkpt>
      <trkpt lat="46.50337" lon="0.36667">
        <ele>120.2</ele>
        <time>2022-06-26T06:39:42Z</time>
      </trkpt>
      <trkpt lat="46.50329" lon="0.36671">
        <ele>120.4</ele>
        <time>2022-06-26T06:39:45Z</time>
      </trkpt>
      <trkpt lat="46.50325" lon="0.36669">
        <ele>120.4</ele>
        <time>2022-06-26T06:39:47Z</time>
      </trkpt>
      <trkpt lat="46.5032" lon="0.36664">
        <ele>120.6</ele>
        <time>2022-06-26T06:39:50Z</time>
      </trkpt>
      <trkpt lat="46.50311" lon="0.36656">
        <ele>120.8</ele>
        <time>2022-06-26T06:39:54Z</time>
      </trkpt>
      <trkpt lat="46.50308" lon="0.36656">
        <ele>120.8</ele>
        <time>2022-06-26T06:39:55Z</time>
      </trkpt>
      <trkpt lat="46.50288" lon="0.3666">
        <ele>120.8</ele>
        <time>2022-06-26T06:40:01Z</time>
      </trkpt>
      <trkpt lat="46.50274" lon="0.36667">
        <ele>121.2</ele>
        <time>2022-06-26T06:40:07Z</time>
      </trkpt>
      <trkpt lat="46.50266" lon="0.36667">
        <ele>121.4</ele>
        <time>2022-06-26T06:40:11Z</time>
      </trkpt>
      <trkpt lat="46.50265" lon="0.36665">
        <ele>121.4</ele>
        <time>2022-06-26T06:40:12Z</time>
      </trkpt>
      <trkpt lat="46.50255" lon="0.36654">
        <ele>121.4</ele>
        <time>2022-06-26T06:40:17Z</time>
      </trkpt>
      <trkpt lat="46.5025" lon="0.36649">
        <ele>121.2</ele>
        <time>2022-06-26T06:40:20Z</time>
      </trkpt>
      <trkpt lat="46.50249" lon="0.36648">
        <ele>121.2</ele>
        <time>2022-06-26T06:40:21Z</time>
      </trkpt>
      <trkpt lat="46.50245" lon="0.36645">
        <ele>121.2</ele>
        <time>2022-06-26T06:40:23Z</time>
      </trkpt>
      <trkpt lat="46.50241" lon="0.36643">
        <ele>121.2</ele>
        <time>2022-06-26T06:40:25Z</time>
      </trkpt>
      <trkpt lat="46.50238" lon="0.36643">
        <ele>121.4</ele>
        <time>2022-06-26T06:40:26Z</time>
      </trkpt>
      <trkpt lat="46.50222" lon="0.36646">
        <ele>121.6</ele>
        <time>2022-06-26T06:40:31Z</time>
      </trkpt>
      <trkpt lat="46.50218" lon="0.36649">
        <ele>121.6</ele>
        <time>2022-06-26T06:40:33Z</time>
      </trkpt>
      <trkpt lat="46.50213" lon="0.36647">
        <ele>121.6</ele>
        <time>2022-06-26T06:40:35Z</time>
      </trkpt>
      <trkpt lat="46.50211" lon="0.36646">
        <ele>121.6</ele>
        <time>2022-06-26T06:40:36Z</time>
      </trkpt>
      <trkpt lat="46.50208" lon="0.36641">
        <ele>121.6</ele>
        <time>2022-06-26T06:40:38Z</time>
      </trkpt>
      <trkpt lat="46.50203" lon="0.36639">
        <ele>121.6</ele>
        <time>2022-06-26T06:40:40Z</time>
      </trkpt>
      <trkpt lat="46.502" lon="0.36635">
        <ele>121.4</ele>
        <time>2022-06-26T06:40:42Z</time>
      </trkpt>
      <trkpt lat="46.50196" lon="0.3663">
        <ele>121.4</ele>
        <time>2022-06-26T06:40:44Z</time>
      </trkpt>
      <trkpt lat="46.50192" lon="0.36628">
        <ele>121.6</ele>
        <time>2022-06-26T06:40:46Z</time>
      </trkpt>
      <trkpt lat="46.50188" lon="0.36628">
        <ele>121.8</ele>
        <time>2022-06-26T06:40:47Z</time>
      </trkpt>
      <trkpt lat="46.50186" lon="0.3663">
        <ele>121.8</ele>
        <time>2022-06-26T06:40:48Z</time>
      </trkpt>
      <trkpt lat="46.50182" lon="0.36631">
        <ele>122</ele>
        <time>2022-06-26T06:40:50Z</time>
      </trkpt>
      <trkpt lat="46.50167" lon="0.3664">
        <ele>121.6</ele>
        <time>2022-06-26T06:40:56Z</time>
      </trkpt>
      <trkpt lat="46.50156" lon="0.36646">
        <ele>122</ele>
        <time>2022-06-26T06:40:59Z</time>
      </trkpt>
      <trkpt lat="46.5015" lon="0.36652">
        <ele>122.2</ele>
        <time>2022-06-26T06:41:01Z</time>
      </trkpt>
      <trkpt lat="46.50141" lon="0.3666">
        <ele>122.2</ele>
        <time>2022-06-26T06:41:04Z</time>
      </trkpt>
      <trkpt lat="46.50137" lon="0.36663">
        <ele>122.4</ele>
        <time>2022-06-26T06:41:06Z</time>
      </trkpt>
      <trkpt lat="46.50134" lon="0.36664">
        <ele>122.4</ele>
        <time>2022-06-26T06:41:07Z</time>
      </trkpt>
      <trkpt lat="46.50124" lon="0.36682">
        <ele>122.6</ele>
        <time>2022-06-26T06:41:13Z</time>
      </trkpt>
      <trkpt lat="46.5012" lon="0.36708">
        <ele>122.8</ele>
        <time>2022-06-26T06:41:20Z</time>
      </trkpt>
      <trkpt lat="46.5012" lon="0.36708">
        <ele>122.8</ele>
        <time>2022-06-26T06:41:21Z</time>
      </trkpt>
      <trkpt lat="46.50122" lon="0.36714">
        <ele>123</ele>
        <time>2022-06-26T06:41:22Z</time>
      </trkpt>
      <trkpt lat="46.50128" lon="0.36725">
        <ele>123</ele>
        <time>2022-06-26T06:41:26Z</time>
      </trkpt>
      <trkpt lat="46.50137" lon="0.36734">
        <ele>122.8</ele>
        <time>2022-06-26T06:41:32Z</time>
      </trkpt>
      <trkpt lat="46.50141" lon="0.36736">
        <ele>123</ele>
        <time>2022-06-26T06:41:35Z</time>
      </trkpt>
      <trkpt lat="46.50143" lon="0.36738">
        <ele>123.2</ele>
        <time>2022-06-26T06:41:36Z</time>
      </trkpt>
      <trkpt lat="46.50159" lon="0.3675">
        <ele>122.8</ele>
        <time>2022-06-26T06:41:42Z</time>
      </trkpt>
      <trkpt lat="46.50165" lon="0.36752">
        <ele>122.8</ele>
        <time>2022-06-26T06:41:44Z</time>
      </trkpt>
      <trkpt lat="46.50171" lon="0.36754">
        <ele>122.6</ele>
        <time>2022-06-26T06:41:47Z</time>
      </trkpt>
      <trkpt lat="46.50177" lon="0.3676">
        <ele>122.4</ele>
        <time>2022-06-26T06:41:50Z</time>
      </trkpt>
      <trkpt lat="46.5018" lon="0.36761">
        <ele>122.4</ele>
        <time>2022-06-26T06:41:51Z</time>
      </trkpt>
      <trkpt lat="46.50187" lon="0.36761">
        <ele>122.4</ele>
        <time>2022-06-26T06:41:55Z</time>
      </trkpt>
      <trkpt lat="46.5019" lon="0.36767">
        <ele>122.4</ele>
        <time>2022-06-26T06:41:57Z</time>
      </trkpt>
      <trkpt lat="46.50192" lon="0.36776">
        <ele>122.4</ele>
        <time>2022-06-26T06:41:59Z</time>
      </trkpt>
      <trkpt lat="46.50192" lon="0.36787">
        <ele>122.6</ele>
        <time>2022-06-26T06:42:01Z</time>
      </trkpt>
      <trkpt lat="46.50192" lon="0.36798">
        <ele>122.8</ele>
        <time>2022-06-26T06:42:03Z</time>
      </trkpt>
      <trkpt lat="46.50192" lon="0.36803">
        <ele>122.8</ele>
        <time>2022-06-26T06:42:04Z</time>
      </trkpt>
      <trkpt lat="46.50194" lon="0.36811">
        <ele>122.8</ele>
        <time>2022-06-26T06:42:07Z</time>
      </trkpt>
      <trkpt lat="46.50195" lon="0.36812">
        <ele>122.8</ele>
        <time>2022-06-26T06:42:08Z</time>
      </trkpt>
      <trkpt lat="46.50196" lon="0.36815">
        <ele>122.8</ele>
        <time>2022-06-26T06:42:09Z</time>
      </trkpt>
      <trkpt lat="46.50196" lon="0.36822">
        <ele>122.8</ele>
        <time>2022-06-26T06:42:11Z</time>
      </trkpt>
      <trkpt lat="46.50194" lon="0.36826">
        <ele>122.8</ele>
        <time>2022-06-26T06:42:13Z</time>
      </trkpt>
      <trkpt lat="46.50186" lon="0.36839">
        <ele>123.2</ele>
        <time>2022-06-26T06:42:17Z</time>
      </trkpt>
      <trkpt lat="46.50166" lon="0.36858">
        <ele>123.6</ele>
        <time>2022-06-26T06:42:23Z</time>
      </trkpt>
      <trkpt lat="46.50162" lon="0.36866">
        <ele>123.4</ele>
        <time>2022-06-26T06:42:25Z</time>
      </trkpt>
      <trkpt lat="46.50162" lon="0.36875">
        <ele>123.2</ele>
        <time>2022-06-26T06:42:27Z</time>
      </trkpt>
      <trkpt lat="46.50162" lon="0.36882">
        <ele>123</ele>
        <time>2022-06-26T06:42:29Z</time>
      </trkpt>
      <trkpt lat="46.50164" lon="0.369">
        <ele>123</ele>
        <time>2022-06-26T06:42:33Z</time>
      </trkpt>
      <trkpt lat="46.50165" lon="0.36905">
        <ele>123</ele>
        <time>2022-06-26T06:42:34Z</time>
      </trkpt>
      <trkpt lat="46.50169" lon="0.36931">
        <ele>123</ele>
        <time>2022-06-26T06:42:39Z</time>
      </trkpt>
      <trkpt lat="46.50172" lon="0.3694">
        <ele>123</ele>
        <time>2022-06-26T06:42:41Z</time>
      </trkpt>
      <trkpt lat="46.50176" lon="0.36962">
        <ele>122.4</ele>
        <time>2022-06-26T06:42:46Z</time>
      </trkpt>
      <trkpt lat="46.50176" lon="0.36968">
        <ele>122.2</ele>
        <time>2022-06-26T06:42:47Z</time>
      </trkpt>
      <trkpt lat="46.50178" lon="0.36985">
        <ele>122.2</ele>
        <time>2022-06-26T06:42:50Z</time>
      </trkpt>
      <trkpt lat="46.50179" lon="0.36995">
        <ele>122.2</ele>
        <time>2022-06-26T06:42:52Z</time>
      </trkpt>
      <trkpt lat="46.50184" lon="0.37018">
        <ele>122</ele>
        <time>2022-06-26T06:42:56Z</time>
      </trkpt>
      <trkpt lat="46.50184" lon="0.37032">
        <ele>121.8</ele>
        <time>2022-06-26T06:42:58Z</time>
      </trkpt>
      <trkpt lat="46.5018" lon="0.37042">
        <ele>121.6</ele>
        <time>2022-06-26T06:43:00Z</time>
      </trkpt>
      <trkpt lat="46.50179" lon="0.37046">
        <ele>121.8</ele>
        <time>2022-06-26T06:43:01Z</time>
      </trkpt>
      <trkpt lat="46.50173" lon="0.37052">
        <ele>122</ele>
        <time>2022-06-26T06:43:04Z</time>
      </trkpt>
      <trkpt lat="46.50164" lon="0.37057">
        <ele>122.2</ele>
        <time>2022-06-26T06:43:07Z</time>
      </trkpt>
      <trkpt lat="46.50153" lon="0.37058">
        <ele>122.4</ele>
        <time>2022-06-26T06:43:11Z</time>
      </trkpt>
      <trkpt lat="46.50147" lon="0.37058">
        <ele>122.4</ele>
        <time>2022-06-26T06:43:13Z</time>
      </trkpt>
      <trkpt lat="46.50141" lon="0.37062">
        <ele>122.4</ele>
        <time>2022-06-26T06:43:15Z</time>
      </trkpt>
      <trkpt lat="46.50138" lon="0.37065">
        <ele>122.2</ele>
        <time>2022-06-26T06:43:16Z</time>
      </trkpt>
      <trkpt lat="46.50136" lon="0.37068">
        <ele>122.2</ele>
        <time>2022-06-26T06:43:17Z</time>
      </trkpt>
      <trkpt lat="46.50124" lon="0.3709">
        <ele>122.2</ele>
        <time>2022-06-26T06:43:22Z</time>
      </trkpt>
      <trkpt lat="46.50118" lon="0.37099">
        <ele>122.4</ele>
        <time>2022-06-26T06:43:25Z</time>
      </trkpt>
      <trkpt lat="46.50117" lon="0.37099">
        <ele>122.4</ele>
        <time>2022-06-26T06:43:26Z</time>
      </trkpt>
      <trkpt lat="46.50104" lon="0.37104">
        <ele>122.4</ele>
        <time>2022-06-26T06:43:30Z</time>
      </trkpt>
      <trkpt lat="46.501" lon="0.37101">
        <ele>122.2</ele>
        <time>2022-06-26T06:43:32Z</time>
      </trkpt>
      <trkpt lat="46.50097" lon="0.37099">
        <ele>122.2</ele>
        <time>2022-06-26T06:43:34Z</time>
      </trkpt>
      <trkpt lat="46.50089" lon="0.37097">
        <ele>122.2</ele>
        <time>2022-06-26T06:43:37Z</time>
      </trkpt>
      <trkpt lat="46.50084" lon="0.37094">
        <ele>122</ele>
        <time>2022-06-26T06:43:39Z</time>
      </trkpt>
      <trkpt lat="46.5008" lon="0.37089">
        <ele>122</ele>
        <time>2022-06-26T06:43:41Z</time>
      </trkpt>
      <trkpt lat="46.5008" lon="0.37087">
        <ele>121.8</ele>
        <time>2022-06-26T06:43:42Z</time>
      </trkpt>
      <trkpt lat="46.50068" lon="0.37075">
        <ele>122.4</ele>
        <time>2022-06-26T06:43:48Z</time>
      </trkpt>
      <trkpt lat="46.50066" lon="0.37073">
        <ele>122.6</ele>
        <time>2022-06-26T06:43:49Z</time>
      </trkpt>
      <trkpt lat="46.5006" lon="0.3707">
        <ele>122.6</ele>
        <time>2022-06-26T06:43:52Z</time>
      </trkpt>
      <trkpt lat="46.50058" lon="0.37069">
        <ele>122.6</ele>
        <time>2022-06-26T06:43:53Z</time>
      </trkpt>
      <trkpt lat="46.50045" lon="0.37072">
        <ele>122.6</ele>
        <time>2022-06-26T06:43:59Z</time>
      </trkpt>
      <trkpt lat="46.50038" lon="0.37068">
        <ele>122.6</ele>
        <time>2022-06-26T06:44:02Z</time>
      </trkpt>
      <trkpt lat="46.50027" lon="0.37061">
        <ele>122.6</ele>
        <time>2022-06-26T06:44:07Z</time>
      </trkpt>
      <trkpt lat="46.50023" lon="0.3706">
        <ele>122.8</ele>
        <time>2022-06-26T06:44:09Z</time>
      </trkpt>
      <trkpt lat="46.50014" lon="0.3706">
        <ele>123</ele>
        <time>2022-06-26T06:44:13Z</time>
      </trkpt>
      <trkpt lat="46.50004" lon="0.37064">
        <ele>123</ele>
        <time>2022-06-26T06:44:19Z</time>
      </trkpt>
      <trkpt lat="46.50002" lon="0.37065">
        <ele>123</ele>
        <time>2022-06-26T06:44:20Z</time>
      </trkpt>
      <trkpt lat="46.49998" lon="0.37067">
        <ele>123.2</ele>
        <time>2022-06-26T06:44:22Z</time>
      </trkpt>
      <trkpt lat="46.49987" lon="0.3707">
        <ele>123</ele>
        <time>2022-06-26T06:44:26Z</time>
      </trkpt>
      <trkpt lat="46.49984" lon="0.3707">
        <ele>122.8</ele>
        <time>2022-06-26T06:44:28Z</time>
      </trkpt>
      <trkpt lat="46.49975" lon="0.3707">
        <ele>122.8</ele>
        <time>2022-06-26T06:44:30Z</time>
      </trkpt>
      <trkpt lat="46.4997" lon="0.37074">
        <ele>123</ele>
        <time>2022-06-26T06:44:32Z</time>
      </trkpt>
      <trkpt lat="46.49957" lon="0.37084">
        <ele>123.4</ele>
        <time>2022-06-26T06:44:38Z</time>
      </trkpt>
      <trkpt lat="46.49955" lon="0.37085">
        <ele>123.2</ele>
        <time>2022-06-26T06:44:39Z</time>
      </trkpt>
      <trkpt lat="46.49946" lon="0.37093">
        <ele>122.8</ele>
        <time>2022-06-26T06:44:42Z</time>
      </trkpt>
      <trkpt lat="46.49941" lon="0.37099">
        <ele>123</ele>
        <time>2022-06-26T06:44:44Z</time>
      </trkpt>
      <trkpt lat="46.49939" lon="0.37103">
        <ele>123.4</ele>
        <time>2022-06-26T06:44:45Z</time>
      </trkpt>
      <trkpt lat="46.49933" lon="0.37108">
        <ele>123.8</ele>
        <time>2022-06-26T06:44:47Z</time>
      </trkpt>
      <trkpt lat="46.49932" lon="0.37112">
        <ele>123.8</ele>
        <time>2022-06-26T06:44:48Z</time>
      </trkpt>
      <trkpt lat="46.49931" lon="0.37116">
        <ele>124</ele>
        <time>2022-06-26T06:44:49Z</time>
      </trkpt>
      <trkpt lat="46.49927" lon="0.37123">
        <ele>123.8</ele>
        <time>2022-06-26T06:44:51Z</time>
      </trkpt>
      <trkpt lat="46.49918" lon="0.37135">
        <ele>123.8</ele>
        <time>2022-06-26T06:44:54Z</time>
      </trkpt>
      <trkpt lat="46.49906" lon="0.37155">
        <ele>124</ele>
        <time>2022-06-26T06:44:58Z</time>
      </trkpt>
      <trkpt lat="46.499" lon="0.37164">
        <ele>124</ele>
        <time>2022-06-26T06:45:00Z</time>
      </trkpt>
      <trkpt lat="46.49894" lon="0.37171">
        <ele>124</ele>
        <time>2022-06-26T06:45:02Z</time>
      </trkpt>
      <trkpt lat="46.4989" lon="0.37177">
        <ele>123.8</ele>
        <time>2022-06-26T06:45:04Z</time>
      </trkpt>
      <trkpt lat="46.4989" lon="0.37181">
        <ele>123.8</ele>
        <time>2022-06-26T06:45:05Z</time>
      </trkpt>
      <trkpt lat="46.49889" lon="0.37189">
        <ele>123.8</ele>
        <time>2022-06-26T06:45:07Z</time>
      </trkpt>
      <trkpt lat="46.49893" lon="0.37202">
        <ele>123.8</ele>
        <time>2022-06-26T06:45:10Z</time>
      </trkpt>
      <trkpt lat="46.49905" lon="0.37222">
        <ele>124.4</ele>
        <time>2022-06-26T06:45:14Z</time>
      </trkpt>
      <trkpt lat="46.4991" lon="0.37232">
        <ele>124.2</ele>
        <time>2022-06-26T06:45:16Z</time>
      </trkpt>
      <trkpt lat="46.49911" lon="0.3724">
        <ele>124.2</ele>
        <time>2022-06-26T06:45:18Z</time>
      </trkpt>
      <trkpt lat="46.4991" lon="0.37243">
        <ele>124</ele>
        <time>2022-06-26T06:45:19Z</time>
      </trkpt>
      <trkpt lat="46.49908" lon="0.37246">
        <ele>124</ele>
        <time>2022-06-26T06:45:20Z</time>
      </trkpt>
      <trkpt lat="46.49903" lon="0.37255">
        <ele>124</ele>
        <time>2022-06-26T06:45:22Z</time>
      </trkpt>
      <trkpt lat="46.49896" lon="0.37266">
        <ele>124</ele>
        <time>2022-06-26T06:45:25Z</time>
      </trkpt>
      <trkpt lat="46.49885" lon="0.37278">
        <ele>124.2</ele>
        <time>2022-06-26T06:45:28Z</time>
      </trkpt>
      <trkpt lat="46.49877" lon="0.37288">
        <ele>124.8</ele>
        <time>2022-06-26T06:45:31Z</time>
      </trkpt>
      <trkpt lat="46.49872" lon="0.37294">
        <ele>124.8</ele>
        <time>2022-06-26T06:45:33Z</time>
      </trkpt>
      <trkpt lat="46.49869" lon="0.37299">
        <ele>124.6</ele>
        <time>2022-06-26T06:45:34Z</time>
      </trkpt>
      <trkpt lat="46.49863" lon="0.37307">
        <ele>124.4</ele>
        <time>2022-06-26T06:45:36Z</time>
      </trkpt>
      <trkpt lat="46.49857" lon="0.37314">
        <ele>124.6</ele>
        <time>2022-06-26T06:45:38Z</time>
      </trkpt>
      <trkpt lat="46.49854" lon="0.37315">
        <ele>124.6</ele>
        <time>2022-06-26T06:45:39Z</time>
      </trkpt>
      <trkpt lat="46.49851" lon="0.37316">
        <ele>124.6</ele>
        <time>2022-06-26T06:45:40Z</time>
      </trkpt>
      <trkpt lat="46.4984" lon="0.37314">
        <ele>124.6</ele>
        <time>2022-06-26T06:45:43Z</time>
      </trkpt>
      <trkpt lat="46.49834" lon="0.37314">
        <ele>124.6</ele>
        <time>2022-06-26T06:45:45Z</time>
      </trkpt>
      <trkpt lat="46.49829" lon="0.37315">
        <ele>124.6</ele>
        <time>2022-06-26T06:45:47Z</time>
      </trkpt>
      <trkpt lat="46.49826" lon="0.37314">
        <ele>124.4</ele>
        <time>2022-06-26T06:45:48Z</time>
      </trkpt>
      <trkpt lat="46.49822" lon="0.37312">
        <ele>124.6</ele>
        <time>2022-06-26T06:45:50Z</time>
      </trkpt>
      <trkpt lat="46.49817" lon="0.37312">
        <ele>124.6</ele>
        <time>2022-06-26T06:45:52Z</time>
      </trkpt>
      <trkpt lat="46.49814" lon="0.37313">
        <ele>124.6</ele>
        <time>2022-06-26T06:45:53Z</time>
      </trkpt>
      <trkpt lat="46.49791" lon="0.3732">
        <ele>124.8</ele>
        <time>2022-06-26T06:45:57Z</time>
      </trkpt>
      <trkpt lat="46.49785" lon="0.37322">
        <ele>125</ele>
        <time>2022-06-26T06:45:58Z</time>
      </trkpt>
      <trkpt lat="46.49781" lon="0.37324">
        <ele>124.8</ele>
        <time>2022-06-26T06:45:59Z</time>
      </trkpt>
      <trkpt lat="46.49772" lon="0.37332">
        <ele>124.6</ele>
        <time>2022-06-26T06:46:02Z</time>
      </trkpt>
      <trkpt lat="46.49764" lon="0.3735">
        <ele>124.6</ele>
        <time>2022-06-26T06:46:07Z</time>
      </trkpt>
      <trkpt lat="46.49761" lon="0.37374">
        <ele>124.8</ele>
        <time>2022-06-26T06:46:12Z</time>
      </trkpt>
      <trkpt lat="46.49755" lon="0.374">
        <ele>124.6</ele>
        <time>2022-06-26T06:46:18Z</time>
      </trkpt>
      <trkpt lat="46.49752" lon="0.37407">
        <ele>124.8</ele>
        <time>2022-06-26T06:46:20Z</time>
      </trkpt>
      <trkpt lat="46.49745" lon="0.37421">
        <ele>125</ele>
        <time>2022-06-26T06:46:24Z</time>
      </trkpt>
      <trkpt lat="46.49726" lon="0.3745">
        <ele>124.8</ele>
        <time>2022-06-26T06:46:31Z</time>
      </trkpt>
      <trkpt lat="46.49714" lon="0.37471">
        <ele>125.2</ele>
        <time>2022-06-26T06:46:35Z</time>
      </trkpt>
      <trkpt lat="46.4971" lon="0.37486">
        <ele>125.4</ele>
        <time>2022-06-26T06:46:38Z</time>
      </trkpt>
      <trkpt lat="46.49709" lon="0.3749">
        <ele>125.4</ele>
        <time>2022-06-26T06:46:39Z</time>
      </trkpt>
      <trkpt lat="46.49701" lon="0.37523">
        <ele>125.4</ele>
        <time>2022-06-26T06:46:44Z</time>
      </trkpt>
      <trkpt lat="46.49699" lon="0.37533">
        <ele>125.2</ele>
        <time>2022-06-26T06:46:45Z</time>
      </trkpt>
      <trkpt lat="46.49696" lon="0.37539">
        <ele>125.2</ele>
        <time>2022-06-26T06:46:46Z</time>
      </trkpt>
      <trkpt lat="46.49691" lon="0.37553">
        <ele>125.2</ele>
        <time>2022-06-26T06:46:48Z</time>
      </trkpt>
      <trkpt lat="46.4969" lon="0.37559">
        <ele>125</ele>
        <time>2022-06-26T06:46:49Z</time>
      </trkpt>
      <trkpt lat="46.4969" lon="0.37563">
        <ele>125</ele>
        <time>2022-06-26T06:46:50Z</time>
      </trkpt>
      <trkpt lat="46.49694" lon="0.37569">
        <ele>125</ele>
        <time>2022-06-26T06:46:52Z</time>
      </trkpt>
      <trkpt lat="46.49703" lon="0.37585">
        <ele>125</ele>
        <time>2022-06-26T06:46:55Z</time>
      </trkpt>
      <trkpt lat="46.49715" lon="0.376">
        <ele>125</ele>
        <time>2022-06-26T06:46:58Z</time>
      </trkpt>
      <trkpt lat="46.49723" lon="0.37611">
        <ele>125</ele>
        <time>2022-06-26T06:47:00Z</time>
      </trkpt>
      <trkpt lat="46.4973" lon="0.37622">
        <ele>125</ele>
        <time>2022-06-26T06:47:02Z</time>
      </trkpt>
      <trkpt lat="46.49733" lon="0.37627">
        <ele>125</ele>
        <time>2022-06-26T06:47:03Z</time>
      </trkpt>
      <trkpt lat="46.49736" lon="0.37632">
        <ele>125</ele>
        <time>2022-06-26T06:47:04Z</time>
      </trkpt>
      <trkpt lat="46.49745" lon="0.37641">
        <ele>125.2</ele>
        <time>2022-06-26T06:47:06Z</time>
      </trkpt>
      <trkpt lat="46.49749" lon="0.37645">
        <ele>125.2</ele>
        <time>2022-06-26T06:47:07Z</time>
      </trkpt>
      <trkpt lat="46.49759" lon="0.37652">
        <ele>125.4</ele>
        <time>2022-06-26T06:47:09Z</time>
      </trkpt>
      <trkpt lat="46.49776" lon="0.37662">
        <ele>125.4</ele>
        <time>2022-06-26T06:47:13Z</time>
      </trkpt>
      <trkpt lat="46.49791" lon="0.37676">
        <ele>125</ele>
        <time>2022-06-26T06:47:17Z</time>
      </trkpt>
      <trkpt lat="46.49801" lon="0.37686">
        <ele>125</ele>
        <time>2022-06-26T06:47:20Z</time>
      </trkpt>
      <trkpt lat="46.49814" lon="0.37699">
        <ele>125</ele>
        <time>2022-06-26T06:47:24Z</time>
      </trkpt>
      <trkpt lat="46.49817" lon="0.377">
        <ele>125</ele>
        <time>2022-06-26T06:47:25Z</time>
      </trkpt>
      <trkpt lat="46.49819" lon="0.37701">
        <ele>125</ele>
        <time>2022-06-26T06:47:26Z</time>
      </trkpt>
      <trkpt lat="46.49827" lon="0.37699">
        <ele>124.8</ele>
        <time>2022-06-26T06:47:29Z</time>
      </trkpt>
      <trkpt lat="46.49846" lon="0.37679">
        <ele>124.2</ele>
        <time>2022-06-26T06:47:36Z</time>
      </trkpt>
      <trkpt lat="46.49866" lon="0.37647">
        <ele>124.6</ele>
        <time>2022-06-26T06:47:43Z</time>
      </trkpt>
      <trkpt lat="46.49884" lon="0.37618">
        <ele>124.6</ele>
        <time>2022-06-26T06:47:49Z</time>
      </trkpt>
      <trkpt lat="46.49907" lon="0.3759">
        <ele>124.4</ele>
        <time>2022-06-26T06:47:56Z</time>
      </trkpt>
      <trkpt lat="46.49933" lon="0.37551">
        <ele>124.2</ele>
        <time>2022-06-26T06:48:04Z</time>
      </trkpt>
      <trkpt lat="46.49955" lon="0.3752">
        <ele>124.4</ele>
        <time>2022-06-26T06:48:10Z</time>
      </trkpt>
      <trkpt lat="46.49977" lon="0.37482">
        <ele>123.8</ele>
        <time>2022-06-26T06:48:17Z</time>
      </trkpt>
      <trkpt lat="46.49987" lon="0.37466">
        <ele>123.4</ele>
        <time>2022-06-26T06:48:20Z</time>
      </trkpt>
      <trkpt lat="46.49995" lon="0.37448">
        <ele>123.4</ele>
        <time>2022-06-26T06:48:23Z</time>
      </trkpt>
      <trkpt lat="46.50006" lon="0.37428">
        <ele>123.4</ele>
        <time>2022-06-26T06:48:26Z</time>
      </trkpt>
      <trkpt lat="46.50014" lon="0.37417">
        <ele>123.4</ele>
        <time>2022-06-26T06:48:28Z</time>
      </trkpt>
      <trkpt lat="46.50021" lon="0.37414">
        <ele>123.2</ele>
        <time>2022-06-26T06:48:30Z</time>
      </trkpt>
      <trkpt lat="46.50024" lon="0.37415">
        <ele>123</ele>
        <time>2022-06-26T06:48:31Z</time>
      </trkpt>
      <trkpt lat="46.50049" lon="0.37423">
        <ele>123</ele>
        <time>2022-06-26T06:48:36Z</time>
      </trkpt>
      <trkpt lat="46.50069" lon="0.37431">
        <ele>122.6</ele>
        <time>2022-06-26T06:48:39Z</time>
      </trkpt>
      <trkpt lat="46.50078" lon="0.37438">
        <ele>122.4</ele>
        <time>2022-06-26T06:48:41Z</time>
      </trkpt>
      <trkpt lat="46.50108" lon="0.3746">
        <ele>122.2</ele>
        <time>2022-06-26T06:48:47Z</time>
      </trkpt>
      <trkpt lat="46.50126" lon="0.37479">
        <ele>122</ele>
        <time>2022-06-26T06:48:51Z</time>
      </trkpt>
      <trkpt lat="46.50137" lon="0.37488">
        <ele>122</ele>
        <time>2022-06-26T06:48:53Z</time>
      </trkpt>
      <trkpt lat="46.50148" lon="0.37498">
        <ele>121.4</ele>
        <time>2022-06-26T06:48:55Z</time>
      </trkpt>
      <trkpt lat="46.50173" lon="0.37518">
        <ele>121</ele>
        <time>2022-06-26T06:49:00Z</time>
      </trkpt>
      <trkpt lat="46.50205" lon="0.37547">
        <ele>121.4</ele>
        <time>2022-06-26T06:49:07Z</time>
      </trkpt>
      <trkpt lat="46.50233" lon="0.37574">
        <ele>121.2</ele>
        <time>2022-06-26T06:49:13Z</time>
      </trkpt>
      <trkpt lat="46.50256" lon="0.37595">
        <ele>120.8</ele>
        <time>2022-06-26T06:49:18Z</time>
      </trkpt>
      <trkpt lat="46.50277" lon="0.37618">
        <ele>120.8</ele>
        <time>2022-06-26T06:49:23Z</time>
      </trkpt>
      <trkpt lat="46.5028" lon="0.37622">
        <ele>120.8</ele>
        <time>2022-06-26T06:49:24Z</time>
      </trkpt>
      <trkpt lat="46.50282" lon="0.37626">
        <ele>120.8</ele>
        <time>2022-06-26T06:49:25Z</time>
      </trkpt>
      <trkpt lat="46.50281" lon="0.37636">
        <ele>120.4</ele>
        <time>2022-06-26T06:49:28Z</time>
      </trkpt>
      <trkpt lat="46.50275" lon="0.37647">
        <ele>120.8</ele>
        <time>2022-06-26T06:49:32Z</time>
      </trkpt>
      <trkpt lat="46.5027" lon="0.37654">
        <ele>121</ele>
        <time>2022-06-26T06:49:34Z</time>
      </trkpt>
      <trkpt lat="46.50253" lon="0.3768">
        <ele>121.8</ele>
        <time>2022-06-26T06:49:40Z</time>
      </trkpt>
      <trkpt lat="46.50246" lon="0.37693">
        <ele>121.8</ele>
        <time>2022-06-26T06:49:43Z</time>
      </trkpt>
      <trkpt lat="46.50236" lon="0.37707">
        <ele>122</ele>
        <time>2022-06-26T06:49:46Z</time>
      </trkpt>
      <trkpt lat="46.50228" lon="0.37719">
        <ele>122.6</ele>
        <time>2022-06-26T06:49:49Z</time>
      </trkpt>
      <trkpt lat="46.50217" lon="0.37737">
        <ele>122.8</ele>
        <time>2022-06-26T06:49:53Z</time>
      </trkpt>
      <trkpt lat="46.502" lon="0.37762">
        <ele>122.8</ele>
        <time>2022-06-26T06:49:58Z</time>
      </trkpt>
      <trkpt lat="46.50192" lon="0.37773">
        <ele>122.8</ele>
        <time>2022-06-26T06:50:00Z</time>
      </trkpt>
      <trkpt lat="46.50167" lon="0.37811">
        <ele>123.2</ele>
        <time>2022-06-26T06:50:08Z</time>
      </trkpt>
      <trkpt lat="46.50146" lon="0.37839">
        <ele>123.6</ele>
        <time>2022-06-26T06:50:14Z</time>
      </trkpt>
      <trkpt lat="46.5014" lon="0.37847">
        <ele>123.6</ele>
        <time>2022-06-26T06:50:16Z</time>
      </trkpt>
      <trkpt lat="46.50109" lon="0.3788">
        <ele>123.4</ele>
        <time>2022-06-26T06:50:23Z</time>
      </trkpt>
      <trkpt lat="46.50084" lon="0.37913">
        <ele>123.4</ele>
        <time>2022-06-26T06:50:30Z</time>
      </trkpt>
      <trkpt lat="46.50064" lon="0.37941">
        <ele>122.6</ele>
        <time>2022-06-26T06:50:36Z</time>
      </trkpt>
      <trkpt lat="46.50059" lon="0.37948">
        <ele>122.4</ele>
        <time>2022-06-26T06:50:37Z</time>
      </trkpt>
      <trkpt lat="46.50051" lon="0.37954">
        <ele>122.4</ele>
        <time>2022-06-26T06:50:38Z</time>
      </trkpt>
      <trkpt lat="46.50043" lon="0.37967">
        <ele>122.2</ele>
        <time>2022-06-26T06:50:40Z</time>
      </trkpt>
      <trkpt lat="46.50039" lon="0.37979">
        <ele>122.2</ele>
        <time>2022-06-26T06:50:42Z</time>
      </trkpt>
      <trkpt lat="46.50039" lon="0.37992">
        <ele>122</ele>
        <time>2022-06-26T06:50:44Z</time>
      </trkpt>
      <trkpt lat="46.50043" lon="0.38004">
        <ele>121.8</ele>
        <time>2022-06-26T06:50:46Z</time>
      </trkpt>
      <trkpt lat="46.50049" lon="0.38017">
        <ele>121.8</ele>
        <time>2022-06-26T06:50:48Z</time>
      </trkpt>
      <trkpt lat="46.50056" lon="0.38027">
        <ele>121.8</ele>
        <time>2022-06-26T06:50:50Z</time>
      </trkpt>
      <trkpt lat="46.5006" lon="0.38032">
        <ele>121.8</ele>
        <time>2022-06-26T06:50:51Z</time>
      </trkpt>
      <trkpt lat="46.50063" lon="0.38037">
        <ele>121.8</ele>
        <time>2022-06-26T06:50:52Z</time>
      </trkpt>
      <trkpt lat="46.50071" lon="0.38042">
        <ele>121.4</ele>
        <time>2022-06-26T06:50:54Z</time>
      </trkpt>
      <trkpt lat="46.50077" lon="0.38046">
        <ele>121.2</ele>
        <time>2022-06-26T06:50:55Z</time>
      </trkpt>
      <trkpt lat="46.50084" lon="0.38056">
        <ele>121.4</ele>
        <time>2022-06-26T06:50:57Z</time>
      </trkpt>
      <trkpt lat="46.50087" lon="0.38061">
        <ele>121.4</ele>
        <time>2022-06-26T06:50:58Z</time>
      </trkpt>
      <trkpt lat="46.50098" lon="0.38077">
        <ele>121.6</ele>
        <time>2022-06-26T06:51:01Z</time>
      </trkpt>
      <trkpt lat="46.50105" lon="0.38089">
        <ele>121.6</ele>
        <time>2022-06-26T06:51:03Z</time>
      </trkpt>
      <trkpt lat="46.50118" lon="0.38104">
        <ele>121.2</ele>
        <time>2022-06-26T06:51:06Z</time>
      </trkpt>
      <trkpt lat="46.50124" lon="0.38112">
        <ele>121.2</ele>
        <time>2022-06-26T06:51:08Z</time>
      </trkpt>
      <trkpt lat="46.50136" lon="0.38125">
        <ele>121.2</ele>
        <time>2022-06-26T06:51:11Z</time>
      </trkpt>
      <trkpt lat="46.50143" lon="0.38131">
        <ele>121.2</ele>
        <time>2022-06-26T06:51:13Z</time>
      </trkpt>
      <trkpt lat="46.50154" lon="0.38137">
        <ele>121.4</ele>
        <time>2022-06-26T06:51:16Z</time>
      </trkpt>
      <trkpt lat="46.50169" lon="0.38142">
        <ele>121.4</ele>
        <time>2022-06-26T06:51:20Z</time>
      </trkpt>
      <trkpt lat="46.50174" lon="0.38144">
        <ele>121.2</ele>
        <time>2022-06-26T06:51:21Z</time>
      </trkpt>
      <trkpt lat="46.50189" lon="0.38151">
        <ele>121.2</ele>
        <time>2022-06-26T06:51:25Z</time>
      </trkpt>
      <trkpt lat="46.50195" lon="0.3815">
        <ele>121</ele>
        <time>2022-06-26T06:51:27Z</time>
      </trkpt>
      <trkpt lat="46.50208" lon="0.38138">
        <ele>121</ele>
        <time>2022-06-26T06:51:33Z</time>
      </trkpt>
      <trkpt lat="46.50217" lon="0.38128">
        <ele>121.4</ele>
        <time>2022-06-26T06:51:36Z</time>
      </trkpt>
      <trkpt lat="46.50224" lon="0.38123">
        <ele>121.6</ele>
        <time>2022-06-26T06:51:38Z</time>
      </trkpt>
      <trkpt lat="46.50228" lon="0.38121">
        <ele>121.6</ele>
        <time>2022-06-26T06:51:39Z</time>
      </trkpt>
      <trkpt lat="46.50236" lon="0.38118">
        <ele>122</ele>
        <time>2022-06-26T06:51:41Z</time>
      </trkpt>
      <trkpt lat="46.50244" lon="0.38116">
        <ele>122</ele>
        <time>2022-06-26T06:51:43Z</time>
      </trkpt>
      <trkpt lat="46.50252" lon="0.38115">
        <ele>122</ele>
        <time>2022-06-26T06:51:45Z</time>
      </trkpt>
      <trkpt lat="46.50256" lon="0.38114">
        <ele>122.2</ele>
        <time>2022-06-26T06:51:46Z</time>
      </trkpt>
      <trkpt lat="46.50264" lon="0.38111">
        <ele>122</ele>
        <time>2022-06-26T06:51:48Z</time>
      </trkpt>
      <trkpt lat="46.50272" lon="0.38107">
        <ele>122.2</ele>
        <time>2022-06-26T06:51:50Z</time>
      </trkpt>
      <trkpt lat="46.50276" lon="0.38104">
        <ele>122.2</ele>
        <time>2022-06-26T06:51:51Z</time>
      </trkpt>
      <trkpt lat="46.50296" lon="0.38087">
        <ele>122.2</ele>
        <time>2022-06-26T06:51:57Z</time>
      </trkpt>
      <trkpt lat="46.50307" lon="0.38078">
        <ele>122</ele>
        <time>2022-06-26T06:52:00Z</time>
      </trkpt>
      <trkpt lat="46.50316" lon="0.38067">
        <ele>121.8</ele>
        <time>2022-06-26T06:52:03Z</time>
      </trkpt>
      <trkpt lat="46.50322" lon="0.38061">
        <ele>121.8</ele>
        <time>2022-06-26T06:52:05Z</time>
      </trkpt>
      <trkpt lat="46.50334" lon="0.38052">
        <ele>121.4</ele>
        <time>2022-06-26T06:52:09Z</time>
      </trkpt>
      <trkpt lat="46.50359" lon="0.38046">
        <ele>121.4</ele>
        <time>2022-06-26T06:52:14Z</time>
      </trkpt>
      <trkpt lat="46.50366" lon="0.38047">
        <ele>121.4</ele>
        <time>2022-06-26T06:52:16Z</time>
      </trkpt>
      <trkpt lat="46.50387" lon="0.38057">
        <ele>121.4</ele>
        <time>2022-06-26T06:52:21Z</time>
      </trkpt>
      <trkpt lat="46.50417" lon="0.38072">
        <ele>120.6</ele>
        <time>2022-06-26T06:52:28Z</time>
      </trkpt>
      <trkpt lat="46.50432" lon="0.38081">
        <ele>120.2</ele>
        <time>2022-06-26T06:52:32Z</time>
      </trkpt>
      <trkpt lat="46.50449" lon="0.38094">
        <ele>119.6</ele>
        <time>2022-06-26T06:52:36Z</time>
      </trkpt>
      <trkpt lat="46.50455" lon="0.38098">
        <ele>119.6</ele>
        <time>2022-06-26T06:52:37Z</time>
      </trkpt>
      <trkpt lat="46.5046" lon="0.38107">
        <ele>119.4</ele>
        <time>2022-06-26T06:52:39Z</time>
      </trkpt>
      <trkpt lat="46.50462" lon="0.38111">
        <ele>119.4</ele>
        <time>2022-06-26T06:52:40Z</time>
      </trkpt>
      <trkpt lat="46.50456" lon="0.38132">
        <ele>119.4</ele>
        <time>2022-06-26T06:52:45Z</time>
      </trkpt>
      <trkpt lat="46.50454" lon="0.38137">
        <ele>119.4</ele>
        <time>2022-06-26T06:52:46Z</time>
      </trkpt>
      <trkpt lat="46.50442" lon="0.38168">
        <ele>119.6</ele>
        <time>2022-06-26T06:52:51Z</time>
      </trkpt>
      <trkpt lat="46.50424" lon="0.38214">
        <ele>119.4</ele>
        <time>2022-06-26T06:52:59Z</time>
      </trkpt>
      <trkpt lat="46.50423" lon="0.38218">
        <ele>119.4</ele>
        <time>2022-06-26T06:53:00Z</time>
      </trkpt>
      <trkpt lat="46.50423" lon="0.38218">
        <ele>119.2</ele>
        <time>2022-06-26T06:53:01Z</time>
      </trkpt>
      <trkpt lat="46.50424" lon="0.38232">
        <ele>119</ele>
        <time>2022-06-26T06:53:03Z</time>
      </trkpt>
      <trkpt lat="46.50426" lon="0.38237">
        <ele>118.8</ele>
        <time>2022-06-26T06:53:04Z</time>
      </trkpt>
      <trkpt lat="46.50429" lon="0.38245">
        <ele>118.6</ele>
        <time>2022-06-26T06:53:06Z</time>
      </trkpt>
      <trkpt lat="46.50436" lon="0.38262">
        <ele>118.2</ele>
        <time>2022-06-26T06:53:10Z</time>
      </trkpt>
      <trkpt lat="46.50438" lon="0.38268">
        <ele>118.2</ele>
        <time>2022-06-26T06:53:11Z</time>
      </trkpt>
      <trkpt lat="46.5044" lon="0.38273">
        <ele>118</ele>
        <time>2022-06-26T06:53:12Z</time>
      </trkpt>
      <trkpt lat="46.50449" lon="0.38298">
        <ele>117.8</ele>
        <time>2022-06-26T06:53:16Z</time>
      </trkpt>
      <trkpt lat="46.50451" lon="0.38304">
        <ele>117.8</ele>
        <time>2022-06-26T06:53:17Z</time>
      </trkpt>
      <trkpt lat="46.50454" lon="0.38309">
        <ele>117.8</ele>
        <time>2022-06-26T06:53:18Z</time>
      </trkpt>
      <trkpt lat="46.50461" lon="0.3832">
        <ele>117.6</ele>
        <time>2022-06-26T06:53:20Z</time>
      </trkpt>
      <trkpt lat="46.50469" lon="0.3833">
        <ele>117.4</ele>
        <time>2022-06-26T06:53:22Z</time>
      </trkpt>
      <trkpt lat="46.50475" lon="0.38339">
        <ele>117</ele>
        <time>2022-06-26T06:53:24Z</time>
      </trkpt>
      <trkpt lat="46.50477" lon="0.38345">
        <ele>117</ele>
        <time>2022-06-26T06:53:25Z</time>
      </trkpt>
      <trkpt lat="46.50479" lon="0.38351">
        <ele>116.8</ele>
        <time>2022-06-26T06:53:26Z</time>
      </trkpt>
      <trkpt lat="46.50482" lon="0.38369">
        <ele>116.8</ele>
        <time>2022-06-26T06:53:29Z</time>
      </trkpt>
      <trkpt lat="46.50486" lon="0.38378">
        <ele>116.6</ele>
        <time>2022-06-26T06:53:31Z</time>
      </trkpt>
      <trkpt lat="46.50489" lon="0.38382">
        <ele>116.4</ele>
        <time>2022-06-26T06:53:32Z</time>
      </trkpt>
      <trkpt lat="46.50496" lon="0.38394">
        <ele>115.8</ele>
        <time>2022-06-26T06:53:35Z</time>
      </trkpt>
      <trkpt lat="46.50501" lon="0.38401">
        <ele>115.6</ele>
        <time>2022-06-26T06:53:37Z</time>
      </trkpt>
      <trkpt lat="46.50517" lon="0.3842">
        <ele>115.8</ele>
        <time>2022-06-26T06:53:43Z</time>
      </trkpt>
      <trkpt lat="46.50529" lon="0.38443">
        <ele>116</ele>
        <time>2022-06-26T06:53:50Z</time>
      </trkpt>
      <trkpt lat="46.50539" lon="0.38461">
        <ele>116</ele>
        <time>2022-06-26T06:53:55Z</time>
      </trkpt>
      <trkpt lat="46.50545" lon="0.38476">
        <ele>116.2</ele>
        <time>2022-06-26T06:53:58Z</time>
      </trkpt>
      <trkpt lat="46.50547" lon="0.38479">
        <ele>116</ele>
        <time>2022-06-26T06:53:59Z</time>
      </trkpt>
      <trkpt lat="46.50558" lon="0.38486">
        <ele>116</ele>
        <time>2022-06-26T06:54:04Z</time>
      </trkpt>
      <trkpt lat="46.50571" lon="0.38486">
        <ele>115.6</ele>
        <time>2022-06-26T06:54:09Z</time>
      </trkpt>
      <trkpt lat="46.50572" lon="0.38485">
        <ele>115.4</ele>
        <time>2022-06-26T06:54:10Z</time>
      </trkpt>
      <trkpt lat="46.50573" lon="0.38485">
        <ele>115.4</ele>
        <time>2022-06-26T06:54:11Z</time>
      </trkpt>
      <trkpt lat="46.50572" lon="0.38487">
        <ele>115.6</ele>
        <time>2022-06-26T06:54:13Z</time>
      </trkpt>
      <trkpt lat="46.50572" lon="0.38486">
        <ele>115.6</ele>
        <time>2022-06-26T06:54:14Z</time>
      </trkpt>
      <trkpt lat="46.50571" lon="0.38485">
        <ele>115.6</ele>
        <time>2022-06-26T06:54:15Z</time>
      </trkpt>
      <trkpt lat="46.50569" lon="0.38483">
        <ele>115.6</ele>
        <time>2022-06-26T06:54:19Z</time>
      </trkpt>
      <trkpt lat="46.50569" lon="0.38482">
        <ele>115.6</ele>
        <time>2022-06-26T06:54:20Z</time>
      </trkpt>
      <trkpt lat="46.50569" lon="0.38479">
        <ele>115.6</ele>
        <time>2022-06-26T06:54:22Z</time>
      </trkpt>
      <trkpt lat="46.5057" lon="0.38478">
        <ele>115.6</ele>
        <time>2022-06-26T06:54:23Z</time>
      </trkpt>
      <trkpt lat="46.50578" lon="0.38461">
        <ele>115.4</ele>
        <time>2022-06-26T06:54:29Z</time>
      </trkpt>
      <trkpt lat="46.50579" lon="0.38457">
        <ele>115</ele>
        <time>2022-06-26T06:54:30Z</time>
      </trkpt>
      <trkpt lat="46.50581" lon="0.38453">
        <ele>114.6</ele>
        <time>2022-06-26T06:54:31Z</time>
      </trkpt>
      <trkpt lat="46.50586" lon="0.3844">
        <ele>113.6</ele>
        <time>2022-06-26T06:54:34Z</time>
      </trkpt>
      <trkpt lat="46.50587" lon="0.38436">
        <ele>113.2</ele>
        <time>2022-06-26T06:54:35Z</time>
      </trkpt>
      <trkpt lat="46.50591" lon="0.3843">
        <ele>112.6</ele>
        <time>2022-06-26T06:54:37Z</time>
      </trkpt>
      <trkpt lat="46.50592" lon="0.38428">
        <ele>112.4</ele>
        <time>2022-06-26T06:54:38Z</time>
      </trkpt>
      <trkpt lat="46.50594" lon="0.38423">
        <ele>111</ele>
        <time>2022-06-26T06:54:40Z</time>
      </trkpt>
      <trkpt lat="46.50595" lon="0.38421">
        <ele>110.6</ele>
        <time>2022-06-26T06:54:41Z</time>
      </trkpt>
      <trkpt lat="46.506" lon="0.38416">
        <ele>110</ele>
        <time>2022-06-26T06:54:44Z</time>
      </trkpt>
      <trkpt lat="46.50606" lon="0.38408">
        <ele>109.4</ele>
        <time>2022-06-26T06:54:47Z</time>
      </trkpt>
      <trkpt lat="46.50611" lon="0.38402">
        <ele>108.8</ele>
        <time>2022-06-26T06:54:49Z</time>
      </trkpt>
      <trkpt lat="46.50617" lon="0.38396">
        <ele>108.8</ele>
        <time>2022-06-26T06:54:51Z</time>
      </trkpt>
      <trkpt lat="46.50629" lon="0.38382">
        <ele>109.2</ele>
        <time>2022-06-26T06:54:55Z</time>
      </trkpt>
      <trkpt lat="46.50633" lon="0.38376">
        <ele>109.4</ele>
        <time>2022-06-26T06:54:58Z</time>
      </trkpt>
      <trkpt lat="46.50634" lon="0.38373">
        <ele>109.8</ele>
        <time>2022-06-26T06:55:00Z</time>
      </trkpt>
      <trkpt lat="46.50633" lon="0.38369">
        <ele>109.8</ele>
        <time>2022-06-26T06:55:01Z</time>
      </trkpt>
      <trkpt lat="46.50632" lon="0.38358">
        <ele>110.2</ele>
        <time>2022-06-26T06:55:05Z</time>
      </trkpt>
      <trkpt lat="46.50624" lon="0.38345">
        <ele>111.2</ele>
        <time>2022-06-26T06:55:10Z</time>
      </trkpt>
      <trkpt lat="46.5062" lon="0.38339">
        <ele>111.4</ele>
        <time>2022-06-26T06:55:12Z</time>
      </trkpt>
      <trkpt lat="46.50614" lon="0.38324">
        <ele>112</ele>
        <time>2022-06-26T06:55:16Z</time>
      </trkpt>
      <trkpt lat="46.50613" lon="0.3832">
        <ele>112.4</ele>
        <time>2022-06-26T06:55:17Z</time>
      </trkpt>
      <trkpt lat="46.50609" lon="0.38313">
        <ele>112.6</ele>
        <time>2022-06-26T06:55:19Z</time>
      </trkpt>
      <trkpt lat="46.50599" lon="0.38288">
        <ele>113.4</ele>
        <time>2022-06-26T06:55:25Z</time>
      </trkpt>
      <trkpt lat="46.50595" lon="0.38279">
        <ele>114.2</ele>
        <time>2022-06-26T06:55:27Z</time>
      </trkpt>
      <trkpt lat="46.50594" lon="0.38272">
        <ele>114.6</ele>
        <time>2022-06-26T06:55:28Z</time>
      </trkpt>
      <trkpt lat="46.50585" lon="0.38254">
        <ele>115.8</ele>
        <time>2022-06-26T06:55:32Z</time>
      </trkpt>
      <trkpt lat="46.50583" lon="0.38251">
        <ele>115.8</ele>
        <time>2022-06-26T06:55:33Z</time>
      </trkpt>
      <trkpt lat="46.50575" lon="0.38225">
        <ele>116.4</ele>
        <time>2022-06-26T06:55:39Z</time>
      </trkpt>
      <trkpt lat="46.5057" lon="0.38212">
        <ele>116.8</ele>
        <time>2022-06-26T06:55:42Z</time>
      </trkpt>
      <trkpt lat="46.50564" lon="0.38202">
        <ele>116.8</ele>
        <time>2022-06-26T06:55:45Z</time>
      </trkpt>
      <trkpt lat="46.50551" lon="0.38179">
        <ele>117.4</ele>
        <time>2022-06-26T06:55:51Z</time>
      </trkpt>
      <trkpt lat="46.50548" lon="0.38168">
        <ele>117.8</ele>
        <time>2022-06-26T06:55:54Z</time>
      </trkpt>
      <trkpt lat="46.50545" lon="0.38153">
        <ele>118.2</ele>
        <time>2022-06-26T06:55:58Z</time>
      </trkpt>
      <trkpt lat="46.50546" lon="0.38149">
        <ele>118.4</ele>
        <time>2022-06-26T06:55:59Z</time>
      </trkpt>
      <trkpt lat="46.50545" lon="0.38138">
        <ele>118.6</ele>
        <time>2022-06-26T06:56:02Z</time>
      </trkpt>
      <trkpt lat="46.5054" lon="0.38117">
        <ele>119</ele>
        <time>2022-06-26T06:56:07Z</time>
      </trkpt>
      <trkpt lat="46.50537" lon="0.38106">
        <ele>119</ele>
        <time>2022-06-26T06:56:09Z</time>
      </trkpt>
      <trkpt lat="46.50531" lon="0.38079">
        <ele>119</ele>
        <time>2022-06-26T06:56:13Z</time>
      </trkpt>
      <trkpt lat="46.50531" lon="0.38073">
        <ele>119</ele>
        <time>2022-06-26T06:56:14Z</time>
      </trkpt>
      <trkpt lat="46.50531" lon="0.38062">
        <ele>118.8</ele>
        <time>2022-06-26T06:56:16Z</time>
      </trkpt>
      <trkpt lat="46.5053" lon="0.3805">
        <ele>118.8</ele>
        <time>2022-06-26T06:56:18Z</time>
      </trkpt>
      <trkpt lat="46.50528" lon="0.38038">
        <ele>118.8</ele>
        <time>2022-06-26T06:56:20Z</time>
      </trkpt>
      <trkpt lat="46.50521" lon="0.38006">
        <ele>118.6</ele>
        <time>2022-06-26T06:56:25Z</time>
      </trkpt>
      <trkpt lat="46.50519" lon="0.37994">
        <ele>118.2</ele>
        <time>2022-06-26T06:56:27Z</time>
      </trkpt>
      <trkpt lat="46.50518" lon="0.3798">
        <ele>118</ele>
        <time>2022-06-26T06:56:29Z</time>
      </trkpt>
      <trkpt lat="46.50512" lon="0.37948">
        <ele>117.6</ele>
        <time>2022-06-26T06:56:33Z</time>
      </trkpt>
      <trkpt lat="46.50509" lon="0.37934">
        <ele>117.6</ele>
        <time>2022-06-26T06:56:35Z</time>
      </trkpt>
      <trkpt lat="46.505" lon="0.37912">
        <ele>117.4</ele>
        <time>2022-06-26T06:56:38Z</time>
      </trkpt>
      <trkpt lat="46.50496" lon="0.37896">
        <ele>117.4</ele>
        <time>2022-06-26T06:56:40Z</time>
      </trkpt>
      <trkpt lat="46.50493" lon="0.37872">
        <ele>117.6</ele>
        <time>2022-06-26T06:56:43Z</time>
      </trkpt>
      <trkpt lat="46.50486" lon="0.37815">
        <ele>117.6</ele>
        <time>2022-06-26T06:56:49Z</time>
      </trkpt>
      <trkpt lat="46.50487" lon="0.37778">
        <ele>116.8</ele>
        <time>2022-06-26T06:56:53Z</time>
      </trkpt>
      <trkpt lat="46.50488" lon="0.37769">
        <ele>116.6</ele>
        <time>2022-06-26T06:56:54Z</time>
      </trkpt>
      <trkpt lat="46.50491" lon="0.37755">
        <ele>116</ele>
        <time>2022-06-26T06:56:56Z</time>
      </trkpt>
      <trkpt lat="46.50493" lon="0.3775">
        <ele>115.8</ele>
        <time>2022-06-26T06:56:57Z</time>
      </trkpt>
      <trkpt lat="46.50501" lon="0.37737">
        <ele>114.6</ele>
        <time>2022-06-26T06:57:00Z</time>
      </trkpt>
      <trkpt lat="46.50506" lon="0.37734">
        <ele>113</ele>
        <time>2022-06-26T06:57:02Z</time>
      </trkpt>
      <trkpt lat="46.5051" lon="0.37734">
        <ele>112.2</ele>
        <time>2022-06-26T06:57:04Z</time>
      </trkpt>
      <trkpt lat="46.50512" lon="0.37735">
        <ele>111.8</ele>
        <time>2022-06-26T06:57:05Z</time>
      </trkpt>
      <trkpt lat="46.50516" lon="0.37735">
        <ele>111.6</ele>
        <time>2022-06-26T06:57:07Z</time>
      </trkpt>
      <trkpt lat="46.50524" lon="0.37733">
        <ele>110.8</ele>
        <time>2022-06-26T06:57:10Z</time>
      </trkpt>
      <trkpt lat="46.50535" lon="0.37737">
        <ele>110</ele>
        <time>2022-06-26T06:57:13Z</time>
      </trkpt>
      <trkpt lat="46.50539" lon="0.37739">
        <ele>109.4</ele>
        <time>2022-06-26T06:57:14Z</time>
      </trkpt>
      <trkpt lat="46.50543" lon="0.3774">
        <ele>109</ele>
        <time>2022-06-26T06:57:15Z</time>
      </trkpt>
      <trkpt lat="46.50552" lon="0.37742">
        <ele>108.4</ele>
        <time>2022-06-26T06:57:17Z</time>
      </trkpt>
      <trkpt lat="46.50566" lon="0.37746">
        <ele>107</ele>
        <time>2022-06-26T06:57:20Z</time>
      </trkpt>
      <trkpt lat="46.50571" lon="0.37747">
        <ele>106.6</ele>
        <time>2022-06-26T06:57:21Z</time>
      </trkpt>
      <trkpt lat="46.50576" lon="0.3775">
        <ele>106.2</ele>
        <time>2022-06-26T06:57:22Z</time>
      </trkpt>
      <trkpt lat="46.50586" lon="0.37755">
        <ele>105.6</ele>
        <time>2022-06-26T06:57:24Z</time>
      </trkpt>
      <trkpt lat="46.50602" lon="0.37762">
        <ele>104.4</ele>
        <time>2022-06-26T06:57:27Z</time>
      </trkpt>
      <trkpt lat="46.50622" lon="0.37768">
        <ele>104</ele>
        <time>2022-06-26T06:57:31Z</time>
      </trkpt>
      <trkpt lat="46.50633" lon="0.37771">
        <ele>104</ele>
        <time>2022-06-26T06:57:33Z</time>
      </trkpt>
      <trkpt lat="46.50645" lon="0.37772">
        <ele>104</ele>
        <time>2022-06-26T06:57:35Z</time>
      </trkpt>
      <trkpt lat="46.50657" lon="0.37777">
        <ele>103.6</ele>
        <time>2022-06-26T06:57:37Z</time>
      </trkpt>
      <trkpt lat="46.50664" lon="0.37781">
        <ele>103.4</ele>
        <time>2022-06-26T06:57:38Z</time>
      </trkpt>
      <trkpt lat="46.50668" lon="0.37784">
        <ele>103.4</ele>
        <time>2022-06-26T06:57:39Z</time>
      </trkpt>
      <trkpt lat="46.50673" lon="0.37788">
        <ele>103.4</ele>
        <time>2022-06-26T06:57:40Z</time>
      </trkpt>
      <trkpt lat="46.50686" lon="0.37795">
        <ele>103.6</ele>
        <time>2022-06-26T06:57:43Z</time>
      </trkpt>
      <trkpt lat="46.5069" lon="0.37797">
        <ele>103.6</ele>
        <time>2022-06-26T06:57:44Z</time>
      </trkpt>
      <trkpt lat="46.50701" lon="0.378">
        <ele>104</ele>
        <time>2022-06-26T06:57:47Z</time>
      </trkpt>
      <trkpt lat="46.5071" lon="0.378">
        <ele>103.4</ele>
        <time>2022-06-26T06:57:49Z</time>
      </trkpt>
      <trkpt lat="46.50723" lon="0.37794">
        <ele>102.4</ele>
        <time>2022-06-26T06:57:52Z</time>
      </trkpt>
      <trkpt lat="46.50736" lon="0.37789">
        <ele>101</ele>
        <time>2022-06-26T06:57:55Z</time>
      </trkpt>
      <trkpt lat="46.50751" lon="0.37784">
        <ele>100.2</ele>
        <time>2022-06-26T06:57:58Z</time>
      </trkpt>
      <trkpt lat="46.50755" lon="0.37784">
        <ele>100</ele>
        <time>2022-06-26T06:57:59Z</time>
      </trkpt>
      <trkpt lat="46.50759" lon="0.37788">
        <ele>99.8</ele>
        <time>2022-06-26T06:58:00Z</time>
      </trkpt>
      <trkpt lat="46.50787" lon="0.37813">
        <ele>99.2</ele>
        <time>2022-06-26T06:58:05Z</time>
      </trkpt>
      <trkpt lat="46.50796" lon="0.37823">
        <ele>99</ele>
        <time>2022-06-26T06:58:07Z</time>
      </trkpt>
      <trkpt lat="46.50811" lon="0.37843">
        <ele>98.8</ele>
        <time>2022-06-26T06:58:10Z</time>
      </trkpt>
      <trkpt lat="46.5082" lon="0.37853">
        <ele>98.8</ele>
        <time>2022-06-26T06:58:12Z</time>
      </trkpt>
      <trkpt lat="46.50831" lon="0.37868">
        <ele>98.6</ele>
        <time>2022-06-26T06:58:15Z</time>
      </trkpt>
      <trkpt lat="46.50837" lon="0.37877">
        <ele>98.4</ele>
        <time>2022-06-26T06:58:17Z</time>
      </trkpt>
      <trkpt lat="46.5085" lon="0.37898">
        <ele>98.4</ele>
        <time>2022-06-26T06:58:21Z</time>
      </trkpt>
      <trkpt lat="46.50854" lon="0.37903">
        <ele>98.4</ele>
        <time>2022-06-26T06:58:22Z</time>
      </trkpt>
      <trkpt lat="46.50857" lon="0.37908">
        <ele>98.4</ele>
        <time>2022-06-26T06:58:23Z</time>
      </trkpt>
      <trkpt lat="46.50868" lon="0.37923">
        <ele>98</ele>
        <time>2022-06-26T06:58:26Z</time>
      </trkpt>
      <trkpt lat="46.50872" lon="0.37929">
        <ele>98.2</ele>
        <time>2022-06-26T06:58:27Z</time>
      </trkpt>
      <trkpt lat="46.50888" lon="0.37963">
        <ele>99.2</ele>
        <time>2022-06-26T06:58:33Z</time>
      </trkpt>
      <trkpt lat="46.50893" lon="0.37972">
        <ele>100</ele>
        <time>2022-06-26T06:58:35Z</time>
      </trkpt>
      <trkpt lat="46.50898" lon="0.37978">
        <ele>101</ele>
        <time>2022-06-26T06:58:37Z</time>
      </trkpt>
      <trkpt lat="46.50902" lon="0.37985">
        <ele>101.8</ele>
        <time>2022-06-26T06:58:39Z</time>
      </trkpt>
      <trkpt lat="46.50904" lon="0.37989">
        <ele>102.2</ele>
        <time>2022-06-26T06:58:40Z</time>
      </trkpt>
      <trkpt lat="46.50912" lon="0.37999">
        <ele>103.2</ele>
        <time>2022-06-26T06:58:43Z</time>
      </trkpt>
      <trkpt lat="46.5092" lon="0.38008">
        <ele>104</ele>
        <time>2022-06-26T06:58:46Z</time>
      </trkpt>
      <trkpt lat="46.50922" lon="0.38012">
        <ele>104.2</ele>
        <time>2022-06-26T06:58:47Z</time>
      </trkpt>
      <trkpt lat="46.5093" lon="0.38028">
        <ele>105.6</ele>
        <time>2022-06-26T06:58:51Z</time>
      </trkpt>
      <trkpt lat="46.50931" lon="0.38032">
        <ele>106</ele>
        <time>2022-06-26T06:58:52Z</time>
      </trkpt>
      <trkpt lat="46.50936" lon="0.38047">
        <ele>106.8</ele>
        <time>2022-06-26T06:58:56Z</time>
      </trkpt>
      <trkpt lat="46.50939" lon="0.38059">
        <ele>107.4</ele>
        <time>2022-06-26T06:58:59Z</time>
      </trkpt>
      <trkpt lat="46.50941" lon="0.38068">
        <ele>107.8</ele>
        <time>2022-06-26T06:59:01Z</time>
      </trkpt>
      <trkpt lat="46.50946" lon="0.38082">
        <ele>108.6</ele>
        <time>2022-06-26T06:59:05Z</time>
      </trkpt>
      <trkpt lat="46.50947" lon="0.3809">
        <ele>109</ele>
        <time>2022-06-26T06:59:07Z</time>
      </trkpt>
      <trkpt lat="46.50952" lon="0.38108">
        <ele>109.6</ele>
        <time>2022-06-26T06:59:12Z</time>
      </trkpt>
      <trkpt lat="46.50953" lon="0.38127">
        <ele>110</ele>
        <time>2022-06-26T06:59:17Z</time>
      </trkpt>
      <trkpt lat="46.50946" lon="0.38153">
        <ele>110.4</ele>
        <time>2022-06-26T06:59:25Z</time>
      </trkpt>
      <trkpt lat="46.50939" lon="0.38176">
        <ele>110.6</ele>
        <time>2022-06-26T06:59:33Z</time>
      </trkpt>
      <trkpt lat="46.50935" lon="0.38188">
        <ele>110.6</ele>
        <time>2022-06-26T06:59:36Z</time>
      </trkpt>
      <trkpt lat="46.50932" lon="0.38195">
        <ele>110.6</ele>
        <time>2022-06-26T06:59:38Z</time>
      </trkpt>
      <trkpt lat="46.50927" lon="0.3821">
        <ele>110.6</ele>
        <time>2022-06-26T06:59:41Z</time>
      </trkpt>
      <trkpt lat="46.5092" lon="0.38238">
        <ele>110.4</ele>
        <time>2022-06-26T06:59:46Z</time>
      </trkpt>
      <trkpt lat="46.50913" lon="0.38244">
        <ele>110.4</ele>
        <time>2022-06-26T06:59:48Z</time>
      </trkpt>
      <trkpt lat="46.50906" lon="0.38255">
        <ele>110.6</ele>
        <time>2022-06-26T06:59:51Z</time>
      </trkpt>
      <trkpt lat="46.50893" lon="0.38271">
        <ele>110.4</ele>
        <time>2022-06-26T06:59:55Z</time>
      </trkpt>
      <trkpt lat="46.50884" lon="0.38284">
        <ele>110.2</ele>
        <time>2022-06-26T06:59:58Z</time>
      </trkpt>
      <trkpt lat="46.50867" lon="0.38304">
        <ele>109.4</ele>
        <time>2022-06-26T07:00:03Z</time>
      </trkpt>
      <trkpt lat="46.50866" lon="0.38312">
        <ele>109</ele>
        <time>2022-06-26T07:00:04Z</time>
      </trkpt>
      <trkpt lat="46.50866" lon="0.38316">
        <ele>108.6</ele>
        <time>2022-06-26T07:00:05Z</time>
      </trkpt>
      <trkpt lat="46.50867" lon="0.3832">
        <ele>108.4</ele>
        <time>2022-06-26T07:00:06Z</time>
      </trkpt>
      <trkpt lat="46.5087" lon="0.38335">
        <ele>107.6</ele>
        <time>2022-06-26T07:00:09Z</time>
      </trkpt>
      <trkpt lat="46.50872" lon="0.3834">
        <ele>106.6</ele>
        <time>2022-06-26T07:00:11Z</time>
      </trkpt>
      <trkpt lat="46.50873" lon="0.38342">
        <ele>106.4</ele>
        <time>2022-06-26T07:00:12Z</time>
      </trkpt>
      <trkpt lat="46.50877" lon="0.3834">
        <ele>106.4</ele>
        <time>2022-06-26T07:00:18Z</time>
      </trkpt>
      <trkpt lat="46.50883" lon="0.38343">
        <ele>106.4</ele>
        <time>2022-06-26T07:00:24Z</time>
      </trkpt>
      <trkpt lat="46.5089" lon="0.3835">
        <ele>106.4</ele>
        <time>2022-06-26T07:00:31Z</time>
      </trkpt>
      <trkpt lat="46.50892" lon="0.38351">
        <ele>106.4</ele>
        <time>2022-06-26T07:00:33Z</time>
      </trkpt>
      <trkpt lat="46.50898" lon="0.38351">
        <ele>106.4</ele>
        <time>2022-06-26T07:00:37Z</time>
      </trkpt>
      <trkpt lat="46.5091" lon="0.38339">
        <ele>105.4</ele>
        <time>2022-06-26T07:00:44Z</time>
      </trkpt>
      <trkpt lat="46.50912" lon="0.38338">
        <ele>105.2</ele>
        <time>2022-06-26T07:00:45Z</time>
      </trkpt>
      <trkpt lat="46.50921" lon="0.38331">
        <ele>104.4</ele>
        <time>2022-06-26T07:00:48Z</time>
      </trkpt>
      <trkpt lat="46.50923" lon="0.38328">
        <ele>104.2</ele>
        <time>2022-06-26T07:00:49Z</time>
      </trkpt>
      <trkpt lat="46.50925" lon="0.38326">
        <ele>104</ele>
        <time>2022-06-26T07:00:50Z</time>
      </trkpt>
      <trkpt lat="46.50928" lon="0.38321">
        <ele>104</ele>
        <time>2022-06-26T07:00:53Z</time>
      </trkpt>
      <trkpt lat="46.5093" lon="0.38314">
        <ele>104</ele>
        <time>2022-06-26T07:00:56Z</time>
      </trkpt>
      <trkpt lat="46.50939" lon="0.38287">
        <ele>104.8</ele>
        <time>2022-06-26T07:01:03Z</time>
      </trkpt>
      <trkpt lat="46.50955" lon="0.38267">
        <ele>105</ele>
        <time>2022-06-26T07:01:10Z</time>
      </trkpt>
      <trkpt lat="46.50958" lon="0.38263">
        <ele>105.4</ele>
        <time>2022-06-26T07:01:11Z</time>
      </trkpt>
      <trkpt lat="46.50968" lon="0.38247">
        <ele>105.8</ele>
        <time>2022-06-26T07:01:16Z</time>
      </trkpt>
      <trkpt lat="46.50978" lon="0.38233">
        <ele>105.6</ele>
        <time>2022-06-26T07:01:22Z</time>
      </trkpt>
      <trkpt lat="46.50992" lon="0.38214">
        <ele>105.6</ele>
        <time>2022-06-26T07:01:28Z</time>
      </trkpt>
      <trkpt lat="46.5101" lon="0.38192">
        <ele>105.8</ele>
        <time>2022-06-26T07:01:35Z</time>
      </trkpt>
      <trkpt lat="46.5102" lon="0.38177">
        <ele>106.6</ele>
        <time>2022-06-26T07:01:39Z</time>
      </trkpt>
      <trkpt lat="46.51033" lon="0.38157">
        <ele>107.4</ele>
        <time>2022-06-26T07:01:44Z</time>
      </trkpt>
      <trkpt lat="46.51046" lon="0.38133">
        <ele>107</ele>
        <time>2022-06-26T07:01:50Z</time>
      </trkpt>
      <trkpt lat="46.51048" lon="0.3813">
        <ele>106.8</ele>
        <time>2022-06-26T07:01:51Z</time>
      </trkpt>
      <trkpt lat="46.51056" lon="0.38121">
        <ele>106</ele>
        <time>2022-06-26T07:01:55Z</time>
      </trkpt>
      <trkpt lat="46.51063" lon="0.38113">
        <ele>105.6</ele>
        <time>2022-06-26T07:01:58Z</time>
      </trkpt>
      <trkpt lat="46.51071" lon="0.38106">
        <ele>104.8</ele>
        <time>2022-06-26T07:02:01Z</time>
      </trkpt>
      <trkpt lat="46.51076" lon="0.38102">
        <ele>104.4</ele>
        <time>2022-06-26T07:02:03Z</time>
      </trkpt>
      <trkpt lat="46.51085" lon="0.3809">
        <ele>103.8</ele>
        <time>2022-06-26T07:02:07Z</time>
      </trkpt>
      <trkpt lat="46.51094" lon="0.38079">
        <ele>103</ele>
        <time>2022-06-26T07:02:10Z</time>
      </trkpt>
      <trkpt lat="46.51101" lon="0.38069">
        <ele>101.8</ele>
        <time>2022-06-26T07:02:13Z</time>
      </trkpt>
      <trkpt lat="46.51107" lon="0.38061">
        <ele>100.6</ele>
        <time>2022-06-26T07:02:15Z</time>
      </trkpt>
      <trkpt lat="46.51113" lon="0.38056">
        <ele>99</ele>
        <time>2022-06-26T07:02:17Z</time>
      </trkpt>
      <trkpt lat="46.51116" lon="0.3805">
        <ele>97.4</ele>
        <time>2022-06-26T07:02:19Z</time>
      </trkpt>
      <trkpt lat="46.51117" lon="0.38047">
        <ele>96.4</ele>
        <time>2022-06-26T07:02:20Z</time>
      </trkpt>
      <trkpt lat="46.51118" lon="0.38046">
        <ele>95.6</ele>
        <time>2022-06-26T07:02:21Z</time>
      </trkpt>
      <trkpt lat="46.51126" lon="0.3804">
        <ele>94.4</ele>
        <time>2022-06-26T07:02:23Z</time>
      </trkpt>
      <trkpt lat="46.51133" lon="0.38032">
        <ele>93.4</ele>
        <time>2022-06-26T07:02:25Z</time>
      </trkpt>
      <trkpt lat="46.51135" lon="0.38025">
        <ele>92.4</ele>
        <time>2022-06-26T07:02:26Z</time>
      </trkpt>
      <trkpt lat="46.51135" lon="0.38024">
        <ele>91.8</ele>
        <time>2022-06-26T07:02:27Z</time>
      </trkpt>
      <trkpt lat="46.51134" lon="0.3802">
        <ele>91.4</ele>
        <time>2022-06-26T07:02:29Z</time>
      </trkpt>
      <trkpt lat="46.51134" lon="0.38016">
        <ele>91.2</ele>
        <time>2022-06-26T07:02:30Z</time>
      </trkpt>
      <trkpt lat="46.51133" lon="0.38005">
        <ele>91.2</ele>
        <time>2022-06-26T07:02:33Z</time>
      </trkpt>
      <trkpt lat="46.51139" lon="0.37987">
        <ele>92.2</ele>
        <time>2022-06-26T07:02:40Z</time>
      </trkpt>
      <trkpt lat="46.51141" lon="0.37985">
        <ele>92.6</ele>
        <time>2022-06-26T07:02:41Z</time>
      </trkpt>
      <trkpt lat="46.51153" lon="0.3798">
        <ele>93.6</ele>
        <time>2022-06-26T07:02:47Z</time>
      </trkpt>
      <trkpt lat="46.51158" lon="0.37977">
        <ele>93.8</ele>
        <time>2022-06-26T07:02:49Z</time>
      </trkpt>
      <trkpt lat="46.51179" lon="0.37984">
        <ele>93.8</ele>
        <time>2022-06-26T07:02:56Z</time>
      </trkpt>
      <trkpt lat="46.51183" lon="0.37987">
        <ele>93.8</ele>
        <time>2022-06-26T07:02:58Z</time>
      </trkpt>
      <trkpt lat="46.51188" lon="0.37988">
        <ele>93.8</ele>
        <time>2022-06-26T07:03:00Z</time>
      </trkpt>
      <trkpt lat="46.51194" lon="0.37989">
        <ele>93.8</ele>
        <time>2022-06-26T07:03:02Z</time>
      </trkpt>
      <trkpt lat="46.51216" lon="0.37993">
        <ele>94.6</ele>
        <time>2022-06-26T07:03:08Z</time>
      </trkpt>
      <trkpt lat="46.5122" lon="0.37995">
        <ele>94.6</ele>
        <time>2022-06-26T07:03:09Z</time>
      </trkpt>
      <trkpt lat="46.51227" lon="0.37997">
        <ele>94.8</ele>
        <time>2022-06-26T07:03:10Z</time>
      </trkpt>
      <trkpt lat="46.5124" lon="0.38003">
        <ele>94.6</ele>
        <time>2022-06-26T07:03:13Z</time>
      </trkpt>
      <trkpt lat="46.51245" lon="0.38007">
        <ele>94.6</ele>
        <time>2022-06-26T07:03:14Z</time>
      </trkpt>
      <trkpt lat="46.5126" lon="0.38018">
        <ele>93.6</ele>
        <time>2022-06-26T07:03:17Z</time>
      </trkpt>
      <trkpt lat="46.51266" lon="0.38023">
        <ele>93.6</ele>
        <time>2022-06-26T07:03:18Z</time>
      </trkpt>
      <trkpt lat="46.5127" lon="0.38028">
        <ele>93.4</ele>
        <time>2022-06-26T07:03:19Z</time>
      </trkpt>
      <trkpt lat="46.51275" lon="0.38031">
        <ele>93.2</ele>
        <time>2022-06-26T07:03:20Z</time>
      </trkpt>
      <trkpt lat="46.51289" lon="0.38038">
        <ele>92.6</ele>
        <time>2022-06-26T07:03:23Z</time>
      </trkpt>
      <trkpt lat="46.51293" lon="0.38038">
        <ele>92.6</ele>
        <time>2022-06-26T07:03:24Z</time>
      </trkpt>
      <trkpt lat="46.51297" lon="0.38039">
        <ele>92.6</ele>
        <time>2022-06-26T07:03:25Z</time>
      </trkpt>
      <trkpt lat="46.51307" lon="0.38041">
        <ele>92.8</ele>
        <time>2022-06-26T07:03:27Z</time>
      </trkpt>
      <trkpt lat="46.5132" lon="0.38043">
        <ele>93</ele>
        <time>2022-06-26T07:03:30Z</time>
      </trkpt>
      <trkpt lat="46.51324" lon="0.38043">
        <ele>93.4</ele>
        <time>2022-06-26T07:03:31Z</time>
      </trkpt>
      <trkpt lat="46.51345" lon="0.38047">
        <ele>93.6</ele>
        <time>2022-06-26T07:03:35Z</time>
      </trkpt>
      <trkpt lat="46.51349" lon="0.38048">
        <ele>93.4</ele>
        <time>2022-06-26T07:03:36Z</time>
      </trkpt>
      <trkpt lat="46.51352" lon="0.38049">
        <ele>93.4</ele>
        <time>2022-06-26T07:03:37Z</time>
      </trkpt>
      <trkpt lat="46.51366" lon="0.38053">
        <ele>92</ele>
        <time>2022-06-26T07:03:41Z</time>
      </trkpt>
      <trkpt lat="46.51369" lon="0.38053">
        <ele>91</ele>
        <time>2022-06-26T07:03:42Z</time>
      </trkpt>
      <trkpt lat="46.51372" lon="0.38054">
        <ele>90</ele>
        <time>2022-06-26T07:03:43Z</time>
      </trkpt>
      <trkpt lat="46.51381" lon="0.38055">
        <ele>88.8</ele>
        <time>2022-06-26T07:03:46Z</time>
      </trkpt>
      <trkpt lat="46.51385" lon="0.38057">
        <ele>88.6</ele>
        <time>2022-06-26T07:03:47Z</time>
      </trkpt>
      <trkpt lat="46.51394" lon="0.38062">
        <ele>87.6</ele>
        <time>2022-06-26T07:03:48Z</time>
      </trkpt>
      <trkpt lat="46.51398" lon="0.38068">
        <ele>87</ele>
        <time>2022-06-26T07:03:51Z</time>
      </trkpt>
      <trkpt lat="46.514" lon="0.38075">
        <ele>86.6</ele>
        <time>2022-06-26T07:03:53Z</time>
      </trkpt>
      <trkpt lat="46.51401" lon="0.38077">
        <ele>85.8</ele>
        <time>2022-06-26T07:03:54Z</time>
      </trkpt>
      <trkpt lat="46.51401" lon="0.3808">
        <ele>85.2</ele>
        <time>2022-06-26T07:03:55Z</time>
      </trkpt>
      <trkpt lat="46.514" lon="0.3808">
        <ele>84.6</ele>
        <time>2022-06-26T07:03:56Z</time>
      </trkpt>
      <trkpt lat="46.51396" lon="0.38082">
        <ele>84</ele>
        <time>2022-06-26T07:03:59Z</time>
      </trkpt>
      <trkpt lat="46.51392" lon="0.38085">
        <ele>83.8</ele>
        <time>2022-06-26T07:04:01Z</time>
      </trkpt>
      <trkpt lat="46.51381" lon="0.38094">
        <ele>83.4</ele>
        <time>2022-06-26T07:04:06Z</time>
      </trkpt>
      <trkpt lat="46.51381" lon="0.38097">
        <ele>83.2</ele>
        <time>2022-06-26T07:04:07Z</time>
      </trkpt>
      <trkpt lat="46.5138" lon="0.38104">
        <ele>83</ele>
        <time>2022-06-26T07:04:09Z</time>
      </trkpt>
      <trkpt lat="46.51381" lon="0.38109">
        <ele>82.6</ele>
        <time>2022-06-26T07:04:10Z</time>
      </trkpt>
      <trkpt lat="46.51382" lon="0.38116">
        <ele>82</ele>
        <time>2022-06-26T07:04:12Z</time>
      </trkpt>
      <trkpt lat="46.51389" lon="0.38132">
        <ele>81</ele>
        <time>2022-06-26T07:04:16Z</time>
      </trkpt>
      <trkpt lat="46.51392" lon="0.38135">
        <ele>81</ele>
        <time>2022-06-26T07:04:17Z</time>
      </trkpt>
      <trkpt lat="46.51405" lon="0.38142">
        <ele>81.6</ele>
        <time>2022-06-26T07:04:22Z</time>
      </trkpt>
      <trkpt lat="46.5141" lon="0.38145">
        <ele>81.6</ele>
        <time>2022-06-26T07:04:24Z</time>
      </trkpt>
      <trkpt lat="46.51421" lon="0.38154">
        <ele>81.6</ele>
        <time>2022-06-26T07:04:28Z</time>
      </trkpt>
      <trkpt lat="46.51435" lon="0.38164">
        <ele>81.6</ele>
        <time>2022-06-26T07:04:35Z</time>
      </trkpt>
      <trkpt lat="46.51439" lon="0.38164">
        <ele>81.8</ele>
        <time>2022-06-26T07:04:37Z</time>
      </trkpt>
      <trkpt lat="46.51445" lon="0.38162">
        <ele>81.8</ele>
        <time>2022-06-26T07:04:40Z</time>
      </trkpt>
      <trkpt lat="46.51446" lon="0.3816">
        <ele>82</ele>
        <time>2022-06-26T07:04:41Z</time>
      </trkpt>
      <trkpt lat="46.5145" lon="0.38159">
        <ele>82</ele>
        <time>2022-06-26T07:04:43Z</time>
      </trkpt>
      <trkpt lat="46.51454" lon="0.3816">
        <ele>82</ele>
        <time>2022-06-26T07:04:44Z</time>
      </trkpt>
      <trkpt lat="46.51459" lon="0.38163">
        <ele>82</ele>
        <time>2022-06-26T07:04:45Z</time>
      </trkpt>
      <trkpt lat="46.51476" lon="0.38172">
        <ele>81.8</ele>
        <time>2022-06-26T07:04:50Z</time>
      </trkpt>
      <trkpt lat="46.51481" lon="0.38175">
        <ele>81.8</ele>
        <time>2022-06-26T07:04:52Z</time>
      </trkpt>
      <trkpt lat="46.51485" lon="0.38173">
        <ele>82</ele>
        <time>2022-06-26T07:04:54Z</time>
      </trkpt>
      <trkpt lat="46.51489" lon="0.38174">
        <ele>82.2</ele>
        <time>2022-06-26T07:04:56Z</time>
      </trkpt>
      <trkpt lat="46.51499" lon="0.38179">
        <ele>82.2</ele>
        <time>2022-06-26T07:04:59Z</time>
      </trkpt>
      <trkpt lat="46.51512" lon="0.38186">
        <ele>82.4</ele>
        <time>2022-06-26T07:05:04Z</time>
      </trkpt>
      <trkpt lat="46.51515" lon="0.38188">
        <ele>82.6</ele>
        <time>2022-06-26T07:05:05Z</time>
      </trkpt>
      <trkpt lat="46.51533" lon="0.382">
        <ele>82</ele>
        <time>2022-06-26T07:05:11Z</time>
      </trkpt>
      <trkpt lat="46.51555" lon="0.38211">
        <ele>81.8</ele>
        <time>2022-06-26T07:05:17Z</time>
      </trkpt>
      <trkpt lat="46.51574" lon="0.38223">
        <ele>82</ele>
        <time>2022-06-26T07:05:23Z</time>
      </trkpt>
      <trkpt lat="46.51591" lon="0.38232">
        <ele>81.6</ele>
        <time>2022-06-26T07:05:28Z</time>
      </trkpt>
      <trkpt lat="46.5161" lon="0.38234">
        <ele>81.8</ele>
        <time>2022-06-26T07:05:34Z</time>
      </trkpt>
      <trkpt lat="46.51613" lon="0.38232">
        <ele>82</ele>
        <time>2022-06-26T07:05:35Z</time>
      </trkpt>
      <trkpt lat="46.51625" lon="0.38226">
        <ele>82</ele>
        <time>2022-06-26T07:05:38Z</time>
      </trkpt>
      <trkpt lat="46.51628" lon="0.38222">
        <ele>82.6</ele>
        <time>2022-06-26T07:05:40Z</time>
      </trkpt>
      <trkpt lat="46.5163" lon="0.38219">
        <ele>83.2</ele>
        <time>2022-06-26T07:05:42Z</time>
      </trkpt>
      <trkpt lat="46.51631" lon="0.38216">
        <ele>83.2</ele>
        <time>2022-06-26T07:05:43Z</time>
      </trkpt>
      <trkpt lat="46.51634" lon="0.38205">
        <ele>84.2</ele>
        <time>2022-06-26T07:05:48Z</time>
      </trkpt>
      <trkpt lat="46.51633" lon="0.38201">
        <ele>84.6</ele>
        <time>2022-06-26T07:05:50Z</time>
      </trkpt>
      <trkpt lat="46.51633" lon="0.38189">
        <ele>85</ele>
        <time>2022-06-26T07:05:54Z</time>
      </trkpt>
      <trkpt lat="46.51631" lon="0.38184">
        <ele>85.4</ele>
        <time>2022-06-26T07:05:56Z</time>
      </trkpt>
      <trkpt lat="46.51625" lon="0.38165">
        <ele>86.4</ele>
        <time>2022-06-26T07:06:02Z</time>
      </trkpt>
      <trkpt lat="46.51625" lon="0.38163">
        <ele>86.4</ele>
        <time>2022-06-26T07:06:03Z</time>
      </trkpt>
      <trkpt lat="46.51619" lon="0.38147">
        <ele>86.6</ele>
        <time>2022-06-26T07:06:07Z</time>
      </trkpt>
      <trkpt lat="46.51615" lon="0.38136">
        <ele>87</ele>
        <time>2022-06-26T07:06:11Z</time>
      </trkpt>
      <trkpt lat="46.51614" lon="0.38132">
        <ele>87.2</ele>
        <time>2022-06-26T07:06:13Z</time>
      </trkpt>
      <trkpt lat="46.51608" lon="0.38129">
        <ele>87.4</ele>
        <time>2022-06-26T07:06:16Z</time>
      </trkpt>
      <trkpt lat="46.51602" lon="0.38128">
        <ele>87.4</ele>
        <time>2022-06-26T07:06:19Z</time>
      </trkpt>
      <trkpt lat="46.51586" lon="0.3813">
        <ele>87</ele>
        <time>2022-06-26T07:06:24Z</time>
      </trkpt>
      <trkpt lat="46.51582" lon="0.3813">
        <ele>87</ele>
        <time>2022-06-26T07:06:25Z</time>
      </trkpt>
      <trkpt lat="46.51572" lon="0.3813">
        <ele>86.4</ele>
        <time>2022-06-26T07:06:28Z</time>
      </trkpt>
      <trkpt lat="46.51556" lon="0.38125">
        <ele>86</ele>
        <time>2022-06-26T07:06:32Z</time>
      </trkpt>
      <trkpt lat="46.5154" lon="0.38123">
        <ele>85.6</ele>
        <time>2022-06-26T07:06:36Z</time>
      </trkpt>
      <trkpt lat="46.51527" lon="0.38123">
        <ele>85.4</ele>
        <time>2022-06-26T07:06:39Z</time>
      </trkpt>
      <trkpt lat="46.51513" lon="0.38117">
        <ele>85.4</ele>
        <time>2022-06-26T07:06:43Z</time>
      </trkpt>
      <trkpt lat="46.51513" lon="0.38114">
        <ele>85.4</ele>
        <time>2022-06-26T07:06:44Z</time>
      </trkpt>
      <trkpt lat="46.51507" lon="0.38098">
        <ele>86.6</ele>
        <time>2022-06-26T07:06:50Z</time>
      </trkpt>
      <trkpt lat="46.51507" lon="0.38089">
        <ele>87.6</ele>
        <time>2022-06-26T07:06:54Z</time>
      </trkpt>
      <trkpt lat="46.51508" lon="0.38083">
        <ele>88.8</ele>
        <time>2022-06-26T07:06:57Z</time>
      </trkpt>
      <trkpt lat="46.51509" lon="0.38077">
        <ele>90</ele>
        <time>2022-06-26T07:07:00Z</time>
      </trkpt>
      <trkpt lat="46.51509" lon="0.3807">
        <ele>91.4</ele>
        <time>2022-06-26T07:07:04Z</time>
      </trkpt>
      <trkpt lat="46.51509" lon="0.38067">
        <ele>91.8</ele>
        <time>2022-06-26T07:07:05Z</time>
      </trkpt>
      <trkpt lat="46.5151" lon="0.38062">
        <ele>92.4</ele>
        <time>2022-06-26T07:07:07Z</time>
      </trkpt>
      <trkpt lat="46.51511" lon="0.38057">
        <ele>93.6</ele>
        <time>2022-06-26T07:07:11Z</time>
      </trkpt>
      <trkpt lat="46.51515" lon="0.38048">
        <ele>95</ele>
        <time>2022-06-26T07:07:16Z</time>
      </trkpt>
      <trkpt lat="46.51516" lon="0.38046">
        <ele>95.2</ele>
        <time>2022-06-26T07:07:17Z</time>
      </trkpt>
      <trkpt lat="46.51519" lon="0.38037">
        <ele>96</ele>
        <time>2022-06-26T07:07:22Z</time>
      </trkpt>
      <trkpt lat="46.5152" lon="0.38032">
        <ele>96.4</ele>
        <time>2022-06-26T07:07:24Z</time>
      </trkpt>
      <trkpt lat="46.5152" lon="0.38022">
        <ele>97.2</ele>
        <time>2022-06-26T07:07:28Z</time>
      </trkpt>
      <trkpt lat="46.51519" lon="0.38014">
        <ele>97.8</ele>
        <time>2022-06-26T07:07:32Z</time>
      </trkpt>
      <trkpt lat="46.51518" lon="0.38012">
        <ele>98</ele>
        <time>2022-06-26T07:07:33Z</time>
      </trkpt>
      <trkpt lat="46.51517" lon="0.38011">
        <ele>98.2</ele>
        <time>2022-06-26T07:07:34Z</time>
      </trkpt>
      <trkpt lat="46.5151" lon="0.38008">
        <ele>98.4</ele>
        <time>2022-06-26T07:07:39Z</time>
      </trkpt>
      <trkpt lat="46.51494" lon="0.38004">
        <ele>98.4</ele>
        <time>2022-06-26T07:07:46Z</time>
      </trkpt>
      <trkpt lat="46.51473" lon="0.37996">
        <ele>99.2</ele>
        <time>2022-06-26T07:07:54Z</time>
      </trkpt>
      <trkpt lat="46.5147" lon="0.37995">
        <ele>99.2</ele>
        <time>2022-06-26T07:07:55Z</time>
      </trkpt>
      <trkpt lat="46.51464" lon="0.37989">
        <ele>100.4</ele>
        <time>2022-06-26T07:07:59Z</time>
      </trkpt>
      <trkpt lat="46.51461" lon="0.37985">
        <ele>101.2</ele>
        <time>2022-06-26T07:08:01Z</time>
      </trkpt>
      <trkpt lat="46.51459" lon="0.37982">
        <ele>101.8</ele>
        <time>2022-06-26T07:08:02Z</time>
      </trkpt>
      <trkpt lat="46.51454" lon="0.37974">
        <ele>102.8</ele>
        <time>2022-06-26T07:08:06Z</time>
      </trkpt>
      <trkpt lat="46.51449" lon="0.37967">
        <ele>103.4</ele>
        <time>2022-06-26T07:08:09Z</time>
      </trkpt>
      <trkpt lat="46.51445" lon="0.37955">
        <ele>104</ele>
        <time>2022-06-26T07:08:13Z</time>
      </trkpt>
      <trkpt lat="46.51443" lon="0.37948">
        <ele>104.8</ele>
        <time>2022-06-26T07:08:16Z</time>
      </trkpt>
      <trkpt lat="46.51442" lon="0.37943">
        <ele>105.2</ele>
        <time>2022-06-26T07:08:18Z</time>
      </trkpt>
      <trkpt lat="46.51441" lon="0.37937">
        <ele>105.2</ele>
        <time>2022-06-26T07:08:20Z</time>
      </trkpt>
      <trkpt lat="46.51441" lon="0.37927">
        <ele>105.6</ele>
        <time>2022-06-26T07:08:24Z</time>
      </trkpt>
      <trkpt lat="46.5144" lon="0.37915">
        <ele>106.2</ele>
        <time>2022-06-26T07:08:27Z</time>
      </trkpt>
      <trkpt lat="46.51442" lon="0.37906">
        <ele>106.4</ele>
        <time>2022-06-26T07:08:31Z</time>
      </trkpt>
      <trkpt lat="46.51445" lon="0.37903">
        <ele>106.6</ele>
        <time>2022-06-26T07:08:33Z</time>
      </trkpt>
      <trkpt lat="46.51453" lon="0.37902">
        <ele>106.6</ele>
        <time>2022-06-26T07:08:36Z</time>
      </trkpt>
      <trkpt lat="46.51467" lon="0.37907">
        <ele>105.2</ele>
        <time>2022-06-26T07:08:41Z</time>
      </trkpt>
      <trkpt lat="46.51488" lon="0.37915">
        <ele>104</ele>
        <time>2022-06-26T07:08:46Z</time>
      </trkpt>
      <trkpt lat="46.51492" lon="0.37917">
        <ele>103.2</ele>
        <time>2022-06-26T07:08:47Z</time>
      </trkpt>
      <trkpt lat="46.51497" lon="0.3792">
        <ele>102.8</ele>
        <time>2022-06-26T07:08:48Z</time>
      </trkpt>
      <trkpt lat="46.51502" lon="0.37925">
        <ele>102.6</ele>
        <time>2022-06-26T07:08:49Z</time>
      </trkpt>
      <trkpt lat="46.5151" lon="0.37938">
        <ele>102.2</ele>
        <time>2022-06-26T07:08:51Z</time>
      </trkpt>
      <trkpt lat="46.51514" lon="0.37943">
        <ele>101.8</ele>
        <time>2022-06-26T07:08:52Z</time>
      </trkpt>
      <trkpt lat="46.51523" lon="0.37948">
        <ele>101.4</ele>
        <time>2022-06-26T07:08:54Z</time>
      </trkpt>
      <trkpt lat="46.51528" lon="0.37948">
        <ele>101.4</ele>
        <time>2022-06-26T07:08:55Z</time>
      </trkpt>
      <trkpt lat="46.51532" lon="0.37948">
        <ele>101.2</ele>
        <time>2022-06-26T07:08:56Z</time>
      </trkpt>
      <trkpt lat="46.51546" lon="0.37949">
        <ele>101</ele>
        <time>2022-06-26T07:08:59Z</time>
      </trkpt>
      <trkpt lat="46.51554" lon="0.37953">
        <ele>101</ele>
        <time>2022-06-26T07:09:01Z</time>
      </trkpt>
      <trkpt lat="46.51558" lon="0.37955">
        <ele>100.6</ele>
        <time>2022-06-26T07:09:02Z</time>
      </trkpt>
      <trkpt lat="46.5157" lon="0.37965">
        <ele>99.6</ele>
        <time>2022-06-26T07:09:06Z</time>
      </trkpt>
      <trkpt lat="46.51573" lon="0.37968">
        <ele>99.4</ele>
        <time>2022-06-26T07:09:07Z</time>
      </trkpt>
      <trkpt lat="46.51586" lon="0.37979">
        <ele>98.6</ele>
        <time>2022-06-26T07:09:11Z</time>
      </trkpt>
      <trkpt lat="46.51588" lon="0.37979">
        <ele>98.2</ele>
        <time>2022-06-26T07:09:12Z</time>
      </trkpt>
      <trkpt lat="46.5159" lon="0.37978">
        <ele>97.8</ele>
        <time>2022-06-26T07:09:13Z</time>
      </trkpt>
      <trkpt lat="46.51595" lon="0.3797">
        <ele>97.4</ele>
        <time>2022-06-26T07:09:16Z</time>
      </trkpt>
      <trkpt lat="46.51606" lon="0.37957">
        <ele>97.6</ele>
        <time>2022-06-26T07:09:21Z</time>
      </trkpt>
      <trkpt lat="46.51614" lon="0.37946">
        <ele>98.2</ele>
        <time>2022-06-26T07:09:24Z</time>
      </trkpt>
      <trkpt lat="46.51624" lon="0.37931">
        <ele>98</ele>
        <time>2022-06-26T07:09:27Z</time>
      </trkpt>
      <trkpt lat="46.51632" lon="0.37912">
        <ele>97</ele>
        <time>2022-06-26T07:09:31Z</time>
      </trkpt>
      <trkpt lat="46.51638" lon="0.37901">
        <ele>96.8</ele>
        <time>2022-06-26T07:09:33Z</time>
      </trkpt>
      <trkpt lat="46.5164" lon="0.37884">
        <ele>97.8</ele>
        <time>2022-06-26T07:09:37Z</time>
      </trkpt>
      <trkpt lat="46.51641" lon="0.37881">
        <ele>98.6</ele>
        <time>2022-06-26T07:09:38Z</time>
      </trkpt>
      <trkpt lat="46.5165" lon="0.37851">
        <ele>99.8</ele>
        <time>2022-06-26T07:09:45Z</time>
      </trkpt>
      <trkpt lat="46.51651" lon="0.37847">
        <ele>99.8</ele>
        <time>2022-06-26T07:09:46Z</time>
      </trkpt>
      <trkpt lat="46.51658" lon="0.37826">
        <ele>100.2</ele>
        <time>2022-06-26T07:09:51Z</time>
      </trkpt>
      <trkpt lat="46.51662" lon="0.37799">
        <ele>100.6</ele>
        <time>2022-06-26T07:09:58Z</time>
      </trkpt>
      <trkpt lat="46.51666" lon="0.37784">
        <ele>100.8</ele>
        <time>2022-06-26T07:10:02Z</time>
      </trkpt>
      <trkpt lat="46.51668" lon="0.3777">
        <ele>100.8</ele>
        <time>2022-06-26T07:10:05Z</time>
      </trkpt>
      <trkpt lat="46.51677" lon="0.37735">
        <ele>99.8</ele>
        <time>2022-06-26T07:10:11Z</time>
      </trkpt>
      <trkpt lat="46.51678" lon="0.3773">
        <ele>99.6</ele>
        <time>2022-06-26T07:10:12Z</time>
      </trkpt>
      <trkpt lat="46.51679" lon="0.37725">
        <ele>99.4</ele>
        <time>2022-06-26T07:10:13Z</time>
      </trkpt>
      <trkpt lat="46.51683" lon="0.37705">
        <ele>99</ele>
        <time>2022-06-26T07:10:17Z</time>
      </trkpt>
      <trkpt lat="46.51685" lon="0.377">
        <ele>98.8</ele>
        <time>2022-06-26T07:10:18Z</time>
      </trkpt>
      <trkpt lat="46.51685" lon="0.37693">
        <ele>98.4</ele>
        <time>2022-06-26T07:10:19Z</time>
      </trkpt>
      <trkpt lat="46.51691" lon="0.37668">
        <ele>97.6</ele>
        <time>2022-06-26T07:10:23Z</time>
      </trkpt>
      <trkpt lat="46.51695" lon="0.37656">
        <ele>96.6</ele>
        <time>2022-06-26T07:10:25Z</time>
      </trkpt>
      <trkpt lat="46.51701" lon="0.37644">
        <ele>96.2</ele>
        <time>2022-06-26T07:10:26Z</time>
      </trkpt>
      <trkpt lat="46.51708" lon="0.37631">
        <ele>95.6</ele>
        <time>2022-06-26T07:10:27Z</time>
      </trkpt>
      <trkpt lat="46.51717" lon="0.3762">
        <ele>94.4</ele>
        <time>2022-06-26T07:10:28Z</time>
      </trkpt>
      <trkpt lat="46.51725" lon="0.37611">
        <ele>92.8</ele>
        <time>2022-06-26T07:10:29Z</time>
      </trkpt>
      <trkpt lat="46.51736" lon="0.37592">
        <ele>91.2</ele>
        <time>2022-06-26T07:10:31Z</time>
      </trkpt>
      <trkpt lat="46.51744" lon="0.37583">
        <ele>90.2</ele>
        <time>2022-06-26T07:10:32Z</time>
      </trkpt>
      <trkpt lat="46.51748" lon="0.37569">
        <ele>88.8</ele>
        <time>2022-06-26T07:10:34Z</time>
      </trkpt>
      <trkpt lat="46.51749" lon="0.37562">
        <ele>87.2</ele>
        <time>2022-06-26T07:10:35Z</time>
      </trkpt>
      <trkpt lat="46.51748" lon="0.37555">
        <ele>86.4</ele>
        <time>2022-06-26T07:10:36Z</time>
      </trkpt>
      <trkpt lat="46.51747" lon="0.37549">
        <ele>85</ele>
        <time>2022-06-26T07:10:37Z</time>
      </trkpt>
      <trkpt lat="46.51747" lon="0.37538">
        <ele>83.4</ele>
        <time>2022-06-26T07:10:39Z</time>
      </trkpt>
      <trkpt lat="46.51747" lon="0.37532">
        <ele>82.6</ele>
        <time>2022-06-26T07:10:40Z</time>
      </trkpt>
      <trkpt lat="46.51749" lon="0.3753">
        <ele>82.2</ele>
        <time>2022-06-26T07:10:41Z</time>
      </trkpt>
      <trkpt lat="46.51752" lon="0.37528">
        <ele>81.4</ele>
        <time>2022-06-26T07:10:43Z</time>
      </trkpt>
      <trkpt lat="46.51755" lon="0.37525">
        <ele>81.2</ele>
        <time>2022-06-26T07:10:44Z</time>
      </trkpt>
      <trkpt lat="46.51757" lon="0.37522">
        <ele>81.2</ele>
        <time>2022-06-26T07:10:45Z</time>
      </trkpt>
      <trkpt lat="46.51771" lon="0.37512">
        <ele>81.2</ele>
        <time>2022-06-26T07:10:50Z</time>
      </trkpt>
      <trkpt lat="46.51792" lon="0.37509">
        <ele>80.8</ele>
        <time>2022-06-26T07:10:58Z</time>
      </trkpt>
      <trkpt lat="46.51818" lon="0.37511">
        <ele>80.8</ele>
        <time>2022-06-26T07:11:04Z</time>
      </trkpt>
      <trkpt lat="46.51823" lon="0.37513">
        <ele>81</ele>
        <time>2022-06-26T07:11:05Z</time>
      </trkpt>
      <trkpt lat="46.51833" lon="0.37516">
        <ele>81.4</ele>
        <time>2022-06-26T07:11:08Z</time>
      </trkpt>
      <trkpt lat="46.51848" lon="0.37528">
        <ele>81.4</ele>
        <time>2022-06-26T07:11:14Z</time>
      </trkpt>
      <trkpt lat="46.5185" lon="0.37532">
        <ele>81.4</ele>
        <time>2022-06-26T07:11:15Z</time>
      </trkpt>
      <trkpt lat="46.51861" lon="0.37548">
        <ele>81.6</ele>
        <time>2022-06-26T07:11:18Z</time>
      </trkpt>
      <trkpt lat="46.51866" lon="0.37558">
        <ele>81.8</ele>
        <time>2022-06-26T07:11:20Z</time>
      </trkpt>
      <trkpt lat="46.5187" lon="0.37568">
        <ele>82</ele>
        <time>2022-06-26T07:11:22Z</time>
      </trkpt>
      <trkpt lat="46.51872" lon="0.37576">
        <ele>82</ele>
        <time>2022-06-26T07:11:24Z</time>
      </trkpt>
      <trkpt lat="46.51873" lon="0.37582">
        <ele>82.2</ele>
        <time>2022-06-26T07:11:25Z</time>
      </trkpt>
      <trkpt lat="46.51875" lon="0.37586">
        <ele>82.2</ele>
        <time>2022-06-26T07:11:26Z</time>
      </trkpt>
      <trkpt lat="46.51876" lon="0.37591">
        <ele>82.2</ele>
        <time>2022-06-26T07:11:27Z</time>
      </trkpt>
      <trkpt lat="46.51883" lon="0.37617">
        <ele>82.2</ele>
        <time>2022-06-26T07:11:32Z</time>
      </trkpt>
      <trkpt lat="46.51883" lon="0.37622">
        <ele>82.4</ele>
        <time>2022-06-26T07:11:33Z</time>
      </trkpt>
      <trkpt lat="46.51885" lon="0.37666">
        <ele>82.2</ele>
        <time>2022-06-26T07:11:40Z</time>
      </trkpt>
      <trkpt lat="46.51883" lon="0.37709">
        <ele>82.2</ele>
        <time>2022-06-26T07:11:46Z</time>
      </trkpt>
      <trkpt lat="46.51882" lon="0.3773">
        <ele>81.8</ele>
        <time>2022-06-26T07:11:50Z</time>
      </trkpt>
      <trkpt lat="46.51882" lon="0.37745">
        <ele>81.8</ele>
        <time>2022-06-26T07:11:52Z</time>
      </trkpt>
      <trkpt lat="46.51879" lon="0.37757">
        <ele>81.6</ele>
        <time>2022-06-26T07:11:54Z</time>
      </trkpt>
      <trkpt lat="46.51875" lon="0.37767">
        <ele>81.6</ele>
        <time>2022-06-26T07:11:56Z</time>
      </trkpt>
      <trkpt lat="46.51872" lon="0.37771">
        <ele>81.8</ele>
        <time>2022-06-26T07:11:57Z</time>
      </trkpt>
      <trkpt lat="46.51865" lon="0.37788">
        <ele>82</ele>
        <time>2022-06-26T07:12:00Z</time>
      </trkpt>
      <trkpt lat="46.51861" lon="0.37797">
        <ele>82.4</ele>
        <time>2022-06-26T07:12:02Z</time>
      </trkpt>
      <trkpt lat="46.51861" lon="0.37804">
        <ele>82.6</ele>
        <time>2022-06-26T07:12:03Z</time>
      </trkpt>
      <trkpt lat="46.51859" lon="0.3781">
        <ele>82.6</ele>
        <time>2022-06-26T07:12:04Z</time>
      </trkpt>
      <trkpt lat="46.51856" lon="0.37826">
        <ele>83.2</ele>
        <time>2022-06-26T07:12:07Z</time>
      </trkpt>
      <trkpt lat="46.51854" lon="0.3784">
        <ele>83.6</ele>
        <time>2022-06-26T07:12:09Z</time>
      </trkpt>
      <trkpt lat="46.51849" lon="0.37875">
        <ele>83.8</ele>
        <time>2022-06-26T07:12:15Z</time>
      </trkpt>
      <trkpt lat="46.51844" lon="0.37905">
        <ele>83.8</ele>
        <time>2022-06-26T07:12:19Z</time>
      </trkpt>
      <trkpt lat="46.5184" lon="0.37916">
        <ele>83.6</ele>
        <time>2022-06-26T07:12:22Z</time>
      </trkpt>
      <trkpt lat="46.51837" lon="0.37925">
        <ele>83.4</ele>
        <time>2022-06-26T07:12:24Z</time>
      </trkpt>
      <trkpt lat="46.51833" lon="0.37945">
        <ele>82.8</ele>
        <time>2022-06-26T07:12:29Z</time>
      </trkpt>
      <trkpt lat="46.51834" lon="0.3795">
        <ele>82.8</ele>
        <time>2022-06-26T07:12:43Z</time>
      </trkpt>
      <trkpt lat="46.51847" lon="0.37959">
        <ele>82.2</ele>
        <time>2022-06-26T07:12:50Z</time>
      </trkpt>
      <trkpt lat="46.51858" lon="0.3797">
        <ele>81.6</ele>
        <time>2022-06-26T07:12:54Z</time>
      </trkpt>
      <trkpt lat="46.51865" lon="0.37976">
        <ele>81</ele>
        <time>2022-06-26T07:12:56Z</time>
      </trkpt>
      <trkpt lat="46.51873" lon="0.37981">
        <ele>80.6</ele>
        <time>2022-06-26T07:12:58Z</time>
      </trkpt>
      <trkpt lat="46.51881" lon="0.3798">
        <ele>80.4</ele>
        <time>2022-06-26T07:13:00Z</time>
      </trkpt>
      <trkpt lat="46.5189" lon="0.37978">
        <ele>80</ele>
        <time>2022-06-26T07:13:02Z</time>
      </trkpt>
      <trkpt lat="46.51902" lon="0.3797">
        <ele>79.8</ele>
        <time>2022-06-26T07:13:05Z</time>
      </trkpt>
      <trkpt lat="46.51906" lon="0.37968">
        <ele>79.4</ele>
        <time>2022-06-26T07:13:06Z</time>
      </trkpt>
      <trkpt lat="46.51912" lon="0.37967">
        <ele>79</ele>
        <time>2022-06-26T07:13:09Z</time>
      </trkpt>
      <trkpt lat="46.51912" lon="0.37968">
        <ele>79</ele>
        <time>2022-06-26T07:13:11Z</time>
      </trkpt>
      <trkpt lat="46.51912" lon="0.37971">
        <ele>79</ele>
        <time>2022-06-26T07:13:15Z</time>
      </trkpt>
      <trkpt lat="46.51912" lon="0.37972">
        <ele>78.8</ele>
        <time>2022-06-26T07:13:27Z</time>
      </trkpt>
      <trkpt lat="46.51913" lon="0.37973">
        <ele>78.8</ele>
        <time>2022-06-26T07:13:37Z</time>
      </trkpt>
      <trkpt lat="46.51916" lon="0.37974">
        <ele>78.6</ele>
        <time>2022-06-26T07:13:47Z</time>
      </trkpt>
      <trkpt lat="46.51923" lon="0.3797">
        <ele>78.8</ele>
        <time>2022-06-26T07:13:55Z</time>
      </trkpt>
      <trkpt lat="46.51939" lon="0.37966">
        <ele>78.8</ele>
        <time>2022-06-26T07:14:05Z</time>
      </trkpt>
      <trkpt lat="46.51956" lon="0.37964">
        <ele>79.4</ele>
        <time>2022-06-26T07:14:13Z</time>
      </trkpt>
      <trkpt lat="46.51964" lon="0.37963">
        <ele>80</ele>
        <time>2022-06-26T07:14:16Z</time>
      </trkpt>
      <trkpt lat="46.51977" lon="0.37967">
        <ele>80.6</ele>
        <time>2022-06-26T07:14:22Z</time>
      </trkpt>
      <trkpt lat="46.51979" lon="0.37968">
        <ele>80.6</ele>
        <time>2022-06-26T07:14:23Z</time>
      </trkpt>
      <trkpt lat="46.51987" lon="0.37975">
        <ele>81.2</ele>
        <time>2022-06-26T07:14:27Z</time>
      </trkpt>
      <trkpt lat="46.51989" lon="0.37977">
        <ele>81.2</ele>
        <time>2022-06-26T07:14:28Z</time>
      </trkpt>
      <trkpt lat="46.52001" lon="0.37987">
        <ele>82.2</ele>
        <time>2022-06-26T07:14:34Z</time>
      </trkpt>
      <trkpt lat="46.52002" lon="0.37988">
        <ele>82.6</ele>
        <time>2022-06-26T07:14:35Z</time>
      </trkpt>
      <trkpt lat="46.52005" lon="0.37988">
        <ele>83.4</ele>
        <time>2022-06-26T07:14:38Z</time>
      </trkpt>
      <trkpt lat="46.5201" lon="0.37992">
        <ele>84.6</ele>
        <time>2022-06-26T07:14:42Z</time>
      </trkpt>
      <trkpt lat="46.5202" lon="0.37999">
        <ele>85.8</ele>
        <time>2022-06-26T07:14:49Z</time>
      </trkpt>
      <trkpt lat="46.52022" lon="0.38001">
        <ele>86.4</ele>
        <time>2022-06-26T07:14:52Z</time>
      </trkpt>
      <trkpt lat="46.52023" lon="0.38003">
        <ele>86.8</ele>
        <time>2022-06-26T07:14:54Z</time>
      </trkpt>
      <trkpt lat="46.52024" lon="0.38004">
        <ele>87</ele>
        <time>2022-06-26T07:14:55Z</time>
      </trkpt>
      <trkpt lat="46.52026" lon="0.38005">
        <ele>87.2</ele>
        <time>2022-06-26T07:14:56Z</time>
      </trkpt>
      <trkpt lat="46.52029" lon="0.38006">
        <ele>87.8</ele>
        <time>2022-06-26T07:14:58Z</time>
      </trkpt>
      <trkpt lat="46.52034" lon="0.3801">
        <ele>88.8</ele>
        <time>2022-06-26T07:15:02Z</time>
      </trkpt>
      <trkpt lat="46.52036" lon="0.38011">
        <ele>89</ele>
        <time>2022-06-26T07:15:03Z</time>
      </trkpt>
      <trkpt lat="46.52038" lon="0.38011">
        <ele>89.2</ele>
        <time>2022-06-26T07:15:04Z</time>
      </trkpt>
      <trkpt lat="46.52041" lon="0.38013">
        <ele>90.4</ele>
        <time>2022-06-26T07:15:07Z</time>
      </trkpt>
      <trkpt lat="46.52046" lon="0.38015">
        <ele>91.2</ele>
        <time>2022-06-26T07:15:11Z</time>
      </trkpt>
      <trkpt lat="46.52048" lon="0.38016">
        <ele>91.6</ele>
        <time>2022-06-26T07:15:13Z</time>
      </trkpt>
      <trkpt lat="46.52051" lon="0.38017">
        <ele>92.2</ele>
        <time>2022-06-26T07:15:15Z</time>
      </trkpt>
      <trkpt lat="46.52053" lon="0.38017">
        <ele>92.6</ele>
        <time>2022-06-26T07:15:17Z</time>
      </trkpt>
      <trkpt lat="46.52058" lon="0.38018">
        <ele>93.8</ele>
        <time>2022-06-26T07:15:20Z</time>
      </trkpt>
      <trkpt lat="46.52059" lon="0.38018">
        <ele>94.2</ele>
        <time>2022-06-26T07:15:21Z</time>
      </trkpt>
      <trkpt lat="46.5206" lon="0.38019">
        <ele>94.4</ele>
        <time>2022-06-26T07:15:22Z</time>
      </trkpt>
      <trkpt lat="46.52063" lon="0.3802">
        <ele>94.8</ele>
        <time>2022-06-26T07:15:24Z</time>
      </trkpt>
      <trkpt lat="46.52066" lon="0.3802">
        <ele>95.4</ele>
        <time>2022-06-26T07:15:26Z</time>
      </trkpt>
      <trkpt lat="46.52067" lon="0.38021">
        <ele>95.6</ele>
        <time>2022-06-26T07:15:27Z</time>
      </trkpt>
      <trkpt lat="46.52068" lon="0.38021">
        <ele>96</ele>
        <time>2022-06-26T07:15:28Z</time>
      </trkpt>
      <trkpt lat="46.52071" lon="0.38021">
        <ele>96.4</ele>
        <time>2022-06-26T07:15:30Z</time>
      </trkpt>
      <trkpt lat="46.52074" lon="0.3802">
        <ele>97.2</ele>
        <time>2022-06-26T07:15:32Z</time>
      </trkpt>
      <trkpt lat="46.52082" lon="0.38021">
        <ele>98.2</ele>
        <time>2022-06-26T07:15:37Z</time>
      </trkpt>
      <trkpt lat="46.52084" lon="0.38021">
        <ele>98.6</ele>
        <time>2022-06-26T07:15:38Z</time>
      </trkpt>
      <trkpt lat="46.52087" lon="0.38019">
        <ele>99</ele>
        <time>2022-06-26T07:15:41Z</time>
      </trkpt>
      <trkpt lat="46.52089" lon="0.38019">
        <ele>99.2</ele>
        <time>2022-06-26T07:15:43Z</time>
      </trkpt>
      <trkpt lat="46.52091" lon="0.38019">
        <ele>99.8</ele>
        <time>2022-06-26T07:15:45Z</time>
      </trkpt>
      <trkpt lat="46.52093" lon="0.38019">
        <ele>100</ele>
        <time>2022-06-26T07:15:46Z</time>
      </trkpt>
      <trkpt lat="46.52094" lon="0.38019">
        <ele>100.2</ele>
        <time>2022-06-26T07:15:47Z</time>
      </trkpt>
      <trkpt lat="46.52095" lon="0.38019">
        <ele>100.4</ele>
        <time>2022-06-26T07:15:48Z</time>
      </trkpt>
      <trkpt lat="46.521" lon="0.38019">
        <ele>101.4</ele>
        <time>2022-06-26T07:15:52Z</time>
      </trkpt>
      <trkpt lat="46.52102" lon="0.38018">
        <ele>101.8</ele>
        <time>2022-06-26T07:15:54Z</time>
      </trkpt>
      <trkpt lat="46.52104" lon="0.38019">
        <ele>101.8</ele>
        <time>2022-06-26T07:15:55Z</time>
      </trkpt>
      <trkpt lat="46.52114" lon="0.38019">
        <ele>102.6</ele>
        <time>2022-06-26T07:16:01Z</time>
      </trkpt>
      <trkpt lat="46.52123" lon="0.38015">
        <ele>103.4</ele>
        <time>2022-06-26T07:16:08Z</time>
      </trkpt>
      <trkpt lat="46.52124" lon="0.38014">
        <ele>103.6</ele>
        <time>2022-06-26T07:16:09Z</time>
      </trkpt>
      <trkpt lat="46.52134" lon="0.3801">
        <ele>104.8</ele>
        <time>2022-06-26T07:16:15Z</time>
      </trkpt>
      <trkpt lat="46.52135" lon="0.3801">
        <ele>105</ele>
        <time>2022-06-26T07:16:16Z</time>
      </trkpt>
      <trkpt lat="46.52144" lon="0.38002">
        <ele>105.6</ele>
        <time>2022-06-26T07:16:23Z</time>
      </trkpt>
      <trkpt lat="46.52147" lon="0.38">
        <ele>105.8</ele>
        <time>2022-06-26T07:16:25Z</time>
      </trkpt>
      <trkpt lat="46.52158" lon="0.37988">
        <ele>106.6</ele>
        <time>2022-06-26T07:16:32Z</time>
      </trkpt>
      <trkpt lat="46.52173" lon="0.37974">
        <ele>106.8</ele>
        <time>2022-06-26T07:16:40Z</time>
      </trkpt>
      <trkpt lat="46.52174" lon="0.37972">
        <ele>107</ele>
        <time>2022-06-26T07:16:41Z</time>
      </trkpt>
      <trkpt lat="46.52185" lon="0.37966">
        <ele>107.4</ele>
        <time>2022-06-26T07:16:45Z</time>
      </trkpt>
      <trkpt lat="46.52189" lon="0.37968">
        <ele>107.4</ele>
        <time>2022-06-26T07:16:47Z</time>
      </trkpt>
      <trkpt lat="46.5219" lon="0.37969">
        <ele>107.4</ele>
        <time>2022-06-26T07:16:48Z</time>
      </trkpt>
      <trkpt lat="46.52198" lon="0.37982">
        <ele>107.6</ele>
        <time>2022-06-26T07:16:54Z</time>
      </trkpt>
      <trkpt lat="46.52206" lon="0.38007">
        <ele>107.4</ele>
        <time>2022-06-26T07:17:00Z</time>
      </trkpt>
      <trkpt lat="46.52213" lon="0.38043">
        <ele>106.6</ele>
        <time>2022-06-26T07:17:07Z</time>
      </trkpt>
      <trkpt lat="46.52219" lon="0.38059">
        <ele>106.4</ele>
        <time>2022-06-26T07:17:12Z</time>
      </trkpt>
      <trkpt lat="46.52229" lon="0.38075">
        <ele>106.2</ele>
        <time>2022-06-26T07:17:20Z</time>
      </trkpt>
      <trkpt lat="46.52229" lon="0.38081">
        <ele>106</ele>
        <time>2022-06-26T07:17:23Z</time>
      </trkpt>
      <trkpt lat="46.52228" lon="0.38083">
        <ele>106</ele>
        <time>2022-06-26T07:17:24Z</time>
      </trkpt>
      <trkpt lat="46.52226" lon="0.38087">
        <ele>105.8</ele>
        <time>2022-06-26T07:17:25Z</time>
      </trkpt>
      <trkpt lat="46.52222" lon="0.38101">
        <ele>105</ele>
        <time>2022-06-26T07:17:30Z</time>
      </trkpt>
      <trkpt lat="46.52222" lon="0.38104">
        <ele>104.8</ele>
        <time>2022-06-26T07:17:31Z</time>
      </trkpt>
      <trkpt lat="46.52218" lon="0.38117">
        <ele>104.4</ele>
        <time>2022-06-26T07:17:35Z</time>
      </trkpt>
      <trkpt lat="46.52217" lon="0.38125">
        <ele>103.4</ele>
        <time>2022-06-26T07:17:37Z</time>
      </trkpt>
      <trkpt lat="46.52215" lon="0.38131">
        <ele>101.6</ele>
        <time>2022-06-26T07:17:39Z</time>
      </trkpt>
      <trkpt lat="46.52214" lon="0.38139">
        <ele>100.4</ele>
        <time>2022-06-26T07:17:41Z</time>
      </trkpt>
      <trkpt lat="46.52212" lon="0.38145">
        <ele>99</ele>
        <time>2022-06-26T07:17:43Z</time>
      </trkpt>
      <trkpt lat="46.52213" lon="0.38152">
        <ele>98.2</ele>
        <time>2022-06-26T07:17:45Z</time>
      </trkpt>
      <trkpt lat="46.52219" lon="0.38157">
        <ele>98</ele>
        <time>2022-06-26T07:17:48Z</time>
      </trkpt>
      <trkpt lat="46.52227" lon="0.38166">
        <ele>99.6</ele>
        <time>2022-06-26T07:17:54Z</time>
      </trkpt>
      <trkpt lat="46.5223" lon="0.3817">
        <ele>100</ele>
        <time>2022-06-26T07:17:56Z</time>
      </trkpt>
      <trkpt lat="46.52232" lon="0.38171">
        <ele>100.4</ele>
        <time>2022-06-26T07:17:59Z</time>
      </trkpt>
      <trkpt lat="46.52235" lon="0.38172">
        <ele>101</ele>
        <time>2022-06-26T07:18:01Z</time>
      </trkpt>
      <trkpt lat="46.52237" lon="0.38172">
        <ele>101.2</ele>
        <time>2022-06-26T07:18:02Z</time>
      </trkpt>
      <trkpt lat="46.52241" lon="0.38173">
        <ele>102.4</ele>
        <time>2022-06-26T07:18:07Z</time>
      </trkpt>
      <trkpt lat="46.52246" lon="0.38174">
        <ele>102.8</ele>
        <time>2022-06-26T07:18:10Z</time>
      </trkpt>
      <trkpt lat="46.52253" lon="0.38175">
        <ele>103.4</ele>
        <time>2022-06-26T07:18:14Z</time>
      </trkpt>
      <trkpt lat="46.52259" lon="0.38174">
        <ele>104.2</ele>
        <time>2022-06-26T07:18:19Z</time>
      </trkpt>
      <trkpt lat="46.5226" lon="0.38174">
        <ele>104.4</ele>
        <time>2022-06-26T07:18:20Z</time>
      </trkpt>
      <trkpt lat="46.52268" lon="0.38171">
        <ele>105.6</ele>
        <time>2022-06-26T07:18:26Z</time>
      </trkpt>
      <trkpt lat="46.52276" lon="0.38164">
        <ele>106.4</ele>
        <time>2022-06-26T07:18:32Z</time>
      </trkpt>
      <trkpt lat="46.52278" lon="0.38163">
        <ele>106.6</ele>
        <time>2022-06-26T07:18:33Z</time>
      </trkpt>
      <trkpt lat="46.5228" lon="0.3816">
        <ele>107</ele>
        <time>2022-06-26T07:18:35Z</time>
      </trkpt>
      <trkpt lat="46.52283" lon="0.38156">
        <ele>107</ele>
        <time>2022-06-26T07:18:38Z</time>
      </trkpt>
      <trkpt lat="46.52291" lon="0.38151">
        <ele>107.8</ele>
        <time>2022-06-26T07:18:43Z</time>
      </trkpt>
      <trkpt lat="46.52295" lon="0.38148">
        <ele>108</ele>
        <time>2022-06-26T07:18:45Z</time>
      </trkpt>
      <trkpt lat="46.52307" lon="0.38142">
        <ele>108.8</ele>
        <time>2022-06-26T07:18:51Z</time>
      </trkpt>
      <trkpt lat="46.52312" lon="0.38141">
        <ele>109.2</ele>
        <time>2022-06-26T07:18:53Z</time>
      </trkpt>
      <trkpt lat="46.52328" lon="0.38139">
        <ele>109.8</ele>
        <time>2022-06-26T07:19:00Z</time>
      </trkpt>
      <trkpt lat="46.52333" lon="0.3814">
        <ele>109.8</ele>
        <time>2022-06-26T07:19:02Z</time>
      </trkpt>
      <trkpt lat="46.52347" lon="0.3814">
        <ele>110.8</ele>
        <time>2022-06-26T07:19:08Z</time>
      </trkpt>
      <trkpt lat="46.52349" lon="0.3814">
        <ele>110.8</ele>
        <time>2022-06-26T07:19:09Z</time>
      </trkpt>
      <trkpt lat="46.52365" lon="0.38144">
        <ele>111.2</ele>
        <time>2022-06-26T07:19:16Z</time>
      </trkpt>
      <trkpt lat="46.52376" lon="0.38147">
        <ele>112</ele>
        <time>2022-06-26T07:19:20Z</time>
      </trkpt>
      <trkpt lat="46.52383" lon="0.38146">
        <ele>111.8</ele>
        <time>2022-06-26T07:19:23Z</time>
      </trkpt>
      <trkpt lat="46.52388" lon="0.38147">
        <ele>111.8</ele>
        <time>2022-06-26T07:19:26Z</time>
      </trkpt>
      <trkpt lat="46.52392" lon="0.38147">
        <ele>112</ele>
        <time>2022-06-26T07:19:29Z</time>
      </trkpt>
      <trkpt lat="46.52393" lon="0.38147">
        <ele>112</ele>
        <time>2022-06-26T07:19:30Z</time>
      </trkpt>
      <trkpt lat="46.52401" lon="0.38156">
        <ele>112.2</ele>
        <time>2022-06-26T07:19:34Z</time>
      </trkpt>
      <trkpt lat="46.52411" lon="0.38178">
        <ele>113</ele>
        <time>2022-06-26T07:19:40Z</time>
      </trkpt>
      <trkpt lat="46.5242" lon="0.38205">
        <ele>113.6</ele>
        <time>2022-06-26T07:19:45Z</time>
      </trkpt>
      <trkpt lat="46.52428" lon="0.38233">
        <ele>114</ele>
        <time>2022-06-26T07:19:50Z</time>
      </trkpt>
      <trkpt lat="46.52431" lon="0.38245">
        <ele>114</ele>
        <time>2022-06-26T07:19:52Z</time>
      </trkpt>
      <trkpt lat="46.52438" lon="0.38268">
        <ele>114.2</ele>
        <time>2022-06-26T07:19:56Z</time>
      </trkpt>
      <trkpt lat="46.52443" lon="0.38286">
        <ele>114.4</ele>
        <time>2022-06-26T07:19:59Z</time>
      </trkpt>
      <trkpt lat="46.52451" lon="0.38314">
        <ele>115</ele>
        <time>2022-06-26T07:20:03Z</time>
      </trkpt>
      <trkpt lat="46.52453" lon="0.38329">
        <ele>115.2</ele>
        <time>2022-06-26T07:20:05Z</time>
      </trkpt>
      <trkpt lat="46.52464" lon="0.38377">
        <ele>115.8</ele>
        <time>2022-06-26T07:20:12Z</time>
      </trkpt>
      <trkpt lat="46.52471" lon="0.384">
        <ele>116.2</ele>
        <time>2022-06-26T07:20:15Z</time>
      </trkpt>
      <trkpt lat="46.52475" lon="0.38422">
        <ele>116.4</ele>
        <time>2022-06-26T07:20:18Z</time>
      </trkpt>
      <trkpt lat="46.52476" lon="0.38431">
        <ele>116.4</ele>
        <time>2022-06-26T07:20:19Z</time>
      </trkpt>
      <trkpt lat="46.52482" lon="0.3846">
        <ele>116.4</ele>
        <time>2022-06-26T07:20:23Z</time>
      </trkpt>
      <trkpt lat="46.52489" lon="0.38491">
        <ele>117</ele>
        <time>2022-06-26T07:20:28Z</time>
      </trkpt>
      <trkpt lat="46.52501" lon="0.38547">
        <ele>117.2</ele>
        <time>2022-06-26T07:20:36Z</time>
      </trkpt>
      <trkpt lat="46.52503" lon="0.38554">
        <ele>117.2</ele>
        <time>2022-06-26T07:20:37Z</time>
      </trkpt>
      <trkpt lat="46.52511" lon="0.38593">
        <ele>117.6</ele>
        <time>2022-06-26T07:20:42Z</time>
      </trkpt>
      <trkpt lat="46.52516" lon="0.38669">
        <ele>117.8</ele>
        <time>2022-06-26T07:20:48Z</time>
      </trkpt>
      <trkpt lat="46.52527" lon="0.38759">
        <ele>118</ele>
        <time>2022-06-26T07:20:57Z</time>
      </trkpt>
      <trkpt lat="46.52529" lon="0.38777">
        <ele>118.2</ele>
        <time>2022-06-26T07:20:59Z</time>
      </trkpt>
      <trkpt lat="46.52538" lon="0.3884">
        <ele>118.4</ele>
        <time>2022-06-26T07:21:06Z</time>
      </trkpt>
      <trkpt lat="46.52546" lon="0.389">
        <ele>119.2</ele>
        <time>2022-06-26T07:21:13Z</time>
      </trkpt>
      <trkpt lat="46.52549" lon="0.38924">
        <ele>119.4</ele>
        <time>2022-06-26T07:21:16Z</time>
      </trkpt>
      <trkpt lat="46.52556" lon="0.3898">
        <ele>119.8</ele>
        <time>2022-06-26T07:21:23Z</time>
      </trkpt>
      <trkpt lat="46.52566" lon="0.39047">
        <ele>119.8</ele>
        <time>2022-06-26T07:21:31Z</time>
      </trkpt>
      <trkpt lat="46.52572" lon="0.3906">
        <ele>119.8</ele>
        <time>2022-06-26T07:21:33Z</time>
      </trkpt>
      <trkpt lat="46.52581" lon="0.39066">
        <ele>119.8</ele>
        <time>2022-06-26T07:21:35Z</time>
      </trkpt>
      <trkpt lat="46.52586" lon="0.39065">
        <ele>119.8</ele>
        <time>2022-06-26T07:21:36Z</time>
      </trkpt>
      <trkpt lat="46.52591" lon="0.39064">
        <ele>119.8</ele>
        <time>2022-06-26T07:21:37Z</time>
      </trkpt>
      <trkpt lat="46.52616" lon="0.39056">
        <ele>120.2</ele>
        <time>2022-06-26T07:21:42Z</time>
      </trkpt>
      <trkpt lat="46.52625" lon="0.39054">
        <ele>120.4</ele>
        <time>2022-06-26T07:21:44Z</time>
      </trkpt>
      <trkpt lat="46.52649" lon="0.39046">
        <ele>120.8</ele>
        <time>2022-06-26T07:21:49Z</time>
      </trkpt>
      <trkpt lat="46.52679" lon="0.39039">
        <ele>121.4</ele>
        <time>2022-06-26T07:21:55Z</time>
      </trkpt>
      <trkpt lat="46.52689" lon="0.39035">
        <ele>121.4</ele>
        <time>2022-06-26T07:21:57Z</time>
      </trkpt>
      <trkpt lat="46.52693" lon="0.39033">
        <ele>121.4</ele>
        <time>2022-06-26T07:21:58Z</time>
      </trkpt>
      <trkpt lat="46.52704" lon="0.39028">
        <ele>121.4</ele>
        <time>2022-06-26T07:22:01Z</time>
      </trkpt>
      <trkpt lat="46.52708" lon="0.39028">
        <ele>121.4</ele>
        <time>2022-06-26T07:22:02Z</time>
      </trkpt>
      <trkpt lat="46.52712" lon="0.39027">
        <ele>121.4</ele>
        <time>2022-06-26T07:22:03Z</time>
      </trkpt>
      <trkpt lat="46.52734" lon="0.39022">
        <ele>121.4</ele>
        <time>2022-06-26T07:22:08Z</time>
      </trkpt>
      <trkpt lat="46.52747" lon="0.39021">
        <ele>121.6</ele>
        <time>2022-06-26T07:22:11Z</time>
      </trkpt>
      <trkpt lat="46.52758" lon="0.3902">
        <ele>121.6</ele>
        <time>2022-06-26T07:22:13Z</time>
      </trkpt>
      <trkpt lat="46.52787" lon="0.39012">
        <ele>121.6</ele>
        <time>2022-06-26T07:22:18Z</time>
      </trkpt>
      <trkpt lat="46.52823" lon="0.39006">
        <ele>120</ele>
        <time>2022-06-26T07:22:23Z</time>
      </trkpt>
      <trkpt lat="46.5283" lon="0.39004">
        <ele>119.8</ele>
        <time>2022-06-26T07:22:24Z</time>
      </trkpt>
      <trkpt lat="46.52852" lon="0.39">
        <ele>118.6</ele>
        <time>2022-06-26T07:22:27Z</time>
      </trkpt>
      <trkpt lat="46.52888" lon="0.38991">
        <ele>117.4</ele>
        <time>2022-06-26T07:22:32Z</time>
      </trkpt>
      <trkpt lat="46.52903" lon="0.38988">
        <ele>117.4</ele>
        <time>2022-06-26T07:22:34Z</time>
      </trkpt>
      <trkpt lat="46.52947" lon="0.38976">
        <ele>116.4</ele>
        <time>2022-06-26T07:22:40Z</time>
      </trkpt>
      <trkpt lat="46.52988" lon="0.38968">
        <ele>115.4</ele>
        <time>2022-06-26T07:22:46Z</time>
      </trkpt>
      <trkpt lat="46.53023" lon="0.38949">
        <ele>115.2</ele>
        <time>2022-06-26T07:22:52Z</time>
      </trkpt>
      <trkpt lat="46.53051" lon="0.38927">
        <ele>115.2</ele>
        <time>2022-06-26T07:22:57Z</time>
      </trkpt>
      <trkpt lat="46.53061" lon="0.38919">
        <ele>115.2</ele>
        <time>2022-06-26T07:22:59Z</time>
      </trkpt>
      <trkpt lat="46.53075" lon="0.3891">
        <ele>115.2</ele>
        <time>2022-06-26T07:23:02Z</time>
      </trkpt>
      <trkpt lat="46.53083" lon="0.38903">
        <ele>115.2</ele>
        <time>2022-06-26T07:23:04Z</time>
      </trkpt>
      <trkpt lat="46.53096" lon="0.38898">
        <ele>115.4</ele>
        <time>2022-06-26T07:23:07Z</time>
      </trkpt>
      <trkpt lat="46.53104" lon="0.38895">
        <ele>115.2</ele>
        <time>2022-06-26T07:23:09Z</time>
      </trkpt>
      <trkpt lat="46.53119" lon="0.38891">
        <ele>115.4</ele>
        <time>2022-06-26T07:23:13Z</time>
      </trkpt>
      <trkpt lat="46.53149" lon="0.38879">
        <ele>115.8</ele>
        <time>2022-06-26T07:23:21Z</time>
      </trkpt>
      <trkpt lat="46.53165" lon="0.38874">
        <ele>115.6</ele>
        <time>2022-06-26T07:23:25Z</time>
      </trkpt>
      <trkpt lat="46.53173" lon="0.3887">
        <ele>115.6</ele>
        <time>2022-06-26T07:23:27Z</time>
      </trkpt>
      <trkpt lat="46.53197" lon="0.38866">
        <ele>116</ele>
        <time>2022-06-26T07:23:33Z</time>
      </trkpt>
      <trkpt lat="46.53229" lon="0.3886">
        <ele>116</ele>
        <time>2022-06-26T07:23:40Z</time>
      </trkpt>
      <trkpt lat="46.53238" lon="0.38856">
        <ele>116</ele>
        <time>2022-06-26T07:23:42Z</time>
      </trkpt>
      <trkpt lat="46.53255" lon="0.38849">
        <ele>115.8</ele>
        <time>2022-06-26T07:23:46Z</time>
      </trkpt>
      <trkpt lat="46.53264" lon="0.38847">
        <ele>115.8</ele>
        <time>2022-06-26T07:23:48Z</time>
      </trkpt>
      <trkpt lat="46.53273" lon="0.38845">
        <ele>115.8</ele>
        <time>2022-06-26T07:23:50Z</time>
      </trkpt>
      <trkpt lat="46.53281" lon="0.38841">
        <ele>115.8</ele>
        <time>2022-06-26T07:23:52Z</time>
      </trkpt>
      <trkpt lat="46.5329" lon="0.38838">
        <ele>115.6</ele>
        <time>2022-06-26T07:23:54Z</time>
      </trkpt>
      <trkpt lat="46.53299" lon="0.38834">
        <ele>115.4</ele>
        <time>2022-06-26T07:23:56Z</time>
      </trkpt>
      <trkpt lat="46.53308" lon="0.38831">
        <ele>115.4</ele>
        <time>2022-06-26T07:23:58Z</time>
      </trkpt>
      <trkpt lat="46.53327" lon="0.38824">
        <ele>115</ele>
        <time>2022-06-26T07:24:02Z</time>
      </trkpt>
      <trkpt lat="46.53333" lon="0.38816">
        <ele>114.4</ele>
        <time>2022-06-26T07:24:04Z</time>
      </trkpt>
      <trkpt lat="46.53334" lon="0.38805">
        <ele>113.8</ele>
        <time>2022-06-26T07:24:06Z</time>
      </trkpt>
      <trkpt lat="46.53333" lon="0.38799">
        <ele>113.8</ele>
        <time>2022-06-26T07:24:07Z</time>
      </trkpt>
      <trkpt lat="46.53325" lon="0.38765">
        <ele>113.6</ele>
        <time>2022-06-26T07:24:12Z</time>
      </trkpt>
      <trkpt lat="46.53318" lon="0.38732">
        <ele>113.2</ele>
        <time>2022-06-26T07:24:16Z</time>
      </trkpt>
      <trkpt lat="46.53316" lon="0.38723">
        <ele>113.4</ele>
        <time>2022-06-26T07:24:17Z</time>
      </trkpt>
      <trkpt lat="46.53313" lon="0.38716">
        <ele>113.4</ele>
        <time>2022-06-26T07:24:18Z</time>
      </trkpt>
      <trkpt lat="46.53305" lon="0.38691">
        <ele>113.4</ele>
        <time>2022-06-26T07:24:21Z</time>
      </trkpt>
      <trkpt lat="46.53301" lon="0.38674">
        <ele>113.4</ele>
        <time>2022-06-26T07:24:23Z</time>
      </trkpt>
      <trkpt lat="46.53296" lon="0.38635">
        <ele>112.8</ele>
        <time>2022-06-26T07:24:28Z</time>
      </trkpt>
      <trkpt lat="46.53296" lon="0.38627">
        <ele>112.8</ele>
        <time>2022-06-26T07:24:29Z</time>
      </trkpt>
      <trkpt lat="46.53287" lon="0.38574">
        <ele>112.8</ele>
        <time>2022-06-26T07:24:36Z</time>
      </trkpt>
      <trkpt lat="46.53272" lon="0.38525">
        <ele>112.2</ele>
        <time>2022-06-26T07:24:42Z</time>
      </trkpt>
      <trkpt lat="46.53269" lon="0.38517">
        <ele>112</ele>
        <time>2022-06-26T07:24:43Z</time>
      </trkpt>
      <trkpt lat="46.53264" lon="0.38509">
        <ele>112</ele>
        <time>2022-06-26T07:24:44Z</time>
      </trkpt>
      <trkpt lat="46.5325" lon="0.38487">
        <ele>111.2</ele>
        <time>2022-06-26T07:24:47Z</time>
      </trkpt>
      <trkpt lat="46.53245" lon="0.3848">
        <ele>111</ele>
        <time>2022-06-26T07:24:48Z</time>
      </trkpt>
      <trkpt lat="46.53233" lon="0.38459">
        <ele>110.2</ele>
        <time>2022-06-26T07:24:51Z</time>
      </trkpt>
      <trkpt lat="46.53224" lon="0.38445">
        <ele>109.4</ele>
        <time>2022-06-26T07:24:53Z</time>
      </trkpt>
      <trkpt lat="46.5322" lon="0.3844">
        <ele>109</ele>
        <time>2022-06-26T07:24:54Z</time>
      </trkpt>
      <trkpt lat="46.53214" lon="0.38435">
        <ele>107.8</ele>
        <time>2022-06-26T07:24:55Z</time>
      </trkpt>
      <trkpt lat="46.53202" lon="0.38427">
        <ele>106.6</ele>
        <time>2022-06-26T07:24:57Z</time>
      </trkpt>
      <trkpt lat="46.53192" lon="0.38418">
        <ele>105.4</ele>
        <time>2022-06-26T07:24:59Z</time>
      </trkpt>
      <trkpt lat="46.53187" lon="0.3841">
        <ele>105.2</ele>
        <time>2022-06-26T07:25:00Z</time>
      </trkpt>
      <trkpt lat="46.53185" lon="0.38403">
        <ele>104.8</ele>
        <time>2022-06-26T07:25:01Z</time>
      </trkpt>
      <trkpt lat="46.53185" lon="0.38403">
        <ele>103.8</ele>
        <time>2022-06-26T07:25:02Z</time>
      </trkpt>
      <trkpt lat="46.53188" lon="0.38369">
        <ele>103.4</ele>
        <time>2022-06-26T07:25:06Z</time>
      </trkpt>
      <trkpt lat="46.532" lon="0.38337">
        <ele>102.6</ele>
        <time>2022-06-26T07:25:11Z</time>
      </trkpt>
      <trkpt lat="46.53203" lon="0.38331">
        <ele>102.4</ele>
        <time>2022-06-26T07:25:12Z</time>
      </trkpt>
      <trkpt lat="46.53217" lon="0.38299">
        <ele>101.4</ele>
        <time>2022-06-26T07:25:16Z</time>
      </trkpt>
      <trkpt lat="46.53224" lon="0.38283">
        <ele>101.6</ele>
        <time>2022-06-26T07:25:18Z</time>
      </trkpt>
      <trkpt lat="46.53249" lon="0.38234">
        <ele>101.6</ele>
        <time>2022-06-26T07:25:25Z</time>
      </trkpt>
      <trkpt lat="46.53258" lon="0.3821">
        <ele>102.4</ele>
        <time>2022-06-26T07:25:30Z</time>
      </trkpt>
      <trkpt lat="46.5326" lon="0.38206">
        <ele>102.4</ele>
        <time>2022-06-26T07:25:31Z</time>
      </trkpt>
      <trkpt lat="46.53264" lon="0.38188">
        <ele>103.4</ele>
        <time>2022-06-26T07:25:36Z</time>
      </trkpt>
      <trkpt lat="46.53265" lon="0.38184">
        <ele>103.6</ele>
        <time>2022-06-26T07:25:37Z</time>
      </trkpt>
      <trkpt lat="46.53266" lon="0.3816">
        <ele>104.6</ele>
        <time>2022-06-26T07:25:43Z</time>
      </trkpt>
      <trkpt lat="46.53262" lon="0.38132">
        <ele>105.2</ele>
        <time>2022-06-26T07:25:49Z</time>
      </trkpt>
      <trkpt lat="46.53261" lon="0.38114">
        <ele>105.8</ele>
        <time>2022-06-26T07:25:52Z</time>
      </trkpt>
      <trkpt lat="46.53261" lon="0.38103">
        <ele>106.2</ele>
        <time>2022-06-26T07:25:54Z</time>
      </trkpt>
      <trkpt lat="46.5326" lon="0.38075">
        <ele>106.6</ele>
        <time>2022-06-26T07:26:00Z</time>
      </trkpt>
      <trkpt lat="46.5326" lon="0.3807">
        <ele>106.8</ele>
        <time>2022-06-26T07:26:01Z</time>
      </trkpt>
      <trkpt lat="46.53255" lon="0.38042">
        <ele>107.2</ele>
        <time>2022-06-26T07:26:07Z</time>
      </trkpt>
      <trkpt lat="46.53254" lon="0.38021">
        <ele>107.4</ele>
        <time>2022-06-26T07:26:12Z</time>
      </trkpt>
      <trkpt lat="46.53251" lon="0.38011">
        <ele>107.8</ele>
        <time>2022-06-26T07:26:14Z</time>
      </trkpt>
      <trkpt lat="46.53248" lon="0.37989">
        <ele>108.4</ele>
        <time>2022-06-26T07:26:19Z</time>
      </trkpt>
      <trkpt lat="46.5324" lon="0.37957">
        <ele>108.6</ele>
        <time>2022-06-26T07:26:25Z</time>
      </trkpt>
      <trkpt lat="46.53243" lon="0.37939">
        <ele>108.8</ele>
        <time>2022-06-26T07:26:29Z</time>
      </trkpt>
      <trkpt lat="46.53246" lon="0.37909">
        <ele>109.6</ele>
        <time>2022-06-26T07:26:35Z</time>
      </trkpt>
      <trkpt lat="46.53246" lon="0.37898">
        <ele>110</ele>
        <time>2022-06-26T07:26:36Z</time>
      </trkpt>
      <trkpt lat="46.53247" lon="0.37852">
        <ele>110.4</ele>
        <time>2022-06-26T07:26:45Z</time>
      </trkpt>
      <trkpt lat="46.53251" lon="0.37815">
        <ele>110.6</ele>
        <time>2022-06-26T07:26:51Z</time>
      </trkpt>
      <trkpt lat="46.53252" lon="0.37777">
        <ele>110.4</ele>
        <time>2022-06-26T07:26:57Z</time>
      </trkpt>
      <trkpt lat="46.53253" lon="0.3777">
        <ele>110.6</ele>
        <time>2022-06-26T07:26:58Z</time>
      </trkpt>
      <trkpt lat="46.53264" lon="0.37722">
        <ele>110.6</ele>
        <time>2022-06-26T07:27:05Z</time>
      </trkpt>
      <trkpt lat="46.53276" lon="0.37674">
        <ele>111</ele>
        <time>2022-06-26T07:27:12Z</time>
      </trkpt>
      <trkpt lat="46.53285" lon="0.37645">
        <ele>111</ele>
        <time>2022-06-26T07:27:16Z</time>
      </trkpt>
      <trkpt lat="46.53293" lon="0.37616">
        <ele>110.8</ele>
        <time>2022-06-26T07:27:20Z</time>
      </trkpt>
      <trkpt lat="46.53309" lon="0.37573">
        <ele>110.4</ele>
        <time>2022-06-26T07:27:26Z</time>
      </trkpt>
      <trkpt lat="46.53318" lon="0.37548">
        <ele>110</ele>
        <time>2022-06-26T07:27:30Z</time>
      </trkpt>
      <trkpt lat="46.53325" lon="0.37526">
        <ele>109.6</ele>
        <time>2022-06-26T07:27:34Z</time>
      </trkpt>
      <trkpt lat="46.53326" lon="0.37498">
        <ele>109.2</ele>
        <time>2022-06-26T07:27:39Z</time>
      </trkpt>
      <trkpt lat="46.53315" lon="0.37469">
        <ele>108.8</ele>
        <time>2022-06-26T07:27:43Z</time>
      </trkpt>
      <trkpt lat="46.53312" lon="0.37461">
        <ele>108.8</ele>
        <time>2022-06-26T07:27:44Z</time>
      </trkpt>
      <trkpt lat="46.53293" lon="0.37409">
        <ele>108</ele>
        <time>2022-06-26T07:27:50Z</time>
      </trkpt>
      <trkpt lat="46.5329" lon="0.37399">
        <ele>107.6</ele>
        <time>2022-06-26T07:27:51Z</time>
      </trkpt>
      <trkpt lat="46.53276" lon="0.37359">
        <ele>106.2</ele>
        <time>2022-06-26T07:27:55Z</time>
      </trkpt>
      <trkpt lat="46.53269" lon="0.3734">
        <ele>105.8</ele>
        <time>2022-06-26T07:27:57Z</time>
      </trkpt>
      <trkpt lat="46.53262" lon="0.37321">
        <ele>104.8</ele>
        <time>2022-06-26T07:27:59Z</time>
      </trkpt>
      <trkpt lat="46.53256" lon="0.37307">
        <ele>104.2</ele>
        <time>2022-06-26T07:28:01Z</time>
      </trkpt>
      <trkpt lat="46.53253" lon="0.37302">
        <ele>103.4</ele>
        <time>2022-06-26T07:28:02Z</time>
      </trkpt>
      <trkpt lat="46.53247" lon="0.37297">
        <ele>102.4</ele>
        <time>2022-06-26T07:28:04Z</time>
      </trkpt>
      <trkpt lat="46.5324" lon="0.37293">
        <ele>101.8</ele>
        <time>2022-06-26T07:28:06Z</time>
      </trkpt>
      <trkpt lat="46.53232" lon="0.37289">
        <ele>101.2</ele>
        <time>2022-06-26T07:28:08Z</time>
      </trkpt>
      <trkpt lat="46.53219" lon="0.3728">
        <ele>99.8</ele>
        <time>2022-06-26T07:28:11Z</time>
      </trkpt>
      <trkpt lat="46.53215" lon="0.37278">
        <ele>99.4</ele>
        <time>2022-06-26T07:28:12Z</time>
      </trkpt>
      <trkpt lat="46.53204" lon="0.37274">
        <ele>98.8</ele>
        <time>2022-06-26T07:28:14Z</time>
      </trkpt>
      <trkpt lat="46.53197" lon="0.37271">
        <ele>98.6</ele>
        <time>2022-06-26T07:28:15Z</time>
      </trkpt>
      <trkpt lat="46.5319" lon="0.37269">
        <ele>98</ele>
        <time>2022-06-26T07:28:16Z</time>
      </trkpt>
      <trkpt lat="46.53183" lon="0.37267">
        <ele>97.4</ele>
        <time>2022-06-26T07:28:17Z</time>
      </trkpt>
      <trkpt lat="46.53154" lon="0.37256">
        <ele>96.8</ele>
        <time>2022-06-26T07:28:22Z</time>
      </trkpt>
      <trkpt lat="46.5312" lon="0.37243">
        <ele>96.8</ele>
        <time>2022-06-26T07:28:30Z</time>
      </trkpt>
      <trkpt lat="46.53101" lon="0.37234">
        <ele>97.4</ele>
        <time>2022-06-26T07:28:36Z</time>
      </trkpt>
      <trkpt lat="46.5309" lon="0.37228">
        <ele>98.4</ele>
        <time>2022-06-26T07:28:39Z</time>
      </trkpt>
      <trkpt lat="46.53084" lon="0.37224">
        <ele>98.8</ele>
        <time>2022-06-26T07:28:41Z</time>
      </trkpt>
      <trkpt lat="46.53079" lon="0.37217">
        <ele>98.8</ele>
        <time>2022-06-26T07:28:43Z</time>
      </trkpt>
      <trkpt lat="46.53069" lon="0.37201">
        <ele>98.8</ele>
        <time>2022-06-26T07:28:46Z</time>
      </trkpt>
      <trkpt lat="46.53053" lon="0.37157">
        <ele>98.6</ele>
        <time>2022-06-26T07:28:52Z</time>
      </trkpt>
      <trkpt lat="46.53043" lon="0.37128">
        <ele>98.6</ele>
        <time>2022-06-26T07:28:57Z</time>
      </trkpt>
      <trkpt lat="46.53035" lon="0.37096">
        <ele>99</ele>
        <time>2022-06-26T07:29:04Z</time>
      </trkpt>
      <trkpt lat="46.53026" lon="0.37079">
        <ele>99.2</ele>
        <time>2022-06-26T07:29:09Z</time>
      </trkpt>
      <trkpt lat="46.53018" lon="0.37071">
        <ele>99.6</ele>
        <time>2022-06-26T07:29:11Z</time>
      </trkpt>
      <trkpt lat="46.53005" lon="0.37063">
        <ele>100.2</ele>
        <time>2022-06-26T07:29:14Z</time>
      </trkpt>
      <trkpt lat="46.52999" lon="0.37059">
        <ele>100.8</ele>
        <time>2022-06-26T07:29:16Z</time>
      </trkpt>
      <trkpt lat="46.52988" lon="0.37051">
        <ele>101.8</ele>
        <time>2022-06-26T07:29:20Z</time>
      </trkpt>
      <trkpt lat="46.52977" lon="0.37043">
        <ele>103</ele>
        <time>2022-06-26T07:29:24Z</time>
      </trkpt>
      <trkpt lat="46.52971" lon="0.37039">
        <ele>103.6</ele>
        <time>2022-06-26T07:29:26Z</time>
      </trkpt>
      <trkpt lat="46.52965" lon="0.37036">
        <ele>104.2</ele>
        <time>2022-06-26T07:29:28Z</time>
      </trkpt>
      <trkpt lat="46.52952" lon="0.37026">
        <ele>105.2</ele>
        <time>2022-06-26T07:29:33Z</time>
      </trkpt>
      <trkpt lat="46.5294" lon="0.37008">
        <ele>106.2</ele>
        <time>2022-06-26T07:29:39Z</time>
      </trkpt>
      <trkpt lat="46.52926" lon="0.36972">
        <ele>107</ele>
        <time>2022-06-26T07:29:47Z</time>
      </trkpt>
      <trkpt lat="46.52919" lon="0.36944">
        <ele>106.2</ele>
        <time>2022-06-26T07:29:52Z</time>
      </trkpt>
      <trkpt lat="46.52919" lon="0.36938">
        <ele>106.2</ele>
        <time>2022-06-26T07:29:53Z</time>
      </trkpt>
      <trkpt lat="46.52916" lon="0.36912">
        <ele>105.2</ele>
        <time>2022-06-26T07:29:57Z</time>
      </trkpt>
      <trkpt lat="46.52913" lon="0.36903">
        <ele>105</ele>
        <time>2022-06-26T07:29:58Z</time>
      </trkpt>
      <trkpt lat="46.52909" lon="0.36896">
        <ele>105</ele>
        <time>2022-06-26T07:29:59Z</time>
      </trkpt>
      <trkpt lat="46.52896" lon="0.36876">
        <ele>104.4</ele>
        <time>2022-06-26T07:30:02Z</time>
      </trkpt>
      <trkpt lat="46.52892" lon="0.36871">
        <ele>104.2</ele>
        <time>2022-06-26T07:30:03Z</time>
      </trkpt>
      <trkpt lat="46.52869" lon="0.36843">
        <ele>103.6</ele>
        <time>2022-06-26T07:30:08Z</time>
      </trkpt>
      <trkpt lat="46.52853" lon="0.36826">
        <ele>103</ele>
        <time>2022-06-26T07:30:11Z</time>
      </trkpt>
      <trkpt lat="46.52834" lon="0.36812">
        <ele>102.6</ele>
        <time>2022-06-26T07:30:14Z</time>
      </trkpt>
      <trkpt lat="46.52827" lon="0.36809">
        <ele>101.6</ele>
        <time>2022-06-26T07:30:15Z</time>
      </trkpt>
      <trkpt lat="46.52813" lon="0.36803">
        <ele>100.2</ele>
        <time>2022-06-26T07:30:17Z</time>
      </trkpt>
      <trkpt lat="46.52799" lon="0.36799">
        <ele>99.6</ele>
        <time>2022-06-26T07:30:19Z</time>
      </trkpt>
      <trkpt lat="46.52793" lon="0.36798">
        <ele>99</ele>
        <time>2022-06-26T07:30:20Z</time>
      </trkpt>
      <trkpt lat="46.52788" lon="0.36798">
        <ele>98</ele>
        <time>2022-06-26T07:30:21Z</time>
      </trkpt>
      <trkpt lat="46.5278" lon="0.36798">
        <ele>96.6</ele>
        <time>2022-06-26T07:30:23Z</time>
      </trkpt>
      <trkpt lat="46.52772" lon="0.36799">
        <ele>95.4</ele>
        <time>2022-06-26T07:30:25Z</time>
      </trkpt>
      <trkpt lat="46.52769" lon="0.368">
        <ele>94.8</ele>
        <time>2022-06-26T07:30:26Z</time>
      </trkpt>
      <trkpt lat="46.52766" lon="0.36801">
        <ele>93.8</ele>
        <time>2022-06-26T07:30:27Z</time>
      </trkpt>
      <trkpt lat="46.52763" lon="0.36803">
        <ele>92.8</ele>
        <time>2022-06-26T07:30:28Z</time>
      </trkpt>
      <trkpt lat="46.52759" lon="0.36805">
        <ele>92</ele>
        <time>2022-06-26T07:30:29Z</time>
      </trkpt>
      <trkpt lat="46.52755" lon="0.36809">
        <ele>91.2</ele>
        <time>2022-06-26T07:30:31Z</time>
      </trkpt>
      <trkpt lat="46.52753" lon="0.3681">
        <ele>90.8</ele>
        <time>2022-06-26T07:30:32Z</time>
      </trkpt>
      <trkpt lat="46.52749" lon="0.36813">
        <ele>90.2</ele>
        <time>2022-06-26T07:30:34Z</time>
      </trkpt>
      <trkpt lat="46.52744" lon="0.36816">
        <ele>89.8</ele>
        <time>2022-06-26T07:30:37Z</time>
      </trkpt>
      <trkpt lat="46.52741" lon="0.36817">
        <ele>89.8</ele>
        <time>2022-06-26T07:30:43Z</time>
      </trkpt>
      <trkpt lat="46.52738" lon="0.36819">
        <ele>89.6</ele>
        <time>2022-06-26T07:30:52Z</time>
      </trkpt>
      <trkpt lat="46.52736" lon="0.36821">
        <ele>88.8</ele>
        <time>2022-06-26T07:30:57Z</time>
      </trkpt>
      <trkpt lat="46.52733" lon="0.36823">
        <ele>88.2</ele>
        <time>2022-06-26T07:30:58Z</time>
      </trkpt>
      <trkpt lat="46.52721" lon="0.3684">
        <ele>87.4</ele>
        <time>2022-06-26T07:31:02Z</time>
      </trkpt>
      <trkpt lat="46.52716" lon="0.36846">
        <ele>86</ele>
        <time>2022-06-26T07:31:03Z</time>
      </trkpt>
      <trkpt lat="46.52709" lon="0.36857">
        <ele>83.8</ele>
        <time>2022-06-26T07:31:05Z</time>
      </trkpt>
      <trkpt lat="46.52706" lon="0.36863">
        <ele>83</ele>
        <time>2022-06-26T07:31:06Z</time>
      </trkpt>
      <trkpt lat="46.52704" lon="0.36869">
        <ele>82.2</ele>
        <time>2022-06-26T07:31:07Z</time>
      </trkpt>
      <trkpt lat="46.52698" lon="0.3688">
        <ele>81.2</ele>
        <time>2022-06-26T07:31:09Z</time>
      </trkpt>
      <trkpt lat="46.52693" lon="0.36891">
        <ele>80</ele>
        <time>2022-06-26T07:31:11Z</time>
      </trkpt>
      <trkpt lat="46.52692" lon="0.36896">
        <ele>79.6</ele>
        <time>2022-06-26T07:31:12Z</time>
      </trkpt>
      <trkpt lat="46.5269" lon="0.36902">
        <ele>78.8</ele>
        <time>2022-06-26T07:31:13Z</time>
      </trkpt>
      <trkpt lat="46.52682" lon="0.3692">
        <ele>77.8</ele>
        <time>2022-06-26T07:31:17Z</time>
      </trkpt>
      <trkpt lat="46.5268" lon="0.36926">
        <ele>77.6</ele>
        <time>2022-06-26T07:31:18Z</time>
      </trkpt>
      <trkpt lat="46.52679" lon="0.36932">
        <ele>77.6</ele>
        <time>2022-06-26T07:31:19Z</time>
      </trkpt>
      <trkpt lat="46.52668" lon="0.36961">
        <ele>76.8</ele>
        <time>2022-06-26T07:31:25Z</time>
      </trkpt>
      <trkpt lat="46.52667" lon="0.36969">
        <ele>76.8</ele>
        <time>2022-06-26T07:31:27Z</time>
      </trkpt>
      <trkpt lat="46.52666" lon="0.36981">
        <ele>76.8</ele>
        <time>2022-06-26T07:31:28Z</time>
      </trkpt>
      <trkpt lat="46.52667" lon="0.36998">
        <ele>77</ele>
        <time>2022-06-26T07:31:32Z</time>
      </trkpt>
      <trkpt lat="46.52668" lon="0.37027">
        <ele>77</ele>
        <time>2022-06-26T07:31:35Z</time>
      </trkpt>
      <trkpt lat="46.52672" lon="0.37051">
        <ele>76.8</ele>
        <time>2022-06-26T07:31:38Z</time>
      </trkpt>
      <trkpt lat="46.52679" lon="0.37094">
        <ele>76.6</ele>
        <time>2022-06-26T07:31:43Z</time>
      </trkpt>
      <trkpt lat="46.52681" lon="0.37111">
        <ele>76.6</ele>
        <time>2022-06-26T07:31:44Z</time>
      </trkpt>
      <trkpt lat="46.52692" lon="0.37145">
        <ele>75.8</ele>
        <time>2022-06-26T07:31:49Z</time>
      </trkpt>
      <trkpt lat="46.52694" lon="0.37152">
        <ele>75.6</ele>
        <time>2022-06-26T07:31:50Z</time>
      </trkpt>
      <trkpt lat="46.52694" lon="0.37175">
        <ele>75.6</ele>
        <time>2022-06-26T07:31:52Z</time>
      </trkpt>
      <trkpt lat="46.52696" lon="0.372">
        <ele>75.2</ele>
        <time>2022-06-26T07:31:55Z</time>
      </trkpt>
      <trkpt lat="46.52696" lon="0.37247">
        <ele>74.8</ele>
        <time>2022-06-26T07:31:59Z</time>
      </trkpt>
      <trkpt lat="46.52694" lon="0.37254">
        <ele>74.8</ele>
        <time>2022-06-26T07:32:00Z</time>
      </trkpt>
      <trkpt lat="46.52684" lon="0.37315">
        <ele>73</ele>
        <time>2022-06-26T07:35:38Z</time>
      </trkpt>
      <trkpt lat="46.52682" lon="0.37323">
        <ele>73</ele>
        <time>2022-06-26T07:35:46Z</time>
      </trkpt>
      <trkpt lat="46.52682" lon="0.37326">
        <ele>73</ele>
        <time>2022-06-26T07:35:47Z</time>
      </trkpt>
      <trkpt lat="46.52675" lon="0.37343">
        <ele>73.2</ele>
        <time>2022-06-26T07:35:52Z</time>
      </trkpt>
      <trkpt lat="46.52664" lon="0.3737">
        <ele>73.2</ele>
        <time>2022-06-26T07:35:57Z</time>
      </trkpt>
      <trkpt lat="46.52654" lon="0.37386">
        <ele>73.4</ele>
        <time>2022-06-26T07:36:00Z</time>
      </trkpt>
      <trkpt lat="46.52647" lon="0.37391">
        <ele>73.4</ele>
        <time>2022-06-26T07:36:02Z</time>
      </trkpt>
      <trkpt lat="46.52632" lon="0.3739">
        <ele>74.2</ele>
        <time>2022-06-26T07:36:05Z</time>
      </trkpt>
      <trkpt lat="46.52627" lon="0.37387">
        <ele>74.2</ele>
        <time>2022-06-26T07:36:06Z</time>
      </trkpt>
      <trkpt lat="46.52619" lon="0.3738">
        <ele>74.2</ele>
        <time>2022-06-26T07:36:08Z</time>
      </trkpt>
      <trkpt lat="46.52605" lon="0.37362">
        <ele>74.2</ele>
        <time>2022-06-26T07:36:12Z</time>
      </trkpt>
      <trkpt lat="46.52593" lon="0.37341">
        <ele>74.8</ele>
        <time>2022-06-26T07:36:18Z</time>
      </trkpt>
      <trkpt lat="46.52592" lon="0.37337">
        <ele>75.6</ele>
        <time>2022-06-26T07:36:19Z</time>
      </trkpt>
      <trkpt lat="46.52588" lon="0.37321">
        <ele>76.2</ele>
        <time>2022-06-26T07:36:24Z</time>
      </trkpt>
      <trkpt lat="46.52579" lon="0.37302">
        <ele>76.6</ele>
        <time>2022-06-26T07:36:29Z</time>
      </trkpt>
      <trkpt lat="46.52577" lon="0.37299">
        <ele>76.8</ele>
        <time>2022-06-26T07:36:30Z</time>
      </trkpt>
      <trkpt lat="46.52558" lon="0.37273">
        <ele>77.6</ele>
        <time>2022-06-26T07:36:37Z</time>
      </trkpt>
      <trkpt lat="46.52549" lon="0.37263">
        <ele>77.8</ele>
        <time>2022-06-26T07:36:40Z</time>
      </trkpt>
      <trkpt lat="46.52533" lon="0.37236">
        <ele>78.2</ele>
        <time>2022-06-26T07:36:47Z</time>
      </trkpt>
      <trkpt lat="46.52514" lon="0.37208">
        <ele>78.6</ele>
        <time>2022-06-26T07:36:53Z</time>
      </trkpt>
      <trkpt lat="46.52505" lon="0.37192">
        <ele>78.8</ele>
        <time>2022-06-26T07:36:56Z</time>
      </trkpt>
      <trkpt lat="46.52494" lon="0.37174">
        <ele>79.4</ele>
        <time>2022-06-26T07:37:00Z</time>
      </trkpt>
      <trkpt lat="46.52482" lon="0.37155">
        <ele>80</ele>
        <time>2022-06-26T07:37:05Z</time>
      </trkpt>
      <trkpt lat="46.52479" lon="0.37151">
        <ele>80.4</ele>
        <time>2022-06-26T07:37:06Z</time>
      </trkpt>
      <trkpt lat="46.52474" lon="0.37141">
        <ele>81</ele>
        <time>2022-06-26T07:37:09Z</time>
      </trkpt>
      <trkpt lat="46.52465" lon="0.37125">
        <ele>81.8</ele>
        <time>2022-06-26T07:37:14Z</time>
      </trkpt>
      <trkpt lat="46.5246" lon="0.37114">
        <ele>82.4</ele>
        <time>2022-06-26T07:37:17Z</time>
      </trkpt>
      <trkpt lat="46.52451" lon="0.37096">
        <ele>83.6</ele>
        <time>2022-06-26T07:37:22Z</time>
      </trkpt>
      <trkpt lat="46.52444" lon="0.37079">
        <ele>84.6</ele>
        <time>2022-06-26T07:37:26Z</time>
      </trkpt>
      <trkpt lat="46.5244" lon="0.37068">
        <ele>85.4</ele>
        <time>2022-06-26T07:37:29Z</time>
      </trkpt>
      <trkpt lat="46.52437" lon="0.3706">
        <ele>85.8</ele>
        <time>2022-06-26T07:37:31Z</time>
      </trkpt>
      <trkpt lat="46.52435" lon="0.37046">
        <ele>86.8</ele>
        <time>2022-06-26T07:37:35Z</time>
      </trkpt>
      <trkpt lat="46.52435" lon="0.37042">
        <ele>87</ele>
        <time>2022-06-26T07:37:36Z</time>
      </trkpt>
      <trkpt lat="46.52434" lon="0.37023">
        <ele>88</ele>
        <time>2022-06-26T07:37:41Z</time>
      </trkpt>
      <trkpt lat="46.5243" lon="0.36993">
        <ele>88.8</ele>
        <time>2022-06-26T07:37:48Z</time>
      </trkpt>
      <trkpt lat="46.5243" lon="0.36988">
        <ele>89.2</ele>
        <time>2022-06-26T07:37:49Z</time>
      </trkpt>
      <trkpt lat="46.52428" lon="0.36965">
        <ele>90.2</ele>
        <time>2022-06-26T07:37:54Z</time>
      </trkpt>
      <trkpt lat="46.52428" lon="0.36956">
        <ele>90.6</ele>
        <time>2022-06-26T07:37:56Z</time>
      </trkpt>
      <trkpt lat="46.52429" lon="0.36937">
        <ele>91.4</ele>
        <time>2022-06-26T07:38:00Z</time>
      </trkpt>
      <trkpt lat="46.52429" lon="0.36917">
        <ele>91.8</ele>
        <time>2022-06-26T07:38:04Z</time>
      </trkpt>
      <trkpt lat="46.5243" lon="0.36897">
        <ele>92.4</ele>
        <time>2022-06-26T07:38:08Z</time>
      </trkpt>
      <trkpt lat="46.52427" lon="0.3688">
        <ele>92.6</ele>
        <time>2022-06-26T07:38:11Z</time>
      </trkpt>
      <trkpt lat="46.52419" lon="0.36839">
        <ele>93.2</ele>
        <time>2022-06-26T07:38:18Z</time>
      </trkpt>
      <trkpt lat="46.52413" lon="0.36817">
        <ele>93.4</ele>
        <time>2022-06-26T07:38:22Z</time>
      </trkpt>
      <trkpt lat="46.52408" lon="0.368">
        <ele>93.6</ele>
        <time>2022-06-26T07:38:25Z</time>
      </trkpt>
      <trkpt lat="46.52397" lon="0.36755">
        <ele>94.2</ele>
        <time>2022-06-26T07:38:32Z</time>
      </trkpt>
      <trkpt lat="46.52391" lon="0.36729">
        <ele>94.4</ele>
        <time>2022-06-26T07:38:36Z</time>
      </trkpt>
      <trkpt lat="46.52384" lon="0.36701">
        <ele>94.8</ele>
        <time>2022-06-26T07:38:40Z</time>
      </trkpt>
      <trkpt lat="46.52374" lon="0.36654">
        <ele>95.6</ele>
        <time>2022-06-26T07:38:48Z</time>
      </trkpt>
      <trkpt lat="46.52366" lon="0.36618">
        <ele>96.8</ele>
        <time>2022-06-26T07:38:55Z</time>
      </trkpt>
      <trkpt lat="46.52366" lon="0.36614">
        <ele>97</ele>
        <time>2022-06-26T07:38:56Z</time>
      </trkpt>
      <trkpt lat="46.52367" lon="0.366">
        <ele>97.8</ele>
        <time>2022-06-26T07:38:59Z</time>
      </trkpt>
      <trkpt lat="46.52369" lon="0.36582">
        <ele>98.6</ele>
        <time>2022-06-26T07:39:03Z</time>
      </trkpt>
      <trkpt lat="46.5237" lon="0.36573">
        <ele>98.8</ele>
        <time>2022-06-26T07:39:05Z</time>
      </trkpt>
      <trkpt lat="46.52377" lon="0.3655">
        <ele>99.8</ele>
        <time>2022-06-26T07:39:11Z</time>
      </trkpt>
      <trkpt lat="46.52381" lon="0.36541">
        <ele>100</ele>
        <time>2022-06-26T07:39:13Z</time>
      </trkpt>
      <trkpt lat="46.52381" lon="0.36536">
        <ele>100</ele>
        <time>2022-06-26T07:39:14Z</time>
      </trkpt>
      <trkpt lat="46.52383" lon="0.36524">
        <ele>100</ele>
        <time>2022-06-26T07:39:16Z</time>
      </trkpt>
      <trkpt lat="46.52392" lon="0.36479">
        <ele>100.2</ele>
        <time>2022-06-26T07:39:22Z</time>
      </trkpt>
      <trkpt lat="46.52403" lon="0.36438">
        <ele>100.4</ele>
        <time>2022-06-26T07:39:28Z</time>
      </trkpt>
      <trkpt lat="46.52404" lon="0.36432">
        <ele>100.4</ele>
        <time>2022-06-26T07:39:29Z</time>
      </trkpt>
      <trkpt lat="46.52406" lon="0.36422">
        <ele>100.6</ele>
        <time>2022-06-26T07:39:31Z</time>
      </trkpt>
      <trkpt lat="46.52405" lon="0.36408">
        <ele>101</ele>
        <time>2022-06-26T07:39:34Z</time>
      </trkpt>
      <trkpt lat="46.52405" lon="0.36404">
        <ele>101</ele>
        <time>2022-06-26T07:39:35Z</time>
      </trkpt>
      <trkpt lat="46.52403" lon="0.36376">
        <ele>102</ele>
        <time>2022-06-26T07:39:41Z</time>
      </trkpt>
      <trkpt lat="46.52395" lon="0.36328">
        <ele>102.6</ele>
        <time>2022-06-26T07:39:49Z</time>
      </trkpt>
      <trkpt lat="46.52396" lon="0.36311">
        <ele>102.6</ele>
        <time>2022-06-26T07:39:53Z</time>
      </trkpt>
      <trkpt lat="46.52396" lon="0.36307">
        <ele>102.6</ele>
        <time>2022-06-26T07:39:54Z</time>
      </trkpt>
      <trkpt lat="46.52399" lon="0.36298">
        <ele>102.4</ele>
        <time>2022-06-26T07:39:56Z</time>
      </trkpt>
      <trkpt lat="46.52403" lon="0.36282">
        <ele>102.4</ele>
        <time>2022-06-26T07:39:59Z</time>
      </trkpt>
      <trkpt lat="46.52405" lon="0.36271">
        <ele>102.2</ele>
        <time>2022-06-26T07:40:01Z</time>
      </trkpt>
      <trkpt lat="46.52408" lon="0.36256">
        <ele>101.8</ele>
        <time>2022-06-26T07:40:03Z</time>
      </trkpt>
      <trkpt lat="46.52414" lon="0.36237">
        <ele>101.2</ele>
        <time>2022-06-26T07:40:06Z</time>
      </trkpt>
      <trkpt lat="46.52416" lon="0.36224">
        <ele>101.2</ele>
        <time>2022-06-26T07:40:08Z</time>
      </trkpt>
      <trkpt lat="46.52422" lon="0.36201">
        <ele>101.2</ele>
        <time>2022-06-26T07:40:11Z</time>
      </trkpt>
      <trkpt lat="46.52422" lon="0.36193">
        <ele>101.2</ele>
        <time>2022-06-26T07:40:12Z</time>
      </trkpt>
      <trkpt lat="46.52423" lon="0.36187">
        <ele>101.4</ele>
        <time>2022-06-26T07:40:13Z</time>
      </trkpt>
      <trkpt lat="46.52425" lon="0.36174">
        <ele>101.6</ele>
        <time>2022-06-26T07:40:15Z</time>
      </trkpt>
      <trkpt lat="46.52425" lon="0.36159">
        <ele>102</ele>
        <time>2022-06-26T07:40:17Z</time>
      </trkpt>
      <trkpt lat="46.5243" lon="0.36126">
        <ele>103</ele>
        <time>2022-06-26T07:40:23Z</time>
      </trkpt>
      <trkpt lat="46.52431" lon="0.3612">
        <ele>103.4</ele>
        <time>2022-06-26T07:40:24Z</time>
      </trkpt>
      <trkpt lat="46.52433" lon="0.36114">
        <ele>103.4</ele>
        <time>2022-06-26T07:40:25Z</time>
      </trkpt>
      <trkpt lat="46.52437" lon="0.36097">
        <ele>104.2</ele>
        <time>2022-06-26T07:40:28Z</time>
      </trkpt>
      <trkpt lat="46.5244" lon="0.36086">
        <ele>104.6</ele>
        <time>2022-06-26T07:40:30Z</time>
      </trkpt>
      <trkpt lat="46.52444" lon="0.36055">
        <ele>105.4</ele>
        <time>2022-06-26T07:40:36Z</time>
      </trkpt>
      <trkpt lat="46.5245" lon="0.36024">
        <ele>106</ele>
        <time>2022-06-26T07:40:43Z</time>
      </trkpt>
      <trkpt lat="46.52458" lon="0.35998">
        <ele>106</ele>
        <time>2022-06-26T07:40:48Z</time>
      </trkpt>
      <trkpt lat="46.52461" lon="0.35987">
        <ele>106</ele>
        <time>2022-06-26T07:40:50Z</time>
      </trkpt>
      <trkpt lat="46.52469" lon="0.35958">
        <ele>105.8</ele>
        <time>2022-06-26T07:40:55Z</time>
      </trkpt>
      <trkpt lat="46.52481" lon="0.35926">
        <ele>105.4</ele>
        <time>2022-06-26T07:41:00Z</time>
      </trkpt>
      <trkpt lat="46.52501" lon="0.35887">
        <ele>104.6</ele>
        <time>2022-06-26T07:41:05Z</time>
      </trkpt>
      <trkpt lat="46.52504" lon="0.35879">
        <ele>103.8</ele>
        <time>2022-06-26T07:41:06Z</time>
      </trkpt>
      <trkpt lat="46.52507" lon="0.35871">
        <ele>102.8</ele>
        <time>2022-06-26T07:41:07Z</time>
      </trkpt>
      <trkpt lat="46.5251" lon="0.35861">
        <ele>102.2</ele>
        <time>2022-06-26T07:41:08Z</time>
      </trkpt>
      <trkpt lat="46.52515" lon="0.35837">
        <ele>101.2</ele>
        <time>2022-06-26T07:41:10Z</time>
      </trkpt>
      <trkpt lat="46.52517" lon="0.35826">
        <ele>100.8</ele>
        <time>2022-06-26T07:41:11Z</time>
      </trkpt>
      <trkpt lat="46.52518" lon="0.35808">
        <ele>99.8</ele>
        <time>2022-06-26T07:41:13Z</time>
      </trkpt>
      <trkpt lat="46.52519" lon="0.35801">
        <ele>98.6</ele>
        <time>2022-06-26T07:41:14Z</time>
      </trkpt>
      <trkpt lat="46.5252" lon="0.35794">
        <ele>98</ele>
        <time>2022-06-26T07:41:15Z</time>
      </trkpt>
      <trkpt lat="46.52521" lon="0.35788">
        <ele>97.6</ele>
        <time>2022-06-26T07:41:16Z</time>
      </trkpt>
      <trkpt lat="46.52523" lon="0.35783">
        <ele>97.2</ele>
        <time>2022-06-26T07:41:17Z</time>
      </trkpt>
      <trkpt lat="46.52527" lon="0.35778">
        <ele>96.6</ele>
        <time>2022-06-26T07:41:19Z</time>
      </trkpt>
      <trkpt lat="46.5253" lon="0.35775">
        <ele>96.4</ele>
        <time>2022-06-26T07:41:20Z</time>
      </trkpt>
      <trkpt lat="46.52536" lon="0.35769">
        <ele>95.4</ele>
        <time>2022-06-26T07:41:22Z</time>
      </trkpt>
      <trkpt lat="46.52544" lon="0.35768">
        <ele>94.4</ele>
        <time>2022-06-26T07:41:24Z</time>
      </trkpt>
      <trkpt lat="46.52548" lon="0.35769">
        <ele>93.8</ele>
        <time>2022-06-26T07:41:25Z</time>
      </trkpt>
      <trkpt lat="46.52557" lon="0.35771">
        <ele>93.2</ele>
        <time>2022-06-26T07:41:27Z</time>
      </trkpt>
      <trkpt lat="46.52567" lon="0.35772">
        <ele>92.6</ele>
        <time>2022-06-26T07:41:29Z</time>
      </trkpt>
      <trkpt lat="46.52572" lon="0.35773">
        <ele>92.2</ele>
        <time>2022-06-26T07:41:30Z</time>
      </trkpt>
      <trkpt lat="46.52582" lon="0.35776">
        <ele>91.4</ele>
        <time>2022-06-26T07:41:32Z</time>
      </trkpt>
      <trkpt lat="46.5259" lon="0.3578">
        <ele>91</ele>
        <time>2022-06-26T07:41:34Z</time>
      </trkpt>
      <trkpt lat="46.52597" lon="0.35785">
        <ele>90.8</ele>
        <time>2022-06-26T07:41:36Z</time>
      </trkpt>
      <trkpt lat="46.526" lon="0.35788">
        <ele>90.4</ele>
        <time>2022-06-26T07:41:37Z</time>
      </trkpt>
      <trkpt lat="46.52623" lon="0.35804">
        <ele>89.4</ele>
        <time>2022-06-26T07:41:42Z</time>
      </trkpt>
      <trkpt lat="46.52633" lon="0.35818">
        <ele>88.2</ele>
        <time>2022-06-26T07:41:45Z</time>
      </trkpt>
      <trkpt lat="46.52644" lon="0.35829">
        <ele>87.2</ele>
        <time>2022-06-26T07:41:48Z</time>
      </trkpt>
      <trkpt lat="46.52647" lon="0.35834">
        <ele>86.6</ele>
        <time>2022-06-26T07:41:49Z</time>
      </trkpt>
      <trkpt lat="46.52661" lon="0.3586">
        <ele>85.8</ele>
        <time>2022-06-26T07:41:53Z</time>
      </trkpt>
      <trkpt lat="46.5267" lon="0.35875">
        <ele>85.6</ele>
        <time>2022-06-26T07:41:55Z</time>
      </trkpt>
      <trkpt lat="46.52683" lon="0.35893">
        <ele>85</ele>
        <time>2022-06-26T07:41:58Z</time>
      </trkpt>
      <trkpt lat="46.52687" lon="0.35907">
        <ele>84.2</ele>
        <time>2022-06-26T07:42:01Z</time>
      </trkpt>
      <trkpt lat="46.52693" lon="0.35917">
        <ele>83.4</ele>
        <time>2022-06-26T07:42:03Z</time>
      </trkpt>
      <trkpt lat="46.52697" lon="0.35934">
        <ele>83</ele>
        <time>2022-06-26T07:42:06Z</time>
      </trkpt>
      <trkpt lat="46.52707" lon="0.35958">
        <ele>82.2</ele>
        <time>2022-06-26T07:42:09Z</time>
      </trkpt>
      <trkpt lat="46.5271" lon="0.35964">
        <ele>82</ele>
        <time>2022-06-26T07:42:10Z</time>
      </trkpt>
      <trkpt lat="46.52717" lon="0.35989">
        <ele>81.8</ele>
        <time>2022-06-26T07:42:13Z</time>
      </trkpt>
      <trkpt lat="46.52719" lon="0.35997">
        <ele>81.8</ele>
        <time>2022-06-26T07:42:14Z</time>
      </trkpt>
      <trkpt lat="46.52734" lon="0.36024">
        <ele>80.8</ele>
        <time>2022-06-26T07:42:18Z</time>
      </trkpt>
      <trkpt lat="46.52743" lon="0.36037">
        <ele>80.6</ele>
        <time>2022-06-26T07:42:20Z</time>
      </trkpt>
      <trkpt lat="46.52757" lon="0.36058">
        <ele>79.8</ele>
        <time>2022-06-26T07:42:23Z</time>
      </trkpt>
      <trkpt lat="46.52762" lon="0.36066">
        <ele>79.6</ele>
        <time>2022-06-26T07:42:24Z</time>
      </trkpt>
      <trkpt lat="46.52782" lon="0.36103">
        <ele>78.8</ele>
        <time>2022-06-26T07:42:28Z</time>
      </trkpt>
      <trkpt lat="46.52787" lon="0.36116">
        <ele>78.6</ele>
        <time>2022-06-26T07:42:29Z</time>
      </trkpt>
      <trkpt lat="46.52793" lon="0.3614">
        <ele>78</ele>
        <time>2022-06-26T07:42:31Z</time>
      </trkpt>
      <trkpt lat="46.52795" lon="0.36161">
        <ele>77.6</ele>
        <time>2022-06-26T07:42:33Z</time>
      </trkpt>
      <trkpt lat="46.5281" lon="0.3621">
        <ele>76.6</ele>
        <time>2022-06-26T07:42:39Z</time>
      </trkpt>
      <trkpt lat="46.52813" lon="0.36214">
        <ele>76.4</ele>
        <time>2022-06-26T07:42:40Z</time>
      </trkpt>
      <trkpt lat="46.52819" lon="0.36217">
        <ele>76.2</ele>
        <time>2022-06-26T07:42:42Z</time>
      </trkpt>
      <trkpt lat="46.52845" lon="0.3622">
        <ele>76.2</ele>
        <time>2022-06-26T07:42:47Z</time>
      </trkpt>
      <trkpt lat="46.52858" lon="0.36221">
        <ele>77.4</ele>
        <time>2022-06-26T07:42:51Z</time>
      </trkpt>
      <trkpt lat="46.52861" lon="0.36221">
        <ele>77.6</ele>
        <time>2022-06-26T07:42:52Z</time>
      </trkpt>
      <trkpt lat="46.52867" lon="0.36219">
        <ele>78.8</ele>
        <time>2022-06-26T07:42:55Z</time>
      </trkpt>
      <trkpt lat="46.52876" lon="0.36214">
        <ele>79.8</ele>
        <time>2022-06-26T07:42:59Z</time>
      </trkpt>
      <trkpt lat="46.52879" lon="0.36212">
        <ele>80.2</ele>
        <time>2022-06-26T07:43:00Z</time>
      </trkpt>
      <trkpt lat="46.52885" lon="0.36203">
        <ele>81.4</ele>
        <time>2022-06-26T07:43:04Z</time>
      </trkpt>
      <trkpt lat="46.52888" lon="0.36197">
        <ele>82.2</ele>
        <time>2022-06-26T07:43:06Z</time>
      </trkpt>
      <trkpt lat="46.5289" lon="0.36194">
        <ele>83</ele>
        <time>2022-06-26T07:43:07Z</time>
      </trkpt>
      <trkpt lat="46.529" lon="0.36174">
        <ele>83.8</ele>
        <time>2022-06-26T07:43:14Z</time>
      </trkpt>
      <trkpt lat="46.52904" lon="0.36168">
        <ele>84</ele>
        <time>2022-06-26T07:43:16Z</time>
      </trkpt>
      <trkpt lat="46.52909" lon="0.36156">
        <ele>85</ele>
        <time>2022-06-26T07:43:20Z</time>
      </trkpt>
      <trkpt lat="46.52912" lon="0.3615">
        <ele>85.4</ele>
        <time>2022-06-26T07:43:22Z</time>
      </trkpt>
      <trkpt lat="46.52919" lon="0.36135">
        <ele>86.2</ele>
        <time>2022-06-26T07:43:28Z</time>
      </trkpt>
      <trkpt lat="46.52923" lon="0.36128">
        <ele>86.4</ele>
        <time>2022-06-26T07:43:31Z</time>
      </trkpt>
      <trkpt lat="46.52934" lon="0.36116">
        <ele>87.2</ele>
        <time>2022-06-26T07:43:37Z</time>
      </trkpt>
      <trkpt lat="46.52937" lon="0.36114">
        <ele>87.4</ele>
        <time>2022-06-26T07:43:38Z</time>
      </trkpt>
      <trkpt lat="46.52951" lon="0.36104">
        <ele>88.4</ele>
        <time>2022-06-26T07:43:45Z</time>
      </trkpt>
      <trkpt lat="46.52954" lon="0.36103">
        <ele>88.6</ele>
        <time>2022-06-26T07:43:46Z</time>
      </trkpt>
      <trkpt lat="46.52969" lon="0.36095">
        <ele>89.4</ele>
        <time>2022-06-26T07:43:53Z</time>
      </trkpt>
      <trkpt lat="46.52971" lon="0.36095">
        <ele>89.6</ele>
        <time>2022-06-26T07:43:54Z</time>
      </trkpt>
      <trkpt lat="46.52986" lon="0.36096">
        <ele>90.4</ele>
        <time>2022-06-26T07:44:00Z</time>
      </trkpt>
      <trkpt lat="46.52993" lon="0.36096">
        <ele>90.6</ele>
        <time>2022-06-26T07:44:02Z</time>
      </trkpt>
      <trkpt lat="46.53011" lon="0.36091">
        <ele>90.8</ele>
        <time>2022-06-26T07:44:07Z</time>
      </trkpt>
      <trkpt lat="46.53039" lon="0.36083">
        <ele>89.8</ele>
        <time>2022-06-26T07:44:14Z</time>
      </trkpt>
      <trkpt lat="46.53055" lon="0.36078">
        <ele>90.8</ele>
        <time>2022-06-26T07:44:19Z</time>
      </trkpt>
      <trkpt lat="46.53082" lon="0.36073">
        <ele>91.2</ele>
        <time>2022-06-26T07:44:27Z</time>
      </trkpt>
      <trkpt lat="46.53094" lon="0.36059">
        <ele>91.6</ele>
        <time>2022-06-26T07:44:32Z</time>
      </trkpt>
      <trkpt lat="46.53096" lon="0.36056">
        <ele>91.4</ele>
        <time>2022-06-26T07:44:33Z</time>
      </trkpt>
      <trkpt lat="46.53117" lon="0.3604">
        <ele>91.2</ele>
        <time>2022-06-26T07:44:40Z</time>
      </trkpt>
      <trkpt lat="46.53127" lon="0.36035">
        <ele>90.8</ele>
        <time>2022-06-26T07:44:43Z</time>
      </trkpt>
      <trkpt lat="46.53134" lon="0.36031">
        <ele>90.6</ele>
        <time>2022-06-26T07:44:45Z</time>
      </trkpt>
      <trkpt lat="46.53138" lon="0.36029">
        <ele>90.2</ele>
        <time>2022-06-26T07:44:46Z</time>
      </trkpt>
      <trkpt lat="46.53141" lon="0.36028">
        <ele>89.4</ele>
        <time>2022-06-26T07:44:47Z</time>
      </trkpt>
      <trkpt lat="46.53144" lon="0.36026">
        <ele>88.6</ele>
        <time>2022-06-26T07:44:48Z</time>
      </trkpt>
      <trkpt lat="46.53149" lon="0.36024">
        <ele>87.6</ele>
        <time>2022-06-26T07:44:49Z</time>
      </trkpt>
      <trkpt lat="46.53156" lon="0.3602">
        <ele>86.4</ele>
        <time>2022-06-26T07:44:51Z</time>
      </trkpt>
      <trkpt lat="46.53159" lon="0.36018">
        <ele>86.2</ele>
        <time>2022-06-26T07:44:52Z</time>
      </trkpt>
      <trkpt lat="46.53164" lon="0.36017">
        <ele>85.6</ele>
        <time>2022-06-26T07:44:54Z</time>
      </trkpt>
      <trkpt lat="46.53166" lon="0.36018">
        <ele>85.2</ele>
        <time>2022-06-26T07:44:55Z</time>
      </trkpt>
      <trkpt lat="46.53168" lon="0.36021">
        <ele>85</ele>
        <time>2022-06-26T07:44:56Z</time>
      </trkpt>
      <trkpt lat="46.53181" lon="0.36044">
        <ele>84.4</ele>
        <time>2022-06-26T07:45:01Z</time>
      </trkpt>
      <trkpt lat="46.5319" lon="0.3606">
        <ele>84.2</ele>
        <time>2022-06-26T07:45:04Z</time>
      </trkpt>
      <trkpt lat="46.532" lon="0.36084">
        <ele>83.8</ele>
        <time>2022-06-26T07:45:08Z</time>
      </trkpt>
      <trkpt lat="46.53203" lon="0.3609">
        <ele>83.6</ele>
        <time>2022-06-26T07:45:09Z</time>
      </trkpt>
      <trkpt lat="46.53211" lon="0.36094">
        <ele>82.8</ele>
        <time>2022-06-26T07:45:11Z</time>
      </trkpt>
      <trkpt lat="46.53227" lon="0.36088">
        <ele>81.8</ele>
        <time>2022-06-26T07:45:14Z</time>
      </trkpt>
      <trkpt lat="46.53238" lon="0.36084">
        <ele>81.4</ele>
        <time>2022-06-26T07:45:16Z</time>
      </trkpt>
      <trkpt lat="46.53255" lon="0.36077">
        <ele>81.6</ele>
        <time>2022-06-26T07:45:20Z</time>
      </trkpt>
      <trkpt lat="46.53258" lon="0.36074">
        <ele>81.8</ele>
        <time>2022-06-26T07:45:21Z</time>
      </trkpt>
      <trkpt lat="46.53266" lon="0.3607">
        <ele>83</ele>
        <time>2022-06-26T07:45:24Z</time>
      </trkpt>
      <trkpt lat="46.53274" lon="0.36068">
        <ele>84.2</ele>
        <time>2022-06-26T07:45:27Z</time>
      </trkpt>
      <trkpt lat="46.53284" lon="0.36065">
        <ele>85.6</ele>
        <time>2022-06-26T07:45:31Z</time>
      </trkpt>
      <trkpt lat="46.53292" lon="0.36064">
        <ele>86.4</ele>
        <time>2022-06-26T07:45:34Z</time>
      </trkpt>
      <trkpt lat="46.53294" lon="0.36063">
        <ele>86.8</ele>
        <time>2022-06-26T07:45:35Z</time>
      </trkpt>
      <trkpt lat="46.53303" lon="0.36062">
        <ele>87.8</ele>
        <time>2022-06-26T07:45:39Z</time>
      </trkpt>
      <trkpt lat="46.53312" lon="0.36061">
        <ele>88.8</ele>
        <time>2022-06-26T07:45:43Z</time>
      </trkpt>
      <trkpt lat="46.53314" lon="0.36061">
        <ele>89</ele>
        <time>2022-06-26T07:45:44Z</time>
      </trkpt>
      <trkpt lat="46.53321" lon="0.3606">
        <ele>90.4</ele>
        <time>2022-06-26T07:45:48Z</time>
      </trkpt>
      <trkpt lat="46.53328" lon="0.36059">
        <ele>91</ele>
        <time>2022-06-26T07:45:51Z</time>
      </trkpt>
      <trkpt lat="46.53332" lon="0.36059">
        <ele>91.4</ele>
        <time>2022-06-26T07:45:53Z</time>
      </trkpt>
      <trkpt lat="46.5334" lon="0.36062">
        <ele>92.2</ele>
        <time>2022-06-26T07:45:58Z</time>
      </trkpt>
      <trkpt lat="46.53342" lon="0.36063">
        <ele>92.4</ele>
        <time>2022-06-26T07:45:59Z</time>
      </trkpt>
      <trkpt lat="46.53353" lon="0.36067">
        <ele>93.6</ele>
        <time>2022-06-26T07:46:03Z</time>
      </trkpt>
      <trkpt lat="46.53357" lon="0.36069">
        <ele>94.2</ele>
        <time>2022-06-26T07:46:05Z</time>
      </trkpt>
      <trkpt lat="46.53364" lon="0.36073">
        <ele>94.8</ele>
        <time>2022-06-26T07:46:08Z</time>
      </trkpt>
      <trkpt lat="46.53371" lon="0.36077">
        <ele>95.2</ele>
        <time>2022-06-26T07:46:12Z</time>
      </trkpt>
      <trkpt lat="46.53382" lon="0.36084">
        <ele>95.8</ele>
        <time>2022-06-26T07:46:18Z</time>
      </trkpt>
      <trkpt lat="46.53389" lon="0.3609">
        <ele>96.4</ele>
        <time>2022-06-26T07:46:21Z</time>
      </trkpt>
      <trkpt lat="46.534" lon="0.361">
        <ele>97</ele>
        <time>2022-06-26T07:46:25Z</time>
      </trkpt>
      <trkpt lat="46.5341" lon="0.36107">
        <ele>97.8</ele>
        <time>2022-06-26T07:46:29Z</time>
      </trkpt>
      <trkpt lat="46.53433" lon="0.36124">
        <ele>98</ele>
        <time>2022-06-26T07:46:36Z</time>
      </trkpt>
      <trkpt lat="46.53443" lon="0.36133">
        <ele>98.2</ele>
        <time>2022-06-26T07:46:39Z</time>
      </trkpt>
      <trkpt lat="46.53451" lon="0.3614">
        <ele>98.4</ele>
        <time>2022-06-26T07:46:42Z</time>
      </trkpt>
      <trkpt lat="46.53467" lon="0.36161">
        <ele>98.8</ele>
        <time>2022-06-26T07:46:48Z</time>
      </trkpt>
      <trkpt lat="46.5349" lon="0.36175">
        <ele>98.2</ele>
        <time>2022-06-26T07:46:54Z</time>
      </trkpt>
      <trkpt lat="46.53516" lon="0.3618">
        <ele>99.2</ele>
        <time>2022-06-26T07:47:00Z</time>
      </trkpt>
      <trkpt lat="46.53526" lon="0.36181">
        <ele>99.4</ele>
        <time>2022-06-26T07:47:03Z</time>
      </trkpt>
      <trkpt lat="46.53546" lon="0.3619">
        <ele>99.6</ele>
        <time>2022-06-26T07:47:08Z</time>
      </trkpt>
      <trkpt lat="46.53567" lon="0.36206">
        <ele>100.2</ele>
        <time>2022-06-26T07:47:13Z</time>
      </trkpt>
      <trkpt lat="46.53576" lon="0.36212">
        <ele>100.2</ele>
        <time>2022-06-26T07:47:15Z</time>
      </trkpt>
      <trkpt lat="46.53584" lon="0.3622">
        <ele>100.2</ele>
        <time>2022-06-26T07:47:17Z</time>
      </trkpt>
      <trkpt lat="46.53593" lon="0.3623">
        <ele>100</ele>
        <time>2022-06-26T07:47:19Z</time>
      </trkpt>
      <trkpt lat="46.53597" lon="0.36236">
        <ele>99.8</ele>
        <time>2022-06-26T07:47:20Z</time>
      </trkpt>
      <trkpt lat="46.53609" lon="0.36254">
        <ele>99.2</ele>
        <time>2022-06-26T07:47:23Z</time>
      </trkpt>
      <trkpt lat="46.5363" lon="0.36279">
        <ele>99</ele>
        <time>2022-06-26T07:47:28Z</time>
      </trkpt>
      <trkpt lat="46.53657" lon="0.36309">
        <ele>98.6</ele>
        <time>2022-06-26T07:47:34Z</time>
      </trkpt>
      <trkpt lat="46.53693" lon="0.3634">
        <ele>98</ele>
        <time>2022-06-26T07:47:41Z</time>
      </trkpt>
      <trkpt lat="46.53725" lon="0.36367">
        <ele>97.8</ele>
        <time>2022-06-26T07:47:47Z</time>
      </trkpt>
      <trkpt lat="46.53749" lon="0.36383">
        <ele>97.8</ele>
        <time>2022-06-26T07:47:53Z</time>
      </trkpt>
      <trkpt lat="46.53772" lon="0.36406">
        <ele>98.6</ele>
        <time>2022-06-26T07:48:00Z</time>
      </trkpt>
      <trkpt lat="46.53794" lon="0.3643">
        <ele>98.6</ele>
        <time>2022-06-26T07:48:06Z</time>
      </trkpt>
      <trkpt lat="46.53805" lon="0.3644">
        <ele>98</ele>
        <time>2022-06-26T07:48:09Z</time>
      </trkpt>
      <trkpt lat="46.53815" lon="0.36444">
        <ele>97.8</ele>
        <time>2022-06-26T07:48:11Z</time>
      </trkpt>
      <trkpt lat="46.53825" lon="0.36438">
        <ele>97.6</ele>
        <time>2022-06-26T07:48:15Z</time>
      </trkpt>
      <trkpt lat="46.53827" lon="0.36418">
        <ele>97.8</ele>
        <time>2022-06-26T07:48:19Z</time>
      </trkpt>
      <trkpt lat="46.53827" lon="0.36412">
        <ele>98</ele>
        <time>2022-06-26T07:48:20Z</time>
      </trkpt>
      <trkpt lat="46.53826" lon="0.36393">
        <ele>98.6</ele>
        <time>2022-06-26T07:48:23Z</time>
      </trkpt>
      <trkpt lat="46.53826" lon="0.3638">
        <ele>99.2</ele>
        <time>2022-06-26T07:48:25Z</time>
      </trkpt>
      <trkpt lat="46.53823" lon="0.3634">
        <ele>100.4</ele>
        <time>2022-06-26T07:48:31Z</time>
      </trkpt>
      <trkpt lat="46.53824" lon="0.363">
        <ele>101.2</ele>
        <time>2022-06-26T07:48:38Z</time>
      </trkpt>
      <trkpt lat="46.53825" lon="0.36294">
        <ele>101.4</ele>
        <time>2022-06-26T07:48:39Z</time>
      </trkpt>
      <trkpt lat="46.53831" lon="0.36271">
        <ele>102.2</ele>
        <time>2022-06-26T07:48:43Z</time>
      </trkpt>
      <trkpt lat="46.53837" lon="0.36251">
        <ele>102.6</ele>
        <time>2022-06-26T07:48:46Z</time>
      </trkpt>
      <trkpt lat="46.53841" lon="0.36235">
        <ele>102.8</ele>
        <time>2022-06-26T07:48:48Z</time>
      </trkpt>
      <trkpt lat="46.53845" lon="0.3622">
        <ele>102.8</ele>
        <time>2022-06-26T07:48:50Z</time>
      </trkpt>
      <trkpt lat="46.53873" lon="0.36167">
        <ele>103</ele>
        <time>2022-06-26T07:48:58Z</time>
      </trkpt>
      <trkpt lat="46.53909" lon="0.36112">
        <ele>102.2</ele>
        <time>2022-06-26T07:49:06Z</time>
      </trkpt>
      <trkpt lat="46.53942" lon="0.36075">
        <ele>102</ele>
        <time>2022-06-26T07:49:12Z</time>
      </trkpt>
      <trkpt lat="46.53972" lon="0.36042">
        <ele>101.6</ele>
        <time>2022-06-26T07:49:17Z</time>
      </trkpt>
      <trkpt lat="46.53977" lon="0.36033">
        <ele>101.4</ele>
        <time>2022-06-26T07:49:18Z</time>
      </trkpt>
      <trkpt lat="46.53981" lon="0.36023">
        <ele>101.2</ele>
        <time>2022-06-26T07:49:19Z</time>
      </trkpt>
      <trkpt lat="46.53987" lon="0.36001">
        <ele>100.8</ele>
        <time>2022-06-26T07:49:21Z</time>
      </trkpt>
      <trkpt lat="46.53989" lon="0.3599">
        <ele>100.6</ele>
        <time>2022-06-26T07:49:22Z</time>
      </trkpt>
      <trkpt lat="46.53992" lon="0.35966">
        <ele>100.4</ele>
        <time>2022-06-26T07:49:24Z</time>
      </trkpt>
      <trkpt lat="46.53995" lon="0.35914">
        <ele>100</ele>
        <time>2022-06-26T07:49:29Z</time>
      </trkpt>
      <trkpt lat="46.54" lon="0.35862">
        <ele>100.8</ele>
        <time>2022-06-26T07:49:35Z</time>
      </trkpt>
      <trkpt lat="46.54002" lon="0.35837">
        <ele>101.4</ele>
        <time>2022-06-26T07:49:38Z</time>
      </trkpt>
      <trkpt lat="46.54004" lon="0.35793">
        <ele>102.8</ele>
        <time>2022-06-26T07:49:43Z</time>
      </trkpt>
      <trkpt lat="46.54004" lon="0.35785">
        <ele>102.8</ele>
        <time>2022-06-26T07:49:44Z</time>
      </trkpt>
      <trkpt lat="46.54013" lon="0.35728">
        <ele>103.4</ele>
        <time>2022-06-26T07:49:51Z</time>
      </trkpt>
      <trkpt lat="46.54021" lon="0.35691">
        <ele>103.8</ele>
        <time>2022-06-26T07:49:56Z</time>
      </trkpt>
      <trkpt lat="46.54026" lon="0.35671">
        <ele>103.8</ele>
        <time>2022-06-26T07:49:59Z</time>
      </trkpt>
      <trkpt lat="46.54045" lon="0.35622">
        <ele>104.2</ele>
        <time>2022-06-26T07:50:06Z</time>
      </trkpt>
      <trkpt lat="46.54069" lon="0.35571">
        <ele>104.2</ele>
        <time>2022-06-26T07:50:14Z</time>
      </trkpt>
      <trkpt lat="46.54088" lon="0.35521">
        <ele>104</ele>
        <time>2022-06-26T07:50:22Z</time>
      </trkpt>
      <trkpt lat="46.54096" lon="0.35497">
        <ele>104</ele>
        <time>2022-06-26T07:50:25Z</time>
      </trkpt>
      <trkpt lat="46.54101" lon="0.35481">
        <ele>103.8</ele>
        <time>2022-06-26T07:50:27Z</time>
      </trkpt>
      <trkpt lat="46.54109" lon="0.35462">
        <ele>103.4</ele>
        <time>2022-06-26T07:50:30Z</time>
      </trkpt>
      <trkpt lat="46.54111" lon="0.35457">
        <ele>103.2</ele>
        <time>2022-06-26T07:50:31Z</time>
      </trkpt>
      <trkpt lat="46.54113" lon="0.35456">
        <ele>103.2</ele>
        <time>2022-06-26T07:50:32Z</time>
      </trkpt>
      <trkpt lat="46.54114" lon="0.35459">
        <ele>103.2</ele>
        <time>2022-06-26T07:50:34Z</time>
      </trkpt>
      <trkpt lat="46.54106" lon="0.35462">
        <ele>103</ele>
        <time>2022-06-26T07:50:37Z</time>
      </trkpt>
      <trkpt lat="46.54103" lon="0.35461">
        <ele>103</ele>
        <time>2022-06-26T07:50:38Z</time>
      </trkpt>
      <trkpt lat="46.54102" lon="0.35458">
        <ele>103</ele>
        <time>2022-06-26T07:50:39Z</time>
      </trkpt>
      <trkpt lat="46.54104" lon="0.35449">
        <ele>103</ele>
        <time>2022-06-26T07:50:41Z</time>
      </trkpt>
      <trkpt lat="46.54122" lon="0.35425">
        <ele>103.2</ele>
        <time>2022-06-26T07:50:47Z</time>
      </trkpt>
      <trkpt lat="46.54144" lon="0.35389">
        <ele>104</ele>
        <time>2022-06-26T07:50:55Z</time>
      </trkpt>
      <trkpt lat="46.54149" lon="0.35379">
        <ele>104</ele>
        <time>2022-06-26T07:50:57Z</time>
      </trkpt>
      <trkpt lat="46.54154" lon="0.35367">
        <ele>104</ele>
        <time>2022-06-26T07:50:59Z</time>
      </trkpt>
      <trkpt lat="46.54162" lon="0.35356">
        <ele>104</ele>
        <time>2022-06-26T07:51:01Z</time>
      </trkpt>
      <trkpt lat="46.54172" lon="0.35349">
        <ele>103.8</ele>
        <time>2022-06-26T07:51:03Z</time>
      </trkpt>
      <trkpt lat="46.54194" lon="0.35327">
        <ele>104.2</ele>
        <time>2022-06-26T07:51:08Z</time>
      </trkpt>
      <trkpt lat="46.54204" lon="0.35315">
        <ele>104.4</ele>
        <time>2022-06-26T07:51:11Z</time>
      </trkpt>
      <trkpt lat="46.54208" lon="0.35306">
        <ele>104.2</ele>
        <time>2022-06-26T07:51:13Z</time>
      </trkpt>
      <trkpt lat="46.54209" lon="0.35301">
        <ele>104.2</ele>
        <time>2022-06-26T07:51:14Z</time>
      </trkpt>
      <trkpt lat="46.54219" lon="0.35282">
        <ele>104.4</ele>
        <time>2022-06-26T07:51:19Z</time>
      </trkpt>
      <trkpt lat="46.54221" lon="0.35278">
        <ele>104.2</ele>
        <time>2022-06-26T07:51:20Z</time>
      </trkpt>
      <trkpt lat="46.54223" lon="0.35274">
        <ele>104.2</ele>
        <time>2022-06-26T07:51:21Z</time>
      </trkpt>
      <trkpt lat="46.54233" lon="0.35257">
        <ele>104</ele>
        <time>2022-06-26T07:51:25Z</time>
      </trkpt>
      <trkpt lat="46.54236" lon="0.35252">
        <ele>104.2</ele>
        <time>2022-06-26T07:51:27Z</time>
      </trkpt>
      <trkpt lat="46.54236" lon="0.3525">
        <ele>104.2</ele>
        <time>2022-06-26T07:51:28Z</time>
      </trkpt>
      <trkpt lat="46.54234" lon="0.35234">
        <ele>104</ele>
        <time>2022-06-26T07:51:35Z</time>
      </trkpt>
      <trkpt lat="46.54234" lon="0.35221">
        <ele>103.6</ele>
        <time>2022-06-26T07:51:39Z</time>
      </trkpt>
      <trkpt lat="46.54234" lon="0.3521">
        <ele>103.4</ele>
        <time>2022-06-26T07:51:41Z</time>
      </trkpt>
      <trkpt lat="46.54235" lon="0.35205">
        <ele>103.4</ele>
        <time>2022-06-26T07:51:42Z</time>
      </trkpt>
      <trkpt lat="46.54239" lon="0.35178">
        <ele>102.8</ele>
        <time>2022-06-26T07:51:47Z</time>
      </trkpt>
      <trkpt lat="46.54241" lon="0.35173">
        <ele>102.8</ele>
        <time>2022-06-26T07:51:48Z</time>
      </trkpt>
      <trkpt lat="46.54243" lon="0.35164">
        <ele>102.8</ele>
        <time>2022-06-26T07:51:50Z</time>
      </trkpt>
      <trkpt lat="46.54244" lon="0.35159">
        <ele>102.8</ele>
        <time>2022-06-26T07:51:51Z</time>
      </trkpt>
      <trkpt lat="46.54246" lon="0.35153">
        <ele>102.6</ele>
        <time>2022-06-26T07:51:52Z</time>
      </trkpt>
      <trkpt lat="46.54246" lon="0.35124">
        <ele>102.2</ele>
        <time>2022-06-26T07:51:57Z</time>
      </trkpt>
      <trkpt lat="46.54247" lon="0.35116">
        <ele>102</ele>
        <time>2022-06-26T07:51:59Z</time>
      </trkpt>
      <trkpt lat="46.54247" lon="0.35111">
        <ele>101.6</ele>
        <time>2022-06-26T07:52:01Z</time>
      </trkpt>
      <trkpt lat="46.54246" lon="0.35108">
        <ele>101.6</ele>
        <time>2022-06-26T07:52:02Z</time>
      </trkpt>
      <trkpt lat="46.54241" lon="0.35092">
        <ele>101.2</ele>
        <time>2022-06-26T07:52:07Z</time>
      </trkpt>
      <trkpt lat="46.5424" lon="0.35085">
        <ele>100.6</ele>
        <time>2022-06-26T07:52:09Z</time>
      </trkpt>
      <trkpt lat="46.54238" lon="0.3508">
        <ele>100.4</ele>
        <time>2022-06-26T07:52:10Z</time>
      </trkpt>
      <trkpt lat="46.54239" lon="0.35076">
        <ele>100.2</ele>
        <time>2022-06-26T07:52:11Z</time>
      </trkpt>
      <trkpt lat="46.54239" lon="0.3506">
        <ele>99.6</ele>
        <time>2022-06-26T07:52:15Z</time>
      </trkpt>
      <trkpt lat="46.54238" lon="0.35051">
        <ele>99.4</ele>
        <time>2022-06-26T07:52:17Z</time>
      </trkpt>
      <trkpt lat="46.54243" lon="0.35023">
        <ele>99.6</ele>
        <time>2022-06-26T07:52:23Z</time>
      </trkpt>
      <trkpt lat="46.54244" lon="0.35021">
        <ele>99.6</ele>
        <time>2022-06-26T07:52:24Z</time>
      </trkpt>
      <trkpt lat="46.54248" lon="0.35018">
        <ele>99.8</ele>
        <time>2022-06-26T07:52:26Z</time>
      </trkpt>
      <trkpt lat="46.5425" lon="0.35018">
        <ele>99.8</ele>
        <time>2022-06-26T07:52:27Z</time>
      </trkpt>
      <trkpt lat="46.54252" lon="0.35016">
        <ele>100.2</ele>
        <time>2022-06-26T07:52:30Z</time>
      </trkpt>
      <trkpt lat="46.54254" lon="0.35013">
        <ele>100.2</ele>
        <time>2022-06-26T07:52:31Z</time>
      </trkpt>
      <trkpt lat="46.54261" lon="0.35006">
        <ele>100.8</ele>
        <time>2022-06-26T07:52:35Z</time>
      </trkpt>
      <trkpt lat="46.54266" lon="0.35002">
        <ele>101</ele>
        <time>2022-06-26T07:52:37Z</time>
      </trkpt>
      <trkpt lat="46.5428" lon="0.34995">
        <ele>101.4</ele>
        <time>2022-06-26T07:52:42Z</time>
      </trkpt>
      <trkpt lat="46.54281" lon="0.34994">
        <ele>101.4</ele>
        <time>2022-06-26T07:52:43Z</time>
      </trkpt>
      <trkpt lat="46.54282" lon="0.3499">
        <ele>101.4</ele>
        <time>2022-06-26T07:52:44Z</time>
      </trkpt>
      <trkpt lat="46.54287" lon="0.34974">
        <ele>101.6</ele>
        <time>2022-06-26T07:52:48Z</time>
      </trkpt>
      <trkpt lat="46.54284" lon="0.34958">
        <ele>101.8</ele>
        <time>2022-06-26T07:52:53Z</time>
      </trkpt>
      <trkpt lat="46.5428" lon="0.3495">
        <ele>101.8</ele>
        <time>2022-06-26T07:52:56Z</time>
      </trkpt>
      <trkpt lat="46.5428" lon="0.3494">
        <ele>102</ele>
        <time>2022-06-26T07:52:59Z</time>
      </trkpt>
      <trkpt lat="46.54276" lon="0.34932">
        <ele>102.2</ele>
        <time>2022-06-26T07:53:01Z</time>
      </trkpt>
      <trkpt lat="46.5427" lon="0.34927">
        <ele>102.2</ele>
        <time>2022-06-26T07:53:03Z</time>
      </trkpt>
      <trkpt lat="46.54267" lon="0.34925">
        <ele>102.2</ele>
        <time>2022-06-26T07:53:04Z</time>
      </trkpt>
      <trkpt lat="46.54259" lon="0.34911">
        <ele>102.4</ele>
        <time>2022-06-26T07:53:08Z</time>
      </trkpt>
      <trkpt lat="46.54257" lon="0.34907">
        <ele>102.6</ele>
        <time>2022-06-26T07:53:09Z</time>
      </trkpt>
      <trkpt lat="46.54257" lon="0.34902">
        <ele>102.6</ele>
        <time>2022-06-26T07:53:10Z</time>
      </trkpt>
      <trkpt lat="46.54257" lon="0.34887">
        <ele>102.8</ele>
        <time>2022-06-26T07:53:13Z</time>
      </trkpt>
      <trkpt lat="46.54252" lon="0.34852">
        <ele>102.8</ele>
        <time>2022-06-26T07:53:19Z</time>
      </trkpt>
      <trkpt lat="46.54258" lon="0.34825">
        <ele>102.8</ele>
        <time>2022-06-26T07:53:24Z</time>
      </trkpt>
      <trkpt lat="46.54259" lon="0.34808">
        <ele>102.6</ele>
        <time>2022-06-26T07:53:27Z</time>
      </trkpt>
      <trkpt lat="46.54258" lon="0.34798">
        <ele>102.4</ele>
        <time>2022-06-26T07:53:30Z</time>
      </trkpt>
      <trkpt lat="46.54256" lon="0.34779">
        <ele>102.4</ele>
        <time>2022-06-26T07:53:35Z</time>
      </trkpt>
      <trkpt lat="46.54256" lon="0.34774">
        <ele>102.2</ele>
        <time>2022-06-26T07:53:36Z</time>
      </trkpt>
      <trkpt lat="46.54255" lon="0.34769">
        <ele>102</ele>
        <time>2022-06-26T07:53:37Z</time>
      </trkpt>
      <trkpt lat="46.54255" lon="0.34764">
        <ele>101.8</ele>
        <time>2022-06-26T07:53:38Z</time>
      </trkpt>
      <trkpt lat="46.54254" lon="0.34759">
        <ele>101.8</ele>
        <time>2022-06-26T07:53:39Z</time>
      </trkpt>
      <trkpt lat="46.54254" lon="0.34748">
        <ele>101.6</ele>
        <time>2022-06-26T07:53:41Z</time>
      </trkpt>
      <trkpt lat="46.54255" lon="0.34743">
        <ele>101.6</ele>
        <time>2022-06-26T07:53:42Z</time>
      </trkpt>
      <trkpt lat="46.5426" lon="0.34733">
        <ele>101.6</ele>
        <time>2022-06-26T07:53:45Z</time>
      </trkpt>
      <trkpt lat="46.54269" lon="0.3471">
        <ele>102</ele>
        <time>2022-06-26T07:53:50Z</time>
      </trkpt>
      <trkpt lat="46.54279" lon="0.3469">
        <ele>101.2</ele>
        <time>2022-06-26T07:53:55Z</time>
      </trkpt>
      <trkpt lat="46.54298" lon="0.3467">
        <ele>101.4</ele>
        <time>2022-06-26T07:54:01Z</time>
      </trkpt>
      <trkpt lat="46.54313" lon="0.34656">
        <ele>101.6</ele>
        <time>2022-06-26T07:54:07Z</time>
      </trkpt>
      <trkpt lat="46.54326" lon="0.34638">
        <ele>102</ele>
        <time>2022-06-26T07:54:12Z</time>
      </trkpt>
      <trkpt lat="46.5434" lon="0.34621">
        <ele>102.2</ele>
        <time>2022-06-26T07:54:17Z</time>
      </trkpt>
      <trkpt lat="46.54356" lon="0.34611">
        <ele>102.4</ele>
        <time>2022-06-26T07:54:22Z</time>
      </trkpt>
      <trkpt lat="46.54373" lon="0.34593">
        <ele>102.4</ele>
        <time>2022-06-26T07:54:28Z</time>
      </trkpt>
      <trkpt lat="46.54375" lon="0.3459">
        <ele>102</ele>
        <time>2022-06-26T07:54:30Z</time>
      </trkpt>
      <trkpt lat="46.54377" lon="0.34588">
        <ele>101.6</ele>
        <time>2022-06-26T07:54:32Z</time>
      </trkpt>
      <trkpt lat="46.54378" lon="0.34586">
        <ele>101.2</ele>
        <time>2022-06-26T07:54:45Z</time>
      </trkpt>
      <trkpt lat="46.54379" lon="0.34585">
        <ele>101.2</ele>
        <time>2022-06-26T07:54:59Z</time>
      </trkpt>
      <trkpt lat="46.5438" lon="0.34584">
        <ele>101</ele>
        <time>2022-06-26T07:55:16Z</time>
      </trkpt>
      <trkpt lat="46.54381" lon="0.34581">
        <ele>101.2</ele>
        <time>2022-06-26T07:55:34Z</time>
      </trkpt>
      <trkpt lat="46.54381" lon="0.34579">
        <ele>101.2</ele>
        <time>2022-06-26T07:55:50Z</time>
      </trkpt>
      <trkpt lat="46.54379" lon="0.34572">
        <ele>101.2</ele>
        <time>2022-06-26T07:56:02Z</time>
      </trkpt>
      <trkpt lat="46.5438" lon="0.3457">
        <ele>101.2</ele>
        <time>2022-06-26T07:56:03Z</time>
      </trkpt>
      <trkpt lat="46.54383" lon="0.34562">
        <ele>101.2</ele>
        <time>2022-06-26T07:56:06Z</time>
      </trkpt>
      <trkpt lat="46.54388" lon="0.34553">
        <ele>101</ele>
        <time>2022-06-26T07:56:08Z</time>
      </trkpt>
      <trkpt lat="46.54398" lon="0.34542">
        <ele>100.8</ele>
        <time>2022-06-26T07:56:11Z</time>
      </trkpt>
      <trkpt lat="46.54409" lon="0.3453">
        <ele>100.6</ele>
        <time>2022-06-26T07:56:14Z</time>
      </trkpt>
      <trkpt lat="46.54418" lon="0.34508">
        <ele>100.2</ele>
        <time>2022-06-26T07:56:18Z</time>
      </trkpt>
      <trkpt lat="46.54416" lon="0.34502">
        <ele>100.2</ele>
        <time>2022-06-26T07:56:19Z</time>
      </trkpt>
      <trkpt lat="46.54413" lon="0.34491">
        <ele>100</ele>
        <time>2022-06-26T07:56:21Z</time>
      </trkpt>
      <trkpt lat="46.54395" lon="0.34449">
        <ele>100</ele>
        <time>2022-06-26T07:56:28Z</time>
      </trkpt>
      <trkpt lat="46.54373" lon="0.34394">
        <ele>100.2</ele>
        <time>2022-06-26T07:56:36Z</time>
      </trkpt>
      <trkpt lat="46.54346" lon="0.34333">
        <ele>100.2</ele>
        <time>2022-06-26T07:56:44Z</time>
      </trkpt>
      <trkpt lat="46.54338" lon="0.34321">
        <ele>100.2</ele>
        <time>2022-06-26T07:56:46Z</time>
      </trkpt>
      <trkpt lat="46.54327" lon="0.34314">
        <ele>100.2</ele>
        <time>2022-06-26T07:56:48Z</time>
      </trkpt>
      <trkpt lat="46.54312" lon="0.34311">
        <ele>100.6</ele>
        <time>2022-06-26T07:56:51Z</time>
      </trkpt>
      <trkpt lat="46.54303" lon="0.34309">
        <ele>100.8</ele>
        <time>2022-06-26T07:56:53Z</time>
      </trkpt>
      <trkpt lat="46.54298" lon="0.34308">
        <ele>100.8</ele>
        <time>2022-06-26T07:56:54Z</time>
      </trkpt>
      <trkpt lat="46.5428" lon="0.34302">
        <ele>101</ele>
        <time>2022-06-26T07:56:58Z</time>
      </trkpt>
      <trkpt lat="46.54271" lon="0.34299">
        <ele>101.2</ele>
        <time>2022-06-26T07:57:00Z</time>
      </trkpt>
      <trkpt lat="46.54252" lon="0.34291">
        <ele>101.4</ele>
        <time>2022-06-26T07:57:04Z</time>
      </trkpt>
      <trkpt lat="46.54241" lon="0.34284">
        <ele>101.4</ele>
        <time>2022-06-26T07:57:06Z</time>
      </trkpt>
      <trkpt lat="46.54232" lon="0.34277">
        <ele>101.4</ele>
        <time>2022-06-26T07:57:08Z</time>
      </trkpt>
      <trkpt lat="46.5423" lon="0.34273">
        <ele>101.4</ele>
        <time>2022-06-26T07:57:09Z</time>
      </trkpt>
      <trkpt lat="46.54229" lon="0.34269">
        <ele>101.6</ele>
        <time>2022-06-26T07:57:10Z</time>
      </trkpt>
      <trkpt lat="46.54227" lon="0.34255">
        <ele>101.6</ele>
        <time>2022-06-26T07:57:13Z</time>
      </trkpt>
      <trkpt lat="46.5422" lon="0.34207">
        <ele>101.6</ele>
        <time>2022-06-26T07:57:21Z</time>
      </trkpt>
      <trkpt lat="46.54215" lon="0.34157">
        <ele>101.2</ele>
        <time>2022-06-26T07:57:28Z</time>
      </trkpt>
      <trkpt lat="46.54207" lon="0.34113">
        <ele>99.6</ele>
        <time>2022-06-26T07:57:34Z</time>
      </trkpt>
      <trkpt lat="46.54205" lon="0.34101">
        <ele>99.2</ele>
        <time>2022-06-26T07:57:35Z</time>
      </trkpt>
      <trkpt lat="46.54205" lon="0.34092">
        <ele>99</ele>
        <time>2022-06-26T07:57:36Z</time>
      </trkpt>
      <trkpt lat="46.54202" lon="0.34083">
        <ele>98.4</ele>
        <time>2022-06-26T07:57:38Z</time>
      </trkpt>
      <trkpt lat="46.542" lon="0.34079">
        <ele>98.2</ele>
        <time>2022-06-26T07:57:39Z</time>
      </trkpt>
      <trkpt lat="46.54196" lon="0.3408">
        <ele>97.8</ele>
        <time>2022-06-26T07:57:42Z</time>
      </trkpt>
      <trkpt lat="46.54188" lon="0.3409">
        <ele>97.8</ele>
        <time>2022-06-26T07:57:47Z</time>
      </trkpt>
      <trkpt lat="46.5418" lon="0.341">
        <ele>98</ele>
        <time>2022-06-26T07:57:52Z</time>
      </trkpt>
      <trkpt lat="46.54179" lon="0.34102">
        <ele>98</ele>
        <time>2022-06-26T07:57:53Z</time>
      </trkpt>
      <trkpt lat="46.54175" lon="0.34108">
        <ele>98</ele>
        <time>2022-06-26T07:57:56Z</time>
      </trkpt>
      <trkpt lat="46.54163" lon="0.34125">
        <ele>98.8</ele>
        <time>2022-06-26T07:58:01Z</time>
      </trkpt>
      <trkpt lat="46.54155" lon="0.34148">
        <ele>97</ele>
        <time>2022-06-26T07:58:07Z</time>
      </trkpt>
      <trkpt lat="46.54151" lon="0.34165">
        <ele>96.4</ele>
        <time>2022-06-26T07:58:12Z</time>
      </trkpt>
      <trkpt lat="46.54142" lon="0.34193">
        <ele>96.2</ele>
        <time>2022-06-26T07:58:17Z</time>
      </trkpt>
      <trkpt lat="46.5414" lon="0.34197">
        <ele>96.2</ele>
        <time>2022-06-26T07:58:18Z</time>
      </trkpt>
      <trkpt lat="46.54133" lon="0.34212">
        <ele>97.2</ele>
        <time>2022-06-26T07:58:23Z</time>
      </trkpt>
      <trkpt lat="46.54127" lon="0.34228">
        <ele>97.4</ele>
        <time>2022-06-26T07:58:27Z</time>
      </trkpt>
      <trkpt lat="46.5412" lon="0.34242">
        <ele>96</ele>
        <time>2022-06-26T07:58:30Z</time>
      </trkpt>
      <trkpt lat="46.54115" lon="0.34248">
        <ele>95.6</ele>
        <time>2022-06-26T07:58:32Z</time>
      </trkpt>
      <trkpt lat="46.54111" lon="0.34255">
        <ele>94.6</ele>
        <time>2022-06-26T07:58:34Z</time>
      </trkpt>
      <trkpt lat="46.54109" lon="0.34263">
        <ele>94</ele>
        <time>2022-06-26T07:58:36Z</time>
      </trkpt>
      <trkpt lat="46.54107" lon="0.34269">
        <ele>93.4</ele>
        <time>2022-06-26T07:58:38Z</time>
      </trkpt>
      <trkpt lat="46.54105" lon="0.34279">
        <ele>92</ele>
        <time>2022-06-26T07:58:41Z</time>
      </trkpt>
      <trkpt lat="46.54103" lon="0.34283">
        <ele>91.6</ele>
        <time>2022-06-26T07:58:42Z</time>
      </trkpt>
      <trkpt lat="46.54099" lon="0.34292">
        <ele>91</ele>
        <time>2022-06-26T07:58:46Z</time>
      </trkpt>
      <trkpt lat="46.54099" lon="0.34295">
        <ele>91</ele>
        <time>2022-06-26T07:58:47Z</time>
      </trkpt>
      <trkpt lat="46.54099" lon="0.343">
        <ele>91</ele>
        <time>2022-06-26T07:58:49Z</time>
      </trkpt>
      <trkpt lat="46.54099" lon="0.34302">
        <ele>90.6</ele>
        <time>2022-06-26T07:58:50Z</time>
      </trkpt>
      <trkpt lat="46.54092" lon="0.34313">
        <ele>90</ele>
        <time>2022-06-26T07:58:53Z</time>
      </trkpt>
      <trkpt lat="46.54085" lon="0.34319">
        <ele>88.4</ele>
        <time>2022-06-26T07:58:55Z</time>
      </trkpt>
      <trkpt lat="46.54079" lon="0.34325">
        <ele>87.2</ele>
        <time>2022-06-26T07:58:56Z</time>
      </trkpt>
      <trkpt lat="46.54072" lon="0.34337">
        <ele>85.8</ele>
        <time>2022-06-26T07:58:58Z</time>
      </trkpt>
      <trkpt lat="46.54059" lon="0.34356">
        <ele>84.6</ele>
        <time>2022-06-26T07:59:01Z</time>
      </trkpt>
      <trkpt lat="46.54052" lon="0.34362">
        <ele>84.4</ele>
        <time>2022-06-26T07:59:02Z</time>
      </trkpt>
      <trkpt lat="46.54043" lon="0.34369">
        <ele>84</ele>
        <time>2022-06-26T07:59:03Z</time>
      </trkpt>
      <trkpt lat="46.54027" lon="0.34376">
        <ele>83.6</ele>
        <time>2022-06-26T07:59:06Z</time>
      </trkpt>
      <trkpt lat="46.54024" lon="0.34376">
        <ele>83.6</ele>
        <time>2022-06-26T07:59:07Z</time>
      </trkpt>
      <trkpt lat="46.54023" lon="0.34376">
        <ele>83.4</ele>
        <time>2022-06-26T07:59:08Z</time>
      </trkpt>
      <trkpt lat="46.54023" lon="0.34373">
        <ele>83.2</ele>
        <time>2022-06-26T07:59:09Z</time>
      </trkpt>
      <trkpt lat="46.54023" lon="0.3437">
        <ele>83</ele>
        <time>2022-06-26T07:59:10Z</time>
      </trkpt>
      <trkpt lat="46.54022" lon="0.34363">
        <ele>81.6</ele>
        <time>2022-06-26T07:59:12Z</time>
      </trkpt>
      <trkpt lat="46.54022" lon="0.3436">
        <ele>80.8</ele>
        <time>2022-06-26T07:59:13Z</time>
      </trkpt>
      <trkpt lat="46.54021" lon="0.34358">
        <ele>79.6</ele>
        <time>2022-06-26T07:59:14Z</time>
      </trkpt>
      <trkpt lat="46.5402" lon="0.34356">
        <ele>78.8</ele>
        <time>2022-06-26T07:59:15Z</time>
      </trkpt>
      <trkpt lat="46.54018" lon="0.34354">
        <ele>78.2</ele>
        <time>2022-06-26T07:59:16Z</time>
      </trkpt>
      <trkpt lat="46.54015" lon="0.34351">
        <ele>76.8</ele>
        <time>2022-06-26T07:59:18Z</time>
      </trkpt>
      <trkpt lat="46.54013" lon="0.34349">
        <ele>75.2</ele>
        <time>2022-06-26T07:59:19Z</time>
      </trkpt>
      <trkpt lat="46.54011" lon="0.34347">
        <ele>73.8</ele>
        <time>2022-06-26T07:59:20Z</time>
      </trkpt>
      <trkpt lat="46.54008" lon="0.34346">
        <ele>72.4</ele>
        <time>2022-06-26T07:59:21Z</time>
      </trkpt>
      <trkpt lat="46.54007" lon="0.34344">
        <ele>70.2</ele>
        <time>2022-06-26T07:59:22Z</time>
      </trkpt>
      <trkpt lat="46.54004" lon="0.34341">
        <ele>68.8</ele>
        <time>2022-06-26T07:59:23Z</time>
      </trkpt>
      <trkpt lat="46.54003" lon="0.34339">
        <ele>68</ele>
        <time>2022-06-26T07:59:24Z</time>
      </trkpt>
      <trkpt lat="46.54001" lon="0.34338">
        <ele>66.8</ele>
        <time>2022-06-26T07:59:25Z</time>
      </trkpt>
      <trkpt lat="46.53998" lon="0.34337">
        <ele>65.2</ele>
        <time>2022-06-26T07:59:26Z</time>
      </trkpt>
      <trkpt lat="46.53996" lon="0.34336">
        <ele>63.8</ele>
        <time>2022-06-26T07:59:27Z</time>
      </trkpt>
      <trkpt lat="46.53994" lon="0.34335">
        <ele>62.6</ele>
        <time>2022-06-26T07:59:28Z</time>
      </trkpt>
      <trkpt lat="46.53993" lon="0.34334">
        <ele>61.4</ele>
        <time>2022-06-26T07:59:29Z</time>
      </trkpt>
      <trkpt lat="46.5399" lon="0.34331">
        <ele>60.2</ele>
        <time>2022-06-26T07:59:31Z</time>
      </trkpt>
      <trkpt lat="46.53988" lon="0.34333">
        <ele>59.8</ele>
        <time>2022-06-26T07:59:33Z</time>
      </trkpt>
      <trkpt lat="46.53975" lon="0.34347">
        <ele>59.8</ele>
        <time>2022-06-26T07:59:38Z</time>
      </trkpt>
      <trkpt lat="46.53959" lon="0.3436">
        <ele>60.8</ele>
        <time>2022-06-26T07:59:44Z</time>
      </trkpt>
      <trkpt lat="46.53951" lon="0.34365">
        <ele>61.2</ele>
        <time>2022-06-26T07:59:47Z</time>
      </trkpt>
      <trkpt lat="46.53941" lon="0.34376">
        <ele>62.2</ele>
        <time>2022-06-26T07:59:51Z</time>
      </trkpt>
      <trkpt lat="46.53938" lon="0.34378">
        <ele>62.4</ele>
        <time>2022-06-26T07:59:52Z</time>
      </trkpt>
      <trkpt lat="46.53927" lon="0.34389">
        <ele>63.4</ele>
        <time>2022-06-26T07:59:57Z</time>
      </trkpt>
      <trkpt lat="46.53923" lon="0.34396">
        <ele>63.6</ele>
        <time>2022-06-26T07:59:59Z</time>
      </trkpt>
      <trkpt lat="46.53914" lon="0.34413">
        <ele>64.8</ele>
        <time>2022-06-26T08:00:04Z</time>
      </trkpt>
      <trkpt lat="46.53913" lon="0.34424">
        <ele>66.2</ele>
        <time>2022-06-26T08:00:07Z</time>
      </trkpt>
      <trkpt lat="46.53913" lon="0.34433">
        <ele>67.2</ele>
        <time>2022-06-26T08:00:10Z</time>
      </trkpt>
      <trkpt lat="46.53914" lon="0.34435">
        <ele>67.2</ele>
        <time>2022-06-26T08:00:11Z</time>
      </trkpt>
      <trkpt lat="46.53915" lon="0.34443">
        <ele>68.4</ele>
        <time>2022-06-26T08:00:14Z</time>
      </trkpt>
      <trkpt lat="46.53917" lon="0.34454">
        <ele>69.2</ele>
        <time>2022-06-26T08:00:18Z</time>
      </trkpt>
      <trkpt lat="46.53917" lon="0.34457">
        <ele>69.4</ele>
        <time>2022-06-26T08:00:19Z</time>
      </trkpt>
      <trkpt lat="46.53922" lon="0.34469">
        <ele>70</ele>
        <time>2022-06-26T08:00:24Z</time>
      </trkpt>
      <trkpt lat="46.53922" lon="0.34471">
        <ele>70.2</ele>
        <time>2022-06-26T08:00:25Z</time>
      </trkpt>
      <trkpt lat="46.53922" lon="0.34473">
        <ele>70.6</ele>
        <time>2022-06-26T08:00:26Z</time>
      </trkpt>
      <trkpt lat="46.5392" lon="0.34482">
        <ele>71.2</ele>
        <time>2022-06-26T08:00:29Z</time>
      </trkpt>
      <trkpt lat="46.53919" lon="0.34484">
        <ele>71.4</ele>
        <time>2022-06-26T08:00:30Z</time>
      </trkpt>
      <trkpt lat="46.53916" lon="0.34484">
        <ele>71.4</ele>
        <time>2022-06-26T08:00:32Z</time>
      </trkpt>
      <trkpt lat="46.539" lon="0.34492">
        <ele>71.4</ele>
        <time>2022-06-26T08:00:37Z</time>
      </trkpt>
      <trkpt lat="46.53873" lon="0.34499">
        <ele>71.4</ele>
        <time>2022-06-26T08:00:44Z</time>
      </trkpt>
      <trkpt lat="46.53866" lon="0.345">
        <ele>71.8</ele>
        <time>2022-06-26T08:00:46Z</time>
      </trkpt>
      <trkpt lat="46.53848" lon="0.34501">
        <ele>72.6</ele>
        <time>2022-06-26T08:00:51Z</time>
      </trkpt>
      <trkpt lat="46.53844" lon="0.345">
        <ele>72.8</ele>
        <time>2022-06-26T08:00:52Z</time>
      </trkpt>
      <trkpt lat="46.53823" lon="0.34492">
        <ele>72.6</ele>
        <time>2022-06-26T08:00:57Z</time>
      </trkpt>
      <trkpt lat="46.53814" lon="0.3449">
        <ele>72.6</ele>
        <time>2022-06-26T08:00:59Z</time>
      </trkpt>
      <trkpt lat="46.53791" lon="0.34485">
        <ele>72.6</ele>
        <time>2022-06-26T08:01:04Z</time>
      </trkpt>
      <trkpt lat="46.53762" lon="0.34475">
        <ele>72.4</ele>
        <time>2022-06-26T08:01:10Z</time>
      </trkpt>
      <trkpt lat="46.53729" lon="0.34461">
        <ele>72.4</ele>
        <time>2022-06-26T08:01:17Z</time>
      </trkpt>
      <trkpt lat="46.53695" lon="0.34441">
        <ele>71.8</ele>
        <time>2022-06-26T08:01:23Z</time>
      </trkpt>
      <trkpt lat="46.53683" lon="0.34435">
        <ele>71.6</ele>
        <time>2022-06-26T08:01:25Z</time>
      </trkpt>
      <trkpt lat="46.53659" lon="0.34424">
        <ele>71.6</ele>
        <time>2022-06-26T08:01:29Z</time>
      </trkpt>
      <trkpt lat="46.53614" lon="0.34412">
        <ele>70.8</ele>
        <time>2022-06-26T08:01:36Z</time>
      </trkpt>
      <trkpt lat="46.53607" lon="0.34412">
        <ele>70.6</ele>
        <time>2022-06-26T08:01:37Z</time>
      </trkpt>
      <trkpt lat="46.53587" lon="0.34413">
        <ele>70.4</ele>
        <time>2022-06-26T08:01:40Z</time>
      </trkpt>
      <trkpt lat="46.53575" lon="0.34408">
        <ele>70.4</ele>
        <time>2022-06-26T08:01:42Z</time>
      </trkpt>
      <trkpt lat="46.53564" lon="0.344">
        <ele>70.4</ele>
        <time>2022-06-26T08:01:44Z</time>
      </trkpt>
      <trkpt lat="46.53549" lon="0.34388">
        <ele>70</ele>
        <time>2022-06-26T08:01:47Z</time>
      </trkpt>
      <trkpt lat="46.53536" lon="0.34377">
        <ele>70</ele>
        <time>2022-06-26T08:01:50Z</time>
      </trkpt>
      <trkpt lat="46.53527" lon="0.34372">
        <ele>70.4</ele>
        <time>2022-06-26T08:01:52Z</time>
      </trkpt>
      <trkpt lat="46.53496" lon="0.3436">
        <ele>71.8</ele>
        <time>2022-06-26T08:01:59Z</time>
      </trkpt>
      <trkpt lat="46.53467" lon="0.34347">
        <ele>72.6</ele>
        <time>2022-06-26T08:02:06Z</time>
      </trkpt>
      <trkpt lat="46.53463" lon="0.34345">
        <ele>72.8</ele>
        <time>2022-06-26T08:02:07Z</time>
      </trkpt>
      <trkpt lat="46.53459" lon="0.34343">
        <ele>72.8</ele>
        <time>2022-06-26T08:02:08Z</time>
      </trkpt>
      <trkpt lat="46.53441" lon="0.34341">
        <ele>73</ele>
        <time>2022-06-26T08:02:12Z</time>
      </trkpt>
      <trkpt lat="46.53423" lon="0.34343">
        <ele>73.4</ele>
        <time>2022-06-26T08:02:16Z</time>
      </trkpt>
      <trkpt lat="46.53414" lon="0.34344">
        <ele>73.4</ele>
        <time>2022-06-26T08:02:18Z</time>
      </trkpt>
      <trkpt lat="46.5339" lon="0.34337">
        <ele>73.2</ele>
        <time>2022-06-26T08:02:23Z</time>
      </trkpt>
      <trkpt lat="46.53386" lon="0.34336">
        <ele>73.2</ele>
        <time>2022-06-26T08:02:24Z</time>
      </trkpt>
      <trkpt lat="46.53378" lon="0.34339">
        <ele>73</ele>
        <time>2022-06-26T08:02:26Z</time>
      </trkpt>
      <trkpt lat="46.53375" lon="0.34342">
        <ele>72.8</ele>
        <time>2022-06-26T08:02:27Z</time>
      </trkpt>
      <trkpt lat="46.53372" lon="0.34345">
        <ele>72.6</ele>
        <time>2022-06-26T08:02:28Z</time>
      </trkpt>
      <trkpt lat="46.53356" lon="0.34365">
        <ele>72.4</ele>
        <time>2022-06-26T08:02:33Z</time>
      </trkpt>
      <trkpt lat="46.53352" lon="0.34368">
        <ele>72.4</ele>
        <time>2022-06-26T08:02:34Z</time>
      </trkpt>
      <trkpt lat="46.53344" lon="0.34371">
        <ele>72.4</ele>
        <time>2022-06-26T08:02:36Z</time>
      </trkpt>
      <trkpt lat="46.53338" lon="0.34375">
        <ele>72.6</ele>
        <time>2022-06-26T08:02:38Z</time>
      </trkpt>
      <trkpt lat="46.53314" lon="0.34384">
        <ele>73.6</ele>
        <time>2022-06-26T08:02:45Z</time>
      </trkpt>
      <trkpt lat="46.53311" lon="0.34385">
        <ele>73.8</ele>
        <time>2022-06-26T08:02:46Z</time>
      </trkpt>
      <trkpt lat="46.53297" lon="0.34389">
        <ele>74</ele>
        <time>2022-06-26T08:02:50Z</time>
      </trkpt>
      <trkpt lat="46.53273" lon="0.34389">
        <ele>74.6</ele>
        <time>2022-06-26T08:02:56Z</time>
      </trkpt>
      <trkpt lat="46.53266" lon="0.3439">
        <ele>75</ele>
        <time>2022-06-26T08:02:58Z</time>
      </trkpt>
      <trkpt lat="46.53247" lon="0.34388">
        <ele>75.6</ele>
        <time>2022-06-26T08:03:03Z</time>
      </trkpt>
      <trkpt lat="46.53237" lon="0.34385">
        <ele>76</ele>
        <time>2022-06-26T08:03:06Z</time>
      </trkpt>
      <trkpt lat="46.53229" lon="0.34383">
        <ele>76.2</ele>
        <time>2022-06-26T08:03:09Z</time>
      </trkpt>
      <trkpt lat="46.5321" lon="0.34378">
        <ele>76.8</ele>
        <time>2022-06-26T08:03:15Z</time>
      </trkpt>
      <trkpt lat="46.53186" lon="0.34364">
        <ele>77</ele>
        <time>2022-06-26T08:03:21Z</time>
      </trkpt>
      <trkpt lat="46.53154" lon="0.3435">
        <ele>77</ele>
        <time>2022-06-26T08:03:28Z</time>
      </trkpt>
      <trkpt lat="46.5315" lon="0.34348">
        <ele>77</ele>
        <time>2022-06-26T08:03:29Z</time>
      </trkpt>
      <trkpt lat="46.53122" lon="0.34343">
        <ele>77.4</ele>
        <time>2022-06-26T08:03:35Z</time>
      </trkpt>
      <trkpt lat="46.53093" lon="0.34347">
        <ele>77.4</ele>
        <time>2022-06-26T08:03:42Z</time>
      </trkpt>
      <trkpt lat="46.53064" lon="0.3435">
        <ele>77.8</ele>
        <time>2022-06-26T08:03:49Z</time>
      </trkpt>
      <trkpt lat="46.53054" lon="0.34348">
        <ele>77.8</ele>
        <time>2022-06-26T08:03:51Z</time>
      </trkpt>
      <trkpt lat="46.53038" lon="0.34343">
        <ele>77.6</ele>
        <time>2022-06-26T08:03:54Z</time>
      </trkpt>
      <trkpt lat="46.52999" lon="0.34338">
        <ele>76.8</ele>
        <time>2022-06-26T08:04:01Z</time>
      </trkpt>
      <trkpt lat="46.52995" lon="0.34337">
        <ele>76.4</ele>
        <time>2022-06-26T08:04:02Z</time>
      </trkpt>
      <trkpt lat="46.52987" lon="0.34331">
        <ele>75.8</ele>
        <time>2022-06-26T08:04:04Z</time>
      </trkpt>
      <trkpt lat="46.52984" lon="0.34326">
        <ele>75.6</ele>
        <time>2022-06-26T08:04:05Z</time>
      </trkpt>
      <trkpt lat="46.52981" lon="0.3432">
        <ele>75.4</ele>
        <time>2022-06-26T08:04:06Z</time>
      </trkpt>
      <trkpt lat="46.52973" lon="0.34299">
        <ele>74.8</ele>
        <time>2022-06-26T08:04:09Z</time>
      </trkpt>
      <trkpt lat="46.5297" lon="0.34293">
        <ele>74.6</ele>
        <time>2022-06-26T08:04:10Z</time>
      </trkpt>
      <trkpt lat="46.52962" lon="0.34281">
        <ele>74.4</ele>
        <time>2022-06-26T08:04:12Z</time>
      </trkpt>
      <trkpt lat="46.52959" lon="0.34274">
        <ele>74.4</ele>
        <time>2022-06-26T08:04:13Z</time>
      </trkpt>
      <trkpt lat="46.52956" lon="0.34267">
        <ele>74.2</ele>
        <time>2022-06-26T08:04:14Z</time>
      </trkpt>
      <trkpt lat="46.52954" lon="0.34259">
        <ele>74</ele>
        <time>2022-06-26T08:04:15Z</time>
      </trkpt>
      <trkpt lat="46.52954" lon="0.34241">
        <ele>73.6</ele>
        <time>2022-06-26T08:04:17Z</time>
      </trkpt>
      <trkpt lat="46.52955" lon="0.34232">
        <ele>73.4</ele>
        <time>2022-06-26T08:04:18Z</time>
      </trkpt>
      <trkpt lat="46.52957" lon="0.34223">
        <ele>73.2</ele>
        <time>2022-06-26T08:04:19Z</time>
      </trkpt>
      <trkpt lat="46.52967" lon="0.34185">
        <ele>72.6</ele>
        <time>2022-06-26T08:04:23Z</time>
      </trkpt>
      <trkpt lat="46.52972" lon="0.34164">
        <ele>71.2</ele>
        <time>2022-06-26T08:04:25Z</time>
      </trkpt>
      <trkpt lat="46.52976" lon="0.34144">
        <ele>70.8</ele>
        <time>2022-06-26T08:04:27Z</time>
      </trkpt>
      <trkpt lat="46.52981" lon="0.34121">
        <ele>70.4</ele>
        <time>2022-06-26T08:04:29Z</time>
      </trkpt>
      <trkpt lat="46.52983" lon="0.34109">
        <ele>70.2</ele>
        <time>2022-06-26T08:04:30Z</time>
      </trkpt>
      <trkpt lat="46.52984" lon="0.34098">
        <ele>70</ele>
        <time>2022-06-26T08:04:31Z</time>
      </trkpt>
      <trkpt lat="46.52984" lon="0.34078">
        <ele>69.6</ele>
        <time>2022-06-26T08:04:33Z</time>
      </trkpt>
      <trkpt lat="46.52977" lon="0.34063">
        <ele>68.6</ele>
        <time>2022-06-26T08:04:35Z</time>
      </trkpt>
      <trkpt lat="46.52971" lon="0.34059">
        <ele>68.2</ele>
        <time>2022-06-26T08:04:36Z</time>
      </trkpt>
      <trkpt lat="46.52959" lon="0.34054">
        <ele>67.6</ele>
        <time>2022-06-26T08:04:38Z</time>
      </trkpt>
      <trkpt lat="46.52954" lon="0.3405">
        <ele>67.4</ele>
        <time>2022-06-26T08:04:39Z</time>
      </trkpt>
      <trkpt lat="46.52951" lon="0.34042">
        <ele>67</ele>
        <time>2022-06-26T08:04:40Z</time>
      </trkpt>
      <trkpt lat="46.52948" lon="0.34022">
        <ele>66.2</ele>
        <time>2022-06-26T08:04:42Z</time>
      </trkpt>
      <trkpt lat="46.52947" lon="0.3401">
        <ele>66.2</ele>
        <time>2022-06-26T08:04:43Z</time>
      </trkpt>
      <trkpt lat="46.52947" lon="0.33977">
        <ele>65</ele>
        <time>2022-06-26T08:04:46Z</time>
      </trkpt>
      <trkpt lat="46.52943" lon="0.33957">
        <ele>64.4</ele>
        <time>2022-06-26T08:04:48Z</time>
      </trkpt>
      <trkpt lat="46.52938" lon="0.33937">
        <ele>64</ele>
        <time>2022-06-26T08:04:50Z</time>
      </trkpt>
      <trkpt lat="46.52935" lon="0.33928">
        <ele>63.8</ele>
        <time>2022-06-26T08:04:51Z</time>
      </trkpt>
      <trkpt lat="46.52929" lon="0.33917">
        <ele>63.2</ele>
        <time>2022-06-26T08:04:53Z</time>
      </trkpt>
      <trkpt lat="46.52924" lon="0.33911">
        <ele>62.6</ele>
        <time>2022-06-26T08:04:55Z</time>
      </trkpt>
      <trkpt lat="46.52919" lon="0.3391">
        <ele>62.4</ele>
        <time>2022-06-26T08:04:56Z</time>
      </trkpt>
      <trkpt lat="46.52914" lon="0.33908">
        <ele>62.4</ele>
        <time>2022-06-26T08:04:57Z</time>
      </trkpt>
      <trkpt lat="46.52897" lon="0.33908">
        <ele>62.4</ele>
        <time>2022-06-26T08:05:00Z</time>
      </trkpt>
      <trkpt lat="46.5288" lon="0.3391">
        <ele>62.4</ele>
        <time>2022-06-26T08:05:03Z</time>
      </trkpt>
      <trkpt lat="46.52861" lon="0.33909">
        <ele>62.4</ele>
        <time>2022-06-26T08:05:06Z</time>
      </trkpt>
      <trkpt lat="46.52837" lon="0.33912">
        <ele>62.6</ele>
        <time>2022-06-26T08:05:10Z</time>
      </trkpt>
      <trkpt lat="46.52831" lon="0.33914">
        <ele>62.6</ele>
        <time>2022-06-26T08:05:11Z</time>
      </trkpt>
      <trkpt lat="46.52814" lon="0.33918">
        <ele>62.4</ele>
        <time>2022-06-26T08:05:14Z</time>
      </trkpt>
      <trkpt lat="46.52791" lon="0.33924">
        <ele>62.4</ele>
        <time>2022-06-26T08:05:18Z</time>
      </trkpt>
      <trkpt lat="46.52784" lon="0.33935">
        <ele>62.6</ele>
        <time>2022-06-26T08:05:20Z</time>
      </trkpt>
      <trkpt lat="46.52782" lon="0.33942">
        <ele>62.6</ele>
        <time>2022-06-26T08:05:21Z</time>
      </trkpt>
      <trkpt lat="46.52771" lon="0.33994">
        <ele>63.2</ele>
        <time>2022-06-26T08:05:28Z</time>
      </trkpt>
      <trkpt lat="46.5277" lon="0.34">
        <ele>63.6</ele>
        <time>2022-06-26T08:05:29Z</time>
      </trkpt>
      <trkpt lat="46.52768" lon="0.34006">
        <ele>63.8</ele>
        <time>2022-06-26T08:05:30Z</time>
      </trkpt>
      <trkpt lat="46.52764" lon="0.34017">
        <ele>64.6</ele>
        <time>2022-06-26T08:05:33Z</time>
      </trkpt>
      <trkpt lat="46.52763" lon="0.3402">
        <ele>65.2</ele>
        <time>2022-06-26T08:05:34Z</time>
      </trkpt>
      <trkpt lat="46.52759" lon="0.34024">
        <ele>66.4</ele>
        <time>2022-06-26T08:05:36Z</time>
      </trkpt>
      <trkpt lat="46.52754" lon="0.34028">
        <ele>67</ele>
        <time>2022-06-26T08:05:38Z</time>
      </trkpt>
      <trkpt lat="46.52748" lon="0.3403">
        <ele>67.8</ele>
        <time>2022-06-26T08:05:40Z</time>
      </trkpt>
      <trkpt lat="46.52739" lon="0.34035">
        <ele>69</ele>
        <time>2022-06-26T08:05:44Z</time>
      </trkpt>
      <trkpt lat="46.52737" lon="0.34036">
        <ele>69.4</ele>
        <time>2022-06-26T08:05:45Z</time>
      </trkpt>
      <trkpt lat="46.52732" lon="0.34038">
        <ele>70.2</ele>
        <time>2022-06-26T08:05:47Z</time>
      </trkpt>
      <trkpt lat="46.52719" lon="0.34042">
        <ele>71</ele>
        <time>2022-06-26T08:05:51Z</time>
      </trkpt>
      <trkpt lat="46.52713" lon="0.34043">
        <ele>71.2</ele>
        <time>2022-06-26T08:05:53Z</time>
      </trkpt>
      <trkpt lat="46.52702" lon="0.34044">
        <ele>71.4</ele>
        <time>2022-06-26T08:05:57Z</time>
      </trkpt>
      <trkpt lat="46.52674" lon="0.34044">
        <ele>72</ele>
        <time>2022-06-26T08:06:05Z</time>
      </trkpt>
      <trkpt lat="46.52663" lon="0.34045">
        <ele>72.4</ele>
        <time>2022-06-26T08:06:08Z</time>
      </trkpt>
      <trkpt lat="46.52648" lon="0.34042">
        <ele>72.8</ele>
        <time>2022-06-26T08:06:13Z</time>
      </trkpt>
      <trkpt lat="46.52626" lon="0.34042">
        <ele>72.8</ele>
        <time>2022-06-26T08:06:19Z</time>
      </trkpt>
      <trkpt lat="46.52613" lon="0.34043">
        <ele>73.8</ele>
        <time>2022-06-26T08:06:23Z</time>
      </trkpt>
      <trkpt lat="46.52605" lon="0.34045">
        <ele>74.4</ele>
        <time>2022-06-26T08:06:26Z</time>
      </trkpt>
      <trkpt lat="46.52593" lon="0.34047">
        <ele>74.8</ele>
        <time>2022-06-26T08:06:30Z</time>
      </trkpt>
      <trkpt lat="46.52584" lon="0.34047">
        <ele>75.8</ele>
        <time>2022-06-26T08:06:33Z</time>
      </trkpt>
      <trkpt lat="46.52582" lon="0.34048">
        <ele>76</ele>
        <time>2022-06-26T08:06:34Z</time>
      </trkpt>
      <trkpt lat="46.52569" lon="0.34052">
        <ele>76.6</ele>
        <time>2022-06-26T08:06:40Z</time>
      </trkpt>
      <trkpt lat="46.52563" lon="0.34052">
        <ele>77</ele>
        <time>2022-06-26T08:06:43Z</time>
      </trkpt>
      <trkpt lat="46.52554" lon="0.34054">
        <ele>78</ele>
        <time>2022-06-26T08:06:47Z</time>
      </trkpt>
      <trkpt lat="46.52537" lon="0.34052">
        <ele>79</ele>
        <time>2022-06-26T08:06:55Z</time>
      </trkpt>
      <trkpt lat="46.52534" lon="0.34053">
        <ele>79.2</ele>
        <time>2022-06-26T08:06:56Z</time>
      </trkpt>
      <trkpt lat="46.52527" lon="0.34055">
        <ele>80.2</ele>
        <time>2022-06-26T08:06:59Z</time>
      </trkpt>
      <trkpt lat="46.52519" lon="0.34058">
        <ele>80.8</ele>
        <time>2022-06-26T08:07:02Z</time>
      </trkpt>
      <trkpt lat="46.52513" lon="0.34064">
        <ele>81.4</ele>
        <time>2022-06-26T08:07:05Z</time>
      </trkpt>
      <trkpt lat="46.52506" lon="0.34073">
        <ele>82.2</ele>
        <time>2022-06-26T08:07:09Z</time>
      </trkpt>
      <trkpt lat="46.52503" lon="0.34078">
        <ele>82.6</ele>
        <time>2022-06-26T08:07:11Z</time>
      </trkpt>
      <trkpt lat="46.52497" lon="0.34089">
        <ele>83.6</ele>
        <time>2022-06-26T08:07:15Z</time>
      </trkpt>
      <trkpt lat="46.52495" lon="0.34095">
        <ele>84</ele>
        <time>2022-06-26T08:07:17Z</time>
      </trkpt>
      <trkpt lat="46.52491" lon="0.34106">
        <ele>84.8</ele>
        <time>2022-06-26T08:07:21Z</time>
      </trkpt>
      <trkpt lat="46.52484" lon="0.3412">
        <ele>85.8</ele>
        <time>2022-06-26T08:07:27Z</time>
      </trkpt>
      <trkpt lat="46.52483" lon="0.34122">
        <ele>86</ele>
        <time>2022-06-26T08:07:28Z</time>
      </trkpt>
      <trkpt lat="46.52478" lon="0.3413">
        <ele>87.2</ele>
        <time>2022-06-26T08:07:32Z</time>
      </trkpt>
      <trkpt lat="46.52475" lon="0.34137">
        <ele>87.6</ele>
        <time>2022-06-26T08:07:35Z</time>
      </trkpt>
      <trkpt lat="46.52471" lon="0.34143">
        <ele>88.2</ele>
        <time>2022-06-26T08:07:38Z</time>
      </trkpt>
      <trkpt lat="46.52465" lon="0.34154">
        <ele>89.4</ele>
        <time>2022-06-26T08:07:43Z</time>
      </trkpt>
      <trkpt lat="46.5246" lon="0.34162">
        <ele>90.4</ele>
        <time>2022-06-26T08:07:48Z</time>
      </trkpt>
      <trkpt lat="46.52456" lon="0.34167">
        <ele>91</ele>
        <time>2022-06-26T08:07:51Z</time>
      </trkpt>
      <trkpt lat="46.52454" lon="0.3417">
        <ele>91.4</ele>
        <time>2022-06-26T08:07:53Z</time>
      </trkpt>
      <trkpt lat="46.52447" lon="0.34185">
        <ele>92.4</ele>
        <time>2022-06-26T08:07:59Z</time>
      </trkpt>
      <trkpt lat="46.52447" lon="0.34188">
        <ele>92.6</ele>
        <time>2022-06-26T08:08:00Z</time>
      </trkpt>
      <trkpt lat="46.52441" lon="0.34211">
        <ele>93.4</ele>
        <time>2022-06-26T08:08:08Z</time>
      </trkpt>
      <trkpt lat="46.52439" lon="0.34216">
        <ele>93.6</ele>
        <time>2022-06-26T08:08:10Z</time>
      </trkpt>
      <trkpt lat="46.52433" lon="0.34237">
        <ele>94.2</ele>
        <time>2022-06-26T08:08:16Z</time>
      </trkpt>
      <trkpt lat="46.52427" lon="0.34257">
        <ele>94.4</ele>
        <time>2022-06-26T08:08:22Z</time>
      </trkpt>
      <trkpt lat="46.52425" lon="0.34258">
        <ele>94.4</ele>
        <time>2022-06-26T08:08:23Z</time>
      </trkpt>
      <trkpt lat="46.5241" lon="0.34266">
        <ele>94</ele>
        <time>2022-06-26T08:08:27Z</time>
      </trkpt>
      <trkpt lat="46.52399" lon="0.34271">
        <ele>92.4</ele>
        <time>2022-06-26T08:08:30Z</time>
      </trkpt>
      <trkpt lat="46.52393" lon="0.34275">
        <ele>90.4</ele>
        <time>2022-06-26T08:08:32Z</time>
      </trkpt>
      <trkpt lat="46.52389" lon="0.34278">
        <ele>89.8</ele>
        <time>2022-06-26T08:08:33Z</time>
      </trkpt>
      <trkpt lat="46.52385" lon="0.3428">
        <ele>89.4</ele>
        <time>2022-06-26T08:08:34Z</time>
      </trkpt>
      <trkpt lat="46.52381" lon="0.34282">
        <ele>88.4</ele>
        <time>2022-06-26T08:08:35Z</time>
      </trkpt>
      <trkpt lat="46.52369" lon="0.34291">
        <ele>87.2</ele>
        <time>2022-06-26T08:08:38Z</time>
      </trkpt>
      <trkpt lat="46.52364" lon="0.34293">
        <ele>87</ele>
        <time>2022-06-26T08:08:39Z</time>
      </trkpt>
      <trkpt lat="46.52354" lon="0.34298">
        <ele>86.4</ele>
        <time>2022-06-26T08:08:41Z</time>
      </trkpt>
      <trkpt lat="46.52348" lon="0.34299">
        <ele>86</ele>
        <time>2022-06-26T08:08:42Z</time>
      </trkpt>
      <trkpt lat="46.52335" lon="0.34302">
        <ele>85.2</ele>
        <time>2022-06-26T08:08:44Z</time>
      </trkpt>
      <trkpt lat="46.52329" lon="0.34302">
        <ele>84.6</ele>
        <time>2022-06-26T08:08:45Z</time>
      </trkpt>
      <trkpt lat="46.5232" lon="0.34302">
        <ele>84</ele>
        <time>2022-06-26T08:08:47Z</time>
      </trkpt>
      <trkpt lat="46.52318" lon="0.34304">
        <ele>83.6</ele>
        <time>2022-06-26T08:08:48Z</time>
      </trkpt>
      <trkpt lat="46.52307" lon="0.34313">
        <ele>81.6</ele>
        <time>2022-06-26T08:08:51Z</time>
      </trkpt>
      <trkpt lat="46.52301" lon="0.34317">
        <ele>81</ele>
        <time>2022-06-26T08:08:52Z</time>
      </trkpt>
      <trkpt lat="46.52295" lon="0.34324">
        <ele>80.2</ele>
        <time>2022-06-26T08:08:53Z</time>
      </trkpt>
      <trkpt lat="46.52287" lon="0.34331">
        <ele>79.6</ele>
        <time>2022-06-26T08:08:54Z</time>
      </trkpt>
      <trkpt lat="46.5228" lon="0.34336">
        <ele>79</ele>
        <time>2022-06-26T08:08:55Z</time>
      </trkpt>
      <trkpt lat="46.52273" lon="0.3434">
        <ele>78.6</ele>
        <time>2022-06-26T08:08:56Z</time>
      </trkpt>
      <trkpt lat="46.52267" lon="0.34343">
        <ele>78.4</ele>
        <time>2022-06-26T08:08:57Z</time>
      </trkpt>
      <trkpt lat="46.52255" lon="0.34347">
        <ele>78</ele>
        <time>2022-06-26T08:08:59Z</time>
      </trkpt>
      <trkpt lat="46.52245" lon="0.34349">
        <ele>77.6</ele>
        <time>2022-06-26T08:09:01Z</time>
      </trkpt>
      <trkpt lat="46.5224" lon="0.3435">
        <ele>77.2</ele>
        <time>2022-06-26T08:09:02Z</time>
      </trkpt>
      <trkpt lat="46.52235" lon="0.3435">
        <ele>76.6</ele>
        <time>2022-06-26T08:09:03Z</time>
      </trkpt>
      <trkpt lat="46.52231" lon="0.34349">
        <ele>76.2</ele>
        <time>2022-06-26T08:09:04Z</time>
      </trkpt>
      <trkpt lat="46.52227" lon="0.34347">
        <ele>76</ele>
        <time>2022-06-26T08:09:05Z</time>
      </trkpt>
      <trkpt lat="46.52222" lon="0.34346">
        <ele>75.6</ele>
        <time>2022-06-26T08:09:06Z</time>
      </trkpt>
      <trkpt lat="46.52218" lon="0.34345">
        <ele>75.4</ele>
        <time>2022-06-26T08:09:07Z</time>
      </trkpt>
      <trkpt lat="46.52203" lon="0.34339">
        <ele>75.4</ele>
        <time>2022-06-26T08:09:11Z</time>
      </trkpt>
      <trkpt lat="46.52186" lon="0.34331">
        <ele>75.8</ele>
        <time>2022-06-26T08:09:15Z</time>
      </trkpt>
      <trkpt lat="46.52175" lon="0.34325">
        <ele>75.8</ele>
        <time>2022-06-26T08:09:17Z</time>
      </trkpt>
      <trkpt lat="46.52151" lon="0.34315">
        <ele>74.8</ele>
        <time>2022-06-26T08:09:21Z</time>
      </trkpt>
      <trkpt lat="46.52146" lon="0.34313">
        <ele>75</ele>
        <time>2022-06-26T08:09:22Z</time>
      </trkpt>
      <trkpt lat="46.52143" lon="0.34313">
        <ele>75</ele>
        <time>2022-06-26T08:09:23Z</time>
      </trkpt>
      <trkpt lat="46.52135" lon="0.34315">
        <ele>75.6</ele>
        <time>2022-06-26T08:09:26Z</time>
      </trkpt>
      <trkpt lat="46.5213" lon="0.34316">
        <ele>76.8</ele>
        <time>2022-06-26T08:09:28Z</time>
      </trkpt>
      <trkpt lat="46.52113" lon="0.34317">
        <ele>77.6</ele>
        <time>2022-06-26T08:09:32Z</time>
      </trkpt>
      <trkpt lat="46.5209" lon="0.34317">
        <ele>77.6</ele>
        <time>2022-06-26T08:09:37Z</time>
      </trkpt>
      <trkpt lat="46.52059" lon="0.34324">
        <ele>76.4</ele>
        <time>2022-06-26T08:09:42Z</time>
      </trkpt>
      <trkpt lat="46.52052" lon="0.34326">
        <ele>76.2</ele>
        <time>2022-06-26T08:09:43Z</time>
      </trkpt>
      <trkpt lat="46.52044" lon="0.34327">
        <ele>75.4</ele>
        <time>2022-06-26T08:09:44Z</time>
      </trkpt>
      <trkpt lat="46.52029" lon="0.34333">
        <ele>74.6</ele>
        <time>2022-06-26T08:09:46Z</time>
      </trkpt>
      <trkpt lat="46.52022" lon="0.34337">
        <ele>74.2</ele>
        <time>2022-06-26T08:09:47Z</time>
      </trkpt>
      <trkpt lat="46.52013" lon="0.34341">
        <ele>73.4</ele>
        <time>2022-06-26T08:09:49Z</time>
      </trkpt>
      <trkpt lat="46.52009" lon="0.3434">
        <ele>73</ele>
        <time>2022-06-26T08:09:51Z</time>
      </trkpt>
      <trkpt lat="46.52008" lon="0.34337">
        <ele>72.8</ele>
        <time>2022-06-26T08:09:52Z</time>
      </trkpt>
      <trkpt lat="46.52005" lon="0.34327">
        <ele>72</ele>
        <time>2022-06-26T08:09:55Z</time>
      </trkpt>
      <trkpt lat="46.51999" lon="0.34317">
        <ele>70.4</ele>
        <time>2022-06-26T08:09:57Z</time>
      </trkpt>
      <trkpt lat="46.51997" lon="0.3431">
        <ele>69.8</ele>
        <time>2022-06-26T08:09:58Z</time>
      </trkpt>
      <trkpt lat="46.51996" lon="0.34302">
        <ele>69</ele>
        <time>2022-06-26T08:09:59Z</time>
      </trkpt>
      <trkpt lat="46.51995" lon="0.34295">
        <ele>67.6</ele>
        <time>2022-06-26T08:10:00Z</time>
      </trkpt>
      <trkpt lat="46.51995" lon="0.34288">
        <ele>66.6</ele>
        <time>2022-06-26T08:10:01Z</time>
      </trkpt>
      <trkpt lat="46.51994" lon="0.34282">
        <ele>65.6</ele>
        <time>2022-06-26T08:10:02Z</time>
      </trkpt>
      <trkpt lat="46.51994" lon="0.34278">
        <ele>64.6</ele>
        <time>2022-06-26T08:10:03Z</time>
      </trkpt>
      <trkpt lat="46.51992" lon="0.34274">
        <ele>64</ele>
        <time>2022-06-26T08:10:04Z</time>
      </trkpt>
      <trkpt lat="46.51991" lon="0.3427">
        <ele>63.8</ele>
        <time>2022-06-26T08:10:05Z</time>
      </trkpt>
      <trkpt lat="46.51988" lon="0.34268">
        <ele>63.6</ele>
        <time>2022-06-26T08:10:06Z</time>
      </trkpt>
      <trkpt lat="46.51976" lon="0.34266">
        <ele>63</ele>
        <time>2022-06-26T08:10:09Z</time>
      </trkpt>
      <trkpt lat="46.51956" lon="0.34267">
        <ele>62.8</ele>
        <time>2022-06-26T08:10:13Z</time>
      </trkpt>
      <trkpt lat="46.51942" lon="0.34268">
        <ele>63</ele>
        <time>2022-06-26T08:10:16Z</time>
      </trkpt>
      <trkpt lat="46.51906" lon="0.34273">
        <ele>63.6</ele>
        <time>2022-06-26T08:10:23Z</time>
      </trkpt>
      <trkpt lat="46.51875" lon="0.34288">
        <ele>63.8</ele>
        <time>2022-06-26T08:10:29Z</time>
      </trkpt>
      <trkpt lat="46.51865" lon="0.34293">
        <ele>64.2</ele>
        <time>2022-06-26T08:10:31Z</time>
      </trkpt>
      <trkpt lat="46.51845" lon="0.34307">
        <ele>64.6</ele>
        <time>2022-06-26T08:10:36Z</time>
      </trkpt>
      <trkpt lat="46.51835" lon="0.34315">
        <ele>65.4</ele>
        <time>2022-06-26T08:10:39Z</time>
      </trkpt>
      <trkpt lat="46.51813" lon="0.34328">
        <ele>65.8</ele>
        <time>2022-06-26T08:10:45Z</time>
      </trkpt>
      <trkpt lat="46.5179" lon="0.3433">
        <ele>66.4</ele>
        <time>2022-06-26T08:10:51Z</time>
      </trkpt>
      <trkpt lat="46.51778" lon="0.34326">
        <ele>67.6</ele>
        <time>2022-06-26T08:10:55Z</time>
      </trkpt>
      <trkpt lat="46.51773" lon="0.34324">
        <ele>68</ele>
        <time>2022-06-26T08:10:57Z</time>
      </trkpt>
      <trkpt lat="46.51761" lon="0.34319">
        <ele>68.8</ele>
        <time>2022-06-26T08:11:01Z</time>
      </trkpt>
      <trkpt lat="46.51752" lon="0.34313">
        <ele>69.8</ele>
        <time>2022-06-26T08:11:04Z</time>
      </trkpt>
      <trkpt lat="46.51749" lon="0.34311">
        <ele>70.2</ele>
        <time>2022-06-26T08:11:05Z</time>
      </trkpt>
      <trkpt lat="46.51735" lon="0.34307">
        <ele>71.2</ele>
        <time>2022-06-26T08:11:10Z</time>
      </trkpt>
      <trkpt lat="46.51732" lon="0.34306">
        <ele>71.4</ele>
        <time>2022-06-26T08:11:11Z</time>
      </trkpt>
      <trkpt lat="46.51708" lon="0.343">
        <ele>72</ele>
        <time>2022-06-26T08:11:18Z</time>
      </trkpt>
      <trkpt lat="46.51696" lon="0.34292">
        <ele>71.8</ele>
        <time>2022-06-26T08:11:21Z</time>
      </trkpt>
      <trkpt lat="46.51687" lon="0.34284">
        <ele>71.6</ele>
        <time>2022-06-26T08:11:23Z</time>
      </trkpt>
      <trkpt lat="46.51682" lon="0.3428">
        <ele>71.6</ele>
        <time>2022-06-26T08:11:24Z</time>
      </trkpt>
      <trkpt lat="46.51671" lon="0.3427">
        <ele>71</ele>
        <time>2022-06-26T08:11:27Z</time>
      </trkpt>
      <trkpt lat="46.51661" lon="0.34256">
        <ele>71.6</ele>
        <time>2022-06-26T08:11:32Z</time>
      </trkpt>
      <trkpt lat="46.51645" lon="0.34245">
        <ele>72.6</ele>
        <time>2022-06-26T08:11:37Z</time>
      </trkpt>
      <trkpt lat="46.51641" lon="0.34243">
        <ele>72.6</ele>
        <time>2022-06-26T08:11:38Z</time>
      </trkpt>
      <trkpt lat="46.51619" lon="0.34233">
        <ele>72</ele>
        <time>2022-06-26T08:11:43Z</time>
      </trkpt>
      <trkpt lat="46.51614" lon="0.3423">
        <ele>72</ele>
        <time>2022-06-26T08:11:44Z</time>
      </trkpt>
      <trkpt lat="46.51596" lon="0.34214">
        <ele>71.6</ele>
        <time>2022-06-26T08:11:48Z</time>
      </trkpt>
      <trkpt lat="46.51578" lon="0.34207">
        <ele>72.4</ele>
        <time>2022-06-26T08:11:54Z</time>
      </trkpt>
      <trkpt lat="46.51568" lon="0.34206">
        <ele>74</ele>
        <time>2022-06-26T08:11:58Z</time>
      </trkpt>
      <trkpt lat="46.51563" lon="0.34204">
        <ele>74.6</ele>
        <time>2022-06-26T08:12:00Z</time>
      </trkpt>
      <trkpt lat="46.51547" lon="0.34195">
        <ele>74.8</ele>
        <time>2022-06-26T08:12:06Z</time>
      </trkpt>
      <trkpt lat="46.5152" lon="0.34175">
        <ele>73.8</ele>
        <time>2022-06-26T08:12:12Z</time>
      </trkpt>
      <trkpt lat="46.51507" lon="0.34166">
        <ele>72.4</ele>
        <time>2022-06-26T08:12:14Z</time>
      </trkpt>
      <trkpt lat="46.51502" lon="0.34163">
        <ele>71.6</ele>
        <time>2022-06-26T08:12:15Z</time>
      </trkpt>
      <trkpt lat="46.51498" lon="0.34161">
        <ele>70.6</ele>
        <time>2022-06-26T08:12:16Z</time>
      </trkpt>
      <trkpt lat="46.51495" lon="0.34159">
        <ele>69.6</ele>
        <time>2022-06-26T08:12:17Z</time>
      </trkpt>
      <trkpt lat="46.5149" lon="0.34159">
        <ele>68.2</ele>
        <time>2022-06-26T08:12:19Z</time>
      </trkpt>
      <trkpt lat="46.51488" lon="0.34159">
        <ele>67.8</ele>
        <time>2022-06-26T08:12:20Z</time>
      </trkpt>
      <trkpt lat="46.51486" lon="0.3416">
        <ele>67</ele>
        <time>2022-06-26T08:12:24Z</time>
      </trkpt>
      <trkpt lat="46.51486" lon="0.3416">
        <ele>67.2</ele>
        <time>2022-06-26T08:12:25Z</time>
      </trkpt>
      <trkpt lat="46.51483" lon="0.34158">
        <ele>68.2</ele>
        <time>2022-06-26T08:12:29Z</time>
      </trkpt>
      <trkpt lat="46.51479" lon="0.34155">
        <ele>68.8</ele>
        <time>2022-06-26T08:12:37Z</time>
      </trkpt>
      <trkpt lat="46.51478" lon="0.34154">
        <ele>68.8</ele>
        <time>2022-06-26T08:12:38Z</time>
      </trkpt>
      <trkpt lat="46.51476" lon="0.34153">
        <ele>68.8</ele>
        <time>2022-06-26T08:12:40Z</time>
      </trkpt>
      <trkpt lat="46.51468" lon="0.34152">
        <ele>68.2</ele>
        <time>2022-06-26T08:12:44Z</time>
      </trkpt>
      <trkpt lat="46.51467" lon="0.34152">
        <ele>68</ele>
        <time>2022-06-26T08:12:45Z</time>
      </trkpt>
      <trkpt lat="46.51446" lon="0.34151">
        <ele>68.8</ele>
        <time>2022-06-26T08:12:56Z</time>
      </trkpt>
      <trkpt lat="46.51439" lon="0.34153">
        <ele>69.2</ele>
        <time>2022-06-26T08:13:00Z</time>
      </trkpt>
      <trkpt lat="46.51432" lon="0.34154">
        <ele>69.8</ele>
        <time>2022-06-26T08:13:03Z</time>
      </trkpt>
      <trkpt lat="46.51426" lon="0.34152">
        <ele>70.4</ele>
        <time>2022-06-26T08:13:06Z</time>
      </trkpt>
      <trkpt lat="46.51422" lon="0.34153">
        <ele>71.2</ele>
        <time>2022-06-26T08:13:09Z</time>
      </trkpt>
      <trkpt lat="46.51421" lon="0.34153">
        <ele>71.6</ele>
        <time>2022-06-26T08:13:10Z</time>
      </trkpt>
      <trkpt lat="46.51416" lon="0.34153">
        <ele>72.4</ele>
        <time>2022-06-26T08:13:13Z</time>
      </trkpt>
      <trkpt lat="46.51415" lon="0.34154">
        <ele>72.6</ele>
        <time>2022-06-26T08:13:14Z</time>
      </trkpt>
      <trkpt lat="46.5141" lon="0.34154">
        <ele>73.2</ele>
        <time>2022-06-26T08:13:17Z</time>
      </trkpt>
      <trkpt lat="46.51409" lon="0.34154">
        <ele>73.6</ele>
        <time>2022-06-26T08:13:18Z</time>
      </trkpt>
      <trkpt lat="46.51407" lon="0.34153">
        <ele>73.8</ele>
        <time>2022-06-26T08:13:19Z</time>
      </trkpt>
      <trkpt lat="46.51398" lon="0.34154">
        <ele>74.4</ele>
        <time>2022-06-26T08:13:23Z</time>
      </trkpt>
      <trkpt lat="46.51394" lon="0.34153">
        <ele>75</ele>
        <time>2022-06-26T08:13:26Z</time>
      </trkpt>
      <trkpt lat="46.51386" lon="0.34152">
        <ele>75.4</ele>
        <time>2022-06-26T08:13:30Z</time>
      </trkpt>
      <trkpt lat="46.51375" lon="0.34145">
        <ele>76.2</ele>
        <time>2022-06-26T08:13:36Z</time>
      </trkpt>
      <trkpt lat="46.51368" lon="0.34142">
        <ele>76.4</ele>
        <time>2022-06-26T08:13:40Z</time>
      </trkpt>
      <trkpt lat="46.51364" lon="0.3414">
        <ele>76.6</ele>
        <time>2022-06-26T08:13:42Z</time>
      </trkpt>
      <trkpt lat="46.51351" lon="0.34141">
        <ele>76.2</ele>
        <time>2022-06-26T08:13:47Z</time>
      </trkpt>
      <trkpt lat="46.51347" lon="0.3414">
        <ele>77.4</ele>
        <time>2022-06-26T08:13:50Z</time>
      </trkpt>
      <trkpt lat="46.51345" lon="0.3414">
        <ele>77.6</ele>
        <time>2022-06-26T08:13:51Z</time>
      </trkpt>
      <trkpt lat="46.51342" lon="0.34138">
        <ele>78</ele>
        <time>2022-06-26T08:13:53Z</time>
      </trkpt>
      <trkpt lat="46.51333" lon="0.34133">
        <ele>78.2</ele>
        <time>2022-06-26T08:13:59Z</time>
      </trkpt>
      <trkpt lat="46.51331" lon="0.34133">
        <ele>78.2</ele>
        <time>2022-06-26T08:14:00Z</time>
      </trkpt>
      <trkpt lat="46.51321" lon="0.34135">
        <ele>78.6</ele>
        <time>2022-06-26T08:14:06Z</time>
      </trkpt>
      <trkpt lat="46.51317" lon="0.34133">
        <ele>79.4</ele>
        <time>2022-06-26T08:14:09Z</time>
      </trkpt>
      <trkpt lat="46.51316" lon="0.34132">
        <ele>79.6</ele>
        <time>2022-06-26T08:14:10Z</time>
      </trkpt>
      <trkpt lat="46.51302" lon="0.34125">
        <ele>80.2</ele>
        <time>2022-06-26T08:14:16Z</time>
      </trkpt>
      <trkpt lat="46.51293" lon="0.34124">
        <ele>80.6</ele>
        <time>2022-06-26T08:14:20Z</time>
      </trkpt>
      <trkpt lat="46.51288" lon="0.34123">
        <ele>80.8</ele>
        <time>2022-06-26T08:14:22Z</time>
      </trkpt>
      <trkpt lat="46.51282" lon="0.34119">
        <ele>80.8</ele>
        <time>2022-06-26T08:14:26Z</time>
      </trkpt>
      <trkpt lat="46.51278" lon="0.34117">
        <ele>80.8</ele>
        <time>2022-06-26T08:14:29Z</time>
      </trkpt>
      <trkpt lat="46.51274" lon="0.34113">
        <ele>81</ele>
        <time>2022-06-26T08:14:33Z</time>
      </trkpt>
      <trkpt lat="46.51272" lon="0.34106">
        <ele>80.2</ele>
        <time>2022-06-26T08:14:36Z</time>
      </trkpt>
      <trkpt lat="46.5127" lon="0.34103">
        <ele>79.4</ele>
        <time>2022-06-26T08:14:38Z</time>
      </trkpt>
      <trkpt lat="46.51265" lon="0.34096">
        <ele>78.6</ele>
        <time>2022-06-26T08:14:43Z</time>
      </trkpt>
      <trkpt lat="46.51264" lon="0.34094">
        <ele>78.4</ele>
        <time>2022-06-26T08:14:44Z</time>
      </trkpt>
      <trkpt lat="46.51264" lon="0.34091">
        <ele>77.8</ele>
        <time>2022-06-26T08:14:45Z</time>
      </trkpt>
      <trkpt lat="46.51263" lon="0.34084">
        <ele>76.4</ele>
        <time>2022-06-26T08:14:47Z</time>
      </trkpt>
      <trkpt lat="46.51262" lon="0.34078">
        <ele>75</ele>
        <time>2022-06-26T08:14:49Z</time>
      </trkpt>
      <trkpt lat="46.51261" lon="0.34075">
        <ele>74.4</ele>
        <time>2022-06-26T08:14:50Z</time>
      </trkpt>
      <trkpt lat="46.51261" lon="0.34073">
        <ele>73.8</ele>
        <time>2022-06-26T08:14:51Z</time>
      </trkpt>
      <trkpt lat="46.5126" lon="0.34067">
        <ele>72.4</ele>
        <time>2022-06-26T08:14:53Z</time>
      </trkpt>
      <trkpt lat="46.51258" lon="0.34057">
        <ele>70.4</ele>
        <time>2022-06-26T08:14:55Z</time>
      </trkpt>
      <trkpt lat="46.51258" lon="0.34053">
        <ele>69</ele>
        <time>2022-06-26T08:14:56Z</time>
      </trkpt>
      <trkpt lat="46.51258" lon="0.34047">
        <ele>67.8</ele>
        <time>2022-06-26T08:14:57Z</time>
      </trkpt>
      <trkpt lat="46.51258" lon="0.34042">
        <ele>66.8</ele>
        <time>2022-06-26T08:14:58Z</time>
      </trkpt>
      <trkpt lat="46.51257" lon="0.3403">
        <ele>65.8</ele>
        <time>2022-06-26T08:14:59Z</time>
      </trkpt>
      <trkpt lat="46.51257" lon="0.34026">
        <ele>64.6</ele>
        <time>2022-06-26T08:15:00Z</time>
      </trkpt>
      <trkpt lat="46.51257" lon="0.34024">
        <ele>63.8</ele>
        <time>2022-06-26T08:15:01Z</time>
      </trkpt>
      <trkpt lat="46.51256" lon="0.34022">
        <ele>63.2</ele>
        <time>2022-06-26T08:15:02Z</time>
      </trkpt>
      <trkpt lat="46.51248" lon="0.34006">
        <ele>62.6</ele>
        <time>2022-06-26T08:15:08Z</time>
      </trkpt>
      <trkpt lat="46.51235" lon="0.3399">
        <ele>62.6</ele>
        <time>2022-06-26T08:15:13Z</time>
      </trkpt>
      <trkpt lat="46.51232" lon="0.33977">
        <ele>62.4</ele>
        <time>2022-06-26T08:15:14Z</time>
      </trkpt>
      <trkpt lat="46.51229" lon="0.33946">
        <ele>62.2</ele>
        <time>2022-06-26T08:15:16Z</time>
      </trkpt>
      <trkpt lat="46.51236" lon="0.33912">
        <ele>61.4</ele>
        <time>2022-06-26T08:15:20Z</time>
      </trkpt>
      <trkpt lat="46.51253" lon="0.33883">
        <ele>61</ele>
        <time>2022-06-26T08:15:27Z</time>
      </trkpt>
      <trkpt lat="46.51267" lon="0.3386">
        <ele>60.6</ele>
        <time>2022-06-26T08:15:33Z</time>
      </trkpt>
      <trkpt lat="46.51271" lon="0.33839">
        <ele>61.4</ele>
        <time>2022-06-26T08:15:38Z</time>
      </trkpt>
      <trkpt lat="46.51268" lon="0.33813">
        <ele>61.2</ele>
        <time>2022-06-26T08:15:44Z</time>
      </trkpt>
      <trkpt lat="46.51266" lon="0.33783">
        <ele>61</ele>
        <time>2022-06-26T08:15:50Z</time>
      </trkpt>
      <trkpt lat="46.51252" lon="0.33761">
        <ele>61</ele>
        <time>2022-06-26T08:15:55Z</time>
      </trkpt>
      <trkpt lat="46.5123" lon="0.33757">
        <ele>61.2</ele>
        <time>2022-06-26T08:16:00Z</time>
      </trkpt>
      <trkpt lat="46.51208" lon="0.33749">
        <ele>61.4</ele>
        <time>2022-06-26T08:16:05Z</time>
      </trkpt>
      <trkpt lat="46.51204" lon="0.33746">
        <ele>61.4</ele>
        <time>2022-06-26T08:16:06Z</time>
      </trkpt>
      <trkpt lat="46.51201" lon="0.33742">
        <ele>61.4</ele>
        <time>2022-06-26T08:16:07Z</time>
      </trkpt>
      <trkpt lat="46.51194" lon="0.33732">
        <ele>61.4</ele>
        <time>2022-06-26T08:16:10Z</time>
      </trkpt>
      <trkpt lat="46.51192" lon="0.33721">
        <ele>61.4</ele>
        <time>2022-06-26T08:16:13Z</time>
      </trkpt>
      <trkpt lat="46.51194" lon="0.33717">
        <ele>61.4</ele>
        <time>2022-06-26T08:16:14Z</time>
      </trkpt>
      <trkpt lat="46.51196" lon="0.33705">
        <ele>61.2</ele>
        <time>2022-06-26T08:16:19Z</time>
      </trkpt>
      <trkpt lat="46.51195" lon="0.337">
        <ele>61</ele>
        <time>2022-06-26T08:16:23Z</time>
      </trkpt>
      <trkpt lat="46.51195" lon="0.33698">
        <ele>61</ele>
        <time>2022-06-26T08:16:25Z</time>
      </trkpt>
      <trkpt lat="46.51193" lon="0.33696">
        <ele>61</ele>
        <time>2022-06-26T08:16:27Z</time>
      </trkpt>
      <trkpt lat="46.51189" lon="0.33693">
        <ele>60.8</ele>
        <time>2022-06-26T08:16:37Z</time>
      </trkpt>
      <trkpt lat="46.51186" lon="0.33689">
        <ele>60.2</ele>
        <time>2022-06-26T08:16:43Z</time>
      </trkpt>
      <trkpt lat="46.51187" lon="0.33688">
        <ele>59.8</ele>
        <time>2022-06-26T08:16:44Z</time>
      </trkpt>
      <trkpt lat="46.51184" lon="0.33682">
        <ele>59.8</ele>
        <time>2022-06-26T08:16:49Z</time>
      </trkpt>
      <trkpt lat="46.51171" lon="0.33676">
        <ele>60.6</ele>
        <time>2022-06-26T08:16:55Z</time>
      </trkpt>
      <trkpt lat="46.51167" lon="0.33672">
        <ele>60.8</ele>
        <time>2022-06-26T08:16:57Z</time>
      </trkpt>
      <trkpt lat="46.51165" lon="0.3367">
        <ele>61</ele>
        <time>2022-06-26T08:16:58Z</time>
      </trkpt>
      <trkpt lat="46.51165" lon="0.33666">
        <ele>61</ele>
        <time>2022-06-26T08:16:59Z</time>
      </trkpt>
      <trkpt lat="46.51165" lon="0.33663">
        <ele>61</ele>
        <time>2022-06-26T08:17:00Z</time>
      </trkpt>
      <trkpt lat="46.51166" lon="0.33639">
        <ele>61</ele>
        <time>2022-06-26T08:17:05Z</time>
      </trkpt>
      <trkpt lat="46.51165" lon="0.33626">
        <ele>61</ele>
        <time>2022-06-26T08:17:07Z</time>
      </trkpt>
      <trkpt lat="46.51166" lon="0.33605">
        <ele>61.6</ele>
        <time>2022-06-26T08:17:10Z</time>
      </trkpt>
      <trkpt lat="46.51167" lon="0.33593">
        <ele>61.8</ele>
        <time>2022-06-26T08:17:12Z</time>
      </trkpt>
      <trkpt lat="46.51167" lon="0.33587">
        <ele>62</ele>
        <time>2022-06-26T08:17:13Z</time>
      </trkpt>
      <trkpt lat="46.51168" lon="0.33571">
        <ele>62</ele>
        <time>2022-06-26T08:17:16Z</time>
      </trkpt>
      <trkpt lat="46.51167" lon="0.33567">
        <ele>62.2</ele>
        <time>2022-06-26T08:17:17Z</time>
      </trkpt>
      <trkpt lat="46.51163" lon="0.33559">
        <ele>62.2</ele>
        <time>2022-06-26T08:17:19Z</time>
      </trkpt>
      <trkpt lat="46.5116" lon="0.3355">
        <ele>62.4</ele>
        <time>2022-06-26T08:17:21Z</time>
      </trkpt>
      <trkpt lat="46.51154" lon="0.33526">
        <ele>62.8</ele>
        <time>2022-06-26T08:17:26Z</time>
      </trkpt>
      <trkpt lat="46.5115" lon="0.33518">
        <ele>62.8</ele>
        <time>2022-06-26T08:17:28Z</time>
      </trkpt>
      <trkpt lat="46.51149" lon="0.33514">
        <ele>62.8</ele>
        <time>2022-06-26T08:17:29Z</time>
      </trkpt>
      <trkpt lat="46.51142" lon="0.33486">
        <ele>63</ele>
        <time>2022-06-26T08:17:34Z</time>
      </trkpt>
      <trkpt lat="46.51134" lon="0.33475">
        <ele>63.4</ele>
        <time>2022-06-26T08:17:36Z</time>
      </trkpt>
      <trkpt lat="46.51127" lon="0.33465">
        <ele>63.4</ele>
        <time>2022-06-26T08:17:38Z</time>
      </trkpt>
      <trkpt lat="46.51121" lon="0.33456">
        <ele>63.6</ele>
        <time>2022-06-26T08:17:40Z</time>
      </trkpt>
      <trkpt lat="46.5111" lon="0.33443">
        <ele>64</ele>
        <time>2022-06-26T08:17:42Z</time>
      </trkpt>
      <trkpt lat="46.51093" lon="0.33414">
        <ele>64.6</ele>
        <time>2022-06-26T08:17:46Z</time>
      </trkpt>
      <trkpt lat="46.51062" lon="0.3337">
        <ele>65.2</ele>
        <time>2022-06-26T08:17:52Z</time>
      </trkpt>
      <trkpt lat="46.51032" lon="0.33333">
        <ele>66</ele>
        <time>2022-06-26T08:17:58Z</time>
      </trkpt>
      <trkpt lat="46.51022" lon="0.33321">
        <ele>66.2</ele>
        <time>2022-06-26T08:18:00Z</time>
      </trkpt>
      <trkpt lat="46.51003" lon="0.3331">
        <ele>67.2</ele>
        <time>2022-06-26T08:18:04Z</time>
      </trkpt>
      <trkpt lat="46.51" lon="0.33309">
        <ele>67.8</ele>
        <time>2022-06-26T08:18:05Z</time>
      </trkpt>
      <trkpt lat="46.50991" lon="0.33308">
        <ele>68.8</ele>
        <time>2022-06-26T08:18:08Z</time>
      </trkpt>
      <trkpt lat="46.50982" lon="0.33304">
        <ele>70.2</ele>
        <time>2022-06-26T08:18:11Z</time>
      </trkpt>
      <trkpt lat="46.50972" lon="0.33302">
        <ele>71.4</ele>
        <time>2022-06-26T08:18:15Z</time>
      </trkpt>
      <trkpt lat="46.50963" lon="0.33303">
        <ele>72.4</ele>
        <time>2022-06-26T08:18:18Z</time>
      </trkpt>
      <trkpt lat="46.50961" lon="0.33303">
        <ele>72.6</ele>
        <time>2022-06-26T08:18:19Z</time>
      </trkpt>
      <trkpt lat="46.50951" lon="0.33298">
        <ele>73.6</ele>
        <time>2022-06-26T08:18:23Z</time>
      </trkpt>
      <trkpt lat="46.50947" lon="0.33296">
        <ele>73.6</ele>
        <time>2022-06-26T08:18:24Z</time>
      </trkpt>
      <trkpt lat="46.50934" lon="0.33296">
        <ele>73.6</ele>
        <time>2022-06-26T08:18:27Z</time>
      </trkpt>
      <trkpt lat="46.50913" lon="0.33302">
        <ele>72.8</ele>
        <time>2022-06-26T08:18:31Z</time>
      </trkpt>
      <trkpt lat="46.50906" lon="0.33302">
        <ele>72.4</ele>
        <time>2022-06-26T08:18:32Z</time>
      </trkpt>
      <trkpt lat="46.50899" lon="0.33301">
        <ele>72</ele>
        <time>2022-06-26T08:18:33Z</time>
      </trkpt>
      <trkpt lat="46.50882" lon="0.33293">
        <ele>71.6</ele>
        <time>2022-06-26T08:18:36Z</time>
      </trkpt>
      <trkpt lat="46.5087" lon="0.33285">
        <ele>71.4</ele>
        <time>2022-06-26T08:18:38Z</time>
      </trkpt>
      <trkpt lat="46.50847" lon="0.33268">
        <ele>71.2</ele>
        <time>2022-06-26T08:18:42Z</time>
      </trkpt>
      <trkpt lat="46.50812" lon="0.33253">
        <ele>70.4</ele>
        <time>2022-06-26T08:18:47Z</time>
      </trkpt>
      <trkpt lat="46.50804" lon="0.3325">
        <ele>70.2</ele>
        <time>2022-06-26T08:18:48Z</time>
      </trkpt>
      <trkpt lat="46.5076" lon="0.33239">
        <ele>69.2</ele>
        <time>2022-06-26T08:18:54Z</time>
      </trkpt>
      <trkpt lat="46.50729" lon="0.33235">
        <ele>68.8</ele>
        <time>2022-06-26T08:18:59Z</time>
      </trkpt>
      <trkpt lat="46.50706" lon="0.33237">
        <ele>70</ele>
        <time>2022-06-26T08:19:04Z</time>
      </trkpt>
      <trkpt lat="46.50702" lon="0.33237">
        <ele>70.4</ele>
        <time>2022-06-26T08:19:05Z</time>
      </trkpt>
      <trkpt lat="46.50691" lon="0.33237">
        <ele>71.6</ele>
        <time>2022-06-26T08:19:08Z</time>
      </trkpt>
      <trkpt lat="46.50683" lon="0.33237">
        <ele>72.4</ele>
        <time>2022-06-26T08:19:10Z</time>
      </trkpt>
      <trkpt lat="46.5068" lon="0.33237">
        <ele>72.6</ele>
        <time>2022-06-26T08:19:11Z</time>
      </trkpt>
      <trkpt lat="46.50667" lon="0.3324">
        <ele>73.8</ele>
        <time>2022-06-26T08:19:14Z</time>
      </trkpt>
      <trkpt lat="46.5065" lon="0.33243">
        <ele>74.8</ele>
        <time>2022-06-26T08:19:18Z</time>
      </trkpt>
      <trkpt lat="46.50642" lon="0.33241">
        <ele>75.4</ele>
        <time>2022-06-26T08:19:20Z</time>
      </trkpt>
      <trkpt lat="46.50629" lon="0.33237">
        <ele>75.6</ele>
        <time>2022-06-26T08:19:23Z</time>
      </trkpt>
      <trkpt lat="46.50601" lon="0.33228">
        <ele>75.6</ele>
        <time>2022-06-26T08:19:30Z</time>
      </trkpt>
      <trkpt lat="46.5058" lon="0.3322">
        <ele>75.6</ele>
        <time>2022-06-26T08:19:35Z</time>
      </trkpt>
      <trkpt lat="46.50574" lon="0.33216">
        <ele>75.8</ele>
        <time>2022-06-26T08:19:37Z</time>
      </trkpt>
      <trkpt lat="46.50558" lon="0.33203">
        <ele>76</ele>
        <time>2022-06-26T08:19:41Z</time>
      </trkpt>
      <trkpt lat="46.5053" lon="0.33173">
        <ele>76.2</ele>
        <time>2022-06-26T08:19:48Z</time>
      </trkpt>
      <trkpt lat="46.50501" lon="0.33141">
        <ele>76.4</ele>
        <time>2022-06-26T08:19:55Z</time>
      </trkpt>
      <trkpt lat="46.50474" lon="0.33116">
        <ele>76.6</ele>
        <time>2022-06-26T08:20:02Z</time>
      </trkpt>
      <trkpt lat="46.50459" lon="0.33102">
        <ele>76.8</ele>
        <time>2022-06-26T08:20:06Z</time>
      </trkpt>
      <trkpt lat="46.50451" lon="0.33096">
        <ele>77</ele>
        <time>2022-06-26T08:20:08Z</time>
      </trkpt>
      <trkpt lat="46.50434" lon="0.33082">
        <ele>77.2</ele>
        <time>2022-06-26T08:20:13Z</time>
      </trkpt>
      <trkpt lat="46.50406" lon="0.33056">
        <ele>77</ele>
        <time>2022-06-26T08:20:18Z</time>
      </trkpt>
      <trkpt lat="46.5037" lon="0.33019">
        <ele>77</ele>
        <time>2022-06-26T08:20:25Z</time>
      </trkpt>
      <trkpt lat="46.50339" lon="0.32992">
        <ele>76.8</ele>
        <time>2022-06-26T08:20:31Z</time>
      </trkpt>
      <trkpt lat="46.50306" lon="0.32966">
        <ele>76.6</ele>
        <time>2022-06-26T08:20:37Z</time>
      </trkpt>
      <trkpt lat="46.50272" lon="0.32942">
        <ele>76.6</ele>
        <time>2022-06-26T08:20:43Z</time>
      </trkpt>
      <trkpt lat="46.50235" lon="0.32922">
        <ele>76.8</ele>
        <time>2022-06-26T08:20:50Z</time>
      </trkpt>
      <trkpt lat="46.50203" lon="0.32903">
        <ele>76.8</ele>
        <time>2022-06-26T08:20:56Z</time>
      </trkpt>
      <trkpt lat="46.50174" lon="0.32875">
        <ele>76.6</ele>
        <time>2022-06-26T08:21:02Z</time>
      </trkpt>
      <trkpt lat="46.50169" lon="0.3287">
        <ele>76.6</ele>
        <time>2022-06-26T08:21:03Z</time>
      </trkpt>
      <trkpt lat="46.50159" lon="0.32861">
        <ele>76.6</ele>
        <time>2022-06-26T08:21:05Z</time>
      </trkpt>
      <trkpt lat="46.50153" lon="0.3286">
        <ele>76.8</ele>
        <time>2022-06-26T08:21:06Z</time>
      </trkpt>
      <trkpt lat="46.50148" lon="0.32861">
        <ele>77</ele>
        <time>2022-06-26T08:21:07Z</time>
      </trkpt>
      <trkpt lat="46.5014" lon="0.32867">
        <ele>77.4</ele>
        <time>2022-06-26T08:21:09Z</time>
      </trkpt>
      <trkpt lat="46.50137" lon="0.32871">
        <ele>77.6</ele>
        <time>2022-06-26T08:21:10Z</time>
      </trkpt>
      <trkpt lat="46.50129" lon="0.32886">
        <ele>78</ele>
        <time>2022-06-26T08:21:13Z</time>
      </trkpt>
      <trkpt lat="46.50117" lon="0.32912">
        <ele>78.8</ele>
        <time>2022-06-26T08:21:18Z</time>
      </trkpt>
      <trkpt lat="46.50113" lon="0.32922">
        <ele>79</ele>
        <time>2022-06-26T08:21:20Z</time>
      </trkpt>
      <trkpt lat="46.50099" lon="0.32941">
        <ele>79.8</ele>
        <time>2022-06-26T08:21:25Z</time>
      </trkpt>
      <trkpt lat="46.50096" lon="0.32944">
        <ele>80.2</ele>
        <time>2022-06-26T08:21:26Z</time>
      </trkpt>
      <trkpt lat="46.50086" lon="0.32951">
        <ele>81</ele>
        <time>2022-06-26T08:21:29Z</time>
      </trkpt>
      <trkpt lat="46.5008" lon="0.32953">
        <ele>81.2</ele>
        <time>2022-06-26T08:21:31Z</time>
      </trkpt>
      <trkpt lat="46.50077" lon="0.32955">
        <ele>81.4</ele>
        <time>2022-06-26T08:21:32Z</time>
      </trkpt>
      <trkpt lat="46.50065" lon="0.32959">
        <ele>82</ele>
        <time>2022-06-26T08:21:37Z</time>
      </trkpt>
      <trkpt lat="46.50058" lon="0.32962">
        <ele>82.6</ele>
        <time>2022-06-26T08:21:39Z</time>
      </trkpt>
      <trkpt lat="46.50046" lon="0.32973">
        <ele>83.6</ele>
        <time>2022-06-26T08:21:43Z</time>
      </trkpt>
      <trkpt lat="46.50044" lon="0.32976">
        <ele>83.8</ele>
        <time>2022-06-26T08:21:44Z</time>
      </trkpt>
      <trkpt lat="46.50035" lon="0.32996">
        <ele>85</ele>
        <time>2022-06-26T08:21:50Z</time>
      </trkpt>
      <trkpt lat="46.50031" lon="0.33009">
        <ele>86.2</ele>
        <time>2022-06-26T08:21:54Z</time>
      </trkpt>
      <trkpt lat="46.5003" lon="0.33012">
        <ele>86.4</ele>
        <time>2022-06-26T08:21:55Z</time>
      </trkpt>
      <trkpt lat="46.50029" lon="0.33017">
        <ele>86.8</ele>
        <time>2022-06-26T08:21:57Z</time>
      </trkpt>
      <trkpt lat="46.50028" lon="0.33023">
        <ele>87.2</ele>
        <time>2022-06-26T08:21:59Z</time>
      </trkpt>
      <trkpt lat="46.50024" lon="0.33037">
        <ele>88.4</ele>
        <time>2022-06-26T08:22:04Z</time>
      </trkpt>
      <trkpt lat="46.50023" lon="0.3304">
        <ele>88.6</ele>
        <time>2022-06-26T08:22:05Z</time>
      </trkpt>
      <trkpt lat="46.50021" lon="0.33054">
        <ele>89.6</ele>
        <time>2022-06-26T08:22:09Z</time>
      </trkpt>
      <trkpt lat="46.50016" lon="0.33068">
        <ele>90.6</ele>
        <time>2022-06-26T08:22:13Z</time>
      </trkpt>
      <trkpt lat="46.50015" lon="0.33071">
        <ele>90.8</ele>
        <time>2022-06-26T08:22:14Z</time>
      </trkpt>
      <trkpt lat="46.50013" lon="0.33073">
        <ele>90.8</ele>
        <time>2022-06-26T08:22:15Z</time>
      </trkpt>
      <trkpt lat="46.50009" lon="0.33073">
        <ele>91.4</ele>
        <time>2022-06-26T08:22:17Z</time>
      </trkpt>
      <trkpt lat="46.50005" lon="0.33072">
        <ele>91.8</ele>
        <time>2022-06-26T08:22:19Z</time>
      </trkpt>
      <trkpt lat="46.49993" lon="0.33068">
        <ele>92.6</ele>
        <time>2022-06-26T08:22:24Z</time>
      </trkpt>
      <trkpt lat="46.49988" lon="0.33066">
        <ele>93</ele>
        <time>2022-06-26T08:22:26Z</time>
      </trkpt>
      <trkpt lat="46.49974" lon="0.33059">
        <ele>94</ele>
        <time>2022-06-26T08:22:32Z</time>
      </trkpt>
      <trkpt lat="46.49959" lon="0.33051">
        <ele>94.6</ele>
        <time>2022-06-26T08:22:38Z</time>
      </trkpt>
      <trkpt lat="46.49949" lon="0.3305">
        <ele>95.2</ele>
        <time>2022-06-26T08:22:42Z</time>
      </trkpt>
      <trkpt lat="46.49946" lon="0.3305">
        <ele>95.4</ele>
        <time>2022-06-26T08:22:44Z</time>
      </trkpt>
      <trkpt lat="46.49935" lon="0.33051">
        <ele>96.2</ele>
        <time>2022-06-26T08:22:49Z</time>
      </trkpt>
      <trkpt lat="46.49926" lon="0.3305">
        <ele>96.6</ele>
        <time>2022-06-26T08:22:52Z</time>
      </trkpt>
      <trkpt lat="46.49916" lon="0.33049">
        <ele>97.2</ele>
        <time>2022-06-26T08:22:56Z</time>
      </trkpt>
      <trkpt lat="46.4991" lon="0.3305">
        <ele>97.6</ele>
        <time>2022-06-26T08:22:59Z</time>
      </trkpt>
      <trkpt lat="46.49893" lon="0.33049">
        <ele>98.2</ele>
        <time>2022-06-26T08:23:05Z</time>
      </trkpt>
      <trkpt lat="46.4988" lon="0.33047">
        <ele>98.4</ele>
        <time>2022-06-26T08:23:09Z</time>
      </trkpt>
      <trkpt lat="46.4987" lon="0.33044">
        <ele>98.4</ele>
        <time>2022-06-26T08:23:11Z</time>
      </trkpt>
      <trkpt lat="46.49832" lon="0.33035">
        <ele>97.8</ele>
        <time>2022-06-26T08:23:20Z</time>
      </trkpt>
      <trkpt lat="46.49818" lon="0.33032">
        <ele>97.2</ele>
        <time>2022-06-26T08:23:23Z</time>
      </trkpt>
      <trkpt lat="46.49796" lon="0.33029">
        <ele>96.8</ele>
        <time>2022-06-26T08:23:27Z</time>
      </trkpt>
      <trkpt lat="46.49791" lon="0.33027">
        <ele>96.2</ele>
        <time>2022-06-26T08:23:28Z</time>
      </trkpt>
      <trkpt lat="46.49773" lon="0.3302">
        <ele>95</ele>
        <time>2022-06-26T08:23:31Z</time>
      </trkpt>
      <trkpt lat="46.49758" lon="0.33014">
        <ele>94.8</ele>
        <time>2022-06-26T08:23:33Z</time>
      </trkpt>
      <trkpt lat="46.49736" lon="0.33005">
        <ele>93.6</ele>
        <time>2022-06-26T08:23:36Z</time>
      </trkpt>
      <trkpt lat="46.49718" lon="0.32999">
        <ele>92.4</ele>
        <time>2022-06-26T08:23:38Z</time>
      </trkpt>
      <trkpt lat="46.49701" lon="0.32997">
        <ele>91</ele>
        <time>2022-06-26T08:23:40Z</time>
      </trkpt>
      <trkpt lat="46.49686" lon="0.32998">
        <ele>89.8</ele>
        <time>2022-06-26T08:23:42Z</time>
      </trkpt>
      <trkpt lat="46.49664" lon="0.32999">
        <ele>88.4</ele>
        <time>2022-06-26T08:23:45Z</time>
      </trkpt>
      <trkpt lat="46.49639" lon="0.33003">
        <ele>87.2</ele>
        <time>2022-06-26T08:23:48Z</time>
      </trkpt>
      <trkpt lat="46.49614" lon="0.3301">
        <ele>85.6</ele>
        <time>2022-06-26T08:23:51Z</time>
      </trkpt>
      <trkpt lat="46.496" lon="0.33014">
        <ele>84.6</ele>
        <time>2022-06-26T08:23:53Z</time>
      </trkpt>
      <trkpt lat="46.49592" lon="0.33014">
        <ele>83.8</ele>
        <time>2022-06-26T08:23:55Z</time>
      </trkpt>
      <trkpt lat="46.49589" lon="0.33014">
        <ele>83.6</ele>
        <time>2022-06-26T08:23:56Z</time>
      </trkpt>
      <trkpt lat="46.49588" lon="0.33015">
        <ele>83.4</ele>
        <time>2022-06-26T08:23:57Z</time>
      </trkpt>
      <trkpt lat="46.49585" lon="0.33015">
        <ele>83.2</ele>
        <time>2022-06-26T08:24:00Z</time>
      </trkpt>
      <trkpt lat="46.49581" lon="0.33016">
        <ele>83</ele>
        <time>2022-06-26T08:24:03Z</time>
      </trkpt>
      <trkpt lat="46.4957" lon="0.33016">
        <ele>83.2</ele>
        <time>2022-06-26T08:24:09Z</time>
      </trkpt>
      <trkpt lat="46.49549" lon="0.33023">
        <ele>83.8</ele>
        <time>2022-06-26T08:24:15Z</time>
      </trkpt>
      <trkpt lat="46.49532" lon="0.3303">
        <ele>84</ele>
        <time>2022-06-26T08:24:19Z</time>
      </trkpt>
      <trkpt lat="46.49527" lon="0.33031">
        <ele>84.2</ele>
        <time>2022-06-26T08:24:20Z</time>
      </trkpt>
      <trkpt lat="46.49507" lon="0.33038">
        <ele>84.4</ele>
        <time>2022-06-26T08:24:24Z</time>
      </trkpt>
      <trkpt lat="46.49497" lon="0.3304">
        <ele>84.6</ele>
        <time>2022-06-26T08:24:26Z</time>
      </trkpt>
      <trkpt lat="46.49493" lon="0.33042">
        <ele>84.8</ele>
        <time>2022-06-26T08:24:27Z</time>
      </trkpt>
      <trkpt lat="46.49484" lon="0.33046">
        <ele>85</ele>
        <time>2022-06-26T08:24:29Z</time>
      </trkpt>
      <trkpt lat="46.4947" lon="0.33055">
        <ele>85.2</ele>
        <time>2022-06-26T08:24:33Z</time>
      </trkpt>
      <trkpt lat="46.49462" lon="0.33059">
        <ele>85</ele>
        <time>2022-06-26T08:24:35Z</time>
      </trkpt>
      <trkpt lat="46.49449" lon="0.33068">
        <ele>85</ele>
        <time>2022-06-26T08:24:38Z</time>
      </trkpt>
      <trkpt lat="46.49444" lon="0.33071">
        <ele>85</ele>
        <time>2022-06-26T08:24:39Z</time>
      </trkpt>
      <trkpt lat="46.49431" lon="0.3308">
        <ele>84.8</ele>
        <time>2022-06-26T08:24:42Z</time>
      </trkpt>
      <trkpt lat="46.49417" lon="0.33093">
        <ele>84.6</ele>
        <time>2022-06-26T08:24:45Z</time>
      </trkpt>
      <trkpt lat="46.49409" lon="0.33103">
        <ele>84.4</ele>
        <time>2022-06-26T08:24:47Z</time>
      </trkpt>
      <trkpt lat="46.49396" lon="0.3312">
        <ele>84</ele>
        <time>2022-06-26T08:24:50Z</time>
      </trkpt>
      <trkpt lat="46.49367" lon="0.33161">
        <ele>83.4</ele>
        <time>2022-06-26T08:24:57Z</time>
      </trkpt>
      <trkpt lat="46.49364" lon="0.33165">
        <ele>83.4</ele>
        <time>2022-06-26T08:24:58Z</time>
      </trkpt>
      <trkpt lat="46.49358" lon="0.3317">
        <ele>83.4</ele>
        <time>2022-06-26T08:25:00Z</time>
      </trkpt>
      <trkpt lat="46.49354" lon="0.33174">
        <ele>83.4</ele>
        <time>2022-06-26T08:25:01Z</time>
      </trkpt>
      <trkpt lat="46.49331" lon="0.33206">
        <ele>83.6</ele>
        <time>2022-06-26T08:25:07Z</time>
      </trkpt>
      <trkpt lat="46.49325" lon="0.33215">
        <ele>83.4</ele>
        <time>2022-06-26T08:25:09Z</time>
      </trkpt>
      <trkpt lat="46.4932" lon="0.33216">
        <ele>83.2</ele>
        <time>2022-06-26T08:25:11Z</time>
      </trkpt>
      <trkpt lat="46.49318" lon="0.33214">
        <ele>83</ele>
        <time>2022-06-26T08:25:12Z</time>
      </trkpt>
      <trkpt lat="46.49316" lon="0.33209">
        <ele>82.4</ele>
        <time>2022-06-26T08:25:13Z</time>
      </trkpt>
      <trkpt lat="46.49314" lon="0.33203">
        <ele>82</ele>
        <time>2022-06-26T08:25:14Z</time>
      </trkpt>
      <trkpt lat="46.49311" lon="0.33196">
        <ele>80.8</ele>
        <time>2022-06-26T08:25:15Z</time>
      </trkpt>
      <trkpt lat="46.49302" lon="0.33177">
        <ele>79</ele>
        <time>2022-06-26T08:25:17Z</time>
      </trkpt>
      <trkpt lat="46.49298" lon="0.33168">
        <ele>77.4</ele>
        <time>2022-06-26T08:25:18Z</time>
      </trkpt>
      <trkpt lat="46.49294" lon="0.33159">
        <ele>75.8</ele>
        <time>2022-06-26T08:25:19Z</time>
      </trkpt>
      <trkpt lat="46.49288" lon="0.33146">
        <ele>74</ele>
        <time>2022-06-26T08:25:20Z</time>
      </trkpt>
      <trkpt lat="46.49284" lon="0.33136">
        <ele>72.4</ele>
        <time>2022-06-26T08:25:21Z</time>
      </trkpt>
      <trkpt lat="46.4928" lon="0.33127">
        <ele>71.6</ele>
        <time>2022-06-26T08:25:22Z</time>
      </trkpt>
      <trkpt lat="46.4927" lon="0.33113">
        <ele>70.2</ele>
        <time>2022-06-26T08:25:23Z</time>
      </trkpt>
      <trkpt lat="46.49262" lon="0.33106">
        <ele>69</ele>
        <time>2022-06-26T08:25:24Z</time>
      </trkpt>
      <trkpt lat="46.49257" lon="0.33104">
        <ele>68</ele>
        <time>2022-06-26T08:25:25Z</time>
      </trkpt>
      <trkpt lat="46.49253" lon="0.33103">
        <ele>67.6</ele>
        <time>2022-06-26T08:25:26Z</time>
      </trkpt>
      <trkpt lat="46.49234" lon="0.33101">
        <ele>67.2</ele>
        <time>2022-06-26T08:25:30Z</time>
      </trkpt>
      <trkpt lat="46.49206" lon="0.33108">
        <ele>67</ele>
        <time>2022-06-26T08:25:35Z</time>
      </trkpt>
      <trkpt lat="46.49201" lon="0.33111">
        <ele>67</ele>
        <time>2022-06-26T08:25:36Z</time>
      </trkpt>
      <trkpt lat="46.49181" lon="0.33123">
        <ele>67.2</ele>
        <time>2022-06-26T08:25:40Z</time>
      </trkpt>
      <trkpt lat="46.49154" lon="0.33135">
        <ele>66.8</ele>
        <time>2022-06-26T08:25:46Z</time>
      </trkpt>
      <trkpt lat="46.49121" lon="0.33147">
        <ele>68.6</ele>
        <time>2022-06-26T08:25:54Z</time>
      </trkpt>
      <trkpt lat="46.49114" lon="0.33151">
        <ele>68.6</ele>
        <time>2022-06-26T08:25:56Z</time>
      </trkpt>
      <trkpt lat="46.4909" lon="0.33162">
        <ele>69</ele>
        <time>2022-06-26T08:26:02Z</time>
      </trkpt>
      <trkpt lat="46.49071" lon="0.33162">
        <ele>69.2</ele>
        <time>2022-06-26T08:26:07Z</time>
      </trkpt>
      <trkpt lat="46.49069" lon="0.33158">
        <ele>69.6</ele>
        <time>2022-06-26T08:26:08Z</time>
      </trkpt>
      <trkpt lat="46.49067" lon="0.33153">
        <ele>69.8</ele>
        <time>2022-06-26T08:26:09Z</time>
      </trkpt>
      <trkpt lat="46.49068" lon="0.33147">
        <ele>69.8</ele>
        <time>2022-06-26T08:26:10Z</time>
      </trkpt>
      <trkpt lat="46.49066" lon="0.33101">
        <ele>70</ele>
        <time>2022-06-26T08:26:17Z</time>
      </trkpt>
      <trkpt lat="46.49064" lon="0.3305">
        <ele>69.8</ele>
        <time>2022-06-26T08:26:25Z</time>
      </trkpt>
      <trkpt lat="46.49063" lon="0.33021">
        <ele>69.6</ele>
        <time>2022-06-26T08:26:30Z</time>
      </trkpt>
      <trkpt lat="46.49063" lon="0.33015">
        <ele>69.6</ele>
        <time>2022-06-26T08:26:31Z</time>
      </trkpt>
      <trkpt lat="46.49062" lon="0.32995">
        <ele>69.6</ele>
        <time>2022-06-26T08:26:34Z</time>
      </trkpt>
      <trkpt lat="46.49056" lon="0.32982">
        <ele>69.6</ele>
        <time>2022-06-26T08:26:37Z</time>
      </trkpt>
      <trkpt lat="46.49046" lon="0.3298">
        <ele>69.6</ele>
        <time>2022-06-26T08:26:40Z</time>
      </trkpt>
      <trkpt lat="46.49015" lon="0.32976">
        <ele>69</ele>
        <time>2022-06-26T08:26:46Z</time>
      </trkpt>
      <trkpt lat="46.48984" lon="0.3297">
        <ele>69</ele>
        <time>2022-06-26T08:26:52Z</time>
      </trkpt>
      <trkpt lat="46.4898" lon="0.3297">
        <ele>69</ele>
        <time>2022-06-26T08:26:53Z</time>
      </trkpt>
      <trkpt lat="46.48977" lon="0.32973">
        <ele>69</ele>
        <time>2022-06-26T08:26:54Z</time>
      </trkpt>
      <trkpt lat="46.48973" lon="0.32982">
        <ele>69.2</ele>
        <time>2022-06-26T08:26:56Z</time>
      </trkpt>
      <trkpt lat="46.48969" lon="0.33025">
        <ele>69.8</ele>
        <time>2022-06-26T08:27:02Z</time>
      </trkpt>
      <trkpt lat="46.48964" lon="0.33066">
        <ele>70.8</ele>
        <time>2022-06-26T08:27:08Z</time>
      </trkpt>
      <trkpt lat="46.48964" lon="0.33078">
        <ele>71.2</ele>
        <time>2022-06-26T08:27:10Z</time>
      </trkpt>
      <trkpt lat="46.48961" lon="0.33101">
        <ele>71.8</ele>
        <time>2022-06-26T08:27:14Z</time>
      </trkpt>
      <trkpt lat="46.48959" lon="0.33117">
        <ele>72.6</ele>
        <time>2022-06-26T08:27:17Z</time>
      </trkpt>
      <trkpt lat="46.48959" lon="0.33117">
        <ele>73.4</ele>
        <time>2022-06-26T08:27:18Z</time>
      </trkpt>
      <trkpt lat="46.48959" lon="0.33147">
        <ele>74.4</ele>
        <time>2022-06-26T08:27:23Z</time>
      </trkpt>
      <trkpt lat="46.48959" lon="0.33162">
        <ele>75</ele>
        <time>2022-06-26T08:27:26Z</time>
      </trkpt>
      <trkpt lat="46.48959" lon="0.33171">
        <ele>75.6</ele>
        <time>2022-06-26T08:27:28Z</time>
      </trkpt>
      <trkpt lat="46.48958" lon="0.33191">
        <ele>76.6</ele>
        <time>2022-06-26T08:27:33Z</time>
      </trkpt>
      <trkpt lat="46.48958" lon="0.3321">
        <ele>78</ele>
        <time>2022-06-26T08:27:38Z</time>
      </trkpt>
      <trkpt lat="46.48958" lon="0.33213">
        <ele>78.2</ele>
        <time>2022-06-26T08:27:39Z</time>
      </trkpt>
      <trkpt lat="46.48961" lon="0.33231">
        <ele>79</ele>
        <time>2022-06-26T08:27:45Z</time>
      </trkpt>
      <trkpt lat="46.48962" lon="0.33242">
        <ele>80.4</ele>
        <time>2022-06-26T08:27:50Z</time>
      </trkpt>
      <trkpt lat="46.48961" lon="0.33245">
        <ele>81</ele>
        <time>2022-06-26T08:27:51Z</time>
      </trkpt>
      <trkpt lat="46.4896" lon="0.33253">
        <ele>81.6</ele>
        <time>2022-06-26T08:27:54Z</time>
      </trkpt>
      <trkpt lat="46.4896" lon="0.33259">
        <ele>82.2</ele>
        <time>2022-06-26T08:27:58Z</time>
      </trkpt>
      <trkpt lat="46.48962" lon="0.3327">
        <ele>82.2</ele>
        <time>2022-06-26T08:28:03Z</time>
      </trkpt>
      <trkpt lat="46.48963" lon="0.33273">
        <ele>81.6</ele>
        <time>2022-06-26T08:28:04Z</time>
      </trkpt>
      <trkpt lat="46.48959" lon="0.33297">
        <ele>81.2</ele>
        <time>2022-06-26T08:28:11Z</time>
      </trkpt>
      <trkpt lat="46.48956" lon="0.33319">
        <ele>81.8</ele>
        <time>2022-06-26T08:28:17Z</time>
      </trkpt>
      <trkpt lat="46.4895" lon="0.33349">
        <ele>82.2</ele>
        <time>2022-06-26T08:28:25Z</time>
      </trkpt>
      <trkpt lat="46.48945" lon="0.33372">
        <ele>81.8</ele>
        <time>2022-06-26T08:28:30Z</time>
      </trkpt>
      <trkpt lat="46.48939" lon="0.33412">
        <ele>82</ele>
        <time>2022-06-26T08:28:37Z</time>
      </trkpt>
      <trkpt lat="46.48938" lon="0.33424">
        <ele>82.2</ele>
        <time>2022-06-26T08:28:39Z</time>
      </trkpt>
      <trkpt lat="46.48938" lon="0.33436">
        <ele>82</ele>
        <time>2022-06-26T08:28:41Z</time>
      </trkpt>
      <trkpt lat="46.48938" lon="0.33456">
        <ele>81.8</ele>
        <time>2022-06-26T08:28:44Z</time>
      </trkpt>
      <trkpt lat="46.48938" lon="0.33462">
        <ele>81.6</ele>
        <time>2022-06-26T08:28:45Z</time>
      </trkpt>
      <trkpt lat="46.48936" lon="0.33485">
        <ele>81.4</ele>
        <time>2022-06-26T08:28:49Z</time>
      </trkpt>
      <trkpt lat="46.48932" lon="0.33514">
        <ele>81.4</ele>
        <time>2022-06-26T08:28:53Z</time>
      </trkpt>
      <trkpt lat="46.4893" lon="0.3352">
        <ele>81.4</ele>
        <time>2022-06-26T08:28:54Z</time>
      </trkpt>
      <trkpt lat="46.48928" lon="0.33526">
        <ele>81.4</ele>
        <time>2022-06-26T08:28:55Z</time>
      </trkpt>
      <trkpt lat="46.4892" lon="0.33556">
        <ele>81.8</ele>
        <time>2022-06-26T08:29:00Z</time>
      </trkpt>
      <trkpt lat="46.48906" lon="0.33588">
        <ele>81.6</ele>
        <time>2022-06-26T08:29:06Z</time>
      </trkpt>
      <trkpt lat="46.48897" lon="0.33605">
        <ele>81.8</ele>
        <time>2022-06-26T08:29:10Z</time>
      </trkpt>
      <trkpt lat="46.48888" lon="0.3362">
        <ele>81.8</ele>
        <time>2022-06-26T08:29:13Z</time>
      </trkpt>
      <trkpt lat="46.48882" lon="0.33632">
        <ele>81.8</ele>
        <time>2022-06-26T08:29:16Z</time>
      </trkpt>
      <trkpt lat="46.48873" lon="0.33648">
        <ele>82.2</ele>
        <time>2022-06-26T08:29:19Z</time>
      </trkpt>
      <trkpt lat="46.4886" lon="0.33674">
        <ele>81.6</ele>
        <time>2022-06-26T08:29:24Z</time>
      </trkpt>
      <trkpt lat="46.48843" lon="0.33706">
        <ele>81.6</ele>
        <time>2022-06-26T08:29:29Z</time>
      </trkpt>
      <trkpt lat="46.4884" lon="0.33715">
        <ele>81.6</ele>
        <time>2022-06-26T08:29:31Z</time>
      </trkpt>
      <trkpt lat="46.48831" lon="0.33733">
        <ele>81.6</ele>
        <time>2022-06-26T08:29:34Z</time>
      </trkpt>
      <trkpt lat="46.48818" lon="0.33762">
        <ele>81.8</ele>
        <time>2022-06-26T08:29:39Z</time>
      </trkpt>
      <trkpt lat="46.48816" lon="0.33768">
        <ele>81.8</ele>
        <time>2022-06-26T08:29:40Z</time>
      </trkpt>
      <trkpt lat="46.48815" lon="0.33772">
        <ele>81.8</ele>
        <time>2022-06-26T08:29:41Z</time>
      </trkpt>
      <trkpt lat="46.4881" lon="0.33787">
        <ele>81.6</ele>
        <time>2022-06-26T08:29:44Z</time>
      </trkpt>
      <trkpt lat="46.48807" lon="0.33797">
        <ele>81.6</ele>
        <time>2022-06-26T08:29:46Z</time>
      </trkpt>
      <trkpt lat="46.488" lon="0.33816">
        <ele>81.4</ele>
        <time>2022-06-26T08:29:50Z</time>
      </trkpt>
      <trkpt lat="46.48795" lon="0.33827">
        <ele>81.6</ele>
        <time>2022-06-26T08:29:52Z</time>
      </trkpt>
      <trkpt lat="46.48781" lon="0.33866">
        <ele>81.8</ele>
        <time>2022-06-26T08:29:58Z</time>
      </trkpt>
      <trkpt lat="46.48768" lon="0.33907">
        <ele>82</ele>
        <time>2022-06-26T08:30:04Z</time>
      </trkpt>
      <trkpt lat="46.48752" lon="0.33954">
        <ele>81.8</ele>
        <time>2022-06-26T08:30:11Z</time>
      </trkpt>
      <trkpt lat="46.48745" lon="0.33971">
        <ele>81.2</ele>
        <time>2022-06-26T08:30:16Z</time>
      </trkpt>
      <trkpt lat="46.48745" lon="0.33974">
        <ele>80.8</ele>
        <time>2022-06-26T08:30:19Z</time>
      </trkpt>
      <trkpt lat="46.48747" lon="0.33974">
        <ele>80.6</ele>
        <time>2022-06-26T08:30:21Z</time>
      </trkpt>
      <trkpt lat="46.48748" lon="0.33975">
        <ele>80.6</ele>
        <time>2022-06-26T08:30:22Z</time>
      </trkpt>
      <trkpt lat="46.48757" lon="0.33976">
        <ele>80.2</ele>
        <time>2022-06-26T08:30:26Z</time>
      </trkpt>
      <trkpt lat="46.48759" lon="0.33977">
        <ele>80.2</ele>
        <time>2022-06-26T08:30:27Z</time>
      </trkpt>
      <trkpt lat="46.4877" lon="0.33986">
        <ele>79.6</ele>
        <time>2022-06-26T08:30:30Z</time>
      </trkpt>
      <trkpt lat="46.48774" lon="0.33989">
        <ele>79.4</ele>
        <time>2022-06-26T08:30:31Z</time>
      </trkpt>
      <trkpt lat="46.4879" lon="0.34004">
        <ele>79.2</ele>
        <time>2022-06-26T08:30:35Z</time>
      </trkpt>
      <trkpt lat="46.48792" lon="0.34008">
        <ele>79.4</ele>
        <time>2022-06-26T08:30:36Z</time>
      </trkpt>
      <trkpt lat="46.48804" lon="0.34027">
        <ele>78.4</ele>
        <time>2022-06-26T08:30:41Z</time>
      </trkpt>
      <trkpt lat="46.48808" lon="0.34031">
        <ele>78.2</ele>
        <time>2022-06-26T08:30:42Z</time>
      </trkpt>
      <trkpt lat="46.48816" lon="0.34036">
        <ele>78.2</ele>
        <time>2022-06-26T08:30:47Z</time>
      </trkpt>
      <trkpt lat="46.48818" lon="0.34037">
        <ele>78.2</ele>
        <time>2022-06-26T08:30:48Z</time>
      </trkpt>
      <trkpt lat="46.4882" lon="0.34038">
        <ele>78.2</ele>
        <time>2022-06-26T08:30:49Z</time>
      </trkpt>
      <trkpt lat="46.48822" lon="0.3404">
        <ele>78.2</ele>
        <time>2022-06-26T08:30:50Z</time>
      </trkpt>
      <trkpt lat="46.48849" lon="0.34071">
        <ele>78.4</ele>
        <time>2022-06-26T08:30:56Z</time>
      </trkpt>
      <trkpt lat="46.48871" lon="0.34084">
        <ele>78.4</ele>
        <time>2022-06-26T08:31:00Z</time>
      </trkpt>
      <trkpt lat="46.48884" lon="0.34098">
        <ele>78.2</ele>
        <time>2022-06-26T08:31:04Z</time>
      </trkpt>
      <trkpt lat="46.48901" lon="0.34105">
        <ele>79</ele>
        <time>2022-06-26T08:31:11Z</time>
      </trkpt>
      <trkpt lat="46.4891" lon="0.34108">
        <ele>79.8</ele>
        <time>2022-06-26T08:31:15Z</time>
      </trkpt>
      <trkpt lat="46.48919" lon="0.34113">
        <ele>81.2</ele>
        <time>2022-06-26T08:31:18Z</time>
      </trkpt>
      <trkpt lat="46.48924" lon="0.34117">
        <ele>81.8</ele>
        <time>2022-06-26T08:31:20Z</time>
      </trkpt>
      <trkpt lat="46.48926" lon="0.34119">
        <ele>82.2</ele>
        <time>2022-06-26T08:31:21Z</time>
      </trkpt>
      <trkpt lat="46.48936" lon="0.34132">
        <ele>83.4</ele>
        <time>2022-06-26T08:31:25Z</time>
      </trkpt>
      <trkpt lat="46.48941" lon="0.34141">
        <ele>84.2</ele>
        <time>2022-06-26T08:31:28Z</time>
      </trkpt>
      <trkpt lat="46.48951" lon="0.34159">
        <ele>84.6</ele>
        <time>2022-06-26T08:31:34Z</time>
      </trkpt>
      <trkpt lat="46.48957" lon="0.34168">
        <ele>84.8</ele>
        <time>2022-06-26T08:31:36Z</time>
      </trkpt>
      <trkpt lat="46.48978" lon="0.34197">
        <ele>84.6</ele>
        <time>2022-06-26T08:31:42Z</time>
      </trkpt>
      <trkpt lat="46.49008" lon="0.3425">
        <ele>84.2</ele>
        <time>2022-06-26T08:31:50Z</time>
      </trkpt>
      <trkpt lat="46.49017" lon="0.34271">
        <ele>84.4</ele>
        <time>2022-06-26T08:31:53Z</time>
      </trkpt>
      <trkpt lat="46.49023" lon="0.34288">
        <ele>84.6</ele>
        <time>2022-06-26T08:31:56Z</time>
      </trkpt>
      <trkpt lat="46.49026" lon="0.343">
        <ele>84.6</ele>
        <time>2022-06-26T08:31:58Z</time>
      </trkpt>
      <trkpt lat="46.49033" lon="0.34324">
        <ele>84.8</ele>
        <time>2022-06-26T08:32:02Z</time>
      </trkpt>
      <trkpt lat="46.49042" lon="0.34339">
        <ele>84.8</ele>
        <time>2022-06-26T08:32:04Z</time>
      </trkpt>
      <trkpt lat="46.49052" lon="0.34355">
        <ele>85</ele>
        <time>2022-06-26T08:32:07Z</time>
      </trkpt>
      <trkpt lat="46.49055" lon="0.3436">
        <ele>85.2</ele>
        <time>2022-06-26T08:32:08Z</time>
      </trkpt>
      <trkpt lat="46.49066" lon="0.34383">
        <ele>85.8</ele>
        <time>2022-06-26T08:32:13Z</time>
      </trkpt>
      <trkpt lat="46.4907" lon="0.34393">
        <ele>86.2</ele>
        <time>2022-06-26T08:32:15Z</time>
      </trkpt>
      <trkpt lat="46.49079" lon="0.34413">
        <ele>87</ele>
        <time>2022-06-26T08:32:19Z</time>
      </trkpt>
      <trkpt lat="46.49096" lon="0.34444">
        <ele>88.2</ele>
        <time>2022-06-26T08:32:24Z</time>
      </trkpt>
      <trkpt lat="46.49098" lon="0.3445">
        <ele>88.4</ele>
        <time>2022-06-26T08:32:25Z</time>
      </trkpt>
      <trkpt lat="46.49107" lon="0.34477">
        <ele>89.2</ele>
        <time>2022-06-26T08:32:30Z</time>
      </trkpt>
      <trkpt lat="46.49108" lon="0.34482">
        <ele>89.2</ele>
        <time>2022-06-26T08:32:31Z</time>
      </trkpt>
      <trkpt lat="46.49114" lon="0.34503">
        <ele>90.4</ele>
        <time>2022-06-26T08:32:36Z</time>
      </trkpt>
      <trkpt lat="46.49118" lon="0.34512">
        <ele>91</ele>
        <time>2022-06-26T08:32:39Z</time>
      </trkpt>
      <trkpt lat="46.49126" lon="0.34526">
        <ele>91.6</ele>
        <time>2022-06-26T08:32:43Z</time>
      </trkpt>
      <trkpt lat="46.49131" lon="0.34538">
        <ele>92.2</ele>
        <time>2022-06-26T08:32:46Z</time>
      </trkpt>
      <trkpt lat="46.49132" lon="0.34541">
        <ele>92.6</ele>
        <time>2022-06-26T08:32:47Z</time>
      </trkpt>
      <trkpt lat="46.49139" lon="0.34556">
        <ele>93.6</ele>
        <time>2022-06-26T08:32:52Z</time>
      </trkpt>
      <trkpt lat="46.4914" lon="0.34562">
        <ele>94.4</ele>
        <time>2022-06-26T08:32:54Z</time>
      </trkpt>
      <trkpt lat="46.49141" lon="0.34565">
        <ele>94.6</ele>
        <time>2022-06-26T08:32:55Z</time>
      </trkpt>
      <trkpt lat="46.49141" lon="0.34568">
        <ele>94.8</ele>
        <time>2022-06-26T08:32:56Z</time>
      </trkpt>
      <trkpt lat="46.49146" lon="0.34576">
        <ele>96.2</ele>
        <time>2022-06-26T08:33:00Z</time>
      </trkpt>
      <trkpt lat="46.49152" lon="0.34581">
        <ele>97</ele>
        <time>2022-06-26T08:33:03Z</time>
      </trkpt>
      <trkpt lat="46.49157" lon="0.34588">
        <ele>97.2</ele>
        <time>2022-06-26T08:33:05Z</time>
      </trkpt>
      <trkpt lat="46.49173" lon="0.34604">
        <ele>98.2</ele>
        <time>2022-06-26T08:33:11Z</time>
      </trkpt>
      <trkpt lat="46.49176" lon="0.34606">
        <ele>98.4</ele>
        <time>2022-06-26T08:33:12Z</time>
      </trkpt>
      <trkpt lat="46.49189" lon="0.34616">
        <ele>99</ele>
        <time>2022-06-26T08:33:18Z</time>
      </trkpt>
      <trkpt lat="46.49197" lon="0.34624">
        <ele>99.4</ele>
        <time>2022-06-26T08:33:21Z</time>
      </trkpt>
      <trkpt lat="46.49207" lon="0.34636">
        <ele>99.8</ele>
        <time>2022-06-26T08:33:25Z</time>
      </trkpt>
      <trkpt lat="46.49225" lon="0.34656">
        <ele>100.4</ele>
        <time>2022-06-26T08:33:32Z</time>
      </trkpt>
      <trkpt lat="46.49231" lon="0.34662">
        <ele>100.6</ele>
        <time>2022-06-26T08:33:34Z</time>
      </trkpt>
      <trkpt lat="46.49254" lon="0.3469">
        <ele>101.6</ele>
        <time>2022-06-26T08:33:43Z</time>
      </trkpt>
      <trkpt lat="46.49261" lon="0.34705">
        <ele>102</ele>
        <time>2022-06-26T08:33:47Z</time>
      </trkpt>
      <trkpt lat="46.49262" lon="0.34711">
        <ele>102.4</ele>
        <time>2022-06-26T08:33:49Z</time>
      </trkpt>
      <trkpt lat="46.49261" lon="0.34713">
        <ele>102.4</ele>
        <time>2022-06-26T08:33:50Z</time>
      </trkpt>
      <trkpt lat="46.49257" lon="0.34721">
        <ele>102.4</ele>
        <time>2022-06-26T08:33:53Z</time>
      </trkpt>
      <trkpt lat="46.49245" lon="0.34735">
        <ele>101.8</ele>
        <time>2022-06-26T08:33:59Z</time>
      </trkpt>
      <trkpt lat="46.4924" lon="0.3474">
        <ele>101.6</ele>
        <time>2022-06-26T08:34:02Z</time>
      </trkpt>
      <trkpt lat="46.49238" lon="0.34744">
        <ele>101.4</ele>
        <time>2022-06-26T08:34:04Z</time>
      </trkpt>
      <trkpt lat="46.49231" lon="0.34757">
        <ele>101.2</ele>
        <time>2022-06-26T08:34:07Z</time>
      </trkpt>
      <trkpt lat="46.4923" lon="0.34763">
        <ele>101</ele>
        <time>2022-06-26T08:34:08Z</time>
      </trkpt>
      <trkpt lat="46.49227" lon="0.34774">
        <ele>101</ele>
        <time>2022-06-26T08:34:10Z</time>
      </trkpt>
      <trkpt lat="46.49224" lon="0.34782">
        <ele>101</ele>
        <time>2022-06-26T08:34:11Z</time>
      </trkpt>
      <trkpt lat="46.4921" lon="0.34818">
        <ele>101.6</ele>
        <time>2022-06-26T08:34:17Z</time>
      </trkpt>
      <trkpt lat="46.49196" lon="0.34849">
        <ele>102.4</ele>
        <time>2022-06-26T08:34:23Z</time>
      </trkpt>
      <trkpt lat="46.49191" lon="0.34859">
        <ele>102.6</ele>
        <time>2022-06-26T08:34:25Z</time>
      </trkpt>
      <trkpt lat="46.4918" lon="0.34878">
        <ele>103</ele>
        <time>2022-06-26T08:34:29Z</time>
      </trkpt>
      <trkpt lat="46.49162" lon="0.34909">
        <ele>103.4</ele>
        <time>2022-06-26T08:34:34Z</time>
      </trkpt>
      <trkpt lat="46.49156" lon="0.3492">
        <ele>103.8</ele>
        <time>2022-06-26T08:34:36Z</time>
      </trkpt>
      <trkpt lat="46.49139" lon="0.34946">
        <ele>104.8</ele>
        <time>2022-06-26T08:34:41Z</time>
      </trkpt>
      <trkpt lat="46.49133" lon="0.34954">
        <ele>105.2</ele>
        <time>2022-06-26T08:34:43Z</time>
      </trkpt>
      <trkpt lat="46.49123" lon="0.34966">
        <ele>105.6</ele>
        <time>2022-06-26T08:34:46Z</time>
      </trkpt>
      <trkpt lat="46.49108" lon="0.3498">
        <ele>105.6</ele>
        <time>2022-06-26T08:34:50Z</time>
      </trkpt>
      <trkpt lat="46.491" lon="0.34988">
        <ele>106</ele>
        <time>2022-06-26T08:34:52Z</time>
      </trkpt>
      <trkpt lat="46.49083" lon="0.3501">
        <ele>106.2</ele>
        <time>2022-06-26T08:34:57Z</time>
      </trkpt>
      <trkpt lat="46.49055" lon="0.35051">
        <ele>106.8</ele>
        <time>2022-06-26T08:35:04Z</time>
      </trkpt>
      <trkpt lat="46.4904" lon="0.35078">
        <ele>106.8</ele>
        <time>2022-06-26T08:35:08Z</time>
      </trkpt>
      <trkpt lat="46.49036" lon="0.35091">
        <ele>106.6</ele>
        <time>2022-06-26T08:35:10Z</time>
      </trkpt>
      <trkpt lat="46.49034" lon="0.35098">
        <ele>106.8</ele>
        <time>2022-06-26T08:35:11Z</time>
      </trkpt>
      <trkpt lat="46.49026" lon="0.35133">
        <ele>107</ele>
        <time>2022-06-26T08:35:16Z</time>
      </trkpt>
      <trkpt lat="46.49024" lon="0.35141">
        <ele>107</ele>
        <time>2022-06-26T08:35:17Z</time>
      </trkpt>
      <trkpt lat="46.49009" lon="0.35181">
        <ele>107.2</ele>
        <time>2022-06-26T08:35:22Z</time>
      </trkpt>
      <trkpt lat="46.48991" lon="0.3524">
        <ele>107</ele>
        <time>2022-06-26T08:35:29Z</time>
      </trkpt>
      <trkpt lat="46.48988" lon="0.35288">
        <ele>106</ele>
        <time>2022-06-26T08:35:35Z</time>
      </trkpt>
      <trkpt lat="46.48983" lon="0.35333">
        <ele>105.6</ele>
        <time>2022-06-26T08:35:40Z</time>
      </trkpt>
      <trkpt lat="46.48979" lon="0.35361">
        <ele>105</ele>
        <time>2022-06-26T08:35:43Z</time>
      </trkpt>
      <trkpt lat="46.48972" lon="0.35402">
        <ele>104</ele>
        <time>2022-06-26T08:35:47Z</time>
      </trkpt>
      <trkpt lat="46.48969" lon="0.35413">
        <ele>103.8</ele>
        <time>2022-06-26T08:35:48Z</time>
      </trkpt>
      <trkpt lat="46.48954" lon="0.35467">
        <ele>102.6</ele>
        <time>2022-06-26T08:35:53Z</time>
      </trkpt>
      <trkpt lat="46.48951" lon="0.35478">
        <ele>102.2</ele>
        <time>2022-06-26T08:35:54Z</time>
      </trkpt>
      <trkpt lat="46.48945" lon="0.35499">
        <ele>101.4</ele>
        <time>2022-06-26T08:35:56Z</time>
      </trkpt>
      <trkpt lat="46.48933" lon="0.35542">
        <ele>100</ele>
        <time>2022-06-26T08:36:00Z</time>
      </trkpt>
      <trkpt lat="46.48927" lon="0.35563">
        <ele>99</ele>
        <time>2022-06-26T08:36:02Z</time>
      </trkpt>
      <trkpt lat="46.4892" lon="0.35584">
        <ele>98.4</ele>
        <time>2022-06-26T08:36:04Z</time>
      </trkpt>
      <trkpt lat="46.48911" lon="0.356">
        <ele>98.2</ele>
        <time>2022-06-26T08:36:06Z</time>
      </trkpt>
      <trkpt lat="46.48911" lon="0.356">
        <ele>97.8</ele>
        <time>2022-06-26T08:36:08Z</time>
      </trkpt>
      <trkpt lat="46.48883" lon="0.3563">
        <ele>98</ele>
        <time>2022-06-26T08:36:12Z</time>
      </trkpt>
      <trkpt lat="46.48876" lon="0.35639">
        <ele>98.6</ele>
        <time>2022-06-26T08:36:14Z</time>
      </trkpt>
      <trkpt lat="46.48872" lon="0.35647">
        <ele>98.8</ele>
        <time>2022-06-26T08:36:16Z</time>
      </trkpt>
      <trkpt lat="46.4887" lon="0.35651">
        <ele>99</ele>
        <time>2022-06-26T08:36:17Z</time>
      </trkpt>
      <trkpt lat="46.48867" lon="0.35659">
        <ele>100</ele>
        <time>2022-06-26T08:36:19Z</time>
      </trkpt>
      <trkpt lat="46.48866" lon="0.35664">
        <ele>100.2</ele>
        <time>2022-06-26T08:36:20Z</time>
      </trkpt>
      <trkpt lat="46.48862" lon="0.35677">
        <ele>100.8</ele>
        <time>2022-06-26T08:36:22Z</time>
      </trkpt>
      <trkpt lat="46.48856" lon="0.35709">
        <ele>101.2</ele>
        <time>2022-06-26T08:36:26Z</time>
      </trkpt>
      <trkpt lat="46.48854" lon="0.35734">
        <ele>101.6</ele>
        <time>2022-06-26T08:36:29Z</time>
      </trkpt>
      <trkpt lat="46.48853" lon="0.35789">
        <ele>102.2</ele>
        <time>2022-06-26T08:36:36Z</time>
      </trkpt>
      <trkpt lat="46.48851" lon="0.35845">
        <ele>102</ele>
        <time>2022-06-26T08:36:43Z</time>
      </trkpt>
      <trkpt lat="46.48848" lon="0.35899">
        <ele>101.6</ele>
        <time>2022-06-26T08:36:49Z</time>
      </trkpt>
      <trkpt lat="46.48846" lon="0.35918">
        <ele>101.2</ele>
        <time>2022-06-26T08:36:51Z</time>
      </trkpt>
      <trkpt lat="46.48844" lon="0.35927">
        <ele>101</ele>
        <time>2022-06-26T08:36:52Z</time>
      </trkpt>
      <trkpt lat="46.48842" lon="0.35947">
        <ele>100.4</ele>
        <time>2022-06-26T08:36:54Z</time>
      </trkpt>
      <trkpt lat="46.48842" lon="0.3598">
        <ele>99.8</ele>
        <time>2022-06-26T08:36:57Z</time>
      </trkpt>
      <trkpt lat="46.48843" lon="0.36002">
        <ele>99</ele>
        <time>2022-06-26T08:36:59Z</time>
      </trkpt>
      <trkpt lat="46.48844" lon="0.36013">
        <ele>98.6</ele>
        <time>2022-06-26T08:37:00Z</time>
      </trkpt>
      <trkpt lat="46.48847" lon="0.36046">
        <ele>97</ele>
        <time>2022-06-26T08:37:03Z</time>
      </trkpt>
      <trkpt lat="46.48849" lon="0.36077">
        <ele>96</ele>
        <time>2022-06-26T08:37:06Z</time>
      </trkpt>
      <trkpt lat="46.48844" lon="0.36099">
        <ele>95.6</ele>
        <time>2022-06-26T08:37:09Z</time>
      </trkpt>
      <trkpt lat="46.48834" lon="0.36105">
        <ele>95.6</ele>
        <time>2022-06-26T08:37:11Z</time>
      </trkpt>
      <trkpt lat="46.4883" lon="0.36107">
        <ele>95.8</ele>
        <time>2022-06-26T08:37:12Z</time>
      </trkpt>
      <trkpt lat="46.48806" lon="0.36122">
        <ele>97</ele>
        <time>2022-06-26T08:37:17Z</time>
      </trkpt>
      <trkpt lat="46.48802" lon="0.36127">
        <ele>97.4</ele>
        <time>2022-06-26T08:37:18Z</time>
      </trkpt>
      <trkpt lat="46.48794" lon="0.36136">
        <ele>98</ele>
        <time>2022-06-26T08:37:20Z</time>
      </trkpt>
      <trkpt lat="46.48782" lon="0.36153">
        <ele>99</ele>
        <time>2022-06-26T08:37:23Z</time>
      </trkpt>
      <trkpt lat="46.48778" lon="0.36159">
        <ele>99.4</ele>
        <time>2022-06-26T08:37:24Z</time>
      </trkpt>
      <trkpt lat="46.48767" lon="0.3618">
        <ele>100.2</ele>
        <time>2022-06-26T08:37:28Z</time>
      </trkpt>
      <trkpt lat="46.48759" lon="0.36194">
        <ele>100.6</ele>
        <time>2022-06-26T08:37:31Z</time>
      </trkpt>
      <trkpt lat="46.48741" lon="0.36233">
        <ele>101.2</ele>
        <time>2022-06-26T08:37:38Z</time>
      </trkpt>
      <trkpt lat="46.48739" lon="0.36239">
        <ele>101.4</ele>
        <time>2022-06-26T08:37:39Z</time>
      </trkpt>
      <trkpt lat="46.48732" lon="0.36268">
        <ele>101.6</ele>
        <time>2022-06-26T08:37:44Z</time>
      </trkpt>
      <trkpt lat="46.4873" lon="0.36279">
        <ele>101.8</ele>
        <time>2022-06-26T08:37:46Z</time>
      </trkpt>
      <trkpt lat="46.48723" lon="0.36317">
        <ele>102.4</ele>
        <time>2022-06-26T08:37:52Z</time>
      </trkpt>
      <trkpt lat="46.48722" lon="0.36324">
        <ele>102.4</ele>
        <time>2022-06-26T08:37:53Z</time>
      </trkpt>
      <trkpt lat="46.48711" lon="0.36372">
        <ele>102.6</ele>
        <time>2022-06-26T08:38:00Z</time>
      </trkpt>
      <trkpt lat="46.48692" lon="0.3642">
        <ele>102.4</ele>
        <time>2022-06-26T08:38:07Z</time>
      </trkpt>
      <trkpt lat="46.48666" lon="0.3647">
        <ele>102.4</ele>
        <time>2022-06-26T08:38:14Z</time>
      </trkpt>
      <trkpt lat="46.48657" lon="0.36493">
        <ele>102</ele>
        <time>2022-06-26T08:38:17Z</time>
      </trkpt>
      <trkpt lat="46.48655" lon="0.36504">
        <ele>101.4</ele>
        <time>2022-06-26T08:38:19Z</time>
      </trkpt>
      <trkpt lat="46.48656" lon="0.36508">
        <ele>101.2</ele>
        <time>2022-06-26T08:38:20Z</time>
      </trkpt>
      <trkpt lat="46.48658" lon="0.36511">
        <ele>101.2</ele>
        <time>2022-06-26T08:38:21Z</time>
      </trkpt>
      <trkpt lat="46.48661" lon="0.36512">
        <ele>101.2</ele>
        <time>2022-06-26T08:38:22Z</time>
      </trkpt>
      <trkpt lat="46.48676" lon="0.3652">
        <ele>101</ele>
        <time>2022-06-26T08:38:27Z</time>
      </trkpt>
      <trkpt lat="46.48709" lon="0.36533">
        <ele>101.2</ele>
        <time>2022-06-26T08:38:35Z</time>
      </trkpt>
      <trkpt lat="46.48738" lon="0.36548">
        <ele>101.6</ele>
        <time>2022-06-26T08:38:42Z</time>
      </trkpt>
      <trkpt lat="46.48754" lon="0.3656">
        <ele>102</ele>
        <time>2022-06-26T08:38:48Z</time>
      </trkpt>
      <trkpt lat="46.48758" lon="0.36564">
        <ele>102.4</ele>
        <time>2022-06-26T08:38:52Z</time>
      </trkpt>
      <trkpt lat="46.48759" lon="0.36565">
        <ele>102.4</ele>
        <time>2022-06-26T08:38:53Z</time>
      </trkpt>
      <trkpt lat="46.48762" lon="0.36562">
        <ele>102.6</ele>
        <time>2022-06-26T08:38:55Z</time>
      </trkpt>
      <trkpt lat="46.48765" lon="0.36555">
        <ele>102.8</ele>
        <time>2022-06-26T08:38:57Z</time>
      </trkpt>
      <trkpt lat="46.48779" lon="0.36522">
        <ele>102.8</ele>
        <time>2022-06-26T08:39:03Z</time>
      </trkpt>
      <trkpt lat="46.488" lon="0.36497">
        <ele>103.2</ele>
        <time>2022-06-26T08:39:09Z</time>
      </trkpt>
      <trkpt lat="46.48805" lon="0.36494">
        <ele>103.4</ele>
        <time>2022-06-26T08:39:10Z</time>
      </trkpt>
      <trkpt lat="46.48829" lon="0.36476">
        <ele>103.4</ele>
        <time>2022-06-26T08:39:15Z</time>
      </trkpt>
      <trkpt lat="46.48877" lon="0.36443">
        <ele>102.8</ele>
        <time>2022-06-26T08:39:24Z</time>
      </trkpt>
      <trkpt lat="46.48915" lon="0.36429">
        <ele>102.2</ele>
        <time>2022-06-26T08:39:30Z</time>
      </trkpt>
      <trkpt lat="46.48927" lon="0.36424">
        <ele>101.8</ele>
        <time>2022-06-26T08:39:32Z</time>
      </trkpt>
      <trkpt lat="46.48968" lon="0.36405">
        <ele>101.4</ele>
        <time>2022-06-26T08:39:39Z</time>
      </trkpt>
      <trkpt lat="46.48979" lon="0.36401">
        <ele>101.2</ele>
        <time>2022-06-26T08:39:41Z</time>
      </trkpt>
      <trkpt lat="46.48985" lon="0.364">
        <ele>101.2</ele>
        <time>2022-06-26T08:39:42Z</time>
      </trkpt>
      <trkpt lat="46.49001" lon="0.36396">
        <ele>101</ele>
        <time>2022-06-26T08:39:45Z</time>
      </trkpt>
      <trkpt lat="46.49044" lon="0.36388">
        <ele>100.8</ele>
        <time>2022-06-26T08:39:53Z</time>
      </trkpt>
      <trkpt lat="46.49081" lon="0.36384">
        <ele>100</ele>
        <time>2022-06-26T08:40:00Z</time>
      </trkpt>
      <trkpt lat="46.49086" lon="0.36383">
        <ele>100</ele>
        <time>2022-06-26T08:40:01Z</time>
      </trkpt>
      <trkpt lat="46.49108" lon="0.36371">
        <ele>99.8</ele>
        <time>2022-06-26T08:40:06Z</time>
      </trkpt>
      <trkpt lat="46.49132" lon="0.36358">
        <ele>100.4</ele>
        <time>2022-06-26T08:40:13Z</time>
      </trkpt>
      <trkpt lat="46.49138" lon="0.36354">
        <ele>101.2</ele>
        <time>2022-06-26T08:40:15Z</time>
      </trkpt>
      <trkpt lat="46.49147" lon="0.36347">
        <ele>102.4</ele>
        <time>2022-06-26T08:40:18Z</time>
      </trkpt>
      <trkpt lat="46.49155" lon="0.36339">
        <ele>103.2</ele>
        <time>2022-06-26T08:40:21Z</time>
      </trkpt>
      <trkpt lat="46.4916" lon="0.36332">
        <ele>103.4</ele>
        <time>2022-06-26T08:40:23Z</time>
      </trkpt>
      <trkpt lat="46.49174" lon="0.36313">
        <ele>103.8</ele>
        <time>2022-06-26T08:40:29Z</time>
      </trkpt>
      <trkpt lat="46.49186" lon="0.36288">
        <ele>104.6</ele>
        <time>2022-06-26T08:40:36Z</time>
      </trkpt>
      <trkpt lat="46.49201" lon="0.3625">
        <ele>105.2</ele>
        <time>2022-06-26T08:40:45Z</time>
      </trkpt>
      <trkpt lat="46.4921" lon="0.36228">
        <ele>105.6</ele>
        <time>2022-06-26T08:40:50Z</time>
      </trkpt>
      <trkpt lat="46.49213" lon="0.36218">
        <ele>105.8</ele>
        <time>2022-06-26T08:40:52Z</time>
      </trkpt>
      <trkpt lat="46.49226" lon="0.36183">
        <ele>106.6</ele>
        <time>2022-06-26T08:41:00Z</time>
      </trkpt>
      <trkpt lat="46.49228" lon="0.36179">
        <ele>106.6</ele>
        <time>2022-06-26T08:41:01Z</time>
      </trkpt>
      <trkpt lat="46.49244" lon="0.36149">
        <ele>106.6</ele>
        <time>2022-06-26T08:41:08Z</time>
      </trkpt>
      <trkpt lat="46.4926" lon="0.36112">
        <ele>107</ele>
        <time>2022-06-26T08:41:15Z</time>
      </trkpt>
      <trkpt lat="46.49278" lon="0.36082">
        <ele>106.8</ele>
        <time>2022-06-26T08:41:21Z</time>
      </trkpt>
      <trkpt lat="46.49307" lon="0.36051">
        <ele>106.6</ele>
        <time>2022-06-26T08:41:29Z</time>
      </trkpt>
      <trkpt lat="46.4933" lon="0.36026">
        <ele>106.8</ele>
        <time>2022-06-26T08:41:35Z</time>
      </trkpt>
      <trkpt lat="46.49362" lon="0.36004">
        <ele>106.6</ele>
        <time>2022-06-26T08:41:42Z</time>
      </trkpt>
      <trkpt lat="46.49367" lon="0.36001">
        <ele>106.4</ele>
        <time>2022-06-26T08:41:43Z</time>
      </trkpt>
      <trkpt lat="46.494" lon="0.35982">
        <ele>106.8</ele>
        <time>2022-06-26T08:41:51Z</time>
      </trkpt>
      <trkpt lat="46.49435" lon="0.35963">
        <ele>106.6</ele>
        <time>2022-06-26T08:41:59Z</time>
      </trkpt>
      <trkpt lat="46.49438" lon="0.35959">
        <ele>106.4</ele>
        <time>2022-06-26T08:42:00Z</time>
      </trkpt>
      <trkpt lat="46.4945" lon="0.35944">
        <ele>106.8</ele>
        <time>2022-06-26T08:42:04Z</time>
      </trkpt>
      <trkpt lat="46.49472" lon="0.35906">
        <ele>107.4</ele>
        <time>2022-06-26T08:42:12Z</time>
      </trkpt>
      <trkpt lat="46.49482" lon="0.35883">
        <ele>107.8</ele>
        <time>2022-06-26T08:42:17Z</time>
      </trkpt>
      <trkpt lat="46.49487" lon="0.3587">
        <ele>108</ele>
        <time>2022-06-26T08:42:20Z</time>
      </trkpt>
      <trkpt lat="46.49505" lon="0.35828">
        <ele>108.8</ele>
        <time>2022-06-26T08:42:29Z</time>
      </trkpt>
      <trkpt lat="46.49521" lon="0.35792">
        <ele>109.2</ele>
        <time>2022-06-26T08:42:37Z</time>
      </trkpt>
      <trkpt lat="46.49536" lon="0.35763">
        <ele>110</ele>
        <time>2022-06-26T08:42:45Z</time>
      </trkpt>
      <trkpt lat="46.49556" lon="0.35742">
        <ele>111</ele>
        <time>2022-06-26T08:42:52Z</time>
      </trkpt>
      <trkpt lat="46.4956" lon="0.35739">
        <ele>111.2</ele>
        <time>2022-06-26T08:42:53Z</time>
      </trkpt>
      <trkpt lat="46.49585" lon="0.35718">
        <ele>112</ele>
        <time>2022-06-26T08:43:01Z</time>
      </trkpt>
      <trkpt lat="46.49591" lon="0.35714">
        <ele>112.2</ele>
        <time>2022-06-26T08:43:03Z</time>
      </trkpt>
      <trkpt lat="46.4961" lon="0.357">
        <ele>113.4</ele>
        <time>2022-06-26T08:43:09Z</time>
      </trkpt>
      <trkpt lat="46.49617" lon="0.35696">
        <ele>113.4</ele>
        <time>2022-06-26T08:43:11Z</time>
      </trkpt>
      <trkpt lat="46.49643" lon="0.3568">
        <ele>114.2</ele>
        <time>2022-06-26T08:43:20Z</time>
      </trkpt>
      <trkpt lat="46.49646" lon="0.35679">
        <ele>114.4</ele>
        <time>2022-06-26T08:43:21Z</time>
      </trkpt>
      <trkpt lat="46.49665" lon="0.35671">
        <ele>114.8</ele>
        <time>2022-06-26T08:43:27Z</time>
      </trkpt>
      <trkpt lat="46.49682" lon="0.35668">
        <ele>115.4</ele>
        <time>2022-06-26T08:43:32Z</time>
      </trkpt>
      <trkpt lat="46.49694" lon="0.35666">
        <ele>115.8</ele>
        <time>2022-06-26T08:43:36Z</time>
      </trkpt>
      <trkpt lat="46.4971" lon="0.35662">
        <ele>116</ele>
        <time>2022-06-26T08:43:41Z</time>
      </trkpt>
      <trkpt lat="46.49727" lon="0.3566">
        <ele>116.6</ele>
        <time>2022-06-26T08:43:46Z</time>
      </trkpt>
      <trkpt lat="46.49741" lon="0.35658">
        <ele>117</ele>
        <time>2022-06-26T08:43:50Z</time>
      </trkpt>
      <trkpt lat="46.4977" lon="0.3565">
        <ele>117.4</ele>
        <time>2022-06-26T08:43:58Z</time>
      </trkpt>
      <trkpt lat="46.49796" lon="0.3564">
        <ele>117.8</ele>
        <time>2022-06-26T08:44:05Z</time>
      </trkpt>
      <trkpt lat="46.49806" lon="0.35635">
        <ele>118.2</ele>
        <time>2022-06-26T08:44:08Z</time>
      </trkpt>
      <trkpt lat="46.49836" lon="0.35618">
        <ele>118.6</ele>
        <time>2022-06-26T08:44:17Z</time>
      </trkpt>
      <trkpt lat="46.49844" lon="0.35615">
        <ele>118.8</ele>
        <time>2022-06-26T08:44:19Z</time>
      </trkpt>
      <trkpt lat="46.49873" lon="0.35603">
        <ele>119.2</ele>
        <time>2022-06-26T08:44:27Z</time>
      </trkpt>
      <trkpt lat="46.49901" lon="0.35595">
        <ele>119.8</ele>
        <time>2022-06-26T08:44:34Z</time>
      </trkpt>
      <trkpt lat="46.4991" lon="0.35593">
        <ele>119.8</ele>
        <time>2022-06-26T08:44:36Z</time>
      </trkpt>
      <trkpt lat="46.49919" lon="0.35591">
        <ele>120</ele>
        <time>2022-06-26T08:44:38Z</time>
      </trkpt>
      <trkpt lat="46.49932" lon="0.3559">
        <ele>120.2</ele>
        <time>2022-06-26T08:44:41Z</time>
      </trkpt>
      <trkpt lat="46.49965" lon="0.35584">
        <ele>119.6</ele>
        <time>2022-06-26T08:44:48Z</time>
      </trkpt>
      <trkpt lat="46.50002" lon="0.35579">
        <ele>120</ele>
        <time>2022-06-26T08:44:56Z</time>
      </trkpt>
      <trkpt lat="46.50046" lon="0.35576">
        <ele>120</ele>
        <time>2022-06-26T08:45:05Z</time>
      </trkpt>
      <trkpt lat="46.50083" lon="0.35574">
        <ele>120.4</ele>
        <time>2022-06-26T08:45:13Z</time>
      </trkpt>
      <trkpt lat="46.50108" lon="0.35573">
        <ele>120.6</ele>
        <time>2022-06-26T08:45:19Z</time>
      </trkpt>
      <trkpt lat="46.5015" lon="0.35578">
        <ele>121.2</ele>
        <time>2022-06-26T08:45:28Z</time>
      </trkpt>
      <trkpt lat="46.50155" lon="0.35579">
        <ele>121.2</ele>
        <time>2022-06-26T08:45:29Z</time>
      </trkpt>
      <trkpt lat="46.5019" lon="0.35588">
        <ele>121.8</ele>
        <time>2022-06-26T08:45:37Z</time>
      </trkpt>
      <trkpt lat="46.50194" lon="0.35589">
        <ele>122.2</ele>
        <time>2022-06-26T08:45:38Z</time>
      </trkpt>
      <trkpt lat="46.50223" lon="0.35595">
        <ele>122</ele>
        <time>2022-06-26T08:45:45Z</time>
      </trkpt>
      <trkpt lat="46.50236" lon="0.35584">
        <ele>122.2</ele>
        <time>2022-06-26T08:45:49Z</time>
      </trkpt>
      <trkpt lat="46.50246" lon="0.35544">
        <ele>122.4</ele>
        <time>2022-06-26T08:45:55Z</time>
      </trkpt>
      <trkpt lat="46.50253" lon="0.35522">
        <ele>122.6</ele>
        <time>2022-06-26T08:45:59Z</time>
      </trkpt>
      <trkpt lat="46.50256" lon="0.35511">
        <ele>122.6</ele>
        <time>2022-06-26T08:46:01Z</time>
      </trkpt>
      <trkpt lat="46.50263" lon="0.35475">
        <ele>123.4</ele>
        <time>2022-06-26T08:46:06Z</time>
      </trkpt>
      <trkpt lat="46.50265" lon="0.35468">
        <ele>123.4</ele>
        <time>2022-06-26T08:46:07Z</time>
      </trkpt>
      <trkpt lat="46.50281" lon="0.35402">
        <ele>123.6</ele>
        <time>2022-06-26T08:46:15Z</time>
      </trkpt>
      <trkpt lat="46.50297" lon="0.35335">
        <ele>123.4</ele>
        <time>2022-06-26T08:46:22Z</time>
      </trkpt>
      <trkpt lat="46.50319" lon="0.35254">
        <ele>123.2</ele>
        <time>2022-06-26T08:46:30Z</time>
      </trkpt>
      <trkpt lat="46.50322" lon="0.35244">
        <ele>123.2</ele>
        <time>2022-06-26T08:46:31Z</time>
      </trkpt>
      <trkpt lat="46.50331" lon="0.35219">
        <ele>123.2</ele>
        <time>2022-06-26T08:46:34Z</time>
      </trkpt>
      <trkpt lat="46.50337" lon="0.35216">
        <ele>122.8</ele>
        <time>2022-06-26T08:46:35Z</time>
      </trkpt>
      <trkpt lat="46.50342" lon="0.35217">
        <ele>122.8</ele>
        <time>2022-06-26T08:46:36Z</time>
      </trkpt>
      <trkpt lat="46.50353" lon="0.35226">
        <ele>122.8</ele>
        <time>2022-06-26T08:46:38Z</time>
      </trkpt>
      <trkpt lat="46.50379" lon="0.35262">
        <ele>122.2</ele>
        <time>2022-06-26T08:46:43Z</time>
      </trkpt>
      <trkpt lat="46.50385" lon="0.35269">
        <ele>122.2</ele>
        <time>2022-06-26T08:46:44Z</time>
      </trkpt>
      <trkpt lat="46.5043" lon="0.35328">
        <ele>121.6</ele>
        <time>2022-06-26T08:46:52Z</time>
      </trkpt>
      <trkpt lat="46.50436" lon="0.35334">
        <ele>121.6</ele>
        <time>2022-06-26T08:46:53Z</time>
      </trkpt>
      <trkpt lat="46.50467" lon="0.35374">
        <ele>121.8</ele>
        <time>2022-06-26T08:46:59Z</time>
      </trkpt>
      <trkpt lat="46.50506" lon="0.35436">
        <ele>121.2</ele>
        <time>2022-06-26T08:47:08Z</time>
      </trkpt>
      <trkpt lat="46.50518" lon="0.35455">
        <ele>121.2</ele>
        <time>2022-06-26T08:47:11Z</time>
      </trkpt>
      <trkpt lat="46.50537" lon="0.35476">
        <ele>121.6</ele>
        <time>2022-06-26T08:47:15Z</time>
      </trkpt>
      <trkpt lat="46.50568" lon="0.355">
        <ele>121.8</ele>
        <time>2022-06-26T08:47:21Z</time>
      </trkpt>
      <trkpt lat="46.50606" lon="0.35528">
        <ele>122</ele>
        <time>2022-06-26T08:47:28Z</time>
      </trkpt>
      <trkpt lat="46.50615" lon="0.35537">
        <ele>122.4</ele>
        <time>2022-06-26T08:47:30Z</time>
      </trkpt>
      <trkpt lat="46.50639" lon="0.35558">
        <ele>121.8</ele>
        <time>2022-06-26T08:47:35Z</time>
      </trkpt>
      <trkpt lat="46.50653" lon="0.35569">
        <ele>121.4</ele>
        <time>2022-06-26T08:47:38Z</time>
      </trkpt>
      <trkpt lat="46.50661" lon="0.35567">
        <ele>121.2</ele>
        <time>2022-06-26T08:47:40Z</time>
      </trkpt>
      <trkpt lat="46.50667" lon="0.35559">
        <ele>121.2</ele>
        <time>2022-06-26T08:47:42Z</time>
      </trkpt>
      <trkpt lat="46.50673" lon="0.35547">
        <ele>120.8</ele>
        <time>2022-06-26T08:47:44Z</time>
      </trkpt>
      <trkpt lat="46.50692" lon="0.35508">
        <ele>120.6</ele>
        <time>2022-06-26T08:47:50Z</time>
      </trkpt>
      <trkpt lat="46.50713" lon="0.35468">
        <ele>120.4</ele>
        <time>2022-06-26T08:47:56Z</time>
      </trkpt>
      <trkpt lat="46.50717" lon="0.35461">
        <ele>120.2</ele>
        <time>2022-06-26T08:47:57Z</time>
      </trkpt>
      <trkpt lat="46.50734" lon="0.35422">
        <ele>119.8</ele>
        <time>2022-06-26T08:48:02Z</time>
      </trkpt>
      <trkpt lat="46.50744" lon="0.35378">
        <ele>118.8</ele>
        <time>2022-06-26T08:48:07Z</time>
      </trkpt>
      <trkpt lat="46.50745" lon="0.35369">
        <ele>118.4</ele>
        <time>2022-06-26T08:48:08Z</time>
      </trkpt>
      <trkpt lat="46.50748" lon="0.3536">
        <ele>118.2</ele>
        <time>2022-06-26T08:48:09Z</time>
      </trkpt>
      <trkpt lat="46.5075" lon="0.35346">
        <ele>117.8</ele>
        <time>2022-06-26T08:48:11Z</time>
      </trkpt>
      <trkpt lat="46.5075" lon="0.35342">
        <ele>117.6</ele>
        <time>2022-06-26T08:48:12Z</time>
      </trkpt>
      <trkpt lat="46.50748" lon="0.35337">
        <ele>117</ele>
        <time>2022-06-26T08:48:14Z</time>
      </trkpt>
      <trkpt lat="46.50746" lon="0.35335">
        <ele>116.8</ele>
        <time>2022-06-26T08:48:15Z</time>
      </trkpt>
      <trkpt lat="46.50743" lon="0.35331">
        <ele>116.4</ele>
        <time>2022-06-26T08:48:17Z</time>
      </trkpt>
      <trkpt lat="46.50742" lon="0.35324">
        <ele>116.4</ele>
        <time>2022-06-26T08:48:19Z</time>
      </trkpt>
      <trkpt lat="46.50745" lon="0.35305">
        <ele>116</ele>
        <time>2022-06-26T08:48:23Z</time>
      </trkpt>
      <trkpt lat="46.50744" lon="0.35301">
        <ele>115.6</ele>
        <time>2022-06-26T08:48:24Z</time>
      </trkpt>
      <trkpt lat="46.50741" lon="0.35292">
        <ele>114.8</ele>
        <time>2022-06-26T08:48:27Z</time>
      </trkpt>
      <trkpt lat="46.5074" lon="0.35286">
        <ele>114.6</ele>
        <time>2022-06-26T08:48:29Z</time>
      </trkpt>
      <trkpt lat="46.50738" lon="0.35278">
        <ele>113.8</ele>
        <time>2022-06-26T08:48:33Z</time>
      </trkpt>
      <trkpt lat="46.5074" lon="0.35274">
        <ele>113.6</ele>
        <time>2022-06-26T08:48:36Z</time>
      </trkpt>
      <trkpt lat="46.50745" lon="0.35269">
        <ele>113.2</ele>
        <time>2022-06-26T08:48:40Z</time>
      </trkpt>
      <trkpt lat="46.50747" lon="0.35262">
        <ele>112.6</ele>
        <time>2022-06-26T08:48:44Z</time>
      </trkpt>
      <trkpt lat="46.50746" lon="0.35258">
        <ele>112.2</ele>
        <time>2022-06-26T08:48:46Z</time>
      </trkpt>
      <trkpt lat="46.50744" lon="0.35246">
        <ele>111.6</ele>
        <time>2022-06-26T08:48:50Z</time>
      </trkpt>
      <trkpt lat="46.50746" lon="0.35244">
        <ele>111.4</ele>
        <time>2022-06-26T08:48:51Z</time>
      </trkpt>
      <trkpt lat="46.50747" lon="0.35242">
        <ele>111.4</ele>
        <time>2022-06-26T08:48:52Z</time>
      </trkpt>
      <trkpt lat="46.50753" lon="0.35235">
        <ele>111</ele>
        <time>2022-06-26T08:48:59Z</time>
      </trkpt>
      <trkpt lat="46.50766" lon="0.35226">
        <ele>110.8</ele>
        <time>2022-06-26T08:49:05Z</time>
      </trkpt>
      <trkpt lat="46.50768" lon="0.35225">
        <ele>110.4</ele>
        <time>2022-06-26T08:49:08Z</time>
      </trkpt>
      <trkpt lat="46.50767" lon="0.35226">
        <ele>110.4</ele>
        <time>2022-06-26T08:49:09Z</time>
      </trkpt>
      <trkpt lat="46.50764" lon="0.35228">
        <ele>110.2</ele>
        <time>2022-06-26T08:49:11Z</time>
      </trkpt>
      <trkpt lat="46.50761" lon="0.35226">
        <ele>110.2</ele>
        <time>2022-06-26T08:49:13Z</time>
      </trkpt>
      <trkpt lat="46.50762" lon="0.35222">
        <ele>110.2</ele>
        <time>2022-06-26T08:49:15Z</time>
      </trkpt>
      <trkpt lat="46.50766" lon="0.35217">
        <ele>110.4</ele>
        <time>2022-06-26T08:49:17Z</time>
      </trkpt>
      <trkpt lat="46.50768" lon="0.35204">
        <ele>111.2</ele>
        <time>2022-06-26T08:49:21Z</time>
      </trkpt>
      <trkpt lat="46.50767" lon="0.35199">
        <ele>111.8</ele>
        <time>2022-06-26T08:49:23Z</time>
      </trkpt>
      <trkpt lat="46.50766" lon="0.35186">
        <ele>112.2</ele>
        <time>2022-06-26T08:49:26Z</time>
      </trkpt>
      <trkpt lat="46.5076" lon="0.35166">
        <ele>112.4</ele>
        <time>2022-06-26T08:49:31Z</time>
      </trkpt>
      <trkpt lat="46.50746" lon="0.3515">
        <ele>112.4</ele>
        <time>2022-06-26T08:49:37Z</time>
      </trkpt>
      <trkpt lat="46.5073" lon="0.35136">
        <ele>112.6</ele>
        <time>2022-06-26T08:49:43Z</time>
      </trkpt>
      <trkpt lat="46.50712" lon="0.35132">
        <ele>112.6</ele>
        <time>2022-06-26T08:49:49Z</time>
      </trkpt>
      <trkpt lat="46.50705" lon="0.35131">
        <ele>112.8</ele>
        <time>2022-06-26T08:49:52Z</time>
      </trkpt>
      <trkpt lat="46.50697" lon="0.35129">
        <ele>113.2</ele>
        <time>2022-06-26T08:49:55Z</time>
      </trkpt>
      <trkpt lat="46.50688" lon="0.35126">
        <ele>114</ele>
        <time>2022-06-26T08:50:00Z</time>
      </trkpt>
      <trkpt lat="46.50687" lon="0.35125">
        <ele>114.2</ele>
        <time>2022-06-26T08:50:01Z</time>
      </trkpt>
      <trkpt lat="46.50686" lon="0.35124">
        <ele>114.4</ele>
        <time>2022-06-26T08:50:02Z</time>
      </trkpt>
      <trkpt lat="46.50679" lon="0.35126">
        <ele>114.4</ele>
        <time>2022-06-26T08:50:06Z</time>
      </trkpt>
      <trkpt lat="46.50677" lon="0.35127">
        <ele>114.6</ele>
        <time>2022-06-26T08:50:09Z</time>
      </trkpt>
      <trkpt lat="46.50675" lon="0.35128">
        <ele>114.6</ele>
        <time>2022-06-26T08:50:11Z</time>
      </trkpt>
      <trkpt lat="46.50672" lon="0.35131">
        <ele>115</ele>
        <time>2022-06-26T08:50:18Z</time>
      </trkpt>
      <trkpt lat="46.50672" lon="0.35132">
        <ele>115</ele>
        <time>2022-06-26T08:50:19Z</time>
      </trkpt>
      <trkpt lat="46.50672" lon="0.35132">
        <ele>114.6</ele>
        <time>2022-06-26T08:55:25Z</time>
      </trkpt>
      <trkpt lat="46.50674" lon="0.35143">
        <ele>114.6</ele>
        <time>2022-06-26T08:55:33Z</time>
      </trkpt>
      <trkpt lat="46.50675" lon="0.35146">
        <ele>114.6</ele>
        <time>2022-06-26T08:55:34Z</time>
      </trkpt>
      <trkpt lat="46.50678" lon="0.35163">
        <ele>114.6</ele>
        <time>2022-06-26T08:55:38Z</time>
      </trkpt>
      <trkpt lat="46.50678" lon="0.35183">
        <ele>114</ele>
        <time>2022-06-26T08:55:41Z</time>
      </trkpt>
      <trkpt lat="46.50679" lon="0.35204">
        <ele>113.6</ele>
        <time>2022-06-26T08:55:44Z</time>
      </trkpt>
      <trkpt lat="46.5068" lon="0.35217">
        <ele>113.6</ele>
        <time>2022-06-26T08:55:46Z</time>
      </trkpt>
      <trkpt lat="46.50682" lon="0.35234">
        <ele>113.6</ele>
        <time>2022-06-26T08:55:49Z</time>
      </trkpt>
      <trkpt lat="46.50685" lon="0.35246">
        <ele>113.4</ele>
        <time>2022-06-26T08:55:52Z</time>
      </trkpt>
      <trkpt lat="46.50688" lon="0.35246">
        <ele>113.2</ele>
        <time>2022-06-26T08:55:53Z</time>
      </trkpt>
      <trkpt lat="46.5069" lon="0.35245">
        <ele>113</ele>
        <time>2022-06-26T08:55:54Z</time>
      </trkpt>
      <trkpt lat="46.50694" lon="0.35243">
        <ele>113</ele>
        <time>2022-06-26T08:55:55Z</time>
      </trkpt>
      <trkpt lat="46.50698" lon="0.35241">
        <ele>112.8</ele>
        <time>2022-06-26T08:55:56Z</time>
      </trkpt>
      <trkpt lat="46.50737" lon="0.35225">
        <ele>112.6</ele>
        <time>2022-06-26T08:56:03Z</time>
      </trkpt>
      <trkpt lat="46.50755" lon="0.35221">
        <ele>112</ele>
        <time>2022-06-26T08:56:06Z</time>
      </trkpt>
      <trkpt lat="46.50758" lon="0.35223">
        <ele>111.8</ele>
        <time>2022-06-26T08:56:07Z</time>
      </trkpt>
      <trkpt lat="46.50761" lon="0.35226">
        <ele>111.6</ele>
        <time>2022-06-26T08:56:08Z</time>
      </trkpt>
      <trkpt lat="46.50763" lon="0.35239">
        <ele>111.2</ele>
        <time>2022-06-26T08:56:12Z</time>
      </trkpt>
      <trkpt lat="46.50763" lon="0.35256">
        <ele>112</ele>
        <time>2022-06-26T08:56:18Z</time>
      </trkpt>
      <trkpt lat="46.50763" lon="0.35266">
        <ele>113</ele>
        <time>2022-06-26T08:56:21Z</time>
      </trkpt>
      <trkpt lat="46.50764" lon="0.35282">
        <ele>114</ele>
        <time>2022-06-26T08:56:26Z</time>
      </trkpt>
      <trkpt lat="46.50766" lon="0.35286">
        <ele>115</ele>
        <time>2022-06-26T08:56:31Z</time>
      </trkpt>
      <trkpt lat="46.50766" lon="0.35284">
        <ele>115.2</ele>
        <time>2022-06-26T08:56:32Z</time>
      </trkpt>
      <trkpt lat="46.50769" lon="0.35278">
        <ele>114.8</ele>
        <time>2022-06-26T08:56:36Z</time>
      </trkpt>
      <trkpt lat="46.50776" lon="0.3528">
        <ele>114.4</ele>
        <time>2022-06-26T08:56:41Z</time>
      </trkpt>
      <trkpt lat="46.50791" lon="0.35279">
        <ele>114.6</ele>
        <time>2022-06-26T08:56:48Z</time>
      </trkpt>
      <trkpt lat="46.50794" lon="0.35273">
        <ele>114.2</ele>
        <time>2022-06-26T08:56:53Z</time>
      </trkpt>
      <trkpt lat="46.50792" lon="0.35272">
        <ele>114</ele>
        <time>2022-06-26T08:56:55Z</time>
      </trkpt>
      <trkpt lat="46.50792" lon="0.35269">
        <ele>113.6</ele>
        <time>2022-06-26T08:56:57Z</time>
      </trkpt>
      <trkpt lat="46.50792" lon="0.35267">
        <ele>113.6</ele>
        <time>2022-06-26T08:56:58Z</time>
      </trkpt>
      <trkpt lat="46.50792" lon="0.3526">
        <ele>113</ele>
        <time>2022-06-26T08:57:01Z</time>
      </trkpt>
      <trkpt lat="46.5079" lon="0.3526">
        <ele>112.6</ele>
        <time>2022-06-26T08:57:03Z</time>
      </trkpt>
      <trkpt lat="46.50782" lon="0.3526">
        <ele>112.6</ele>
        <time>2022-06-26T08:57:08Z</time>
      </trkpt>
      <trkpt lat="46.50782" lon="0.35259">
        <ele>112.6</ele>
        <time>2022-06-26T08:57:09Z</time>
      </trkpt>
      <trkpt lat="46.50783" lon="0.35255">
        <ele>112.6</ele>
        <time>2022-06-26T08:57:11Z</time>
      </trkpt>
      <trkpt lat="46.50786" lon="0.35245">
        <ele>111.8</ele>
        <time>2022-06-26T08:57:14Z</time>
      </trkpt>
      <trkpt lat="46.5079" lon="0.35239">
        <ele>111.6</ele>
        <time>2022-06-26T08:57:16Z</time>
      </trkpt>
      <trkpt lat="46.50798" lon="0.35228">
        <ele>111.4</ele>
        <time>2022-06-26T08:57:19Z</time>
      </trkpt>
      <trkpt lat="46.50802" lon="0.35222">
        <ele>111.4</ele>
        <time>2022-06-26T08:57:21Z</time>
      </trkpt>
      <trkpt lat="46.50807" lon="0.35221">
        <ele>111</ele>
        <time>2022-06-26T08:57:23Z</time>
      </trkpt>
      <trkpt lat="46.50809" lon="0.35222">
        <ele>110.8</ele>
        <time>2022-06-26T08:57:24Z</time>
      </trkpt>
      <trkpt lat="46.50813" lon="0.35228">
        <ele>110.6</ele>
        <time>2022-06-26T08:57:28Z</time>
      </trkpt>
      <trkpt lat="46.50821" lon="0.35244">
        <ele>111.6</ele>
        <time>2022-06-26T08:57:34Z</time>
      </trkpt>
      <trkpt lat="46.50823" lon="0.35247">
        <ele>111.8</ele>
        <time>2022-06-26T08:57:35Z</time>
      </trkpt>
      <trkpt lat="46.5083" lon="0.35259">
        <ele>112.8</ele>
        <time>2022-06-26T08:57:39Z</time>
      </trkpt>
      <trkpt lat="46.50833" lon="0.35265">
        <ele>113.2</ele>
        <time>2022-06-26T08:57:41Z</time>
      </trkpt>
      <trkpt lat="46.50833" lon="0.3527">
        <ele>113.4</ele>
        <time>2022-06-26T08:57:43Z</time>
      </trkpt>
      <trkpt lat="46.50833" lon="0.35277">
        <ele>113.8</ele>
        <time>2022-06-26T08:57:45Z</time>
      </trkpt>
      <trkpt lat="46.50835" lon="0.35285">
        <ele>114.4</ele>
        <time>2022-06-26T08:57:48Z</time>
      </trkpt>
      <trkpt lat="46.50837" lon="0.35287">
        <ele>114.4</ele>
        <time>2022-06-26T08:57:49Z</time>
      </trkpt>
      <trkpt lat="46.50843" lon="0.35295">
        <ele>114.4</ele>
        <time>2022-06-26T08:57:52Z</time>
      </trkpt>
      <trkpt lat="46.50842" lon="0.353">
        <ele>114.4</ele>
        <time>2022-06-26T08:57:53Z</time>
      </trkpt>
      <trkpt lat="46.50838" lon="0.35315">
        <ele>115</ele>
        <time>2022-06-26T08:57:58Z</time>
      </trkpt>
      <trkpt lat="46.50833" lon="0.3533">
        <ele>116.2</ele>
        <time>2022-06-26T08:58:02Z</time>
      </trkpt>
      <trkpt lat="46.50832" lon="0.35335">
        <ele>116.4</ele>
        <time>2022-06-26T08:58:03Z</time>
      </trkpt>
      <trkpt lat="46.50832" lon="0.35368">
        <ele>116.8</ele>
        <time>2022-06-26T08:58:09Z</time>
      </trkpt>
      <trkpt lat="46.50833" lon="0.35385">
        <ele>117.4</ele>
        <time>2022-06-26T08:58:12Z</time>
      </trkpt>
      <trkpt lat="46.50836" lon="0.35403">
        <ele>117.8</ele>
        <time>2022-06-26T08:58:15Z</time>
      </trkpt>
      <trkpt lat="46.50835" lon="0.35433">
        <ele>118.4</ele>
        <time>2022-06-26T08:58:20Z</time>
      </trkpt>
      <trkpt lat="46.50842" lon="0.35463">
        <ele>119</ele>
        <time>2022-06-26T08:58:25Z</time>
      </trkpt>
      <trkpt lat="46.50845" lon="0.35465">
        <ele>119</ele>
        <time>2022-06-26T08:58:26Z</time>
      </trkpt>
      <trkpt lat="46.50855" lon="0.35465">
        <ele>119.2</ele>
        <time>2022-06-26T08:58:28Z</time>
      </trkpt>
      <trkpt lat="46.50865" lon="0.3547">
        <ele>119.2</ele>
        <time>2022-06-26T08:58:30Z</time>
      </trkpt>
      <trkpt lat="46.50869" lon="0.35475">
        <ele>119</ele>
        <time>2022-06-26T08:58:31Z</time>
      </trkpt>
      <trkpt lat="46.50873" lon="0.3548">
        <ele>118.8</ele>
        <time>2022-06-26T08:58:32Z</time>
      </trkpt>
      <trkpt lat="46.50895" lon="0.3551">
        <ele>118</ele>
        <time>2022-06-26T08:58:38Z</time>
      </trkpt>
      <trkpt lat="46.50906" lon="0.35525">
        <ele>117.8</ele>
        <time>2022-06-26T08:58:41Z</time>
      </trkpt>
      <trkpt lat="46.50916" lon="0.3553">
        <ele>117.6</ele>
        <time>2022-06-26T08:58:43Z</time>
      </trkpt>
      <trkpt lat="46.50927" lon="0.35529">
        <ele>117.4</ele>
        <time>2022-06-26T08:58:45Z</time>
      </trkpt>
      <trkpt lat="46.50932" lon="0.35526">
        <ele>117.4</ele>
        <time>2022-06-26T08:58:46Z</time>
      </trkpt>
      <trkpt lat="46.50936" lon="0.35522">
        <ele>117.4</ele>
        <time>2022-06-26T08:58:47Z</time>
      </trkpt>
      <trkpt lat="46.5094" lon="0.35518">
        <ele>117.2</ele>
        <time>2022-06-26T08:58:48Z</time>
      </trkpt>
      <trkpt lat="46.50942" lon="0.35517">
        <ele>117</ele>
        <time>2022-06-26T08:58:49Z</time>
      </trkpt>
      <trkpt lat="46.50951" lon="0.35525">
        <ele>116.4</ele>
        <time>2022-06-26T08:58:53Z</time>
      </trkpt>
      <trkpt lat="46.50952" lon="0.35529">
        <ele>116.2</ele>
        <time>2022-06-26T08:58:54Z</time>
      </trkpt>
      <trkpt lat="46.50951" lon="0.35536">
        <ele>116.4</ele>
        <time>2022-06-26T08:58:56Z</time>
      </trkpt>
      <trkpt lat="46.5094" lon="0.35554">
        <ele>117.2</ele>
        <time>2022-06-26T08:59:00Z</time>
      </trkpt>
      <trkpt lat="46.50913" lon="0.356">
        <ele>118</ele>
        <time>2022-06-26T08:59:08Z</time>
      </trkpt>
      <trkpt lat="46.50906" lon="0.3561">
        <ele>118.2</ele>
        <time>2022-06-26T08:59:10Z</time>
      </trkpt>
      <trkpt lat="46.50889" lon="0.35638">
        <ele>118.6</ele>
        <time>2022-06-26T08:59:15Z</time>
      </trkpt>
      <trkpt lat="46.50871" lon="0.35664">
        <ele>119.4</ele>
        <time>2022-06-26T08:59:20Z</time>
      </trkpt>
      <trkpt lat="46.50865" lon="0.35674">
        <ele>119.6</ele>
        <time>2022-06-26T08:59:22Z</time>
      </trkpt>
      <trkpt lat="46.5086" lon="0.35679">
        <ele>119.8</ele>
        <time>2022-06-26T08:59:23Z</time>
      </trkpt>
      <trkpt lat="46.50851" lon="0.35688">
        <ele>120</ele>
        <time>2022-06-26T08:59:25Z</time>
      </trkpt>
      <trkpt lat="46.50847" lon="0.35693">
        <ele>120</ele>
        <time>2022-06-26T08:59:26Z</time>
      </trkpt>
      <trkpt lat="46.50843" lon="0.35699">
        <ele>120.2</ele>
        <time>2022-06-26T08:59:27Z</time>
      </trkpt>
      <trkpt lat="46.50837" lon="0.35712">
        <ele>120.2</ele>
        <time>2022-06-26T08:59:29Z</time>
      </trkpt>
      <trkpt lat="46.50831" lon="0.35725">
        <ele>120.2</ele>
        <time>2022-06-26T08:59:31Z</time>
      </trkpt>
      <trkpt lat="46.50828" lon="0.3573">
        <ele>120.2</ele>
        <time>2022-06-26T08:59:32Z</time>
      </trkpt>
      <trkpt lat="46.50815" lon="0.35745">
        <ele>120.4</ele>
        <time>2022-06-26T08:59:35Z</time>
      </trkpt>
      <trkpt lat="46.50811" lon="0.35751">
        <ele>120.4</ele>
        <time>2022-06-26T08:59:36Z</time>
      </trkpt>
      <trkpt lat="46.50807" lon="0.35757">
        <ele>120.4</ele>
        <time>2022-06-26T08:59:37Z</time>
      </trkpt>
      <trkpt lat="46.50794" lon="0.35773">
        <ele>120.4</ele>
        <time>2022-06-26T08:59:40Z</time>
      </trkpt>
      <trkpt lat="46.50768" lon="0.35816">
        <ele>121</ele>
        <time>2022-06-26T08:59:47Z</time>
      </trkpt>
      <trkpt lat="46.50754" lon="0.35862">
        <ele>121.2</ele>
        <time>2022-06-26T08:59:53Z</time>
      </trkpt>
      <trkpt lat="46.50755" lon="0.35878">
        <ele>121</ele>
        <time>2022-06-26T08:59:55Z</time>
      </trkpt>
      <trkpt lat="46.50757" lon="0.35886">
        <ele>121</ele>
        <time>2022-06-26T08:59:56Z</time>
      </trkpt>
      <trkpt lat="46.50768" lon="0.35934">
        <ele>120.2</ele>
        <time>2022-06-26T09:00:01Z</time>
      </trkpt>
      <trkpt lat="46.50769" lon="0.35944">
        <ele>120</ele>
        <time>2022-06-26T09:00:02Z</time>
      </trkpt>
      <trkpt lat="46.50773" lon="0.35983">
        <ele>119.6</ele>
        <time>2022-06-26T09:00:06Z</time>
      </trkpt>
      <trkpt lat="46.50774" lon="0.36002">
        <ele>119.2</ele>
        <time>2022-06-26T09:00:08Z</time>
      </trkpt>
      <trkpt lat="46.50776" lon="0.36033">
        <ele>118</ele>
        <time>2022-06-26T09:00:11Z</time>
      </trkpt>
      <trkpt lat="46.50777" lon="0.36054">
        <ele>117</ele>
        <time>2022-06-26T09:00:13Z</time>
      </trkpt>
      <trkpt lat="46.50777" lon="0.36065">
        <ele>116.4</ele>
        <time>2022-06-26T09:00:14Z</time>
      </trkpt>
      <trkpt lat="46.50778" lon="0.36084">
        <ele>115.4</ele>
        <time>2022-06-26T09:00:16Z</time>
      </trkpt>
      <trkpt lat="46.50778" lon="0.36093">
        <ele>114.2</ele>
        <time>2022-06-26T09:00:17Z</time>
      </trkpt>
      <trkpt lat="46.50777" lon="0.36101">
        <ele>114.2</ele>
        <time>2022-06-26T09:00:18Z</time>
      </trkpt>
      <trkpt lat="46.50775" lon="0.36109">
        <ele>114</ele>
        <time>2022-06-26T09:00:19Z</time>
      </trkpt>
      <trkpt lat="46.5077" lon="0.3612">
        <ele>113.8</ele>
        <time>2022-06-26T09:00:21Z</time>
      </trkpt>
      <trkpt lat="46.50765" lon="0.36128">
        <ele>114.2</ele>
        <time>2022-06-26T09:00:23Z</time>
      </trkpt>
      <trkpt lat="46.50759" lon="0.36138">
        <ele>114.6</ele>
        <time>2022-06-26T09:00:25Z</time>
      </trkpt>
      <trkpt lat="46.50751" lon="0.36168">
        <ele>115</ele>
        <time>2022-06-26T09:00:29Z</time>
      </trkpt>
      <trkpt lat="46.50744" lon="0.36211">
        <ele>115.2</ele>
        <time>2022-06-26T09:00:34Z</time>
      </trkpt>
      <trkpt lat="46.5074" lon="0.36239">
        <ele>114.8</ele>
        <time>2022-06-26T09:00:37Z</time>
      </trkpt>
      <trkpt lat="46.50736" lon="0.36269">
        <ele>114.2</ele>
        <time>2022-06-26T09:00:40Z</time>
      </trkpt>
      <trkpt lat="46.5073" lon="0.36311">
        <ele>113.8</ele>
        <time>2022-06-26T09:00:44Z</time>
      </trkpt>
      <trkpt lat="46.50725" lon="0.36343">
        <ele>113</ele>
        <time>2022-06-26T09:00:47Z</time>
      </trkpt>
      <trkpt lat="46.50721" lon="0.36375">
        <ele>112</ele>
        <time>2022-06-26T09:00:50Z</time>
      </trkpt>
      <trkpt lat="46.5072" lon="0.36385">
        <ele>111.8</ele>
        <time>2022-06-26T09:00:51Z</time>
      </trkpt>
      <trkpt lat="46.50713" lon="0.36427">
        <ele>110.8</ele>
        <time>2022-06-26T09:00:55Z</time>
      </trkpt>
      <trkpt lat="46.50709" lon="0.36459">
        <ele>109.8</ele>
        <time>2022-06-26T09:00:58Z</time>
      </trkpt>
      <trkpt lat="46.50703" lon="0.36506">
        <ele>108.2</ele>
        <time>2022-06-26T09:01:02Z</time>
      </trkpt>
      <trkpt lat="46.50699" lon="0.36528">
        <ele>107.6</ele>
        <time>2022-06-26T09:01:04Z</time>
      </trkpt>
      <trkpt lat="46.50687" lon="0.36589">
        <ele>107.2</ele>
        <time>2022-06-26T09:01:10Z</time>
      </trkpt>
      <trkpt lat="46.50679" lon="0.36603">
        <ele>107.4</ele>
        <time>2022-06-26T09:01:12Z</time>
      </trkpt>
      <trkpt lat="46.50674" lon="0.36608">
        <ele>107.6</ele>
        <time>2022-06-26T09:01:13Z</time>
      </trkpt>
      <trkpt lat="46.50656" lon="0.36623">
        <ele>108</ele>
        <time>2022-06-26T09:01:17Z</time>
      </trkpt>
      <trkpt lat="46.50654" lon="0.36627">
        <ele>108.2</ele>
        <time>2022-06-26T09:01:18Z</time>
      </trkpt>
      <trkpt lat="46.50649" lon="0.36651">
        <ele>109.8</ele>
        <time>2022-06-26T09:01:23Z</time>
      </trkpt>
      <trkpt lat="46.50647" lon="0.36674">
        <ele>111</ele>
        <time>2022-06-26T09:01:27Z</time>
      </trkpt>
      <trkpt lat="46.50646" lon="0.3669">
        <ele>112.2</ele>
        <time>2022-06-26T09:01:30Z</time>
      </trkpt>
      <trkpt lat="46.50646" lon="0.36695">
        <ele>112.4</ele>
        <time>2022-06-26T09:01:31Z</time>
      </trkpt>
      <trkpt lat="46.50644" lon="0.36713">
        <ele>113.2</ele>
        <time>2022-06-26T09:01:35Z</time>
      </trkpt>
      <trkpt lat="46.50643" lon="0.36721">
        <ele>113.6</ele>
        <time>2022-06-26T09:01:37Z</time>
      </trkpt>
      <trkpt lat="46.50641" lon="0.36733">
        <ele>114.4</ele>
        <time>2022-06-26T09:01:40Z</time>
      </trkpt>
      <trkpt lat="46.50639" lon="0.36747">
        <ele>114.8</ele>
        <time>2022-06-26T09:01:44Z</time>
      </trkpt>
      <trkpt lat="46.50631" lon="0.36763">
        <ele>115.8</ele>
        <time>2022-06-26T09:01:49Z</time>
      </trkpt>
      <trkpt lat="46.50628" lon="0.36767">
        <ele>116</ele>
        <time>2022-06-26T09:01:50Z</time>
      </trkpt>
      <trkpt lat="46.50613" lon="0.36777">
        <ele>116.8</ele>
        <time>2022-06-26T09:01:55Z</time>
      </trkpt>
      <trkpt lat="46.5061" lon="0.36778">
        <ele>117</ele>
        <time>2022-06-26T09:01:56Z</time>
      </trkpt>
      <trkpt lat="46.50596" lon="0.3678">
        <ele>117</ele>
        <time>2022-06-26T09:02:00Z</time>
      </trkpt>
      <trkpt lat="46.5059" lon="0.36779">
        <ele>117</ele>
        <time>2022-06-26T09:02:02Z</time>
      </trkpt>
      <trkpt lat="46.50587" lon="0.36779">
        <ele>117</ele>
        <time>2022-06-26T09:02:03Z</time>
      </trkpt>
      <trkpt lat="46.50574" lon="0.36773">
        <ele>116.6</ele>
        <time>2022-06-26T09:02:07Z</time>
      </trkpt>
      <trkpt lat="46.50571" lon="0.36771">
        <ele>116.4</ele>
        <time>2022-06-26T09:02:08Z</time>
      </trkpt>
      <trkpt lat="46.50565" lon="0.36767">
        <ele>116.2</ele>
        <time>2022-06-26T09:02:10Z</time>
      </trkpt>
      <trkpt lat="46.50562" lon="0.36764">
        <ele>116</ele>
        <time>2022-06-26T09:02:12Z</time>
      </trkpt>
      <trkpt lat="46.50561" lon="0.36761">
        <ele>115.8</ele>
        <time>2022-06-26T09:02:13Z</time>
      </trkpt>
      <trkpt lat="46.50558" lon="0.36758">
        <ele>115.4</ele>
        <time>2022-06-26T09:02:15Z</time>
      </trkpt>
      <trkpt lat="46.50555" lon="0.36757">
        <ele>115</ele>
        <time>2022-06-26T09:02:17Z</time>
      </trkpt>
      <trkpt lat="46.50549" lon="0.36755">
        <ele>115</ele>
        <time>2022-06-26T09:02:20Z</time>
      </trkpt>
      <trkpt lat="46.50543" lon="0.36752">
        <ele>114.8</ele>
        <time>2022-06-26T09:02:22Z</time>
      </trkpt>
      <trkpt lat="46.5054" lon="0.36752">
        <ele>114.8</ele>
        <time>2022-06-26T09:02:23Z</time>
      </trkpt>
      <trkpt lat="46.50536" lon="0.36753">
        <ele>114.6</ele>
        <time>2022-06-26T09:02:25Z</time>
      </trkpt>
      <trkpt lat="46.50534" lon="0.36755">
        <ele>114.6</ele>
        <time>2022-06-26T09:02:26Z</time>
      </trkpt>
      <trkpt lat="46.50526" lon="0.36757">
        <ele>114.8</ele>
        <time>2022-06-26T09:02:30Z</time>
      </trkpt>
      <trkpt lat="46.50524" lon="0.36756">
        <ele>114.8</ele>
        <time>2022-06-26T09:02:32Z</time>
      </trkpt>
      <trkpt lat="46.50519" lon="0.36752">
        <ele>114.8</ele>
        <time>2022-06-26T09:02:35Z</time>
      </trkpt>
      <trkpt lat="46.50515" lon="0.36749">
        <ele>114.6</ele>
        <time>2022-06-26T09:02:36Z</time>
      </trkpt>
      <trkpt lat="46.50508" lon="0.36747">
        <ele>114.2</ele>
        <time>2022-06-26T09:02:38Z</time>
      </trkpt>
      <trkpt lat="46.50505" lon="0.36745">
        <ele>114</ele>
        <time>2022-06-26T09:02:39Z</time>
      </trkpt>
      <trkpt lat="46.50501" lon="0.36743">
        <ele>114</ele>
        <time>2022-06-26T09:02:40Z</time>
      </trkpt>
      <trkpt lat="46.50485" lon="0.36738">
        <ele>114</ele>
        <time>2022-06-26T09:02:44Z</time>
      </trkpt>
      <trkpt lat="46.50482" lon="0.36737">
        <ele>114</ele>
        <time>2022-06-26T09:02:45Z</time>
      </trkpt>
      <trkpt lat="46.50465" lon="0.36735">
        <ele>114.6</ele>
        <time>2022-06-26T09:02:49Z</time>
      </trkpt>
      <trkpt lat="46.50457" lon="0.36733">
        <ele>114.6</ele>
        <time>2022-06-26T09:02:51Z</time>
      </trkpt>
      <trkpt lat="46.50442" lon="0.36729">
        <ele>114.8</ele>
        <time>2022-06-26T09:02:54Z</time>
      </trkpt>
      <trkpt lat="46.50428" lon="0.36721">
        <ele>115</ele>
        <time>2022-06-26T09:02:57Z</time>
      </trkpt>
      <trkpt lat="46.50422" lon="0.36718">
        <ele>115</ele>
        <time>2022-06-26T09:02:58Z</time>
      </trkpt>
      <trkpt lat="46.50413" lon="0.36713">
        <ele>115</ele>
        <time>2022-06-26T09:03:00Z</time>
      </trkpt>
      <trkpt lat="46.50404" lon="0.36707">
        <ele>115.2</ele>
        <time>2022-06-26T09:03:02Z</time>
      </trkpt>
      <trkpt lat="46.50396" lon="0.36706">
        <ele>115.4</ele>
        <time>2022-06-26T09:03:04Z</time>
      </trkpt>
      <trkpt lat="46.50385" lon="0.36703">
        <ele>115.2</ele>
        <time>2022-06-26T09:03:07Z</time>
      </trkpt>
      <trkpt lat="46.5038" lon="0.36689">
        <ele>114.8</ele>
        <time>2022-06-26T09:03:11Z</time>
      </trkpt>
      <trkpt lat="46.50377" lon="0.36681">
        <ele>114.6</ele>
        <time>2022-06-26T09:03:13Z</time>
      </trkpt>
      <trkpt lat="46.50373" lon="0.36675">
        <ele>114.2</ele>
        <time>2022-06-26T09:03:15Z</time>
      </trkpt>
      <trkpt lat="46.50368" lon="0.36674">
        <ele>114.2</ele>
        <time>2022-06-26T09:03:18Z</time>
      </trkpt>
      <trkpt lat="46.50363" lon="0.36673">
        <ele>114.2</ele>
        <time>2022-06-26T09:03:20Z</time>
      </trkpt>
      <trkpt lat="46.50355" lon="0.36675">
        <ele>114.6</ele>
        <time>2022-06-26T09:03:25Z</time>
      </trkpt>
      <trkpt lat="46.5035" lon="0.36678">
        <ele>114.6</ele>
        <time>2022-06-26T09:03:27Z</time>
      </trkpt>
      <trkpt lat="46.50343" lon="0.3668">
        <ele>114.8</ele>
        <time>2022-06-26T09:03:30Z</time>
      </trkpt>
      <trkpt lat="46.50336" lon="0.36677">
        <ele>114.8</ele>
        <time>2022-06-26T09:03:32Z</time>
      </trkpt>
      <trkpt lat="46.5032" lon="0.36662">
        <ele>115.2</ele>
        <time>2022-06-26T09:03:38Z</time>
      </trkpt>
      <trkpt lat="46.50309" lon="0.36659">
        <ele>115.2</ele>
        <time>2022-06-26T09:03:42Z</time>
      </trkpt>
      <trkpt lat="46.50292" lon="0.36673">
        <ele>115.6</ele>
        <time>2022-06-26T09:03:48Z</time>
      </trkpt>
      <trkpt lat="46.50286" lon="0.36676">
        <ele>115.6</ele>
        <time>2022-06-26T09:03:50Z</time>
      </trkpt>
      <trkpt lat="46.5028" lon="0.36674">
        <ele>115.8</ele>
        <time>2022-06-26T09:03:52Z</time>
      </trkpt>
      <trkpt lat="46.50277" lon="0.36672">
        <ele>116</ele>
        <time>2022-06-26T09:03:53Z</time>
      </trkpt>
      <trkpt lat="46.50271" lon="0.36665">
        <ele>116</ele>
        <time>2022-06-26T09:03:56Z</time>
      </trkpt>
      <trkpt lat="46.50269" lon="0.36663">
        <ele>116</ele>
        <time>2022-06-26T09:03:57Z</time>
      </trkpt>
      <trkpt lat="46.50264" lon="0.36658">
        <ele>115.8</ele>
        <time>2022-06-26T09:03:59Z</time>
      </trkpt>
      <trkpt lat="46.50258" lon="0.36652">
        <ele>115.8</ele>
        <time>2022-06-26T09:04:02Z</time>
      </trkpt>
      <trkpt lat="46.50255" lon="0.36651">
        <ele>115.8</ele>
        <time>2022-06-26T09:04:04Z</time>
      </trkpt>
      <trkpt lat="46.50245" lon="0.36647">
        <ele>115.8</ele>
        <time>2022-06-26T09:04:08Z</time>
      </trkpt>
      <trkpt lat="46.50233" lon="0.36654">
        <ele>115.8</ele>
        <time>2022-06-26T09:04:13Z</time>
      </trkpt>
      <trkpt lat="46.50228" lon="0.36653">
        <ele>115.8</ele>
        <time>2022-06-26T09:04:15Z</time>
      </trkpt>
      <trkpt lat="46.50223" lon="0.36648">
        <ele>116</ele>
        <time>2022-06-26T09:04:17Z</time>
      </trkpt>
      <trkpt lat="46.50207" lon="0.36635">
        <ele>116.2</ele>
        <time>2022-06-26T09:04:23Z</time>
      </trkpt>
      <trkpt lat="46.50202" lon="0.36631">
        <ele>116.2</ele>
        <time>2022-06-26T09:04:25Z</time>
      </trkpt>
      <trkpt lat="46.50194" lon="0.36627">
        <ele>116.2</ele>
        <time>2022-06-26T09:04:27Z</time>
      </trkpt>
      <trkpt lat="46.50191" lon="0.36627">
        <ele>116.2</ele>
        <time>2022-06-26T09:04:28Z</time>
      </trkpt>
      <trkpt lat="46.5018" lon="0.36634">
        <ele>116.2</ele>
        <time>2022-06-26T09:04:33Z</time>
      </trkpt>
      <trkpt lat="46.50165" lon="0.3664">
        <ele>116.4</ele>
        <time>2022-06-26T09:04:38Z</time>
      </trkpt>
      <trkpt lat="46.5015" lon="0.36657">
        <ele>116.6</ele>
        <time>2022-06-26T09:04:44Z</time>
      </trkpt>
      <trkpt lat="46.50136" lon="0.36677">
        <ele>116.8</ele>
        <time>2022-06-26T09:04:51Z</time>
      </trkpt>
      <trkpt lat="46.50128" lon="0.36701">
        <ele>116.8</ele>
        <time>2022-06-26T09:04:57Z</time>
      </trkpt>
      <trkpt lat="46.50127" lon="0.3672">
        <ele>117</ele>
        <time>2022-06-26T09:05:02Z</time>
      </trkpt>
      <trkpt lat="46.50132" lon="0.36732">
        <ele>116.8</ele>
        <time>2022-06-26T09:05:05Z</time>
      </trkpt>
      <trkpt lat="46.50136" lon="0.36737">
        <ele>117</ele>
        <time>2022-06-26T09:05:07Z</time>
      </trkpt>
      <trkpt lat="46.50138" lon="0.36739">
        <ele>117</ele>
        <time>2022-06-26T09:05:08Z</time>
      </trkpt>
      <trkpt lat="46.50145" lon="0.36744">
        <ele>117.2</ele>
        <time>2022-06-26T09:05:12Z</time>
      </trkpt>
      <trkpt lat="46.50149" lon="0.36745">
        <ele>117.2</ele>
        <time>2022-06-26T09:05:15Z</time>
      </trkpt>
      <trkpt lat="46.50153" lon="0.36751">
        <ele>117.2</ele>
        <time>2022-06-26T09:05:17Z</time>
      </trkpt>
      <trkpt lat="46.50161" lon="0.36763">
        <ele>117</ele>
        <time>2022-06-26T09:05:21Z</time>
      </trkpt>
      <trkpt lat="46.50167" lon="0.36766">
        <ele>117.2</ele>
        <time>2022-06-26T09:05:23Z</time>
      </trkpt>
      <trkpt lat="46.50171" lon="0.36766">
        <ele>117</ele>
        <time>2022-06-26T09:05:25Z</time>
      </trkpt>
      <trkpt lat="46.50173" lon="0.36768">
        <ele>117</ele>
        <time>2022-06-26T09:05:26Z</time>
      </trkpt>
      <trkpt lat="46.50179" lon="0.36775">
        <ele>117</ele>
        <time>2022-06-26T09:05:29Z</time>
      </trkpt>
      <trkpt lat="46.50192" lon="0.36775">
        <ele>117.2</ele>
        <time>2022-06-26T09:05:33Z</time>
      </trkpt>
      <trkpt lat="46.50199" lon="0.36782">
        <ele>117.2</ele>
        <time>2022-06-26T09:05:36Z</time>
      </trkpt>
      <trkpt lat="46.50201" lon="0.36786">
        <ele>117</ele>
        <time>2022-06-26T09:05:37Z</time>
      </trkpt>
      <trkpt lat="46.50202" lon="0.36796">
        <ele>117</ele>
        <time>2022-06-26T09:05:39Z</time>
      </trkpt>
      <trkpt lat="46.50202" lon="0.36801">
        <ele>116.8</ele>
        <time>2022-06-26T09:05:40Z</time>
      </trkpt>
      <trkpt lat="46.50202" lon="0.3681">
        <ele>117</ele>
        <time>2022-06-26T09:05:42Z</time>
      </trkpt>
      <trkpt lat="46.502" lon="0.36821">
        <ele>117.2</ele>
        <time>2022-06-26T09:05:45Z</time>
      </trkpt>
      <trkpt lat="46.50201" lon="0.36824">
        <ele>117.4</ele>
        <time>2022-06-26T09:05:46Z</time>
      </trkpt>
      <trkpt lat="46.50204" lon="0.36834">
        <ele>117</ele>
        <time>2022-06-26T09:05:49Z</time>
      </trkpt>
      <trkpt lat="46.50203" lon="0.36836">
        <ele>117</ele>
        <time>2022-06-26T09:05:50Z</time>
      </trkpt>
      <trkpt lat="46.50201" lon="0.36838">
        <ele>117</ele>
        <time>2022-06-26T09:05:51Z</time>
      </trkpt>
      <trkpt lat="46.50194" lon="0.36845">
        <ele>117.4</ele>
        <time>2022-06-26T09:05:54Z</time>
      </trkpt>
      <trkpt lat="46.50175" lon="0.36863">
        <ele>117.6</ele>
        <time>2022-06-26T09:06:00Z</time>
      </trkpt>
      <trkpt lat="46.50171" lon="0.36867">
        <ele>117.4</ele>
        <time>2022-06-26T09:06:01Z</time>
      </trkpt>
      <trkpt lat="46.50166" lon="0.36875">
        <ele>117.4</ele>
        <time>2022-06-26T09:06:03Z</time>
      </trkpt>
      <trkpt lat="46.50166" lon="0.36878">
        <ele>117.4</ele>
        <time>2022-06-26T09:06:04Z</time>
      </trkpt>
      <trkpt lat="46.50168" lon="0.36898">
        <ele>117.2</ele>
        <time>2022-06-26T09:06:09Z</time>
      </trkpt>
      <trkpt lat="46.50173" lon="0.36923">
        <ele>117.4</ele>
        <time>2022-06-26T09:06:14Z</time>
      </trkpt>
      <trkpt lat="46.50173" lon="0.36928">
        <ele>117.4</ele>
        <time>2022-06-26T09:06:15Z</time>
      </trkpt>
      <trkpt lat="46.50175" lon="0.3695">
        <ele>117.2</ele>
        <time>2022-06-26T09:06:19Z</time>
      </trkpt>
      <trkpt lat="46.50177" lon="0.36955">
        <ele>117.2</ele>
        <time>2022-06-26T09:06:20Z</time>
      </trkpt>
      <trkpt lat="46.50182" lon="0.36967">
        <ele>117</ele>
        <time>2022-06-26T09:06:23Z</time>
      </trkpt>
      <trkpt lat="46.50183" lon="0.36974">
        <ele>116.6</ele>
        <time>2022-06-26T09:06:25Z</time>
      </trkpt>
      <trkpt lat="46.50185" lon="0.36984">
        <ele>116.2</ele>
        <time>2022-06-26T09:06:28Z</time>
      </trkpt>
      <trkpt lat="46.50188" lon="0.37009">
        <ele>116.2</ele>
        <time>2022-06-26T09:06:34Z</time>
      </trkpt>
      <trkpt lat="46.50189" lon="0.37027">
        <ele>116.4</ele>
        <time>2022-06-26T09:06:39Z</time>
      </trkpt>
      <trkpt lat="46.5019" lon="0.3703">
        <ele>116.4</ele>
        <time>2022-06-26T09:06:40Z</time>
      </trkpt>
      <trkpt lat="46.50194" lon="0.37036">
        <ele>116.2</ele>
        <time>2022-06-26T09:06:49Z</time>
      </trkpt>
      <trkpt lat="46.50187" lon="0.37053">
        <ele>116.2</ele>
        <time>2022-06-26T09:06:58Z</time>
      </trkpt>
      <trkpt lat="46.50186" lon="0.37059">
        <ele>116.2</ele>
        <time>2022-06-26T09:07:08Z</time>
      </trkpt>
      <trkpt lat="46.50186" lon="0.37064">
        <ele>116.2</ele>
        <time>2022-06-26T09:07:17Z</time>
      </trkpt>
      <trkpt lat="46.50188" lon="0.37068">
        <ele>116.4</ele>
        <time>2022-06-26T09:07:26Z</time>
      </trkpt>
      <trkpt lat="46.50188" lon="0.37066">
        <ele>116</ele>
        <time>2022-06-26T09:07:36Z</time>
      </trkpt>
      <trkpt lat="46.50189" lon="0.37066">
        <ele>116.4</ele>
        <time>2022-06-26T09:07:48Z</time>
      </trkpt>
      <trkpt lat="46.50189" lon="0.37064">
        <ele>116.4</ele>
        <time>2022-06-26T09:08:09Z</time>
      </trkpt>
      <trkpt lat="46.50185" lon="0.37061">
        <ele>116.4</ele>
        <time>2022-06-26T09:08:28Z</time>
      </trkpt>
      <trkpt lat="46.50185" lon="0.37069">
        <ele>116.4</ele>
        <time>2022-06-26T09:08:46Z</time>
      </trkpt>
      <trkpt lat="46.50181" lon="0.37064">
        <ele>116.4</ele>
        <time>2022-06-26T09:09:03Z</time>
      </trkpt>
      <trkpt lat="46.50182" lon="0.37065">
        <ele>116.4</ele>
        <time>2022-06-26T09:09:15Z</time>
      </trkpt>
      <trkpt lat="46.50183" lon="0.37066">
        <ele>116.4</ele>
        <time>2022-06-26T09:09:27Z</time>
      </trkpt>
      <trkpt lat="46.50185" lon="0.37065">
        <ele>116.4</ele>
        <time>2022-06-26T09:09:49Z</time>
      </trkpt>
      <trkpt lat="46.50187" lon="0.37065">
        <ele>116.4</ele>
        <time>2022-06-26T09:10:03Z</time>
      </trkpt>
      <trkpt lat="46.50198" lon="0.3707">
        <ele>116.4</ele>
        <time>2022-06-26T09:10:25Z</time>
      </trkpt>
      <trkpt lat="46.50192" lon="0.37078">
        <ele>116.4</ele>
        <time>2022-06-26T09:10:38Z</time>
      </trkpt>
      <trkpt lat="46.50191" lon="0.3708">
        <ele>116.4</ele>
        <time>2022-06-26T09:10:51Z</time>
      </trkpt>
      <trkpt lat="46.50189" lon="0.37083">
        <ele>116.4</ele>
        <time>2022-06-26T09:11:08Z</time>
      </trkpt>
      <trkpt lat="46.50189" lon="0.37088">
        <ele>116.4</ele>
        <time>2022-06-26T09:11:28Z</time>
      </trkpt>
      <trkpt lat="46.50189" lon="0.37091">
        <ele>116.4</ele>
        <time>2022-06-26T09:11:29Z</time>
      </trkpt>
      <trkpt lat="46.50182" lon="0.37096">
        <ele>116.4</ele>
        <time>2022-06-26T09:11:36Z</time>
      </trkpt>
      <trkpt lat="46.50173" lon="0.37092">
        <ele>116.4</ele>
        <time>2022-06-26T09:11:38Z</time>
      </trkpt>
      <trkpt lat="46.50166" lon="0.37088">
        <ele>116.6</ele>
        <time>2022-06-26T09:11:40Z</time>
      </trkpt>
      <trkpt lat="46.50147" lon="0.37076">
        <ele>116.8</ele>
        <time>2022-06-26T09:11:44Z</time>
      </trkpt>
      <trkpt lat="46.50134" lon="0.37068">
        <ele>117</ele>
        <time>2022-06-26T09:11:47Z</time>
      </trkpt>
      <trkpt lat="46.50127" lon="0.3707">
        <ele>117.2</ele>
        <time>2022-06-26T09:11:49Z</time>
      </trkpt>
      <trkpt lat="46.50124" lon="0.37079">
        <ele>117.2</ele>
        <time>2022-06-26T09:11:51Z</time>
      </trkpt>
      <trkpt lat="46.50123" lon="0.37084">
        <ele>117</ele>
        <time>2022-06-26T09:11:52Z</time>
      </trkpt>
      <trkpt lat="46.50117" lon="0.37105">
        <ele>116.6</ele>
        <time>2022-06-26T09:11:57Z</time>
      </trkpt>
      <trkpt lat="46.50113" lon="0.37108">
        <ele>116.6</ele>
        <time>2022-06-26T09:11:59Z</time>
      </trkpt>
      <trkpt lat="46.501" lon="0.3711">
        <ele>116.6</ele>
        <time>2022-06-26T09:12:05Z</time>
      </trkpt>
      <trkpt lat="46.50099" lon="0.37109">
        <ele>116.6</ele>
        <time>2022-06-26T09:12:06Z</time>
      </trkpt>
      <trkpt lat="46.50094" lon="0.37103">
        <ele>116.8</ele>
        <time>2022-06-26T09:12:09Z</time>
      </trkpt>
      <trkpt lat="46.50088" lon="0.37099">
        <ele>116.8</ele>
        <time>2022-06-26T09:12:11Z</time>
      </trkpt>
      <trkpt lat="46.50075" lon="0.37091">
        <ele>116.8</ele>
        <time>2022-06-26T09:12:15Z</time>
      </trkpt>
      <trkpt lat="46.50071" lon="0.37085">
        <ele>117</ele>
        <time>2022-06-26T09:12:17Z</time>
      </trkpt>
      <trkpt lat="46.50063" lon="0.37073">
        <ele>117.4</ele>
        <time>2022-06-26T09:12:23Z</time>
      </trkpt>
      <trkpt lat="46.50057" lon="0.37071">
        <ele>117.6</ele>
        <time>2022-06-26T09:12:26Z</time>
      </trkpt>
      <trkpt lat="46.50054" lon="0.3707">
        <ele>117.2</ele>
        <time>2022-06-26T09:12:28Z</time>
      </trkpt>
      <trkpt lat="46.50051" lon="0.3707">
        <ele>117</ele>
        <time>2022-06-26T09:12:30Z</time>
      </trkpt>
      <trkpt lat="46.50042" lon="0.37071">
        <ele>117.2</ele>
        <time>2022-06-26T09:12:34Z</time>
      </trkpt>
      <trkpt lat="46.50036" lon="0.37069">
        <ele>117.4</ele>
        <time>2022-06-26T09:12:37Z</time>
      </trkpt>
      <trkpt lat="46.50028" lon="0.37066">
        <ele>117.4</ele>
        <time>2022-06-26T09:12:40Z</time>
      </trkpt>
      <trkpt lat="46.50016" lon="0.37061">
        <ele>117.6</ele>
        <time>2022-06-26T09:12:44Z</time>
      </trkpt>
      <trkpt lat="46.50012" lon="0.37061">
        <ele>117.6</ele>
        <time>2022-06-26T09:12:46Z</time>
      </trkpt>
      <trkpt lat="46.50003" lon="0.37062">
        <ele>117.4</ele>
        <time>2022-06-26T09:12:50Z</time>
      </trkpt>
      <trkpt lat="46.5" lon="0.37063">
        <ele>117.4</ele>
        <time>2022-06-26T09:12:52Z</time>
      </trkpt>
      <trkpt lat="46.49984" lon="0.37071">
        <ele>117.4</ele>
        <time>2022-06-26T09:13:00Z</time>
      </trkpt>
      <trkpt lat="46.49975" lon="0.37071">
        <ele>117.6</ele>
        <time>2022-06-26T09:13:05Z</time>
      </trkpt>
      <trkpt lat="46.4997" lon="0.37078">
        <ele>118</ele>
        <time>2022-06-26T09:13:08Z</time>
      </trkpt>
      <trkpt lat="46.49964" lon="0.37083">
        <ele>118.2</ele>
        <time>2022-06-26T09:13:11Z</time>
      </trkpt>
      <trkpt lat="46.49958" lon="0.37089">
        <ele>118.2</ele>
        <time>2022-06-26T09:13:13Z</time>
      </trkpt>
      <trkpt lat="46.49952" lon="0.37093">
        <ele>118.2</ele>
        <time>2022-06-26T09:13:15Z</time>
      </trkpt>
      <trkpt lat="46.49947" lon="0.37097">
        <ele>118</ele>
        <time>2022-06-26T09:13:17Z</time>
      </trkpt>
      <trkpt lat="46.49934" lon="0.37112">
        <ele>118</ele>
        <time>2022-06-26T09:13:22Z</time>
      </trkpt>
      <trkpt lat="46.49933" lon="0.37115">
        <ele>118.4</ele>
        <time>2022-06-26T09:13:23Z</time>
      </trkpt>
      <trkpt lat="46.49927" lon="0.37126">
        <ele>118.4</ele>
        <time>2022-06-26T09:13:26Z</time>
      </trkpt>
      <trkpt lat="46.4992" lon="0.37133">
        <ele>118.8</ele>
        <time>2022-06-26T09:13:29Z</time>
      </trkpt>
      <trkpt lat="46.49915" lon="0.3714">
        <ele>118.8</ele>
        <time>2022-06-26T09:13:31Z</time>
      </trkpt>
      <trkpt lat="46.49906" lon="0.37154">
        <ele>118.8</ele>
        <time>2022-06-26T09:13:34Z</time>
      </trkpt>
      <trkpt lat="46.49898" lon="0.37162">
        <ele>118.6</ele>
        <time>2022-06-26T09:13:36Z</time>
      </trkpt>
      <trkpt lat="46.4989" lon="0.37169">
        <ele>118.6</ele>
        <time>2022-06-26T09:13:38Z</time>
      </trkpt>
      <trkpt lat="46.49885" lon="0.37176">
        <ele>118.6</ele>
        <time>2022-06-26T09:13:40Z</time>
      </trkpt>
      <trkpt lat="46.49884" lon="0.37179">
        <ele>118.6</ele>
        <time>2022-06-26T09:13:41Z</time>
      </trkpt>
      <trkpt lat="46.49884" lon="0.37184">
        <ele>118.6</ele>
        <time>2022-06-26T09:13:42Z</time>
      </trkpt>
      <trkpt lat="46.49888" lon="0.37194">
        <ele>118.6</ele>
        <time>2022-06-26T09:13:45Z</time>
      </trkpt>
      <trkpt lat="46.49898" lon="0.37215">
        <ele>118.8</ele>
        <time>2022-06-26T09:13:49Z</time>
      </trkpt>
      <trkpt lat="46.49911" lon="0.3724">
        <ele>119</ele>
        <time>2022-06-26T09:13:54Z</time>
      </trkpt>
      <trkpt lat="46.49914" lon="0.37248">
        <ele>118.8</ele>
        <time>2022-06-26T09:13:56Z</time>
      </trkpt>
      <trkpt lat="46.49915" lon="0.37255">
        <ele>118.6</ele>
        <time>2022-06-26T09:13:58Z</time>
      </trkpt>
      <trkpt lat="46.49912" lon="0.37267">
        <ele>118</ele>
        <time>2022-06-26T09:14:01Z</time>
      </trkpt>
      <trkpt lat="46.49908" lon="0.37275">
        <ele>118</ele>
        <time>2022-06-26T09:14:03Z</time>
      </trkpt>
      <trkpt lat="46.49899" lon="0.37291">
        <ele>118.2</ele>
        <time>2022-06-26T09:14:07Z</time>
      </trkpt>
      <trkpt lat="46.49893" lon="0.37301">
        <ele>119.2</ele>
        <time>2022-06-26T09:14:10Z</time>
      </trkpt>
      <trkpt lat="46.49876" lon="0.37324">
        <ele>119.6</ele>
        <time>2022-06-26T09:14:16Z</time>
      </trkpt>
      <trkpt lat="46.4987" lon="0.37331">
        <ele>119.4</ele>
        <time>2022-06-26T09:14:18Z</time>
      </trkpt>
      <trkpt lat="46.49864" lon="0.37331">
        <ele>119.4</ele>
        <time>2022-06-26T09:14:20Z</time>
      </trkpt>
      <trkpt lat="46.49856" lon="0.37334">
        <ele>119.4</ele>
        <time>2022-06-26T09:14:22Z</time>
      </trkpt>
      <trkpt lat="46.49843" lon="0.3733">
        <ele>119.4</ele>
        <time>2022-06-26T09:14:25Z</time>
      </trkpt>
      <trkpt lat="46.49835" lon="0.37328">
        <ele>119.4</ele>
        <time>2022-06-26T09:14:27Z</time>
      </trkpt>
      <trkpt lat="46.49825" lon="0.37321">
        <ele>119.4</ele>
        <time>2022-06-26T09:14:30Z</time>
      </trkpt>
      <trkpt lat="46.49814" lon="0.37319">
        <ele>119.6</ele>
        <time>2022-06-26T09:14:34Z</time>
      </trkpt>
      <trkpt lat="46.49811" lon="0.37322">
        <ele>119.6</ele>
        <time>2022-06-26T09:14:35Z</time>
      </trkpt>
      <trkpt lat="46.49793" lon="0.37333">
        <ele>119.6</ele>
        <time>2022-06-26T09:14:40Z</time>
      </trkpt>
      <trkpt lat="46.4979" lon="0.37337">
        <ele>119.6</ele>
        <time>2022-06-26T09:14:41Z</time>
      </trkpt>
      <trkpt lat="46.49784" lon="0.37348">
        <ele>119</ele>
        <time>2022-06-26T09:14:44Z</time>
      </trkpt>
      <trkpt lat="46.49783" lon="0.37352">
        <ele>119.2</ele>
        <time>2022-06-26T09:14:45Z</time>
      </trkpt>
      <trkpt lat="46.49777" lon="0.37381">
        <ele>119.8</ele>
        <time>2022-06-26T09:14:51Z</time>
      </trkpt>
      <trkpt lat="46.49775" lon="0.37386">
        <ele>119.8</ele>
        <time>2022-06-26T09:14:52Z</time>
      </trkpt>
      <trkpt lat="46.49771" lon="0.37401">
        <ele>119.6</ele>
        <time>2022-06-26T09:14:56Z</time>
      </trkpt>
      <trkpt lat="46.49769" lon="0.37404">
        <ele>119.8</ele>
        <time>2022-06-26T09:14:57Z</time>
      </trkpt>
      <trkpt lat="46.49769" lon="0.37407">
        <ele>119.8</ele>
        <time>2022-06-26T09:14:58Z</time>
      </trkpt>
      <trkpt lat="46.49765" lon="0.37417">
        <ele>119.8</ele>
        <time>2022-06-26T09:15:01Z</time>
      </trkpt>
      <trkpt lat="46.49761" lon="0.37424">
        <ele>119.8</ele>
        <time>2022-06-26T09:15:03Z</time>
      </trkpt>
      <trkpt lat="46.49747" lon="0.37447">
        <ele>119.8</ele>
        <time>2022-06-26T09:15:10Z</time>
      </trkpt>
      <trkpt lat="46.49728" lon="0.37485">
        <ele>119.8</ele>
        <time>2022-06-26T09:15:16Z</time>
      </trkpt>
      <trkpt lat="46.49719" lon="0.37521">
        <ele>119.6</ele>
        <time>2022-06-26T09:15:21Z</time>
      </trkpt>
      <trkpt lat="46.4971" lon="0.37556">
        <ele>120</ele>
        <time>2022-06-26T09:15:28Z</time>
      </trkpt>
      <trkpt lat="46.49702" lon="0.37577">
        <ele>120</ele>
        <time>2022-06-26T09:15:31Z</time>
      </trkpt>
      <trkpt lat="46.49702" lon="0.37582">
        <ele>120</ele>
        <time>2022-06-26T09:15:32Z</time>
      </trkpt>
      <trkpt lat="46.49701" lon="0.37597">
        <ele>119.6</ele>
        <time>2022-06-26T09:15:37Z</time>
      </trkpt>
      <trkpt lat="46.49699" lon="0.37601">
        <ele>118.2</ele>
        <time>2022-06-26T09:15:45Z</time>
      </trkpt>
      <trkpt lat="46.49699" lon="0.37601">
        <ele>118.2</ele>
        <time>2022-06-26T09:15:48Z</time>
      </trkpt>
      <trkpt lat="46.49697" lon="0.37602">
        <ele>118.2</ele>
        <time>2022-06-26T09:15:59Z</time>
      </trkpt>
      <trkpt lat="46.49692" lon="0.3761">
        <ele>118</ele>
        <time>2022-06-26T09:16:14Z</time>
      </trkpt>
      <trkpt lat="46.49691" lon="0.37614">
        <ele>118</ele>
        <time>2022-06-26T09:16:32Z</time>
      </trkpt>
      <trkpt lat="46.49691" lon="0.37619">
        <ele>118</ele>
        <time>2022-06-26T09:16:47Z</time>
      </trkpt>
      <trkpt lat="46.49687" lon="0.37626">
        <ele>118</ele>
        <time>2022-06-26T09:17:06Z</time>
      </trkpt>
      <trkpt lat="46.49692" lon="0.37635">
        <ele>118</ele>
        <time>2022-06-26T09:17:13Z</time>
      </trkpt>
      <trkpt lat="46.49696" lon="0.37638">
        <ele>118</ele>
        <time>2022-06-26T09:17:15Z</time>
      </trkpt>
      <trkpt lat="46.49715" lon="0.37651">
        <ele>118.2</ele>
        <time>2022-06-26T09:17:21Z</time>
      </trkpt>
      <trkpt lat="46.49721" lon="0.37658">
        <ele>118.2</ele>
        <time>2022-06-26T09:17:23Z</time>
      </trkpt>
      <trkpt lat="46.49729" lon="0.37664">
        <ele>118</ele>
        <time>2022-06-26T09:17:25Z</time>
      </trkpt>
      <trkpt lat="46.49734" lon="0.37666">
        <ele>118</ele>
        <time>2022-06-26T09:17:26Z</time>
      </trkpt>
      <trkpt lat="46.49761" lon="0.37675">
        <ele>118.2</ele>
        <time>2022-06-26T09:17:31Z</time>
      </trkpt>
      <trkpt lat="46.49771" lon="0.37677">
        <ele>118.4</ele>
        <time>2022-06-26T09:17:33Z</time>
      </trkpt>
      <trkpt lat="46.49781" lon="0.37683">
        <ele>118.6</ele>
        <time>2022-06-26T09:17:35Z</time>
      </trkpt>
      <trkpt lat="46.49785" lon="0.37687">
        <ele>118.8</ele>
        <time>2022-06-26T09:17:36Z</time>
      </trkpt>
      <trkpt lat="46.49793" lon="0.37695">
        <ele>118.4</ele>
        <time>2022-06-26T09:17:38Z</time>
      </trkpt>
      <trkpt lat="46.49803" lon="0.37707">
        <ele>118.2</ele>
        <time>2022-06-26T09:17:41Z</time>
      </trkpt>
      <trkpt lat="46.49807" lon="0.3771">
        <ele>118.2</ele>
        <time>2022-06-26T09:17:42Z</time>
      </trkpt>
      <trkpt lat="46.49814" lon="0.37715">
        <ele>118</ele>
        <time>2022-06-26T09:17:44Z</time>
      </trkpt>
      <trkpt lat="46.49822" lon="0.37712">
        <ele>118.2</ele>
        <time>2022-06-26T09:17:47Z</time>
      </trkpt>
      <trkpt lat="46.49841" lon="0.37692">
        <ele>118.4</ele>
        <time>2022-06-26T09:17:52Z</time>
      </trkpt>
      <trkpt lat="46.49847" lon="0.37682">
        <ele>118.6</ele>
        <time>2022-06-26T09:17:54Z</time>
      </trkpt>
      <trkpt lat="46.49857" lon="0.37665">
        <ele>118.8</ele>
        <time>2022-06-26T09:17:57Z</time>
      </trkpt>
      <trkpt lat="46.49875" lon="0.37644">
        <ele>119.2</ele>
        <time>2022-06-26T09:18:01Z</time>
      </trkpt>
      <trkpt lat="46.49886" lon="0.37627">
        <ele>118.8</ele>
        <time>2022-06-26T09:18:04Z</time>
      </trkpt>
      <trkpt lat="46.49908" lon="0.37597">
        <ele>118.4</ele>
        <time>2022-06-26T09:18:09Z</time>
      </trkpt>
      <trkpt lat="46.49912" lon="0.37592">
        <ele>118.2</ele>
        <time>2022-06-26T09:18:10Z</time>
      </trkpt>
      <trkpt lat="46.49937" lon="0.37555">
        <ele>118.4</ele>
        <time>2022-06-26T09:18:16Z</time>
      </trkpt>
      <trkpt lat="46.49955" lon="0.37521">
        <ele>118</ele>
        <time>2022-06-26T09:18:21Z</time>
      </trkpt>
      <trkpt lat="46.49964" lon="0.37499">
        <ele>117.8</ele>
        <time>2022-06-26T09:18:24Z</time>
      </trkpt>
      <trkpt lat="46.49988" lon="0.37452">
        <ele>117.8</ele>
        <time>2022-06-26T09:18:31Z</time>
      </trkpt>
      <trkpt lat="46.50011" lon="0.37414">
        <ele>117</ele>
        <time>2022-06-26T09:18:37Z</time>
      </trkpt>
      <trkpt lat="46.5002" lon="0.37401">
        <ele>116.2</ele>
        <time>2022-06-26T09:18:40Z</time>
      </trkpt>
      <trkpt lat="46.50022" lon="0.37401">
        <ele>116</ele>
        <time>2022-06-26T09:18:41Z</time>
      </trkpt>
      <trkpt lat="46.50034" lon="0.3741">
        <ele>116</ele>
        <time>2022-06-26T09:18:45Z</time>
      </trkpt>
      <trkpt lat="46.50047" lon="0.37418">
        <ele>116.2</ele>
        <time>2022-06-26T09:18:48Z</time>
      </trkpt>
      <trkpt lat="46.50058" lon="0.37423">
        <ele>116.2</ele>
        <time>2022-06-26T09:18:50Z</time>
      </trkpt>
      <trkpt lat="46.50083" lon="0.37438">
        <ele>116.2</ele>
        <time>2022-06-26T09:18:56Z</time>
      </trkpt>
      <trkpt lat="46.5009" lon="0.37446">
        <ele>116.4</ele>
        <time>2022-06-26T09:18:58Z</time>
      </trkpt>
      <trkpt lat="46.50118" lon="0.37474">
        <ele>116</ele>
        <time>2022-06-26T09:19:04Z</time>
      </trkpt>
      <trkpt lat="46.50127" lon="0.37482">
        <ele>116</ele>
        <time>2022-06-26T09:19:06Z</time>
      </trkpt>
      <trkpt lat="46.50155" lon="0.37503">
        <ele>115.2</ele>
        <time>2022-06-26T09:19:11Z</time>
      </trkpt>
      <trkpt lat="46.50176" lon="0.37521">
        <ele>115</ele>
        <time>2022-06-26T09:19:15Z</time>
      </trkpt>
      <trkpt lat="46.50181" lon="0.37527">
        <ele>115</ele>
        <time>2022-06-26T09:19:16Z</time>
      </trkpt>
      <trkpt lat="46.50207" lon="0.37554">
        <ele>114.8</ele>
        <time>2022-06-26T09:19:21Z</time>
      </trkpt>
      <trkpt lat="46.50213" lon="0.37559">
        <ele>114.8</ele>
        <time>2022-06-26T09:19:22Z</time>
      </trkpt>
      <trkpt lat="46.50219" lon="0.37564">
        <ele>114.8</ele>
        <time>2022-06-26T09:19:23Z</time>
      </trkpt>
      <trkpt lat="46.50241" lon="0.37581">
        <ele>114.6</ele>
        <time>2022-06-26T09:19:27Z</time>
      </trkpt>
      <trkpt lat="46.50261" lon="0.37601">
        <ele>114.8</ele>
        <time>2022-06-26T09:19:32Z</time>
      </trkpt>
      <trkpt lat="46.50283" lon="0.37621">
        <ele>114.2</ele>
        <time>2022-06-26T09:19:37Z</time>
      </trkpt>
      <trkpt lat="46.50285" lon="0.37625">
        <ele>114.4</ele>
        <time>2022-06-26T09:19:38Z</time>
      </trkpt>
      <trkpt lat="46.50286" lon="0.37629">
        <ele>114.4</ele>
        <time>2022-06-26T09:19:39Z</time>
      </trkpt>
      <trkpt lat="46.50286" lon="0.37636">
        <ele>115</ele>
        <time>2022-06-26T09:19:41Z</time>
      </trkpt>
      <trkpt lat="46.50276" lon="0.37659">
        <ele>115</ele>
        <time>2022-06-26T09:19:46Z</time>
      </trkpt>
      <trkpt lat="46.50262" lon="0.37682">
        <ele>116</ele>
        <time>2022-06-26T09:19:51Z</time>
      </trkpt>
      <trkpt lat="46.50253" lon="0.37695">
        <ele>116</ele>
        <time>2022-06-26T09:19:54Z</time>
      </trkpt>
      <trkpt lat="46.50244" lon="0.3771">
        <ele>116.2</ele>
        <time>2022-06-26T09:19:57Z</time>
      </trkpt>
      <trkpt lat="46.50237" lon="0.37718">
        <ele>116.4</ele>
        <time>2022-06-26T09:19:59Z</time>
      </trkpt>
      <trkpt lat="46.50215" lon="0.37742">
        <ele>117</ele>
        <time>2022-06-26T09:20:04Z</time>
      </trkpt>
      <trkpt lat="46.50211" lon="0.37746">
        <ele>117</ele>
        <time>2022-06-26T09:20:05Z</time>
      </trkpt>
      <trkpt lat="46.50181" lon="0.3778">
        <ele>117.2</ele>
        <time>2022-06-26T09:20:13Z</time>
      </trkpt>
      <trkpt lat="46.50177" lon="0.37785">
        <ele>117.2</ele>
        <time>2022-06-26T09:20:14Z</time>
      </trkpt>
      <trkpt lat="46.50165" lon="0.37805">
        <ele>117</ele>
        <time>2022-06-26T09:20:18Z</time>
      </trkpt>
      <trkpt lat="46.50164" lon="0.37808">
        <ele>117</ele>
        <time>2022-06-26T09:20:19Z</time>
      </trkpt>
      <trkpt lat="46.50162" lon="0.37814">
        <ele>117</ele>
        <time>2022-06-26T09:20:22Z</time>
      </trkpt>
      <trkpt lat="46.50161" lon="0.37814">
        <ele>117</ele>
        <time>2022-06-26T09:20:23Z</time>
      </trkpt>
      <trkpt lat="46.50151" lon="0.37823">
        <ele>117.2</ele>
        <time>2022-06-26T09:20:28Z</time>
      </trkpt>
      <trkpt lat="46.50136" lon="0.37846">
        <ele>117.4</ele>
        <time>2022-06-26T09:20:33Z</time>
      </trkpt>
      <trkpt lat="46.50109" lon="0.37881">
        <ele>117.8</ele>
        <time>2022-06-26T09:20:40Z</time>
      </trkpt>
      <trkpt lat="46.50079" lon="0.37928">
        <ele>117.8</ele>
        <time>2022-06-26T09:20:48Z</time>
      </trkpt>
      <trkpt lat="46.50075" lon="0.37934">
        <ele>117.6</ele>
        <time>2022-06-26T09:20:49Z</time>
      </trkpt>
      <trkpt lat="46.50049" lon="0.37963">
        <ele>117.4</ele>
        <time>2022-06-26T09:20:54Z</time>
      </trkpt>
      <trkpt lat="46.50033" lon="0.37984">
        <ele>117</ele>
        <time>2022-06-26T09:20:57Z</time>
      </trkpt>
      <trkpt lat="46.5003" lon="0.37991">
        <ele>116.8</ele>
        <time>2022-06-26T09:20:58Z</time>
      </trkpt>
      <trkpt lat="46.50029" lon="0.37998">
        <ele>116.6</ele>
        <time>2022-06-26T09:20:59Z</time>
      </trkpt>
      <trkpt lat="46.50029" lon="0.38012">
        <ele>116.2</ele>
        <time>2022-06-26T09:21:01Z</time>
      </trkpt>
      <trkpt lat="46.50032" lon="0.38025">
        <ele>116</ele>
        <time>2022-06-26T09:21:03Z</time>
      </trkpt>
      <trkpt lat="46.50037" lon="0.38037">
        <ele>116</ele>
        <time>2022-06-26T09:21:05Z</time>
      </trkpt>
      <trkpt lat="46.5004" lon="0.38043">
        <ele>115.8</ele>
        <time>2022-06-26T09:21:06Z</time>
      </trkpt>
      <trkpt lat="46.50051" lon="0.38052">
        <ele>115.6</ele>
        <time>2022-06-26T09:21:08Z</time>
      </trkpt>
      <trkpt lat="46.50063" lon="0.38056">
        <ele>115.4</ele>
        <time>2022-06-26T09:21:10Z</time>
      </trkpt>
      <trkpt lat="46.50074" lon="0.38058">
        <ele>115.6</ele>
        <time>2022-06-26T09:21:12Z</time>
      </trkpt>
      <trkpt lat="46.50085" lon="0.38065">
        <ele>115.8</ele>
        <time>2022-06-26T09:21:14Z</time>
      </trkpt>
      <trkpt lat="46.50092" lon="0.38075">
        <ele>115.8</ele>
        <time>2022-06-26T09:21:16Z</time>
      </trkpt>
      <trkpt lat="46.5011" lon="0.38106">
        <ele>116</ele>
        <time>2022-06-26T09:21:21Z</time>
      </trkpt>
      <trkpt lat="46.50114" lon="0.38112">
        <ele>116</ele>
        <time>2022-06-26T09:21:22Z</time>
      </trkpt>
      <trkpt lat="46.50129" lon="0.38126">
        <ele>116</ele>
        <time>2022-06-26T09:21:25Z</time>
      </trkpt>
      <trkpt lat="46.50142" lon="0.38141">
        <ele>115.6</ele>
        <time>2022-06-26T09:21:28Z</time>
      </trkpt>
      <trkpt lat="46.50151" lon="0.38146">
        <ele>115.6</ele>
        <time>2022-06-26T09:21:30Z</time>
      </trkpt>
      <trkpt lat="46.50184" lon="0.38152">
        <ele>115.8</ele>
        <time>2022-06-26T09:21:36Z</time>
      </trkpt>
      <trkpt lat="46.5021" lon="0.3816">
        <ele>115.8</ele>
        <time>2022-06-26T09:21:41Z</time>
      </trkpt>
      <trkpt lat="46.50214" lon="0.38159">
        <ele>115.8</ele>
        <time>2022-06-26T09:21:42Z</time>
      </trkpt>
      <trkpt lat="46.50218" lon="0.38158">
        <ele>115.8</ele>
        <time>2022-06-26T09:21:43Z</time>
      </trkpt>
      <trkpt lat="46.50223" lon="0.38152">
        <ele>115.8</ele>
        <time>2022-06-26T09:21:45Z</time>
      </trkpt>
      <trkpt lat="46.50226" lon="0.38149">
        <ele>115.8</ele>
        <time>2022-06-26T09:21:46Z</time>
      </trkpt>
      <trkpt lat="46.50232" lon="0.3814">
        <ele>115.8</ele>
        <time>2022-06-26T09:21:48Z</time>
      </trkpt>
      <trkpt lat="46.50236" lon="0.38131">
        <ele>116</ele>
        <time>2022-06-26T09:21:50Z</time>
      </trkpt>
      <trkpt lat="46.50242" lon="0.38126">
        <ele>116.2</ele>
        <time>2022-06-26T09:21:52Z</time>
      </trkpt>
      <trkpt lat="46.50246" lon="0.38124">
        <ele>116.4</ele>
        <time>2022-06-26T09:21:53Z</time>
      </trkpt>
      <trkpt lat="46.50261" lon="0.38121">
        <ele>116.8</ele>
        <time>2022-06-26T09:21:56Z</time>
      </trkpt>
      <trkpt lat="46.50289" lon="0.38118">
        <ele>117</ele>
        <time>2022-06-26T09:22:01Z</time>
      </trkpt>
      <trkpt lat="46.50292" lon="0.38116">
        <ele>116.8</ele>
        <time>2022-06-26T09:22:02Z</time>
      </trkpt>
      <trkpt lat="46.50296" lon="0.38112">
        <ele>116.8</ele>
        <time>2022-06-26T09:22:03Z</time>
      </trkpt>
      <trkpt lat="46.5031" lon="0.38101">
        <ele>116.8</ele>
        <time>2022-06-26T09:22:06Z</time>
      </trkpt>
      <trkpt lat="46.50313" lon="0.38098">
        <ele>116.8</ele>
        <time>2022-06-26T09:22:07Z</time>
      </trkpt>
      <trkpt lat="46.50348" lon="0.38063">
        <ele>117</ele>
        <time>2022-06-26T09:22:15Z</time>
      </trkpt>
      <trkpt lat="46.50359" lon="0.38049">
        <ele>116.8</ele>
        <time>2022-06-26T09:22:19Z</time>
      </trkpt>
      <trkpt lat="46.50363" lon="0.38048">
        <ele>116.6</ele>
        <time>2022-06-26T09:22:20Z</time>
      </trkpt>
      <trkpt lat="46.50382" lon="0.38055">
        <ele>116.2</ele>
        <time>2022-06-26T09:22:25Z</time>
      </trkpt>
      <trkpt lat="46.50406" lon="0.38065">
        <ele>115.8</ele>
        <time>2022-06-26T09:22:30Z</time>
      </trkpt>
      <trkpt lat="46.5041" lon="0.38067">
        <ele>115.6</ele>
        <time>2022-06-26T09:22:31Z</time>
      </trkpt>
      <trkpt lat="46.5042" lon="0.38073">
        <ele>115.6</ele>
        <time>2022-06-26T09:22:33Z</time>
      </trkpt>
      <trkpt lat="46.50441" lon="0.38088">
        <ele>115.2</ele>
        <time>2022-06-26T09:22:37Z</time>
      </trkpt>
      <trkpt lat="46.50465" lon="0.381">
        <ele>114.6</ele>
        <time>2022-06-26T09:22:41Z</time>
      </trkpt>
      <trkpt lat="46.50474" lon="0.38109">
        <ele>114.4</ele>
        <time>2022-06-26T09:22:43Z</time>
      </trkpt>
      <trkpt lat="46.50475" lon="0.38119">
        <ele>114.4</ele>
        <time>2022-06-26T09:22:45Z</time>
      </trkpt>
      <trkpt lat="46.50475" lon="0.38123">
        <ele>114.4</ele>
        <time>2022-06-26T09:22:46Z</time>
      </trkpt>
      <trkpt lat="46.50468" lon="0.38152">
        <ele>114</ele>
        <time>2022-06-26T09:22:51Z</time>
      </trkpt>
      <trkpt lat="46.50465" lon="0.38158">
        <ele>114</ele>
        <time>2022-06-26T09:22:52Z</time>
      </trkpt>
      <trkpt lat="46.50447" lon="0.38197">
        <ele>113.8</ele>
        <time>2022-06-26T09:22:58Z</time>
      </trkpt>
      <trkpt lat="46.50438" lon="0.38215">
        <ele>113.8</ele>
        <time>2022-06-26T09:23:01Z</time>
      </trkpt>
      <trkpt lat="46.50434" lon="0.38226">
        <ele>113.8</ele>
        <time>2022-06-26T09:23:03Z</time>
      </trkpt>
      <trkpt lat="46.50432" lon="0.38236">
        <ele>113.8</ele>
        <time>2022-06-26T09:23:05Z</time>
      </trkpt>
      <trkpt lat="46.50432" lon="0.38247">
        <ele>113.6</ele>
        <time>2022-06-26T09:23:07Z</time>
      </trkpt>
      <trkpt lat="46.50433" lon="0.38253">
        <ele>113.6</ele>
        <time>2022-06-26T09:23:08Z</time>
      </trkpt>
      <trkpt lat="46.50435" lon="0.38258">
        <ele>113.4</ele>
        <time>2022-06-26T09:23:09Z</time>
      </trkpt>
      <trkpt lat="46.50443" lon="0.38271">
        <ele>113.4</ele>
        <time>2022-06-26T09:23:12Z</time>
      </trkpt>
      <trkpt lat="46.50445" lon="0.38276">
        <ele>113.2</ele>
        <time>2022-06-26T09:23:13Z</time>
      </trkpt>
      <trkpt lat="46.50448" lon="0.38286">
        <ele>112.8</ele>
        <time>2022-06-26T09:23:15Z</time>
      </trkpt>
      <trkpt lat="46.50452" lon="0.38296">
        <ele>113</ele>
        <time>2022-06-26T09:23:17Z</time>
      </trkpt>
      <trkpt lat="46.5046" lon="0.38319">
        <ele>112.6</ele>
        <time>2022-06-26T09:23:20Z</time>
      </trkpt>
      <trkpt lat="46.50468" lon="0.38331">
        <ele>112.6</ele>
        <time>2022-06-26T09:23:22Z</time>
      </trkpt>
      <trkpt lat="46.50473" lon="0.38336">
        <ele>112.4</ele>
        <time>2022-06-26T09:23:23Z</time>
      </trkpt>
      <trkpt lat="46.50487" lon="0.38348">
        <ele>112</ele>
        <time>2022-06-26T09:23:26Z</time>
      </trkpt>
      <trkpt lat="46.50489" lon="0.38358">
        <ele>111.8</ele>
        <time>2022-06-26T09:23:28Z</time>
      </trkpt>
      <trkpt lat="46.50491" lon="0.38368">
        <ele>111.8</ele>
        <time>2022-06-26T09:23:30Z</time>
      </trkpt>
      <trkpt lat="46.50495" lon="0.38387">
        <ele>111.8</ele>
        <time>2022-06-26T09:23:33Z</time>
      </trkpt>
      <trkpt lat="46.50501" lon="0.38399">
        <ele>111.6</ele>
        <time>2022-06-26T09:23:35Z</time>
      </trkpt>
      <trkpt lat="46.50503" lon="0.38405">
        <ele>111.6</ele>
        <time>2022-06-26T09:23:36Z</time>
      </trkpt>
      <trkpt lat="46.50505" lon="0.38408">
        <ele>111.4</ele>
        <time>2022-06-26T09:23:37Z</time>
      </trkpt>
      <trkpt lat="46.50507" lon="0.3841">
        <ele>111.2</ele>
        <time>2022-06-26T09:23:38Z</time>
      </trkpt>
      <trkpt lat="46.5051" lon="0.38419">
        <ele>110.8</ele>
        <time>2022-06-26T09:23:40Z</time>
      </trkpt>
      <trkpt lat="46.50514" lon="0.38427">
        <ele>110.8</ele>
        <time>2022-06-26T09:23:43Z</time>
      </trkpt>
      <trkpt lat="46.50518" lon="0.38432">
        <ele>110.8</ele>
        <time>2022-06-26T09:23:45Z</time>
      </trkpt>
      <trkpt lat="46.5053" lon="0.38445">
        <ele>110.6</ele>
        <time>2022-06-26T09:23:50Z</time>
      </trkpt>
      <trkpt lat="46.5054" lon="0.38466">
        <ele>111</ele>
        <time>2022-06-26T09:23:55Z</time>
      </trkpt>
      <trkpt lat="46.50549" lon="0.38477">
        <ele>111.4</ele>
        <time>2022-06-26T09:23:59Z</time>
      </trkpt>
      <trkpt lat="46.5055" lon="0.38481">
        <ele>111.2</ele>
        <time>2022-06-26T09:24:00Z</time>
      </trkpt>
      <trkpt lat="46.50551" lon="0.38492">
        <ele>111</ele>
        <time>2022-06-26T09:24:02Z</time>
      </trkpt>
      <trkpt lat="46.50557" lon="0.38495">
        <ele>111</ele>
        <time>2022-06-26T09:24:04Z</time>
      </trkpt>
      <trkpt lat="46.50577" lon="0.38497">
        <ele>111.4</ele>
        <time>2022-06-26T09:24:10Z</time>
      </trkpt>
      <trkpt lat="46.50581" lon="0.38497">
        <ele>111.4</ele>
        <time>2022-06-26T09:24:11Z</time>
      </trkpt>
      <trkpt lat="46.50586" lon="0.38495">
        <ele>111.2</ele>
        <time>2022-06-26T09:24:13Z</time>
      </trkpt>
      <trkpt lat="46.50587" lon="0.38495">
        <ele>111.2</ele>
        <time>2022-06-26T09:24:14Z</time>
      </trkpt>
      <trkpt lat="46.50587" lon="0.38494">
        <ele>111</ele>
        <time>2022-06-26T09:24:15Z</time>
      </trkpt>
      <trkpt lat="46.50585" lon="0.38493">
        <ele>111</ele>
        <time>2022-06-26T09:24:18Z</time>
      </trkpt>
      <trkpt lat="46.50584" lon="0.38492">
        <ele>111</ele>
        <time>2022-06-26T09:24:19Z</time>
      </trkpt>
      <trkpt lat="46.50583" lon="0.38488">
        <ele>110.8</ele>
        <time>2022-06-26T09:24:21Z</time>
      </trkpt>
      <trkpt lat="46.5058" lon="0.38486">
        <ele>110.8</ele>
        <time>2022-06-26T09:24:24Z</time>
      </trkpt>
      <trkpt lat="46.5058" lon="0.38484">
        <ele>110.8</ele>
        <time>2022-06-26T09:24:25Z</time>
      </trkpt>
      <trkpt lat="46.50582" lon="0.38475">
        <ele>110.6</ele>
        <time>2022-06-26T09:24:29Z</time>
      </trkpt>
      <trkpt lat="46.50586" lon="0.38464">
        <ele>110.4</ele>
        <time>2022-06-26T09:24:32Z</time>
      </trkpt>
      <trkpt lat="46.50588" lon="0.3846">
        <ele>110.2</ele>
        <time>2022-06-26T09:24:33Z</time>
      </trkpt>
      <trkpt lat="46.50591" lon="0.38452">
        <ele>109.6</ele>
        <time>2022-06-26T09:24:35Z</time>
      </trkpt>
      <trkpt lat="46.50592" lon="0.3844">
        <ele>109.2</ele>
        <time>2022-06-26T09:24:37Z</time>
      </trkpt>
      <trkpt lat="46.50595" lon="0.38428">
        <ele>107.4</ele>
        <time>2022-06-26T09:24:40Z</time>
      </trkpt>
      <trkpt lat="46.50601" lon="0.38423">
        <ele>106.4</ele>
        <time>2022-06-26T09:24:42Z</time>
      </trkpt>
      <trkpt lat="46.50606" lon="0.38421">
        <ele>106</ele>
        <time>2022-06-26T09:24:43Z</time>
      </trkpt>
      <trkpt lat="46.50613" lon="0.38416">
        <ele>105.4</ele>
        <time>2022-06-26T09:24:45Z</time>
      </trkpt>
      <trkpt lat="46.50617" lon="0.38413">
        <ele>105.2</ele>
        <time>2022-06-26T09:24:46Z</time>
      </trkpt>
      <trkpt lat="46.50624" lon="0.38404">
        <ele>104.8</ele>
        <time>2022-06-26T09:24:48Z</time>
      </trkpt>
      <trkpt lat="46.50632" lon="0.38395">
        <ele>104.4</ele>
        <time>2022-06-26T09:24:50Z</time>
      </trkpt>
      <trkpt lat="46.5064" lon="0.38387">
        <ele>104.4</ele>
        <time>2022-06-26T09:24:52Z</time>
      </trkpt>
      <trkpt lat="46.50652" lon="0.38377">
        <ele>104.8</ele>
        <time>2022-06-26T09:24:55Z</time>
      </trkpt>
      <trkpt lat="46.50667" lon="0.38364">
        <ele>104.8</ele>
        <time>2022-06-26T09:25:00Z</time>
      </trkpt>
      <trkpt lat="46.50688" lon="0.38352">
        <ele>105.8</ele>
        <time>2022-06-26T09:25:05Z</time>
      </trkpt>
      <trkpt lat="46.50698" lon="0.3835">
        <ele>106.2</ele>
        <time>2022-06-26T09:25:07Z</time>
      </trkpt>
      <trkpt lat="46.50705" lon="0.38351">
        <ele>106.4</ele>
        <time>2022-06-26T09:25:09Z</time>
      </trkpt>
      <trkpt lat="46.50712" lon="0.38354">
        <ele>106.6</ele>
        <time>2022-06-26T09:25:11Z</time>
      </trkpt>
      <trkpt lat="46.50716" lon="0.38357">
        <ele>106.6</ele>
        <time>2022-06-26T09:25:12Z</time>
      </trkpt>
      <trkpt lat="46.5072" lon="0.38362">
        <ele>106.6</ele>
        <time>2022-06-26T09:25:13Z</time>
      </trkpt>
      <trkpt lat="46.50728" lon="0.38376">
        <ele>105.6</ele>
        <time>2022-06-26T09:25:16Z</time>
      </trkpt>
      <trkpt lat="46.50733" lon="0.38381">
        <ele>105</ele>
        <time>2022-06-26T09:25:17Z</time>
      </trkpt>
      <trkpt lat="46.50737" lon="0.38385">
        <ele>104.8</ele>
        <time>2022-06-26T09:25:18Z</time>
      </trkpt>
      <trkpt lat="46.50741" lon="0.38388">
        <ele>104.4</ele>
        <time>2022-06-26T09:25:19Z</time>
      </trkpt>
      <trkpt lat="46.50747" lon="0.3839">
        <ele>104.2</ele>
        <time>2022-06-26T09:25:20Z</time>
      </trkpt>
      <trkpt lat="46.50765" lon="0.38396">
        <ele>103.6</ele>
        <time>2022-06-26T09:25:23Z</time>
      </trkpt>
      <trkpt lat="46.50777" lon="0.38394">
        <ele>103.6</ele>
        <time>2022-06-26T09:25:25Z</time>
      </trkpt>
      <trkpt lat="46.5079" lon="0.38394">
        <ele>103.6</ele>
        <time>2022-06-26T09:25:27Z</time>
      </trkpt>
      <trkpt lat="46.50805" lon="0.38397">
        <ele>104</ele>
        <time>2022-06-26T09:25:30Z</time>
      </trkpt>
      <trkpt lat="46.50816" lon="0.38394">
        <ele>104.2</ele>
        <time>2022-06-26T09:25:33Z</time>
      </trkpt>
      <trkpt lat="46.50819" lon="0.38394">
        <ele>104.2</ele>
        <time>2022-06-26T09:25:34Z</time>
      </trkpt>
      <trkpt lat="46.50828" lon="0.38402">
        <ele>104</ele>
        <time>2022-06-26T09:25:37Z</time>
      </trkpt>
      <trkpt lat="46.5083" lon="0.38405">
        <ele>103.6</ele>
        <time>2022-06-26T09:25:38Z</time>
      </trkpt>
      <trkpt lat="46.50832" lon="0.38408">
        <ele>103</ele>
        <time>2022-06-26T09:25:39Z</time>
      </trkpt>
      <trkpt lat="46.50835" lon="0.38409">
        <ele>102.6</ele>
        <time>2022-06-26T09:25:40Z</time>
      </trkpt>
      <trkpt lat="46.50838" lon="0.38409">
        <ele>102.2</ele>
        <time>2022-06-26T09:25:41Z</time>
      </trkpt>
      <trkpt lat="46.50841" lon="0.38409">
        <ele>102</ele>
        <time>2022-06-26T09:25:42Z</time>
      </trkpt>
      <trkpt lat="46.50842" lon="0.38407">
        <ele>102</ele>
        <time>2022-06-26T09:25:43Z</time>
      </trkpt>
      <trkpt lat="46.50847" lon="0.38404">
        <ele>102</ele>
        <time>2022-06-26T09:25:47Z</time>
      </trkpt>
      <trkpt lat="46.50852" lon="0.38399">
        <ele>102</ele>
        <time>2022-06-26T09:25:51Z</time>
      </trkpt>
      <trkpt lat="46.50857" lon="0.38395">
        <ele>102.2</ele>
        <time>2022-06-26T09:25:53Z</time>
      </trkpt>
      <trkpt lat="46.50874" lon="0.38382">
        <ele>102</ele>
        <time>2022-06-26T09:26:00Z</time>
      </trkpt>
      <trkpt lat="46.50891" lon="0.38375">
        <ele>102</ele>
        <time>2022-06-26T09:26:06Z</time>
      </trkpt>
      <trkpt lat="46.50896" lon="0.38367">
        <ele>101.4</ele>
        <time>2022-06-26T09:26:09Z</time>
      </trkpt>
      <trkpt lat="46.509" lon="0.38362">
        <ele>101.4</ele>
        <time>2022-06-26T09:26:11Z</time>
      </trkpt>
      <trkpt lat="46.50908" lon="0.38358">
        <ele>101.2</ele>
        <time>2022-06-26T09:26:13Z</time>
      </trkpt>
      <trkpt lat="46.50918" lon="0.38346">
        <ele>100.4</ele>
        <time>2022-06-26T09:26:17Z</time>
      </trkpt>
      <trkpt lat="46.50922" lon="0.38343">
        <ele>100.2</ele>
        <time>2022-06-26T09:26:18Z</time>
      </trkpt>
      <trkpt lat="46.50926" lon="0.3834">
        <ele>100</ele>
        <time>2022-06-26T09:26:19Z</time>
      </trkpt>
      <trkpt lat="46.50939" lon="0.38323">
        <ele>99.6</ele>
        <time>2022-06-26T09:26:24Z</time>
      </trkpt>
      <trkpt lat="46.50945" lon="0.38304">
        <ele>100</ele>
        <time>2022-06-26T09:26:29Z</time>
      </trkpt>
      <trkpt lat="46.50961" lon="0.38277">
        <ele>100.6</ele>
        <time>2022-06-26T09:26:36Z</time>
      </trkpt>
      <trkpt lat="46.50973" lon="0.38256">
        <ele>100.8</ele>
        <time>2022-06-26T09:26:41Z</time>
      </trkpt>
      <trkpt lat="46.50982" lon="0.38237">
        <ele>101</ele>
        <time>2022-06-26T09:26:46Z</time>
      </trkpt>
      <trkpt lat="46.50992" lon="0.38224">
        <ele>101.4</ele>
        <time>2022-06-26T09:26:50Z</time>
      </trkpt>
      <trkpt lat="46.50996" lon="0.38218">
        <ele>101.6</ele>
        <time>2022-06-26T09:26:52Z</time>
      </trkpt>
      <trkpt lat="46.51005" lon="0.38201">
        <ele>101.4</ele>
        <time>2022-06-26T09:26:57Z</time>
      </trkpt>
      <trkpt lat="46.51006" lon="0.38193">
        <ele>101.4</ele>
        <time>2022-06-26T09:26:59Z</time>
      </trkpt>
      <trkpt lat="46.5101" lon="0.38186">
        <ele>101.6</ele>
        <time>2022-06-26T09:27:01Z</time>
      </trkpt>
      <trkpt lat="46.51015" lon="0.38176">
        <ele>102</ele>
        <time>2022-06-26T09:27:04Z</time>
      </trkpt>
      <trkpt lat="46.51019" lon="0.38165">
        <ele>102.6</ele>
        <time>2022-06-26T09:27:07Z</time>
      </trkpt>
      <trkpt lat="46.51027" lon="0.38148">
        <ele>103</ele>
        <time>2022-06-26T09:27:11Z</time>
      </trkpt>
      <trkpt lat="46.51047" lon="0.38121">
        <ele>103.2</ele>
        <time>2022-06-26T09:27:18Z</time>
      </trkpt>
      <trkpt lat="46.51049" lon="0.38119">
        <ele>103</ele>
        <time>2022-06-26T09:27:19Z</time>
      </trkpt>
      <trkpt lat="46.51063" lon="0.38107">
        <ele>101.4</ele>
        <time>2022-06-26T09:27:24Z</time>
      </trkpt>
      <trkpt lat="46.51083" lon="0.38093">
        <ele>100.6</ele>
        <time>2022-06-26T09:27:30Z</time>
      </trkpt>
      <trkpt lat="46.51085" lon="0.38091">
        <ele>100</ele>
        <time>2022-06-26T09:27:31Z</time>
      </trkpt>
      <trkpt lat="46.51096" lon="0.38075">
        <ele>99.4</ele>
        <time>2022-06-26T09:27:36Z</time>
      </trkpt>
      <trkpt lat="46.51101" lon="0.38066">
        <ele>99</ele>
        <time>2022-06-26T09:27:38Z</time>
      </trkpt>
      <trkpt lat="46.51105" lon="0.38058">
        <ele>98.2</ele>
        <time>2022-06-26T09:27:40Z</time>
      </trkpt>
      <trkpt lat="46.51109" lon="0.38053">
        <ele>97</ele>
        <time>2022-06-26T09:27:41Z</time>
      </trkpt>
      <trkpt lat="46.51118" lon="0.38045">
        <ele>95.6</ele>
        <time>2022-06-26T09:27:43Z</time>
      </trkpt>
      <trkpt lat="46.51125" lon="0.38037">
        <ele>94.4</ele>
        <time>2022-06-26T09:27:45Z</time>
      </trkpt>
      <trkpt lat="46.51127" lon="0.38033">
        <ele>93</ele>
        <time>2022-06-26T09:27:46Z</time>
      </trkpt>
      <trkpt lat="46.51132" lon="0.38027">
        <ele>91.4</ele>
        <time>2022-06-26T09:27:48Z</time>
      </trkpt>
      <trkpt lat="46.51137" lon="0.3802">
        <ele>90.2</ele>
        <time>2022-06-26T09:27:50Z</time>
      </trkpt>
      <trkpt lat="46.51141" lon="0.38014">
        <ele>88.4</ele>
        <time>2022-06-26T09:27:52Z</time>
      </trkpt>
      <trkpt lat="46.51142" lon="0.38013">
        <ele>87.8</ele>
        <time>2022-06-26T09:27:53Z</time>
      </trkpt>
      <trkpt lat="46.51143" lon="0.38011">
        <ele>87.4</ele>
        <time>2022-06-26T09:27:54Z</time>
      </trkpt>
      <trkpt lat="46.51141" lon="0.38009">
        <ele>87.2</ele>
        <time>2022-06-26T09:27:55Z</time>
      </trkpt>
      <trkpt lat="46.51141" lon="0.38004">
        <ele>87.2</ele>
        <time>2022-06-26T09:27:57Z</time>
      </trkpt>
      <trkpt lat="46.51141" lon="0.38">
        <ele>87.2</ele>
        <time>2022-06-26T09:27:58Z</time>
      </trkpt>
      <trkpt lat="46.51144" lon="0.37985">
        <ele>87.4</ele>
        <time>2022-06-26T09:28:02Z</time>
      </trkpt>
      <trkpt lat="46.51148" lon="0.37983">
        <ele>87.6</ele>
        <time>2022-06-26T09:28:03Z</time>
      </trkpt>
      <trkpt lat="46.51164" lon="0.37976">
        <ele>88.4</ele>
        <time>2022-06-26T09:28:08Z</time>
      </trkpt>
      <trkpt lat="46.51166" lon="0.37975">
        <ele>89</ele>
        <time>2022-06-26T09:28:09Z</time>
      </trkpt>
      <trkpt lat="46.51175" lon="0.37974">
        <ele>89.6</ele>
        <time>2022-06-26T09:28:12Z</time>
      </trkpt>
      <trkpt lat="46.51186" lon="0.37974">
        <ele>89.8</ele>
        <time>2022-06-26T09:28:15Z</time>
      </trkpt>
      <trkpt lat="46.51195" lon="0.37976">
        <ele>90.2</ele>
        <time>2022-06-26T09:28:18Z</time>
      </trkpt>
      <trkpt lat="46.51204" lon="0.37981">
        <ele>90.2</ele>
        <time>2022-06-26T09:28:21Z</time>
      </trkpt>
      <trkpt lat="46.51212" lon="0.37983">
        <ele>90</ele>
        <time>2022-06-26T09:28:23Z</time>
      </trkpt>
      <trkpt lat="46.5123" lon="0.37987">
        <ele>89.8</ele>
        <time>2022-06-26T09:28:27Z</time>
      </trkpt>
      <trkpt lat="46.51234" lon="0.37986">
        <ele>90.2</ele>
        <time>2022-06-26T09:28:28Z</time>
      </trkpt>
      <trkpt lat="46.51243" lon="0.37988">
        <ele>90.6</ele>
        <time>2022-06-26T09:28:30Z</time>
      </trkpt>
      <trkpt lat="46.51251" lon="0.37994">
        <ele>90.6</ele>
        <time>2022-06-26T09:28:32Z</time>
      </trkpt>
      <trkpt lat="46.51266" lon="0.38005">
        <ele>90.2</ele>
        <time>2022-06-26T09:28:36Z</time>
      </trkpt>
      <trkpt lat="46.51269" lon="0.38009">
        <ele>90.2</ele>
        <time>2022-06-26T09:28:37Z</time>
      </trkpt>
      <trkpt lat="46.51271" lon="0.38014">
        <ele>90.2</ele>
        <time>2022-06-26T09:28:38Z</time>
      </trkpt>
      <trkpt lat="46.51278" lon="0.38024">
        <ele>89.6</ele>
        <time>2022-06-26T09:28:40Z</time>
      </trkpt>
      <trkpt lat="46.51287" lon="0.38032">
        <ele>89.4</ele>
        <time>2022-06-26T09:28:42Z</time>
      </trkpt>
      <trkpt lat="46.51308" lon="0.38037">
        <ele>89</ele>
        <time>2022-06-26T09:28:46Z</time>
      </trkpt>
      <trkpt lat="46.51313" lon="0.38037">
        <ele>89</ele>
        <time>2022-06-26T09:28:47Z</time>
      </trkpt>
      <trkpt lat="46.51343" lon="0.38037">
        <ele>89.6</ele>
        <time>2022-06-26T09:28:53Z</time>
      </trkpt>
      <trkpt lat="46.51357" lon="0.38037">
        <ele>89.6</ele>
        <time>2022-06-26T09:28:56Z</time>
      </trkpt>
      <trkpt lat="46.51374" lon="0.38038">
        <ele>89.4</ele>
        <time>2022-06-26T09:29:00Z</time>
      </trkpt>
      <trkpt lat="46.51384" lon="0.38047">
        <ele>87.8</ele>
        <time>2022-06-26T09:29:04Z</time>
      </trkpt>
      <trkpt lat="46.51389" lon="0.38049">
        <ele>86.6</ele>
        <time>2022-06-26T09:29:06Z</time>
      </trkpt>
      <trkpt lat="46.51394" lon="0.3805">
        <ele>85.4</ele>
        <time>2022-06-26T09:29:08Z</time>
      </trkpt>
      <trkpt lat="46.51395" lon="0.38051">
        <ele>84.6</ele>
        <time>2022-06-26T09:29:09Z</time>
      </trkpt>
      <trkpt lat="46.51397" lon="0.38052">
        <ele>84.2</ele>
        <time>2022-06-26T09:29:10Z</time>
      </trkpt>
      <trkpt lat="46.51408" lon="0.38062">
        <ele>83.6</ele>
        <time>2022-06-26T09:29:14Z</time>
      </trkpt>
      <trkpt lat="46.51411" lon="0.3807">
        <ele>83</ele>
        <time>2022-06-26T09:29:16Z</time>
      </trkpt>
      <trkpt lat="46.51414" lon="0.38078">
        <ele>82</ele>
        <time>2022-06-26T09:29:18Z</time>
      </trkpt>
      <trkpt lat="46.51414" lon="0.38081">
        <ele>81.2</ele>
        <time>2022-06-26T09:29:19Z</time>
      </trkpt>
      <trkpt lat="46.51413" lon="0.38084">
        <ele>80.8</ele>
        <time>2022-06-26T09:29:20Z</time>
      </trkpt>
      <trkpt lat="46.51409" lon="0.38084">
        <ele>80.4</ele>
        <time>2022-06-26T09:29:22Z</time>
      </trkpt>
      <trkpt lat="46.51403" lon="0.38086">
        <ele>80.2</ele>
        <time>2022-06-26T09:29:24Z</time>
      </trkpt>
      <trkpt lat="46.51399" lon="0.38087">
        <ele>80</ele>
        <time>2022-06-26T09:29:25Z</time>
      </trkpt>
      <trkpt lat="46.51388" lon="0.38095">
        <ele>79.4</ele>
        <time>2022-06-26T09:29:29Z</time>
      </trkpt>
      <trkpt lat="46.51388" lon="0.38108">
        <ele>79</ele>
        <time>2022-06-26T09:29:32Z</time>
      </trkpt>
      <trkpt lat="46.51395" lon="0.38128">
        <ele>78.2</ele>
        <time>2022-06-26T09:29:36Z</time>
      </trkpt>
      <trkpt lat="46.51398" lon="0.38132">
        <ele>77.8</ele>
        <time>2022-06-26T09:29:37Z</time>
      </trkpt>
      <trkpt lat="46.51408" lon="0.38138">
        <ele>77.4</ele>
        <time>2022-06-26T09:29:40Z</time>
      </trkpt>
      <trkpt lat="46.51419" lon="0.38145">
        <ele>77.4</ele>
        <time>2022-06-26T09:29:43Z</time>
      </trkpt>
      <trkpt lat="46.51425" lon="0.38153">
        <ele>77.4</ele>
        <time>2022-06-26T09:29:45Z</time>
      </trkpt>
      <trkpt lat="46.51429" lon="0.38156">
        <ele>77.4</ele>
        <time>2022-06-26T09:29:46Z</time>
      </trkpt>
      <trkpt lat="46.51433" lon="0.38158">
        <ele>77.6</ele>
        <time>2022-06-26T09:29:47Z</time>
      </trkpt>
      <trkpt lat="46.5144" lon="0.3816">
        <ele>77.8</ele>
        <time>2022-06-26T09:29:49Z</time>
      </trkpt>
      <trkpt lat="46.51443" lon="0.38161">
        <ele>78</ele>
        <time>2022-06-26T09:29:50Z</time>
      </trkpt>
      <trkpt lat="46.51459" lon="0.38163">
        <ele>78.2</ele>
        <time>2022-06-26T09:29:54Z</time>
      </trkpt>
      <trkpt lat="46.51464" lon="0.38161">
        <ele>78.2</ele>
        <time>2022-06-26T09:29:56Z</time>
      </trkpt>
      <trkpt lat="46.51468" lon="0.38159">
        <ele>78</ele>
        <time>2022-06-26T09:29:58Z</time>
      </trkpt>
      <trkpt lat="46.51471" lon="0.38158">
        <ele>78</ele>
        <time>2022-06-26T09:30:00Z</time>
      </trkpt>
      <trkpt lat="46.51474" lon="0.38157">
        <ele>78.2</ele>
        <time>2022-06-26T09:30:02Z</time>
      </trkpt>
      <trkpt lat="46.51479" lon="0.38158">
        <ele>78.2</ele>
        <time>2022-06-26T09:30:04Z</time>
      </trkpt>
      <trkpt lat="46.51492" lon="0.3817">
        <ele>78.2</ele>
        <time>2022-06-26T09:30:10Z</time>
      </trkpt>
      <trkpt lat="46.51495" lon="0.38173">
        <ele>78.2</ele>
        <time>2022-06-26T09:30:12Z</time>
      </trkpt>
      <trkpt lat="46.515" lon="0.38174">
        <ele>78.2</ele>
        <time>2022-06-26T09:30:14Z</time>
      </trkpt>
      <trkpt lat="46.51516" lon="0.38183">
        <ele>78.4</ele>
        <time>2022-06-26T09:30:19Z</time>
      </trkpt>
      <trkpt lat="46.51529" lon="0.38189">
        <ele>78.6</ele>
        <time>2022-06-26T09:30:24Z</time>
      </trkpt>
      <trkpt lat="46.51543" lon="0.38196">
        <ele>78.6</ele>
        <time>2022-06-26T09:30:28Z</time>
      </trkpt>
      <trkpt lat="46.51547" lon="0.38198">
        <ele>78.6</ele>
        <time>2022-06-26T09:30:29Z</time>
      </trkpt>
      <trkpt lat="46.51561" lon="0.38203">
        <ele>78.6</ele>
        <time>2022-06-26T09:30:32Z</time>
      </trkpt>
      <trkpt lat="46.51576" lon="0.38209">
        <ele>78.4</ele>
        <time>2022-06-26T09:30:35Z</time>
      </trkpt>
      <trkpt lat="46.5158" lon="0.38211">
        <ele>78.4</ele>
        <time>2022-06-26T09:30:36Z</time>
      </trkpt>
      <trkpt lat="46.51583" lon="0.38213">
        <ele>78.4</ele>
        <time>2022-06-26T09:30:37Z</time>
      </trkpt>
      <trkpt lat="46.51597" lon="0.38223">
        <ele>78.2</ele>
        <time>2022-06-26T09:30:41Z</time>
      </trkpt>
      <trkpt lat="46.51599" lon="0.38226">
        <ele>78.2</ele>
        <time>2022-06-26T09:30:42Z</time>
      </trkpt>
      <trkpt lat="46.51609" lon="0.38232">
        <ele>77.8</ele>
        <time>2022-06-26T09:30:46Z</time>
      </trkpt>
      <trkpt lat="46.51625" lon="0.38226">
        <ele>77.8</ele>
        <time>2022-06-26T09:30:52Z</time>
      </trkpt>
      <trkpt lat="46.51636" lon="0.38219">
        <ele>78.2</ele>
        <time>2022-06-26T09:30:57Z</time>
      </trkpt>
      <trkpt lat="46.51637" lon="0.38218">
        <ele>78.6</ele>
        <time>2022-06-26T09:30:58Z</time>
      </trkpt>
      <trkpt lat="46.51638" lon="0.38212">
        <ele>79</ele>
        <time>2022-06-26T09:31:00Z</time>
      </trkpt>
      <trkpt lat="46.5164" lon="0.38205">
        <ele>80</ele>
        <time>2022-06-26T09:31:04Z</time>
      </trkpt>
      <trkpt lat="46.51642" lon="0.38195">
        <ele>81.2</ele>
        <time>2022-06-26T09:31:10Z</time>
      </trkpt>
      <trkpt lat="46.51643" lon="0.38191">
        <ele>81.6</ele>
        <time>2022-06-26T09:31:14Z</time>
      </trkpt>
      <trkpt lat="46.51642" lon="0.38189">
        <ele>81.6</ele>
        <time>2022-06-26T09:31:16Z</time>
      </trkpt>
      <trkpt lat="46.51642" lon="0.38183">
        <ele>82</ele>
        <time>2022-06-26T09:31:19Z</time>
      </trkpt>
      <trkpt lat="46.5164" lon="0.38178">
        <ele>82.2</ele>
        <time>2022-06-26T09:31:22Z</time>
      </trkpt>
      <trkpt lat="46.51641" lon="0.3817">
        <ele>82.6</ele>
        <time>2022-06-26T09:31:26Z</time>
      </trkpt>
      <trkpt lat="46.51639" lon="0.38159">
        <ele>82.8</ele>
        <time>2022-06-26T09:31:30Z</time>
      </trkpt>
      <trkpt lat="46.51638" lon="0.38155">
        <ele>83.2</ele>
        <time>2022-06-26T09:31:31Z</time>
      </trkpt>
      <trkpt lat="46.51634" lon="0.38149">
        <ele>83.4</ele>
        <time>2022-06-26T09:31:33Z</time>
      </trkpt>
      <trkpt lat="46.51627" lon="0.38145">
        <ele>83.6</ele>
        <time>2022-06-26T09:31:36Z</time>
      </trkpt>
      <trkpt lat="46.51624" lon="0.38144">
        <ele>83.6</ele>
        <time>2022-06-26T09:31:37Z</time>
      </trkpt>
      <trkpt lat="46.51598" lon="0.38141">
        <ele>83.6</ele>
        <time>2022-06-26T09:31:43Z</time>
      </trkpt>
      <trkpt lat="46.5158" lon="0.38142">
        <ele>83.2</ele>
        <time>2022-06-26T09:31:47Z</time>
      </trkpt>
      <trkpt lat="46.51568" lon="0.3814">
        <ele>83.2</ele>
        <time>2022-06-26T09:31:49Z</time>
      </trkpt>
      <trkpt lat="46.51547" lon="0.38139">
        <ele>82.6</ele>
        <time>2022-06-26T09:31:54Z</time>
      </trkpt>
      <trkpt lat="46.51542" lon="0.38139">
        <ele>82.4</ele>
        <time>2022-06-26T09:31:55Z</time>
      </trkpt>
      <trkpt lat="46.51536" lon="0.38136">
        <ele>82.2</ele>
        <time>2022-06-26T09:31:56Z</time>
      </trkpt>
      <trkpt lat="46.51521" lon="0.38135">
        <ele>82</ele>
        <time>2022-06-26T09:32:00Z</time>
      </trkpt>
      <trkpt lat="46.51518" lon="0.38134">
        <ele>81.8</ele>
        <time>2022-06-26T09:32:01Z</time>
      </trkpt>
      <trkpt lat="46.51517" lon="0.38131">
        <ele>81.6</ele>
        <time>2022-06-26T09:32:03Z</time>
      </trkpt>
      <trkpt lat="46.5152" lon="0.3812">
        <ele>82.4</ele>
        <time>2022-06-26T09:32:09Z</time>
      </trkpt>
      <trkpt lat="46.51518" lon="0.3811">
        <ele>83.6</ele>
        <time>2022-06-26T09:32:12Z</time>
      </trkpt>
      <trkpt lat="46.51517" lon="0.38103">
        <ele>84.6</ele>
        <time>2022-06-26T09:32:15Z</time>
      </trkpt>
      <trkpt lat="46.51515" lon="0.38098">
        <ele>85.2</ele>
        <time>2022-06-26T09:32:16Z</time>
      </trkpt>
      <trkpt lat="46.51516" lon="0.38095">
        <ele>85.8</ele>
        <time>2022-06-26T09:32:18Z</time>
      </trkpt>
      <trkpt lat="46.51518" lon="0.38093">
        <ele>86.6</ele>
        <time>2022-06-26T09:32:20Z</time>
      </trkpt>
      <trkpt lat="46.51519" lon="0.38092">
        <ele>87</ele>
        <time>2022-06-26T09:32:21Z</time>
      </trkpt>
      <trkpt lat="46.51521" lon="0.38088">
        <ele>88</ele>
        <time>2022-06-26T09:32:24Z</time>
      </trkpt>
      <trkpt lat="46.5152" lon="0.38082">
        <ele>88.8</ele>
        <time>2022-06-26T09:32:27Z</time>
      </trkpt>
      <trkpt lat="46.51518" lon="0.38077">
        <ele>89.2</ele>
        <time>2022-06-26T09:32:28Z</time>
      </trkpt>
      <trkpt lat="46.51516" lon="0.38073">
        <ele>89.2</ele>
        <time>2022-06-26T09:32:29Z</time>
      </trkpt>
      <trkpt lat="46.51514" lon="0.38066">
        <ele>90.2</ele>
        <time>2022-06-26T09:32:32Z</time>
      </trkpt>
      <trkpt lat="46.51516" lon="0.3806">
        <ele>91</ele>
        <time>2022-06-26T09:32:35Z</time>
      </trkpt>
      <trkpt lat="46.51518" lon="0.38055">
        <ele>91.4</ele>
        <time>2022-06-26T09:32:37Z</time>
      </trkpt>
      <trkpt lat="46.51521" lon="0.38048">
        <ele>91.8</ele>
        <time>2022-06-26T09:32:40Z</time>
      </trkpt>
      <trkpt lat="46.51526" lon="0.38038">
        <ele>92.8</ele>
        <time>2022-06-26T09:32:44Z</time>
      </trkpt>
      <trkpt lat="46.51528" lon="0.38034">
        <ele>93.2</ele>
        <time>2022-06-26T09:32:46Z</time>
      </trkpt>
      <trkpt lat="46.51528" lon="0.38025">
        <ele>93.8</ele>
        <time>2022-06-26T09:32:50Z</time>
      </trkpt>
      <trkpt lat="46.51526" lon="0.38024">
        <ele>94</ele>
        <time>2022-06-26T09:32:51Z</time>
      </trkpt>
      <trkpt lat="46.51523" lon="0.38021">
        <ele>94</ele>
        <time>2022-06-26T09:32:52Z</time>
      </trkpt>
      <trkpt lat="46.51511" lon="0.38013">
        <ele>94.2</ele>
        <time>2022-06-26T09:32:57Z</time>
      </trkpt>
      <trkpt lat="46.51484" lon="0.38003">
        <ele>93.8</ele>
        <time>2022-06-26T09:33:05Z</time>
      </trkpt>
      <trkpt lat="46.51471" lon="0.38">
        <ele>94</ele>
        <time>2022-06-26T09:33:10Z</time>
      </trkpt>
      <trkpt lat="46.51467" lon="0.37997">
        <ele>95</ele>
        <time>2022-06-26T09:33:13Z</time>
      </trkpt>
      <trkpt lat="46.51462" lon="0.37993">
        <ele>96.4</ele>
        <time>2022-06-26T09:33:17Z</time>
      </trkpt>
      <trkpt lat="46.51459" lon="0.37986">
        <ele>97</ele>
        <time>2022-06-26T09:33:21Z</time>
      </trkpt>
      <trkpt lat="46.51458" lon="0.37984">
        <ele>97.4</ele>
        <time>2022-06-26T09:33:22Z</time>
      </trkpt>
      <trkpt lat="46.51457" lon="0.3798">
        <ele>98.2</ele>
        <time>2022-06-26T09:33:25Z</time>
      </trkpt>
      <trkpt lat="46.51455" lon="0.37978">
        <ele>98.4</ele>
        <time>2022-06-26T09:33:26Z</time>
      </trkpt>
      <trkpt lat="46.51454" lon="0.37977">
        <ele>98.8</ele>
        <time>2022-06-26T09:33:27Z</time>
      </trkpt>
      <trkpt lat="46.51452" lon="0.37975">
        <ele>99.2</ele>
        <time>2022-06-26T09:33:29Z</time>
      </trkpt>
      <trkpt lat="46.51452" lon="0.37972">
        <ele>99.4</ele>
        <time>2022-06-26T09:33:30Z</time>
      </trkpt>
      <trkpt lat="46.51449" lon="0.3796">
        <ele>99.8</ele>
        <time>2022-06-26T09:33:35Z</time>
      </trkpt>
      <trkpt lat="46.51448" lon="0.37951">
        <ele>100.6</ele>
        <time>2022-06-26T09:33:38Z</time>
      </trkpt>
      <trkpt lat="46.51447" lon="0.37946">
        <ele>101</ele>
        <time>2022-06-26T09:33:41Z</time>
      </trkpt>
      <trkpt lat="46.51447" lon="0.37936">
        <ele>101.6</ele>
        <time>2022-06-26T09:33:45Z</time>
      </trkpt>
      <trkpt lat="46.51447" lon="0.37926">
        <ele>102</ele>
        <time>2022-06-26T09:33:48Z</time>
      </trkpt>
      <trkpt lat="46.51447" lon="0.37914">
        <ele>102</ele>
        <time>2022-06-26T09:33:51Z</time>
      </trkpt>
      <trkpt lat="46.51447" lon="0.37901">
        <ele>102.2</ele>
        <time>2022-06-26T09:33:55Z</time>
      </trkpt>
      <trkpt lat="46.51449" lon="0.379">
        <ele>102.2</ele>
        <time>2022-06-26T09:33:56Z</time>
      </trkpt>
      <trkpt lat="46.51465" lon="0.37905">
        <ele>101.8</ele>
        <time>2022-06-26T09:34:02Z</time>
      </trkpt>
      <trkpt lat="46.51468" lon="0.37908">
        <ele>101.6</ele>
        <time>2022-06-26T09:34:03Z</time>
      </trkpt>
      <trkpt lat="46.51475" lon="0.37913">
        <ele>100.8</ele>
        <time>2022-06-26T09:34:05Z</time>
      </trkpt>
      <trkpt lat="46.51485" lon="0.37916">
        <ele>100.4</ele>
        <time>2022-06-26T09:34:07Z</time>
      </trkpt>
      <trkpt lat="46.51501" lon="0.3792">
        <ele>99.6</ele>
        <time>2022-06-26T09:34:10Z</time>
      </trkpt>
      <trkpt lat="46.5151" lon="0.37926">
        <ele>99</ele>
        <time>2022-06-26T09:34:12Z</time>
      </trkpt>
      <trkpt lat="46.51515" lon="0.37936">
        <ele>98.2</ele>
        <time>2022-06-26T09:34:14Z</time>
      </trkpt>
      <trkpt lat="46.51519" lon="0.37945">
        <ele>97.6</ele>
        <time>2022-06-26T09:34:16Z</time>
      </trkpt>
      <trkpt lat="46.51527" lon="0.37949">
        <ele>97</ele>
        <time>2022-06-26T09:34:19Z</time>
      </trkpt>
      <trkpt lat="46.51532" lon="0.37948">
        <ele>96.8</ele>
        <time>2022-06-26T09:34:20Z</time>
      </trkpt>
      <trkpt lat="46.5155" lon="0.37948">
        <ele>96.8</ele>
        <time>2022-06-26T09:34:25Z</time>
      </trkpt>
      <trkpt lat="46.5156" lon="0.37953">
        <ele>96.6</ele>
        <time>2022-06-26T09:34:27Z</time>
      </trkpt>
      <trkpt lat="46.51573" lon="0.3796">
        <ele>95.8</ele>
        <time>2022-06-26T09:34:30Z</time>
      </trkpt>
      <trkpt lat="46.5159" lon="0.37974">
        <ele>95</ele>
        <time>2022-06-26T09:34:35Z</time>
      </trkpt>
      <trkpt lat="46.51592" lon="0.37976">
        <ele>94.8</ele>
        <time>2022-06-26T09:34:36Z</time>
      </trkpt>
      <trkpt lat="46.51597" lon="0.3798">
        <ele>94.6</ele>
        <time>2022-06-26T09:34:38Z</time>
      </trkpt>
      <trkpt lat="46.51601" lon="0.3798">
        <ele>93.8</ele>
        <time>2022-06-26T09:34:40Z</time>
      </trkpt>
      <trkpt lat="46.51608" lon="0.37971">
        <ele>93.6</ele>
        <time>2022-06-26T09:34:45Z</time>
      </trkpt>
      <trkpt lat="46.51614" lon="0.37958">
        <ele>94.6</ele>
        <time>2022-06-26T09:34:50Z</time>
      </trkpt>
      <trkpt lat="46.51615" lon="0.37955">
        <ele>94.4</ele>
        <time>2022-06-26T09:34:51Z</time>
      </trkpt>
      <trkpt lat="46.51618" lon="0.37952">
        <ele>94.4</ele>
        <time>2022-06-26T09:34:52Z</time>
      </trkpt>
      <trkpt lat="46.5162" lon="0.37945">
        <ele>94.2</ele>
        <time>2022-06-26T09:34:54Z</time>
      </trkpt>
      <trkpt lat="46.51626" lon="0.37938">
        <ele>93.8</ele>
        <time>2022-06-26T09:34:56Z</time>
      </trkpt>
      <trkpt lat="46.51631" lon="0.37934">
        <ele>93.8</ele>
        <time>2022-06-26T09:34:57Z</time>
      </trkpt>
      <trkpt lat="46.51636" lon="0.37924">
        <ele>93.6</ele>
        <time>2022-06-26T09:34:59Z</time>
      </trkpt>
      <trkpt lat="46.5165" lon="0.379">
        <ele>93.6</ele>
        <time>2022-06-26T09:35:04Z</time>
      </trkpt>
      <trkpt lat="46.51656" lon="0.37873">
        <ele>94.6</ele>
        <time>2022-06-26T09:35:09Z</time>
      </trkpt>
      <trkpt lat="46.51657" lon="0.37868">
        <ele>94.8</ele>
        <time>2022-06-26T09:35:10Z</time>
      </trkpt>
      <trkpt lat="46.5167" lon="0.37838">
        <ele>96</ele>
        <time>2022-06-26T09:35:16Z</time>
      </trkpt>
      <trkpt lat="46.5167" lon="0.37816">
        <ele>96.4</ele>
        <time>2022-06-26T09:35:21Z</time>
      </trkpt>
      <trkpt lat="46.5168" lon="0.3779">
        <ele>96.8</ele>
        <time>2022-06-26T09:35:27Z</time>
      </trkpt>
      <trkpt lat="46.51681" lon="0.37781">
        <ele>97</ele>
        <time>2022-06-26T09:35:29Z</time>
      </trkpt>
      <trkpt lat="46.51688" lon="0.37769">
        <ele>97</ele>
        <time>2022-06-26T09:35:32Z</time>
      </trkpt>
      <trkpt lat="46.51689" lon="0.37763">
        <ele>96.8</ele>
        <time>2022-06-26T09:35:33Z</time>
      </trkpt>
      <trkpt lat="46.51696" lon="0.37741">
        <ele>96.4</ele>
        <time>2022-06-26T09:35:38Z</time>
      </trkpt>
      <trkpt lat="46.51698" lon="0.37729">
        <ele>96.2</ele>
        <time>2022-06-26T09:35:40Z</time>
      </trkpt>
      <trkpt lat="46.51694" lon="0.37712">
        <ele>95.8</ele>
        <time>2022-06-26T09:35:42Z</time>
      </trkpt>
      <trkpt lat="46.51694" lon="0.37705">
        <ele>95.4</ele>
        <time>2022-06-26T09:35:43Z</time>
      </trkpt>
      <trkpt lat="46.51694" lon="0.37676">
        <ele>94.4</ele>
        <time>2022-06-26T09:35:47Z</time>
      </trkpt>
      <trkpt lat="46.51702" lon="0.37668">
        <ele>94</ele>
        <time>2022-06-26T09:35:48Z</time>
      </trkpt>
      <trkpt lat="46.51705" lon="0.37659">
        <ele>93.8</ele>
        <time>2022-06-26T09:35:49Z</time>
      </trkpt>
      <trkpt lat="46.51713" lon="0.37651">
        <ele>93.6</ele>
        <time>2022-06-26T09:35:50Z</time>
      </trkpt>
      <trkpt lat="46.51715" lon="0.37637">
        <ele>92.6</ele>
        <time>2022-06-26T09:35:52Z</time>
      </trkpt>
      <trkpt lat="46.51723" lon="0.37619">
        <ele>91.2</ele>
        <time>2022-06-26T09:35:54Z</time>
      </trkpt>
      <trkpt lat="46.51733" lon="0.37594">
        <ele>90.2</ele>
        <time>2022-06-26T09:35:57Z</time>
      </trkpt>
      <trkpt lat="46.51736" lon="0.37586">
        <ele>89</ele>
        <time>2022-06-26T09:35:58Z</time>
      </trkpt>
      <trkpt lat="46.51742" lon="0.37568">
        <ele>87.8</ele>
        <time>2022-06-26T09:36:00Z</time>
      </trkpt>
      <trkpt lat="46.51745" lon="0.37561">
        <ele>86.2</ele>
        <time>2022-06-26T09:36:01Z</time>
      </trkpt>
      <trkpt lat="46.51752" lon="0.37556">
        <ele>85.2</ele>
        <time>2022-06-26T09:36:02Z</time>
      </trkpt>
      <trkpt lat="46.51755" lon="0.37552">
        <ele>83.6</ele>
        <time>2022-06-26T09:36:03Z</time>
      </trkpt>
      <trkpt lat="46.51758" lon="0.37542">
        <ele>81.6</ele>
        <time>2022-06-26T09:36:05Z</time>
      </trkpt>
      <trkpt lat="46.51759" lon="0.37537">
        <ele>80.6</ele>
        <time>2022-06-26T09:36:06Z</time>
      </trkpt>
      <trkpt lat="46.51759" lon="0.37533">
        <ele>79.4</ele>
        <time>2022-06-26T09:36:07Z</time>
      </trkpt>
      <trkpt lat="46.51761" lon="0.37529">
        <ele>78.6</ele>
        <time>2022-06-26T09:36:08Z</time>
      </trkpt>
      <trkpt lat="46.51763" lon="0.37526">
        <ele>78.2</ele>
        <time>2022-06-26T09:36:09Z</time>
      </trkpt>
      <trkpt lat="46.51764" lon="0.3752">
        <ele>77.8</ele>
        <time>2022-06-26T09:36:11Z</time>
      </trkpt>
      <trkpt lat="46.51767" lon="0.37516">
        <ele>77.2</ele>
        <time>2022-06-26T09:36:13Z</time>
      </trkpt>
      <trkpt lat="46.51769" lon="0.37515">
        <ele>77.2</ele>
        <time>2022-06-26T09:36:14Z</time>
      </trkpt>
      <trkpt lat="46.51784" lon="0.37515">
        <ele>77.2</ele>
        <time>2022-06-26T09:36:18Z</time>
      </trkpt>
      <trkpt lat="46.51788" lon="0.37514">
        <ele>77.4</ele>
        <time>2022-06-26T09:36:19Z</time>
      </trkpt>
      <trkpt lat="46.51793" lon="0.37511">
        <ele>77.4</ele>
        <time>2022-06-26T09:36:21Z</time>
      </trkpt>
      <trkpt lat="46.51802" lon="0.37511">
        <ele>77.4</ele>
        <time>2022-06-26T09:36:23Z</time>
      </trkpt>
      <trkpt lat="46.51831" lon="0.37513">
        <ele>77.2</ele>
        <time>2022-06-26T09:36:29Z</time>
      </trkpt>
      <trkpt lat="46.51854" lon="0.37522">
        <ele>77.2</ele>
        <time>2022-06-26T09:36:35Z</time>
      </trkpt>
      <trkpt lat="46.51858" lon="0.37525">
        <ele>77.4</ele>
        <time>2022-06-26T09:36:36Z</time>
      </trkpt>
      <trkpt lat="46.5188" lon="0.37543">
        <ele>77.8</ele>
        <time>2022-06-26T09:36:41Z</time>
      </trkpt>
      <trkpt lat="46.51884" lon="0.37547">
        <ele>77.8</ele>
        <time>2022-06-26T09:36:42Z</time>
      </trkpt>
      <trkpt lat="46.51889" lon="0.37556">
        <ele>77.8</ele>
        <time>2022-06-26T09:36:44Z</time>
      </trkpt>
      <trkpt lat="46.51894" lon="0.37565">
        <ele>78</ele>
        <time>2022-06-26T09:36:46Z</time>
      </trkpt>
      <trkpt lat="46.51899" lon="0.37586">
        <ele>78.2</ele>
        <time>2022-06-26T09:36:50Z</time>
      </trkpt>
      <trkpt lat="46.51899" lon="0.37595">
        <ele>78.2</ele>
        <time>2022-06-26T09:36:52Z</time>
      </trkpt>
      <trkpt lat="46.51899" lon="0.37605">
        <ele>78.2</ele>
        <time>2022-06-26T09:36:54Z</time>
      </trkpt>
      <trkpt lat="46.51899" lon="0.3763">
        <ele>78.6</ele>
        <time>2022-06-26T09:36:59Z</time>
      </trkpt>
      <trkpt lat="46.51895" lon="0.37677">
        <ele>78</ele>
        <time>2022-06-26T09:37:07Z</time>
      </trkpt>
      <trkpt lat="46.51889" lon="0.37715">
        <ele>78.2</ele>
        <time>2022-06-26T09:37:12Z</time>
      </trkpt>
      <trkpt lat="46.51887" lon="0.37721">
        <ele>78</ele>
        <time>2022-06-26T09:37:13Z</time>
      </trkpt>
      <trkpt lat="46.51885" lon="0.37726">
        <ele>78</ele>
        <time>2022-06-26T09:37:14Z</time>
      </trkpt>
      <trkpt lat="46.51878" lon="0.3774">
        <ele>78</ele>
        <time>2022-06-26T09:37:17Z</time>
      </trkpt>
      <trkpt lat="46.51873" lon="0.37751">
        <ele>78</ele>
        <time>2022-06-26T09:37:19Z</time>
      </trkpt>
      <trkpt lat="46.51863" lon="0.37772">
        <ele>78.2</ele>
        <time>2022-06-26T09:37:23Z</time>
      </trkpt>
      <trkpt lat="46.51857" lon="0.37793">
        <ele>78.6</ele>
        <time>2022-06-26T09:37:26Z</time>
      </trkpt>
      <trkpt lat="46.51857" lon="0.37807">
        <ele>79</ele>
        <time>2022-06-26T09:37:28Z</time>
      </trkpt>
      <trkpt lat="46.51856" lon="0.37817">
        <ele>79</ele>
        <time>2022-06-26T09:37:29Z</time>
      </trkpt>
      <trkpt lat="46.51856" lon="0.37824">
        <ele>79</ele>
        <time>2022-06-26T09:37:30Z</time>
      </trkpt>
      <trkpt lat="46.51856" lon="0.37835">
        <ele>79.4</ele>
        <time>2022-06-26T09:37:32Z</time>
      </trkpt>
      <trkpt lat="46.51856" lon="0.3784">
        <ele>79.4</ele>
        <time>2022-06-26T09:37:33Z</time>
      </trkpt>
      <trkpt lat="46.51855" lon="0.37852">
        <ele>79.4</ele>
        <time>2022-06-26T09:37:35Z</time>
      </trkpt>
      <trkpt lat="46.51853" lon="0.37863">
        <ele>79.8</ele>
        <time>2022-06-26T09:37:37Z</time>
      </trkpt>
      <trkpt lat="46.51847" lon="0.37895">
        <ele>80</ele>
        <time>2022-06-26T09:37:41Z</time>
      </trkpt>
      <trkpt lat="46.5184" lon="0.37922">
        <ele>79.6</ele>
        <time>2022-06-26T09:37:45Z</time>
      </trkpt>
      <trkpt lat="46.51834" lon="0.37932">
        <ele>79.4</ele>
        <time>2022-06-26T09:37:47Z</time>
      </trkpt>
      <trkpt lat="46.51811" lon="0.37966">
        <ele>78.8</ele>
        <time>2022-06-26T09:37:53Z</time>
      </trkpt>
      <trkpt lat="46.51787" lon="0.37999">
        <ele>79.8</ele>
        <time>2022-06-26T09:38:00Z</time>
      </trkpt>
      <trkpt lat="46.51783" lon="0.38003">
        <ele>80.2</ele>
        <time>2022-06-26T09:38:01Z</time>
      </trkpt>
      <trkpt lat="46.51778" lon="0.38008">
        <ele>80.4</ele>
        <time>2022-06-26T09:38:03Z</time>
      </trkpt>
      <trkpt lat="46.51769" lon="0.38014">
        <ele>80.8</ele>
        <time>2022-06-26T09:38:06Z</time>
      </trkpt>
      <trkpt lat="46.51749" lon="0.38029">
        <ele>81.6</ele>
        <time>2022-06-26T09:38:12Z</time>
      </trkpt>
      <trkpt lat="46.51746" lon="0.38035">
        <ele>81.6</ele>
        <time>2022-06-26T09:38:13Z</time>
      </trkpt>
      <trkpt lat="46.51743" lon="0.38038">
        <ele>81.8</ele>
        <time>2022-06-26T09:38:14Z</time>
      </trkpt>
      <trkpt lat="46.51736" lon="0.38042">
        <ele>82.2</ele>
        <time>2022-06-26T09:38:18Z</time>
      </trkpt>
      <trkpt lat="46.51729" lon="0.38042">
        <ele>82.8</ele>
        <time>2022-06-26T09:38:21Z</time>
      </trkpt>
      <trkpt lat="46.51718" lon="0.38044">
        <ele>83.6</ele>
        <time>2022-06-26T09:38:26Z</time>
      </trkpt>
      <trkpt lat="46.51713" lon="0.38045">
        <ele>84</ele>
        <time>2022-06-26T09:38:29Z</time>
      </trkpt>
      <trkpt lat="46.51706" lon="0.38043">
        <ele>85.2</ele>
        <time>2022-06-26T09:38:33Z</time>
      </trkpt>
      <trkpt lat="46.51695" lon="0.38036">
        <ele>86.2</ele>
        <time>2022-06-26T09:38:37Z</time>
      </trkpt>
      <trkpt lat="46.51693" lon="0.38035">
        <ele>86.4</ele>
        <time>2022-06-26T09:38:38Z</time>
      </trkpt>
      <trkpt lat="46.51684" lon="0.38036">
        <ele>87.6</ele>
        <time>2022-06-26T09:38:44Z</time>
      </trkpt>
      <trkpt lat="46.51683" lon="0.38036">
        <ele>88</ele>
        <time>2022-06-26T09:38:45Z</time>
      </trkpt>
      <trkpt lat="46.51672" lon="0.3803">
        <ele>88.8</ele>
        <time>2022-06-26T09:38:50Z</time>
      </trkpt>
      <trkpt lat="46.51666" lon="0.38026">
        <ele>89</ele>
        <time>2022-06-26T09:38:51Z</time>
      </trkpt>
      <trkpt lat="46.51654" lon="0.3802">
        <ele>90</ele>
        <time>2022-06-26T09:38:55Z</time>
      </trkpt>
      <trkpt lat="46.51643" lon="0.38012">
        <ele>90.8</ele>
        <time>2022-06-26T09:38:59Z</time>
      </trkpt>
      <trkpt lat="46.5164" lon="0.38011">
        <ele>91</ele>
        <time>2022-06-26T09:39:01Z</time>
      </trkpt>
      <trkpt lat="46.51634" lon="0.38008">
        <ele>92</ele>
        <time>2022-06-26T09:39:05Z</time>
      </trkpt>
      <trkpt lat="46.51629" lon="0.38004">
        <ele>92.4</ele>
        <time>2022-06-26T09:39:09Z</time>
      </trkpt>
      <trkpt lat="46.51627" lon="0.38003">
        <ele>92.8</ele>
        <time>2022-06-26T09:39:10Z</time>
      </trkpt>
      <trkpt lat="46.51625" lon="0.38">
        <ele>93</ele>
        <time>2022-06-26T09:39:12Z</time>
      </trkpt>
      <trkpt lat="46.51617" lon="0.37994">
        <ele>93.8</ele>
        <time>2022-06-26T09:39:17Z</time>
      </trkpt>
      <trkpt lat="46.51615" lon="0.37991">
        <ele>94.2</ele>
        <time>2022-06-26T09:39:19Z</time>
      </trkpt>
      <trkpt lat="46.51613" lon="0.37988">
        <ele>94.4</ele>
        <time>2022-06-26T09:39:21Z</time>
      </trkpt>
      <trkpt lat="46.51609" lon="0.37984">
        <ele>94.6</ele>
        <time>2022-06-26T09:39:23Z</time>
      </trkpt>
      <trkpt lat="46.51591" lon="0.37971">
        <ele>95.2</ele>
        <time>2022-06-26T09:39:28Z</time>
      </trkpt>
      <trkpt lat="46.51588" lon="0.3797">
        <ele>95.2</ele>
        <time>2022-06-26T09:39:29Z</time>
      </trkpt>
      <trkpt lat="46.51567" lon="0.37962">
        <ele>96</ele>
        <time>2022-06-26T09:39:36Z</time>
      </trkpt>
      <trkpt lat="46.51546" lon="0.3796">
        <ele>96.4</ele>
        <time>2022-06-26T09:39:41Z</time>
      </trkpt>
      <trkpt lat="46.51538" lon="0.3795">
        <ele>96.6</ele>
        <time>2022-06-26T09:39:45Z</time>
      </trkpt>
      <trkpt lat="46.51532" lon="0.37941">
        <ele>97.4</ele>
        <time>2022-06-26T09:39:49Z</time>
      </trkpt>
      <trkpt lat="46.51524" lon="0.37936">
        <ele>98</ele>
        <time>2022-06-26T09:39:52Z</time>
      </trkpt>
      <trkpt lat="46.51509" lon="0.37927">
        <ele>98.4</ele>
        <time>2022-06-26T09:39:57Z</time>
      </trkpt>
      <trkpt lat="46.51507" lon="0.37925">
        <ele>98.6</ele>
        <time>2022-06-26T09:39:58Z</time>
      </trkpt>
      <trkpt lat="46.51497" lon="0.3792">
        <ele>99.6</ele>
        <time>2022-06-26T09:40:02Z</time>
      </trkpt>
      <trkpt lat="46.51495" lon="0.37918">
        <ele>100.2</ele>
        <time>2022-06-26T09:40:04Z</time>
      </trkpt>
      <trkpt lat="46.51485" lon="0.37911">
        <ele>100.6</ele>
        <time>2022-06-26T09:40:07Z</time>
      </trkpt>
      <trkpt lat="46.51477" lon="0.37904">
        <ele>101</ele>
        <time>2022-06-26T09:40:10Z</time>
      </trkpt>
      <trkpt lat="46.51459" lon="0.3789">
        <ele>101.8</ele>
        <time>2022-06-26T09:40:16Z</time>
      </trkpt>
      <trkpt lat="46.51457" lon="0.37888">
        <ele>102</ele>
        <time>2022-06-26T09:40:17Z</time>
      </trkpt>
      <trkpt lat="46.51449" lon="0.37869">
        <ele>103</ele>
        <time>2022-06-26T09:40:23Z</time>
      </trkpt>
      <trkpt lat="46.51445" lon="0.37854">
        <ele>104</ele>
        <time>2022-06-26T09:40:28Z</time>
      </trkpt>
      <trkpt lat="46.51445" lon="0.37851">
        <ele>104.2</ele>
        <time>2022-06-26T09:40:29Z</time>
      </trkpt>
      <trkpt lat="46.51446" lon="0.37826">
        <ele>104.2</ele>
        <time>2022-06-26T09:40:36Z</time>
      </trkpt>
      <trkpt lat="46.51443" lon="0.37794">
        <ele>104.4</ele>
        <time>2022-06-26T09:40:43Z</time>
      </trkpt>
      <trkpt lat="46.51443" lon="0.37775">
        <ele>104.4</ele>
        <time>2022-06-26T09:40:47Z</time>
      </trkpt>
      <trkpt lat="46.51442" lon="0.37769">
        <ele>104.4</ele>
        <time>2022-06-26T09:40:49Z</time>
      </trkpt>
      <trkpt lat="46.51429" lon="0.37745">
        <ele>105</ele>
        <time>2022-06-26T09:40:55Z</time>
      </trkpt>
      <trkpt lat="46.5142" lon="0.37728">
        <ele>106</ele>
        <time>2022-06-26T09:41:01Z</time>
      </trkpt>
      <trkpt lat="46.5142" lon="0.37725">
        <ele>106.2</ele>
        <time>2022-06-26T09:41:02Z</time>
      </trkpt>
      <trkpt lat="46.51418" lon="0.3771">
        <ele>106.2</ele>
        <time>2022-06-26T09:41:06Z</time>
      </trkpt>
      <trkpt lat="46.51412" lon="0.37684">
        <ele>106.8</ele>
        <time>2022-06-26T09:41:12Z</time>
      </trkpt>
      <trkpt lat="46.51409" lon="0.37674">
        <ele>107.2</ele>
        <time>2022-06-26T09:41:15Z</time>
      </trkpt>
      <trkpt lat="46.51405" lon="0.37652">
        <ele>107.8</ele>
        <time>2022-06-26T09:41:20Z</time>
      </trkpt>
      <trkpt lat="46.51404" lon="0.37642">
        <ele>107.8</ele>
        <time>2022-06-26T09:41:22Z</time>
      </trkpt>
      <trkpt lat="46.51401" lon="0.37624">
        <ele>107.8</ele>
        <time>2022-06-26T09:41:25Z</time>
      </trkpt>
      <trkpt lat="46.51395" lon="0.37599">
        <ele>108</ele>
        <time>2022-06-26T09:41:30Z</time>
      </trkpt>
      <trkpt lat="46.51392" lon="0.37593">
        <ele>108.2</ele>
        <time>2022-06-26T09:41:31Z</time>
      </trkpt>
      <trkpt lat="46.51383" lon="0.37572">
        <ele>108.8</ele>
        <time>2022-06-26T09:41:37Z</time>
      </trkpt>
      <trkpt lat="46.51377" lon="0.37568">
        <ele>109.2</ele>
        <time>2022-06-26T09:41:40Z</time>
      </trkpt>
      <trkpt lat="46.51373" lon="0.37567">
        <ele>109.4</ele>
        <time>2022-06-26T09:41:42Z</time>
      </trkpt>
      <trkpt lat="46.51348" lon="0.37546">
        <ele>110.4</ele>
        <time>2022-06-26T09:41:47Z</time>
      </trkpt>
      <trkpt lat="46.51332" lon="0.37542">
        <ele>111</ele>
        <time>2022-06-26T09:41:53Z</time>
      </trkpt>
      <trkpt lat="46.51323" lon="0.37549">
        <ele>111.4</ele>
        <time>2022-06-26T09:41:59Z</time>
      </trkpt>
      <trkpt lat="46.51318" lon="0.3755">
        <ele>111.8</ele>
        <time>2022-06-26T09:42:01Z</time>
      </trkpt>
      <trkpt lat="46.51313" lon="0.37547">
        <ele>111.8</ele>
        <time>2022-06-26T09:42:02Z</time>
      </trkpt>
      <trkpt lat="46.51304" lon="0.37555">
        <ele>112.6</ele>
        <time>2022-06-26T09:42:06Z</time>
      </trkpt>
      <trkpt lat="46.51285" lon="0.37556">
        <ele>113.2</ele>
        <time>2022-06-26T09:42:11Z</time>
      </trkpt>
      <trkpt lat="46.51282" lon="0.37557">
        <ele>113.2</ele>
        <time>2022-06-26T09:42:12Z</time>
      </trkpt>
      <trkpt lat="46.51281" lon="0.37559">
        <ele>113.4</ele>
        <time>2022-06-26T09:42:13Z</time>
      </trkpt>
      <trkpt lat="46.51278" lon="0.37567">
        <ele>113.6</ele>
        <time>2022-06-26T09:42:16Z</time>
      </trkpt>
      <trkpt lat="46.51277" lon="0.37569">
        <ele>113.6</ele>
        <time>2022-06-26T09:42:17Z</time>
      </trkpt>
      <trkpt lat="46.51271" lon="0.37573">
        <ele>112.8</ele>
        <time>2022-06-26T09:42:20Z</time>
      </trkpt>
      <trkpt lat="46.51252" lon="0.37586">
        <ele>112.8</ele>
        <time>2022-06-26T09:42:27Z</time>
      </trkpt>
      <trkpt lat="46.51235" lon="0.37594">
        <ele>113.6</ele>
        <time>2022-06-26T09:42:34Z</time>
      </trkpt>
      <trkpt lat="46.51232" lon="0.37596">
        <ele>113.6</ele>
        <time>2022-06-26T09:42:35Z</time>
      </trkpt>
      <trkpt lat="46.5123" lon="0.37599">
        <ele>113.6</ele>
        <time>2022-06-26T09:42:36Z</time>
      </trkpt>
      <trkpt lat="46.51224" lon="0.37607">
        <ele>113.6</ele>
        <time>2022-06-26T09:42:38Z</time>
      </trkpt>
      <trkpt lat="46.51221" lon="0.37609">
        <ele>113.6</ele>
        <time>2022-06-26T09:42:39Z</time>
      </trkpt>
      <trkpt lat="46.51206" lon="0.3762">
        <ele>113.6</ele>
        <time>2022-06-26T09:42:44Z</time>
      </trkpt>
      <trkpt lat="46.51202" lon="0.37625">
        <ele>113.4</ele>
        <time>2022-06-26T09:42:46Z</time>
      </trkpt>
      <trkpt lat="46.51195" lon="0.37639">
        <ele>112.6</ele>
        <time>2022-06-26T09:42:49Z</time>
      </trkpt>
      <trkpt lat="46.51194" lon="0.37648">
        <ele>112.8</ele>
        <time>2022-06-26T09:42:51Z</time>
      </trkpt>
      <trkpt lat="46.51194" lon="0.37652">
        <ele>112.6</ele>
        <time>2022-06-26T09:42:52Z</time>
      </trkpt>
      <trkpt lat="46.51196" lon="0.37656">
        <ele>112.6</ele>
        <time>2022-06-26T09:42:53Z</time>
      </trkpt>
      <trkpt lat="46.51201" lon="0.37669">
        <ele>112.4</ele>
        <time>2022-06-26T09:42:56Z</time>
      </trkpt>
      <trkpt lat="46.51217" lon="0.37689">
        <ele>112.4</ele>
        <time>2022-06-26T09:43:02Z</time>
      </trkpt>
      <trkpt lat="46.51221" lon="0.37692">
        <ele>112.2</ele>
        <time>2022-06-26T09:43:03Z</time>
      </trkpt>
      <trkpt lat="46.51239" lon="0.37705">
        <ele>111.6</ele>
        <time>2022-06-26T09:43:08Z</time>
      </trkpt>
      <trkpt lat="46.51248" lon="0.37712">
        <ele>111.6</ele>
        <time>2022-06-26T09:43:10Z</time>
      </trkpt>
      <trkpt lat="46.5128" lon="0.37739">
        <ele>110.4</ele>
        <time>2022-06-26T09:43:17Z</time>
      </trkpt>
      <trkpt lat="46.51307" lon="0.37759">
        <ele>109.4</ele>
        <time>2022-06-26T09:43:22Z</time>
      </trkpt>
      <trkpt lat="46.51312" lon="0.37765">
        <ele>109.2</ele>
        <time>2022-06-26T09:43:23Z</time>
      </trkpt>
      <trkpt lat="46.51316" lon="0.37768">
        <ele>109</ele>
        <time>2022-06-26T09:43:24Z</time>
      </trkpt>
      <trkpt lat="46.5133" lon="0.3778">
        <ele>108.2</ele>
        <time>2022-06-26T09:43:27Z</time>
      </trkpt>
      <trkpt lat="46.51334" lon="0.37783">
        <ele>107.8</ele>
        <time>2022-06-26T09:43:28Z</time>
      </trkpt>
      <trkpt lat="46.51342" lon="0.37788">
        <ele>107.2</ele>
        <time>2022-06-26T09:43:30Z</time>
      </trkpt>
      <trkpt lat="46.51356" lon="0.378">
        <ele>106.4</ele>
        <time>2022-06-26T09:43:33Z</time>
      </trkpt>
      <trkpt lat="46.51365" lon="0.37808">
        <ele>105.8</ele>
        <time>2022-06-26T09:43:35Z</time>
      </trkpt>
      <trkpt lat="46.51388" lon="0.37826">
        <ele>105</ele>
        <time>2022-06-26T09:43:40Z</time>
      </trkpt>
      <trkpt lat="46.51393" lon="0.37832">
        <ele>104.6</ele>
        <time>2022-06-26T09:43:41Z</time>
      </trkpt>
      <trkpt lat="46.51406" lon="0.37848">
        <ele>103.8</ele>
        <time>2022-06-26T09:43:44Z</time>
      </trkpt>
      <trkpt lat="46.51409" lon="0.37852">
        <ele>103.6</ele>
        <time>2022-06-26T09:43:45Z</time>
      </trkpt>
      <trkpt lat="46.51421" lon="0.37858">
        <ele>102.8</ele>
        <time>2022-06-26T09:43:49Z</time>
      </trkpt>
      <trkpt lat="46.51425" lon="0.37861">
        <ele>102.6</ele>
        <time>2022-06-26T09:43:50Z</time>
      </trkpt>
      <trkpt lat="46.51435" lon="0.37869">
        <ele>102</ele>
        <time>2022-06-26T09:43:53Z</time>
      </trkpt>
      <trkpt lat="46.51446" lon="0.37875">
        <ele>101.6</ele>
        <time>2022-06-26T09:43:55Z</time>
      </trkpt>
      <trkpt lat="46.5145" lon="0.37878">
        <ele>101.6</ele>
        <time>2022-06-26T09:43:56Z</time>
      </trkpt>
      <trkpt lat="46.51461" lon="0.37886">
        <ele>101.2</ele>
        <time>2022-06-26T09:43:58Z</time>
      </trkpt>
      <trkpt lat="46.51466" lon="0.37889">
        <ele>101.4</ele>
        <time>2022-06-26T09:43:59Z</time>
      </trkpt>
      <trkpt lat="46.51478" lon="0.37896">
        <ele>100.2</ele>
        <time>2022-06-26T09:44:01Z</time>
      </trkpt>
      <trkpt lat="46.51496" lon="0.37909">
        <ele>99.4</ele>
        <time>2022-06-26T09:44:04Z</time>
      </trkpt>
      <trkpt lat="46.51505" lon="0.37923">
        <ele>98.6</ele>
        <time>2022-06-26T09:44:06Z</time>
      </trkpt>
      <trkpt lat="46.51512" lon="0.37934">
        <ele>97.4</ele>
        <time>2022-06-26T09:44:07Z</time>
      </trkpt>
      <trkpt lat="46.51512" lon="0.37934">
        <ele>97.4</ele>
        <time>2022-06-26T09:44:08Z</time>
      </trkpt>
      <trkpt lat="46.51526" lon="0.37943">
        <ele>96.8</ele>
        <time>2022-06-26T09:44:12Z</time>
      </trkpt>
      <trkpt lat="46.51554" lon="0.37949">
        <ele>96.6</ele>
        <time>2022-06-26T09:44:18Z</time>
      </trkpt>
      <trkpt lat="46.51562" lon="0.37952">
        <ele>96.4</ele>
        <time>2022-06-26T09:44:20Z</time>
      </trkpt>
      <trkpt lat="46.51564" lon="0.37953">
        <ele>95.8</ele>
        <time>2022-06-26T09:44:21Z</time>
      </trkpt>
      <trkpt lat="46.51566" lon="0.37953">
        <ele>95.6</ele>
        <time>2022-06-26T09:44:22Z</time>
      </trkpt>
      <trkpt lat="46.51572" lon="0.37956">
        <ele>95.2</ele>
        <time>2022-06-26T09:44:24Z</time>
      </trkpt>
      <trkpt lat="46.51578" lon="0.37962">
        <ele>95</ele>
        <time>2022-06-26T09:44:27Z</time>
      </trkpt>
      <trkpt lat="46.51584" lon="0.37968">
        <ele>94.8</ele>
        <time>2022-06-26T09:44:29Z</time>
      </trkpt>
      <trkpt lat="46.51593" lon="0.37976">
        <ele>94.2</ele>
        <time>2022-06-26T09:44:32Z</time>
      </trkpt>
      <trkpt lat="46.51596" lon="0.37976">
        <ele>94</ele>
        <time>2022-06-26T09:44:33Z</time>
      </trkpt>
      <trkpt lat="46.51598" lon="0.37975">
        <ele>93.8</ele>
        <time>2022-06-26T09:44:34Z</time>
      </trkpt>
      <trkpt lat="46.51604" lon="0.37966">
        <ele>93.8</ele>
        <time>2022-06-26T09:44:38Z</time>
      </trkpt>
      <trkpt lat="46.51605" lon="0.37963">
        <ele>93.8</ele>
        <time>2022-06-26T09:44:39Z</time>
      </trkpt>
      <trkpt lat="46.51612" lon="0.37946">
        <ele>94.2</ele>
        <time>2022-06-26T09:44:44Z</time>
      </trkpt>
      <trkpt lat="46.51618" lon="0.37934">
        <ele>94.2</ele>
        <time>2022-06-26T09:44:47Z</time>
      </trkpt>
      <trkpt lat="46.51623" lon="0.37917">
        <ele>94</ele>
        <time>2022-06-26T09:44:50Z</time>
      </trkpt>
      <trkpt lat="46.51629" lon="0.37892">
        <ele>93.2</ele>
        <time>2022-06-26T09:44:54Z</time>
      </trkpt>
      <trkpt lat="46.51629" lon="0.37887">
        <ele>93</ele>
        <time>2022-06-26T09:44:55Z</time>
      </trkpt>
      <trkpt lat="46.51629" lon="0.37882">
        <ele>93.2</ele>
        <time>2022-06-26T09:44:56Z</time>
      </trkpt>
      <trkpt lat="46.51629" lon="0.37866">
        <ele>94.2</ele>
        <time>2022-06-26T09:45:00Z</time>
      </trkpt>
      <trkpt lat="46.51635" lon="0.37857">
        <ele>95.2</ele>
        <time>2022-06-26T09:45:02Z</time>
      </trkpt>
      <trkpt lat="46.51639" lon="0.3785">
        <ele>95.6</ele>
        <time>2022-06-26T09:45:04Z</time>
      </trkpt>
      <trkpt lat="46.51651" lon="0.37826">
        <ele>96.4</ele>
        <time>2022-06-26T09:45:10Z</time>
      </trkpt>
      <trkpt lat="46.5165" lon="0.37804">
        <ele>96.4</ele>
        <time>2022-06-26T09:45:15Z</time>
      </trkpt>
      <trkpt lat="46.51653" lon="0.378">
        <ele>96.4</ele>
        <time>2022-06-26T09:45:16Z</time>
      </trkpt>
      <trkpt lat="46.51665" lon="0.37786">
        <ele>96.6</ele>
        <time>2022-06-26T09:45:19Z</time>
      </trkpt>
      <trkpt lat="46.51668" lon="0.37781">
        <ele>96.6</ele>
        <time>2022-06-26T09:45:20Z</time>
      </trkpt>
      <trkpt lat="46.51679" lon="0.37742">
        <ele>96.6</ele>
        <time>2022-06-26T09:45:27Z</time>
      </trkpt>
      <trkpt lat="46.51679" lon="0.37736">
        <ele>96.6</ele>
        <time>2022-06-26T09:45:28Z</time>
      </trkpt>
      <trkpt lat="46.5169" lon="0.37709">
        <ele>96</ele>
        <time>2022-06-26T09:45:33Z</time>
      </trkpt>
      <trkpt lat="46.51689" lon="0.37696">
        <ele>95.8</ele>
        <time>2022-06-26T09:45:35Z</time>
      </trkpt>
      <trkpt lat="46.51692" lon="0.37688">
        <ele>95.6</ele>
        <time>2022-06-26T09:45:36Z</time>
      </trkpt>
      <trkpt lat="46.51692" lon="0.37669">
        <ele>95</ele>
        <time>2022-06-26T09:45:39Z</time>
      </trkpt>
      <trkpt lat="46.51704" lon="0.37645">
        <ele>94.6</ele>
        <time>2022-06-26T09:45:42Z</time>
      </trkpt>
      <trkpt lat="46.51708" lon="0.37638">
        <ele>94.4</ele>
        <time>2022-06-26T09:45:43Z</time>
      </trkpt>
      <trkpt lat="46.51709" lon="0.3763">
        <ele>94</ele>
        <time>2022-06-26T09:45:44Z</time>
      </trkpt>
      <trkpt lat="46.51717" lon="0.37615">
        <ele>93</ele>
        <time>2022-06-26T09:45:46Z</time>
      </trkpt>
      <trkpt lat="46.51722" lon="0.37594">
        <ele>91.8</ele>
        <time>2022-06-26T09:45:48Z</time>
      </trkpt>
      <trkpt lat="46.51723" lon="0.37576">
        <ele>89.8</ele>
        <time>2022-06-26T09:45:50Z</time>
      </trkpt>
      <trkpt lat="46.51728" lon="0.37563">
        <ele>88.6</ele>
        <time>2022-06-26T09:45:52Z</time>
      </trkpt>
      <trkpt lat="46.51731" lon="0.3755">
        <ele>87</ele>
        <time>2022-06-26T09:45:54Z</time>
      </trkpt>
      <trkpt lat="46.51734" lon="0.3754">
        <ele>85.2</ele>
        <time>2022-06-26T09:45:56Z</time>
      </trkpt>
      <trkpt lat="46.51733" lon="0.37536">
        <ele>83.8</ele>
        <time>2022-06-26T09:45:57Z</time>
      </trkpt>
      <trkpt lat="46.5173" lon="0.37528">
        <ele>82</ele>
        <time>2022-06-26T09:45:59Z</time>
      </trkpt>
      <trkpt lat="46.51728" lon="0.37525">
        <ele>81</ele>
        <time>2022-06-26T09:46:00Z</time>
      </trkpt>
      <trkpt lat="46.51726" lon="0.37521">
        <ele>80.2</ele>
        <time>2022-06-26T09:46:01Z</time>
      </trkpt>
      <trkpt lat="46.51727" lon="0.37517">
        <ele>79.4</ele>
        <time>2022-06-26T09:46:02Z</time>
      </trkpt>
      <trkpt lat="46.51727" lon="0.37513">
        <ele>78.8</ele>
        <time>2022-06-26T09:46:03Z</time>
      </trkpt>
      <trkpt lat="46.51719" lon="0.37504">
        <ele>77.6</ele>
        <time>2022-06-26T09:46:06Z</time>
      </trkpt>
      <trkpt lat="46.51703" lon="0.37484">
        <ele>77.4</ele>
        <time>2022-06-26T09:46:14Z</time>
      </trkpt>
      <trkpt lat="46.51686" lon="0.37463">
        <ele>77.8</ele>
        <time>2022-06-26T09:46:22Z</time>
      </trkpt>
      <trkpt lat="46.5168" lon="0.37457">
        <ele>77.8</ele>
        <time>2022-06-26T09:46:24Z</time>
      </trkpt>
      <trkpt lat="46.51672" lon="0.37451">
        <ele>77.8</ele>
        <time>2022-06-26T09:46:26Z</time>
      </trkpt>
      <trkpt lat="46.51669" lon="0.37447">
        <ele>77.6</ele>
        <time>2022-06-26T09:46:27Z</time>
      </trkpt>
      <trkpt lat="46.51652" lon="0.37432">
        <ele>77.4</ele>
        <time>2022-06-26T09:46:32Z</time>
      </trkpt>
      <trkpt lat="46.51633" lon="0.37408">
        <ele>77.6</ele>
        <time>2022-06-26T09:46:38Z</time>
      </trkpt>
      <trkpt lat="46.51622" lon="0.37388">
        <ele>77</ele>
        <time>2022-06-26T09:46:42Z</time>
      </trkpt>
      <trkpt lat="46.51615" lon="0.37379">
        <ele>77</ele>
        <time>2022-06-26T09:46:44Z</time>
      </trkpt>
      <trkpt lat="46.51607" lon="0.37364">
        <ele>77</ele>
        <time>2022-06-26T09:46:48Z</time>
      </trkpt>
      <trkpt lat="46.51606" lon="0.3736">
        <ele>77</ele>
        <time>2022-06-26T09:46:49Z</time>
      </trkpt>
      <trkpt lat="46.516" lon="0.37346">
        <ele>76.8</ele>
        <time>2022-06-26T09:46:52Z</time>
      </trkpt>
      <trkpt lat="46.51593" lon="0.37335">
        <ele>76.6</ele>
        <time>2022-06-26T09:46:54Z</time>
      </trkpt>
      <trkpt lat="46.51593" lon="0.37335">
        <ele>76.6</ele>
        <time>2022-06-26T09:46:55Z</time>
      </trkpt>
      <trkpt lat="46.51588" lon="0.37329">
        <ele>76.4</ele>
        <time>2022-06-26T09:46:56Z</time>
      </trkpt>
      <trkpt lat="46.51585" lon="0.37328">
        <ele>76.2</ele>
        <time>2022-06-26T09:46:58Z</time>
      </trkpt>
      <trkpt lat="46.51578" lon="0.37325">
        <ele>76.8</ele>
        <time>2022-06-26T09:47:01Z</time>
      </trkpt>
      <trkpt lat="46.51571" lon="0.37321">
        <ele>77.6</ele>
        <time>2022-06-26T09:47:04Z</time>
      </trkpt>
      <trkpt lat="46.51568" lon="0.3732">
        <ele>78.2</ele>
        <time>2022-06-26T09:47:05Z</time>
      </trkpt>
      <trkpt lat="46.51565" lon="0.37321">
        <ele>79</ele>
        <time>2022-06-26T09:47:07Z</time>
      </trkpt>
      <trkpt lat="46.51563" lon="0.3732">
        <ele>79.6</ele>
        <time>2022-06-26T09:47:08Z</time>
      </trkpt>
      <trkpt lat="46.51561" lon="0.3732">
        <ele>80.2</ele>
        <time>2022-06-26T09:47:10Z</time>
      </trkpt>
      <trkpt lat="46.51555" lon="0.37321">
        <ele>81.8</ele>
        <time>2022-06-26T09:47:14Z</time>
      </trkpt>
      <trkpt lat="46.51553" lon="0.37322">
        <ele>82.6</ele>
        <time>2022-06-26T09:47:16Z</time>
      </trkpt>
      <trkpt lat="46.51552" lon="0.37324">
        <ele>82.8</ele>
        <time>2022-06-26T09:47:18Z</time>
      </trkpt>
      <trkpt lat="46.51544" lon="0.37321">
        <ele>83.8</ele>
        <time>2022-06-26T09:47:23Z</time>
      </trkpt>
      <trkpt lat="46.51542" lon="0.37321">
        <ele>84.2</ele>
        <time>2022-06-26T09:47:26Z</time>
      </trkpt>
      <trkpt lat="46.51538" lon="0.37324">
        <ele>85</ele>
        <time>2022-06-26T09:47:30Z</time>
      </trkpt>
      <trkpt lat="46.51535" lon="0.37326">
        <ele>86</ele>
        <time>2022-06-26T09:47:33Z</time>
      </trkpt>
      <trkpt lat="46.51534" lon="0.37326">
        <ele>86</ele>
        <time>2022-06-26T09:47:34Z</time>
      </trkpt>
      <trkpt lat="46.51533" lon="0.37326">
        <ele>86.8</ele>
        <time>2022-06-26T09:47:36Z</time>
      </trkpt>
      <trkpt lat="46.5153" lon="0.37328">
        <ele>87.4</ele>
        <time>2022-06-26T09:47:38Z</time>
      </trkpt>
      <trkpt lat="46.51527" lon="0.3733">
        <ele>88.2</ele>
        <time>2022-06-26T09:47:41Z</time>
      </trkpt>
      <trkpt lat="46.51526" lon="0.3733">
        <ele>88.6</ele>
        <time>2022-06-26T09:47:42Z</time>
      </trkpt>
      <trkpt lat="46.51524" lon="0.3733">
        <ele>89</ele>
        <time>2022-06-26T09:47:43Z</time>
      </trkpt>
      <trkpt lat="46.51522" lon="0.3733">
        <ele>89.8</ele>
        <time>2022-06-26T09:47:45Z</time>
      </trkpt>
      <trkpt lat="46.51519" lon="0.37332">
        <ele>90.6</ele>
        <time>2022-06-26T09:47:48Z</time>
      </trkpt>
      <trkpt lat="46.51518" lon="0.37332">
        <ele>90.8</ele>
        <time>2022-06-26T09:47:49Z</time>
      </trkpt>
      <trkpt lat="46.51517" lon="0.37333">
        <ele>91</ele>
        <time>2022-06-26T09:47:50Z</time>
      </trkpt>
      <trkpt lat="46.51515" lon="0.37334">
        <ele>91.8</ele>
        <time>2022-06-26T09:47:53Z</time>
      </trkpt>
      <trkpt lat="46.51514" lon="0.37334">
        <ele>92.2</ele>
        <time>2022-06-26T09:47:54Z</time>
      </trkpt>
      <trkpt lat="46.51513" lon="0.37335">
        <ele>92.6</ele>
        <time>2022-06-26T09:47:56Z</time>
      </trkpt>
      <trkpt lat="46.51512" lon="0.37335">
        <ele>93</ele>
        <time>2022-06-26T09:47:58Z</time>
      </trkpt>
      <trkpt lat="46.51507" lon="0.37336">
        <ele>94.2</ele>
        <time>2022-06-26T09:48:02Z</time>
      </trkpt>
      <trkpt lat="46.51506" lon="0.37336">
        <ele>94.8</ele>
        <time>2022-06-26T09:48:04Z</time>
      </trkpt>
      <trkpt lat="46.51503" lon="0.37336">
        <ele>95.4</ele>
        <time>2022-06-26T09:48:07Z</time>
      </trkpt>
      <trkpt lat="46.51501" lon="0.37335">
        <ele>95.8</ele>
        <time>2022-06-26T09:48:09Z</time>
      </trkpt>
      <trkpt lat="46.51496" lon="0.37335">
        <ele>96.4</ele>
        <time>2022-06-26T09:48:13Z</time>
      </trkpt>
      <trkpt lat="46.51494" lon="0.37336">
        <ele>97</ele>
        <time>2022-06-26T09:48:15Z</time>
      </trkpt>
      <trkpt lat="46.51488" lon="0.37336">
        <ele>97.8</ele>
        <time>2022-06-26T09:48:21Z</time>
      </trkpt>
      <trkpt lat="46.51484" lon="0.37335">
        <ele>98.8</ele>
        <time>2022-06-26T09:48:26Z</time>
      </trkpt>
      <trkpt lat="46.51479" lon="0.37337">
        <ele>100.2</ele>
        <time>2022-06-26T09:48:31Z</time>
      </trkpt>
      <trkpt lat="46.51477" lon="0.37337">
        <ele>101</ele>
        <time>2022-06-26T09:48:35Z</time>
      </trkpt>
      <trkpt lat="46.51477" lon="0.37336">
        <ele>101.2</ele>
        <time>2022-06-26T09:48:36Z</time>
      </trkpt>
      <trkpt lat="46.51476" lon="0.37331">
        <ele>101.4</ele>
        <time>2022-06-26T09:48:40Z</time>
      </trkpt>
      <trkpt lat="46.51476" lon="0.37326">
        <ele>101.4</ele>
        <time>2022-06-26T09:48:44Z</time>
      </trkpt>
      <trkpt lat="46.51476" lon="0.37323">
        <ele>101.4</ele>
        <time>2022-06-26T09:48:46Z</time>
      </trkpt>
      <trkpt lat="46.51478" lon="0.37311">
        <ele>100.8</ele>
        <time>2022-06-26T09:48:52Z</time>
      </trkpt>
      <trkpt lat="46.51481" lon="0.3729">
        <ele>100.2</ele>
        <time>2022-06-26T09:48:59Z</time>
      </trkpt>
      <trkpt lat="46.51482" lon="0.37285">
        <ele>99.8</ele>
        <time>2022-06-26T09:49:01Z</time>
      </trkpt>
      <trkpt lat="46.51481" lon="0.37274">
        <ele>99</ele>
        <time>2022-06-26T09:49:04Z</time>
      </trkpt>
      <trkpt lat="46.51481" lon="0.37271">
        <ele>98.6</ele>
        <time>2022-06-26T09:49:05Z</time>
      </trkpt>
      <trkpt lat="46.51481" lon="0.37266">
        <ele>98</ele>
        <time>2022-06-26T09:49:07Z</time>
      </trkpt>
      <trkpt lat="46.5148" lon="0.37262">
        <ele>97.8</ele>
        <time>2022-06-26T09:49:08Z</time>
      </trkpt>
      <trkpt lat="46.51481" lon="0.37258">
        <ele>97.2</ele>
        <time>2022-06-26T09:49:10Z</time>
      </trkpt>
      <trkpt lat="46.51483" lon="0.37254">
        <ele>96.2</ele>
        <time>2022-06-26T09:49:12Z</time>
      </trkpt>
      <trkpt lat="46.51483" lon="0.37251">
        <ele>95.6</ele>
        <time>2022-06-26T09:49:13Z</time>
      </trkpt>
      <trkpt lat="46.51482" lon="0.37249">
        <ele>95</ele>
        <time>2022-06-26T09:49:14Z</time>
      </trkpt>
      <trkpt lat="46.51484" lon="0.37245">
        <ele>93.8</ele>
        <time>2022-06-26T09:49:16Z</time>
      </trkpt>
      <trkpt lat="46.51485" lon="0.37239">
        <ele>92.2</ele>
        <time>2022-06-26T09:49:19Z</time>
      </trkpt>
      <trkpt lat="46.51486" lon="0.37238">
        <ele>91.6</ele>
        <time>2022-06-26T09:49:20Z</time>
      </trkpt>
      <trkpt lat="46.51486" lon="0.37236">
        <ele>91</ele>
        <time>2022-06-26T09:49:21Z</time>
      </trkpt>
      <trkpt lat="46.51487" lon="0.37233">
        <ele>90</ele>
        <time>2022-06-26T09:49:23Z</time>
      </trkpt>
      <trkpt lat="46.51492" lon="0.37228">
        <ele>87.6</ele>
        <time>2022-06-26T09:49:25Z</time>
      </trkpt>
      <trkpt lat="46.51494" lon="0.37226">
        <ele>86.6</ele>
        <time>2022-06-26T09:49:26Z</time>
      </trkpt>
      <trkpt lat="46.51498" lon="0.37223">
        <ele>83.6</ele>
        <time>2022-06-26T09:49:27Z</time>
      </trkpt>
      <trkpt lat="46.51507" lon="0.37216">
        <ele>82.2</ele>
        <time>2022-06-26T09:49:29Z</time>
      </trkpt>
      <trkpt lat="46.5151" lon="0.37212">
        <ele>79.8</ele>
        <time>2022-06-26T09:49:30Z</time>
      </trkpt>
      <trkpt lat="46.51512" lon="0.37209">
        <ele>78.4</ele>
        <time>2022-06-26T09:49:31Z</time>
      </trkpt>
      <trkpt lat="46.51517" lon="0.37203">
        <ele>77.2</ele>
        <time>2022-06-26T09:49:33Z</time>
      </trkpt>
      <trkpt lat="46.51533" lon="0.3718">
        <ele>77</ele>
        <time>2022-06-26T09:49:40Z</time>
      </trkpt>
      <trkpt lat="46.5153" lon="0.37161">
        <ele>78</ele>
        <time>2022-06-26T09:49:46Z</time>
      </trkpt>
      <trkpt lat="46.5153" lon="0.37159">
        <ele>78.4</ele>
        <time>2022-06-26T09:49:47Z</time>
      </trkpt>
      <trkpt lat="46.51529" lon="0.37148">
        <ele>79</ele>
        <time>2022-06-26T09:49:52Z</time>
      </trkpt>
      <trkpt lat="46.51529" lon="0.37146">
        <ele>79.4</ele>
        <time>2022-06-26T09:49:53Z</time>
      </trkpt>
      <trkpt lat="46.51528" lon="0.37135">
        <ele>80.4</ele>
        <time>2022-06-26T09:49:58Z</time>
      </trkpt>
      <trkpt lat="46.51526" lon="0.37129">
        <ele>80.8</ele>
        <time>2022-06-26T09:50:00Z</time>
      </trkpt>
      <trkpt lat="46.51522" lon="0.37115">
        <ele>81.4</ele>
        <time>2022-06-26T09:50:04Z</time>
      </trkpt>
      <trkpt lat="46.51518" lon="0.37109">
        <ele>81.6</ele>
        <time>2022-06-26T09:50:06Z</time>
      </trkpt>
      <trkpt lat="46.51513" lon="0.37109">
        <ele>82</ele>
        <time>2022-06-26T09:50:10Z</time>
      </trkpt>
      <trkpt lat="46.51513" lon="0.3711">
        <ele>82.2</ele>
        <time>2022-06-26T09:50:11Z</time>
      </trkpt>
      <trkpt lat="46.51512" lon="0.3711">
        <ele>82.4</ele>
        <time>2022-06-26T09:50:12Z</time>
      </trkpt>
      <trkpt lat="46.51505" lon="0.3711">
        <ele>83.6</ele>
        <time>2022-06-26T09:50:17Z</time>
      </trkpt>
      <trkpt lat="46.51503" lon="0.3711">
        <ele>84</ele>
        <time>2022-06-26T09:50:18Z</time>
      </trkpt>
      <trkpt lat="46.51498" lon="0.37109">
        <ele>84.8</ele>
        <time>2022-06-26T09:50:21Z</time>
      </trkpt>
      <trkpt lat="46.51493" lon="0.37109">
        <ele>85.8</ele>
        <time>2022-06-26T09:50:25Z</time>
      </trkpt>
      <trkpt lat="46.51492" lon="0.37108">
        <ele>86.2</ele>
        <time>2022-06-26T09:50:26Z</time>
      </trkpt>
      <trkpt lat="46.51486" lon="0.37106">
        <ele>87</ele>
        <time>2022-06-26T09:50:29Z</time>
      </trkpt>
      <trkpt lat="46.51479" lon="0.37106">
        <ele>88.2</ele>
        <time>2022-06-26T09:50:34Z</time>
      </trkpt>
      <trkpt lat="46.51476" lon="0.37109">
        <ele>89.2</ele>
        <time>2022-06-26T09:50:37Z</time>
      </trkpt>
      <trkpt lat="46.51474" lon="0.37109">
        <ele>89.4</ele>
        <time>2022-06-26T09:50:38Z</time>
      </trkpt>
      <trkpt lat="46.51471" lon="0.37111">
        <ele>90.2</ele>
        <time>2022-06-26T09:50:41Z</time>
      </trkpt>
      <trkpt lat="46.5147" lon="0.3711">
        <ele>90.4</ele>
        <time>2022-06-26T09:50:42Z</time>
      </trkpt>
      <trkpt lat="46.51469" lon="0.37111">
        <ele>90.6</ele>
        <time>2022-06-26T09:50:43Z</time>
      </trkpt>
      <trkpt lat="46.51466" lon="0.37113">
        <ele>91.2</ele>
        <time>2022-06-26T09:50:46Z</time>
      </trkpt>
      <trkpt lat="46.51463" lon="0.37115">
        <ele>91.4</ele>
        <time>2022-06-26T09:50:48Z</time>
      </trkpt>
      <trkpt lat="46.51462" lon="0.37116">
        <ele>91.6</ele>
        <time>2022-06-26T09:50:49Z</time>
      </trkpt>
      <trkpt lat="46.51457" lon="0.3712">
        <ele>92.6</ele>
        <time>2022-06-26T09:50:53Z</time>
      </trkpt>
      <trkpt lat="46.51455" lon="0.3712">
        <ele>92.8</ele>
        <time>2022-06-26T09:50:54Z</time>
      </trkpt>
      <trkpt lat="46.51447" lon="0.37121">
        <ele>94</ele>
        <time>2022-06-26T09:51:00Z</time>
      </trkpt>
      <trkpt lat="46.51445" lon="0.37121">
        <ele>94.2</ele>
        <time>2022-06-26T09:51:01Z</time>
      </trkpt>
      <trkpt lat="46.51434" lon="0.37119">
        <ele>94.8</ele>
        <time>2022-06-26T09:51:09Z</time>
      </trkpt>
      <trkpt lat="46.51425" lon="0.37108">
        <ele>94</ele>
        <time>2022-06-26T09:51:14Z</time>
      </trkpt>
      <trkpt lat="46.51421" lon="0.37102">
        <ele>93</ele>
        <time>2022-06-26T09:51:16Z</time>
      </trkpt>
      <trkpt lat="46.51421" lon="0.37099">
        <ele>92.8</ele>
        <time>2022-06-26T09:51:17Z</time>
      </trkpt>
      <trkpt lat="46.51421" lon="0.37094">
        <ele>92.6</ele>
        <time>2022-06-26T09:51:18Z</time>
      </trkpt>
      <trkpt lat="46.5142" lon="0.37089">
        <ele>92</ele>
        <time>2022-06-26T09:51:19Z</time>
      </trkpt>
      <trkpt lat="46.51421" lon="0.37086">
        <ele>91.6</ele>
        <time>2022-06-26T09:51:20Z</time>
      </trkpt>
      <trkpt lat="46.51423" lon="0.37074">
        <ele>90.6</ele>
        <time>2022-06-26T09:51:23Z</time>
      </trkpt>
      <trkpt lat="46.51423" lon="0.37071">
        <ele>90.4</ele>
        <time>2022-06-26T09:51:24Z</time>
      </trkpt>
      <trkpt lat="46.51423" lon="0.37068">
        <ele>90.4</ele>
        <time>2022-06-26T09:51:25Z</time>
      </trkpt>
      <trkpt lat="46.51418" lon="0.37059">
        <ele>91.4</ele>
        <time>2022-06-26T09:51:31Z</time>
      </trkpt>
      <trkpt lat="46.51417" lon="0.37056">
        <ele>91.8</ele>
        <time>2022-06-26T09:51:32Z</time>
      </trkpt>
      <trkpt lat="46.51415" lon="0.37053">
        <ele>92.8</ele>
        <time>2022-06-26T09:51:34Z</time>
      </trkpt>
      <trkpt lat="46.51413" lon="0.3705">
        <ele>93.8</ele>
        <time>2022-06-26T09:51:37Z</time>
      </trkpt>
      <trkpt lat="46.51412" lon="0.37049">
        <ele>94</ele>
        <time>2022-06-26T09:51:38Z</time>
      </trkpt>
      <trkpt lat="46.51405" lon="0.37043">
        <ele>94.8</ele>
        <time>2022-06-26T09:51:42Z</time>
      </trkpt>
      <trkpt lat="46.514" lon="0.37039">
        <ele>96</ele>
        <time>2022-06-26T09:51:46Z</time>
      </trkpt>
      <trkpt lat="46.51398" lon="0.37037">
        <ele>96.4</ele>
        <time>2022-06-26T09:51:48Z</time>
      </trkpt>
      <trkpt lat="46.51397" lon="0.37034">
        <ele>97.2</ele>
        <time>2022-06-26T09:51:50Z</time>
      </trkpt>
      <trkpt lat="46.51396" lon="0.37031">
        <ele>97.6</ele>
        <time>2022-06-26T09:51:52Z</time>
      </trkpt>
      <trkpt lat="46.51393" lon="0.37029">
        <ele>98</ele>
        <time>2022-06-26T09:51:54Z</time>
      </trkpt>
      <trkpt lat="46.51392" lon="0.37028">
        <ele>98.4</ele>
        <time>2022-06-26T09:51:55Z</time>
      </trkpt>
      <trkpt lat="46.51383" lon="0.37023">
        <ele>99.4</ele>
        <time>2022-06-26T09:52:01Z</time>
      </trkpt>
      <trkpt lat="46.51381" lon="0.37023">
        <ele>99.6</ele>
        <time>2022-06-26T09:52:03Z</time>
      </trkpt>
      <trkpt lat="46.51373" lon="0.37022">
        <ele>100.6</ele>
        <time>2022-06-26T09:52:10Z</time>
      </trkpt>
      <trkpt lat="46.51372" lon="0.3702">
        <ele>100.8</ele>
        <time>2022-06-26T09:52:11Z</time>
      </trkpt>
      <trkpt lat="46.51365" lon="0.37014">
        <ele>101.8</ele>
        <time>2022-06-26T09:52:16Z</time>
      </trkpt>
      <trkpt lat="46.51362" lon="0.37012">
        <ele>102.2</ele>
        <time>2022-06-26T09:52:18Z</time>
      </trkpt>
      <trkpt lat="46.5136" lon="0.37009">
        <ele>102.6</ele>
        <time>2022-06-26T09:52:19Z</time>
      </trkpt>
      <trkpt lat="46.51359" lon="0.37006">
        <ele>103</ele>
        <time>2022-06-26T09:52:21Z</time>
      </trkpt>
      <trkpt lat="46.51354" lon="0.37001">
        <ele>103.8</ele>
        <time>2022-06-26T09:52:24Z</time>
      </trkpt>
      <trkpt lat="46.51353" lon="0.37">
        <ele>104</ele>
        <time>2022-06-26T09:52:25Z</time>
      </trkpt>
      <trkpt lat="46.51351" lon="0.36998">
        <ele>104</ele>
        <time>2022-06-26T09:52:26Z</time>
      </trkpt>
      <trkpt lat="46.51342" lon="0.36993">
        <ele>105</ele>
        <time>2022-06-26T09:52:31Z</time>
      </trkpt>
      <trkpt lat="46.51341" lon="0.36993">
        <ele>105.2</ele>
        <time>2022-06-26T09:52:32Z</time>
      </trkpt>
      <trkpt lat="46.51335" lon="0.36989">
        <ele>105.4</ele>
        <time>2022-06-26T09:52:35Z</time>
      </trkpt>
      <trkpt lat="46.51329" lon="0.36985">
        <ele>106</ele>
        <time>2022-06-26T09:52:39Z</time>
      </trkpt>
      <trkpt lat="46.51328" lon="0.36985">
        <ele>106.2</ele>
        <time>2022-06-26T09:52:40Z</time>
      </trkpt>
      <trkpt lat="46.51319" lon="0.3698">
        <ele>107.2</ele>
        <time>2022-06-26T09:52:46Z</time>
      </trkpt>
      <trkpt lat="46.51319" lon="0.36979">
        <ele>107.4</ele>
        <time>2022-06-26T09:52:47Z</time>
      </trkpt>
      <trkpt lat="46.51313" lon="0.36976">
        <ele>108.4</ele>
        <time>2022-06-26T09:52:53Z</time>
      </trkpt>
      <trkpt lat="46.51312" lon="0.36976">
        <ele>108.4</ele>
        <time>2022-06-26T09:52:54Z</time>
      </trkpt>
      <trkpt lat="46.51308" lon="0.36977">
        <ele>108.6</ele>
        <time>2022-06-26T09:52:56Z</time>
      </trkpt>
      <trkpt lat="46.51302" lon="0.36976">
        <ele>109</ele>
        <time>2022-06-26T09:52:59Z</time>
      </trkpt>
      <trkpt lat="46.51295" lon="0.36977">
        <ele>109.6</ele>
        <time>2022-06-26T09:53:02Z</time>
      </trkpt>
      <trkpt lat="46.51287" lon="0.36976">
        <ele>109.6</ele>
        <time>2022-06-26T09:53:05Z</time>
      </trkpt>
      <trkpt lat="46.51271" lon="0.36979">
        <ele>110.2</ele>
        <time>2022-06-26T09:53:12Z</time>
      </trkpt>
      <trkpt lat="46.51251" lon="0.36987">
        <ele>110.6</ele>
        <time>2022-06-26T09:53:19Z</time>
      </trkpt>
      <trkpt lat="46.51237" lon="0.3699">
        <ele>110.8</ele>
        <time>2022-06-26T09:53:24Z</time>
      </trkpt>
      <trkpt lat="46.51224" lon="0.37003">
        <ele>111.6</ele>
        <time>2022-06-26T09:53:30Z</time>
      </trkpt>
      <trkpt lat="46.51222" lon="0.37005">
        <ele>111.6</ele>
        <time>2022-06-26T09:53:31Z</time>
      </trkpt>
      <trkpt lat="46.51212" lon="0.37014">
        <ele>111.8</ele>
        <time>2022-06-26T09:53:35Z</time>
      </trkpt>
      <trkpt lat="46.512" lon="0.37021">
        <ele>112.6</ele>
        <time>2022-06-26T09:53:39Z</time>
      </trkpt>
      <trkpt lat="46.51195" lon="0.37022">
        <ele>113</ele>
        <time>2022-06-26T09:53:41Z</time>
      </trkpt>
      <trkpt lat="46.51173" lon="0.37027">
        <ele>113.6</ele>
        <time>2022-06-26T09:53:48Z</time>
      </trkpt>
      <trkpt lat="46.51167" lon="0.37029">
        <ele>113.8</ele>
        <time>2022-06-26T09:53:50Z</time>
      </trkpt>
      <trkpt lat="46.51155" lon="0.37029">
        <ele>114.4</ele>
        <time>2022-06-26T09:53:55Z</time>
      </trkpt>
      <trkpt lat="46.51154" lon="0.37028">
        <ele>114.6</ele>
        <time>2022-06-26T09:53:56Z</time>
      </trkpt>
      <trkpt lat="46.51151" lon="0.37018">
        <ele>114.8</ele>
        <time>2022-06-26T09:54:00Z</time>
      </trkpt>
      <trkpt lat="46.51149" lon="0.3701">
        <ele>114.8</ele>
        <time>2022-06-26T09:54:02Z</time>
      </trkpt>
      <trkpt lat="46.51149" lon="0.36999">
        <ele>115</ele>
        <time>2022-06-26T09:54:05Z</time>
      </trkpt>
      <trkpt lat="46.51148" lon="0.36978">
        <ele>114.6</ele>
        <time>2022-06-26T09:54:11Z</time>
      </trkpt>
      <trkpt lat="46.51144" lon="0.36952">
        <ele>114.6</ele>
        <time>2022-06-26T09:54:17Z</time>
      </trkpt>
      <trkpt lat="46.51142" lon="0.36925">
        <ele>114.6</ele>
        <time>2022-06-26T09:54:22Z</time>
      </trkpt>
      <trkpt lat="46.51141" lon="0.3692">
        <ele>114.4</ele>
        <time>2022-06-26T09:54:23Z</time>
      </trkpt>
      <trkpt lat="46.51141" lon="0.36913">
        <ele>114.4</ele>
        <time>2022-06-26T09:54:24Z</time>
      </trkpt>
      <trkpt lat="46.5114" lon="0.36891">
        <ele>114.4</ele>
        <time>2022-06-26T09:54:27Z</time>
      </trkpt>
      <trkpt lat="46.51142" lon="0.36885">
        <ele>114.4</ele>
        <time>2022-06-26T09:54:28Z</time>
      </trkpt>
      <trkpt lat="46.51142" lon="0.36873">
        <ele>113.8</ele>
        <time>2022-06-26T09:54:30Z</time>
      </trkpt>
      <trkpt lat="46.51144" lon="0.36868">
        <ele>113.2</ele>
        <time>2022-06-26T09:54:31Z</time>
      </trkpt>
      <trkpt lat="46.51146" lon="0.36865">
        <ele>113</ele>
        <time>2022-06-26T09:54:32Z</time>
      </trkpt>
      <trkpt lat="46.51152" lon="0.36852">
        <ele>112.6</ele>
        <time>2022-06-26T09:54:36Z</time>
      </trkpt>
      <trkpt lat="46.51152" lon="0.36848">
        <ele>112.4</ele>
        <time>2022-06-26T09:54:37Z</time>
      </trkpt>
      <trkpt lat="46.51154" lon="0.36837">
        <ele>112</ele>
        <time>2022-06-26T09:54:40Z</time>
      </trkpt>
      <trkpt lat="46.51156" lon="0.36834">
        <ele>111.8</ele>
        <time>2022-06-26T09:54:41Z</time>
      </trkpt>
      <trkpt lat="46.51158" lon="0.36833">
        <ele>111.6</ele>
        <time>2022-06-26T09:54:42Z</time>
      </trkpt>
      <trkpt lat="46.51162" lon="0.3683">
        <ele>111.4</ele>
        <time>2022-06-26T09:54:44Z</time>
      </trkpt>
      <trkpt lat="46.51168" lon="0.36826">
        <ele>111.4</ele>
        <time>2022-06-26T09:54:46Z</time>
      </trkpt>
      <trkpt lat="46.5117" lon="0.36827">
        <ele>111.4</ele>
        <time>2022-06-26T09:54:47Z</time>
      </trkpt>
      <trkpt lat="46.51181" lon="0.36825">
        <ele>111.4</ele>
        <time>2022-06-26T09:54:52Z</time>
      </trkpt>
      <trkpt lat="46.51185" lon="0.36824">
        <ele>111.2</ele>
        <time>2022-06-26T09:54:54Z</time>
      </trkpt>
      <trkpt lat="46.51193" lon="0.3682">
        <ele>111</ele>
        <time>2022-06-26T09:54:57Z</time>
      </trkpt>
      <trkpt lat="46.51196" lon="0.36821">
        <ele>111</ele>
        <time>2022-06-26T09:54:58Z</time>
      </trkpt>
      <trkpt lat="46.51208" lon="0.36824">
        <ele>110.6</ele>
        <time>2022-06-26T09:55:03Z</time>
      </trkpt>
      <trkpt lat="46.51226" lon="0.36821">
        <ele>110.8</ele>
        <time>2022-06-26T09:55:10Z</time>
      </trkpt>
      <trkpt lat="46.51232" lon="0.3682">
        <ele>110.2</ele>
        <time>2022-06-26T09:55:14Z</time>
      </trkpt>
      <trkpt lat="46.51234" lon="0.36819">
        <ele>110</ele>
        <time>2022-06-26T09:55:15Z</time>
      </trkpt>
      <trkpt lat="46.51239" lon="0.36819">
        <ele>109.6</ele>
        <time>2022-06-26T09:55:17Z</time>
      </trkpt>
      <trkpt lat="46.5125" lon="0.36819">
        <ele>109.6</ele>
        <time>2022-06-26T09:55:20Z</time>
      </trkpt>
      <trkpt lat="46.5127" lon="0.36821">
        <ele>108.6</ele>
        <time>2022-06-26T09:55:25Z</time>
      </trkpt>
      <trkpt lat="46.51275" lon="0.36821">
        <ele>108.4</ele>
        <time>2022-06-26T09:55:26Z</time>
      </trkpt>
      <trkpt lat="46.51282" lon="0.36823">
        <ele>107.8</ele>
        <time>2022-06-26T09:55:28Z</time>
      </trkpt>
      <trkpt lat="46.51285" lon="0.36824">
        <ele>107.4</ele>
        <time>2022-06-26T09:55:29Z</time>
      </trkpt>
      <trkpt lat="46.51291" lon="0.36825">
        <ele>107</ele>
        <time>2022-06-26T09:55:31Z</time>
      </trkpt>
      <trkpt lat="46.51294" lon="0.36825">
        <ele>106.4</ele>
        <time>2022-06-26T09:55:32Z</time>
      </trkpt>
      <trkpt lat="46.51303" lon="0.36829">
        <ele>105.6</ele>
        <time>2022-06-26T09:55:35Z</time>
      </trkpt>
      <trkpt lat="46.51307" lon="0.36828">
        <ele>105.4</ele>
        <time>2022-06-26T09:55:36Z</time>
      </trkpt>
      <trkpt lat="46.5131" lon="0.36828">
        <ele>105.4</ele>
        <time>2022-06-26T09:55:37Z</time>
      </trkpt>
      <trkpt lat="46.5132" lon="0.36828">
        <ele>104.2</ele>
        <time>2022-06-26T09:55:40Z</time>
      </trkpt>
      <trkpt lat="46.51323" lon="0.36829">
        <ele>103.6</ele>
        <time>2022-06-26T09:55:41Z</time>
      </trkpt>
      <trkpt lat="46.51329" lon="0.3683">
        <ele>103.2</ele>
        <time>2022-06-26T09:55:43Z</time>
      </trkpt>
      <trkpt lat="46.5134" lon="0.36836">
        <ele>102.4</ele>
        <time>2022-06-26T09:55:46Z</time>
      </trkpt>
      <trkpt lat="46.51341" lon="0.36837">
        <ele>102</ele>
        <time>2022-06-26T09:55:47Z</time>
      </trkpt>
      <trkpt lat="46.51356" lon="0.3684">
        <ele>100.8</ele>
        <time>2022-06-26T09:55:52Z</time>
      </trkpt>
      <trkpt lat="46.51362" lon="0.36844">
        <ele>99.8</ele>
        <time>2022-06-26T09:55:54Z</time>
      </trkpt>
      <trkpt lat="46.5137" lon="0.36849">
        <ele>98.2</ele>
        <time>2022-06-26T09:55:57Z</time>
      </trkpt>
      <trkpt lat="46.5138" lon="0.36854">
        <ele>97.2</ele>
        <time>2022-06-26T09:56:00Z</time>
      </trkpt>
      <trkpt lat="46.51387" lon="0.36856">
        <ele>96.2</ele>
        <time>2022-06-26T09:56:02Z</time>
      </trkpt>
      <trkpt lat="46.51394" lon="0.36856">
        <ele>94.8</ele>
        <time>2022-06-26T09:56:04Z</time>
      </trkpt>
      <trkpt lat="46.51398" lon="0.36856">
        <ele>94.4</ele>
        <time>2022-06-26T09:56:05Z</time>
      </trkpt>
      <trkpt lat="46.51401" lon="0.36856">
        <ele>93.2</ele>
        <time>2022-06-26T09:56:06Z</time>
      </trkpt>
      <trkpt lat="46.51404" lon="0.36858">
        <ele>92</ele>
        <time>2022-06-26T09:56:07Z</time>
      </trkpt>
      <trkpt lat="46.51411" lon="0.36865">
        <ele>90.6</ele>
        <time>2022-06-26T09:56:10Z</time>
      </trkpt>
      <trkpt lat="46.51413" lon="0.36869">
        <ele>90.2</ele>
        <time>2022-06-26T09:56:11Z</time>
      </trkpt>
      <trkpt lat="46.5142" lon="0.36876">
        <ele>90</ele>
        <time>2022-06-26T09:56:13Z</time>
      </trkpt>
      <trkpt lat="46.51425" lon="0.36883">
        <ele>88.8</ele>
        <time>2022-06-26T09:56:15Z</time>
      </trkpt>
      <trkpt lat="46.51434" lon="0.36889">
        <ele>87.4</ele>
        <time>2022-06-26T09:56:17Z</time>
      </trkpt>
      <trkpt lat="46.51443" lon="0.36897">
        <ele>86.2</ele>
        <time>2022-06-26T09:56:21Z</time>
      </trkpt>
      <trkpt lat="46.51448" lon="0.36901">
        <ele>85.4</ele>
        <time>2022-06-26T09:56:22Z</time>
      </trkpt>
      <trkpt lat="46.51451" lon="0.36904">
        <ele>85</ele>
        <time>2022-06-26T09:56:23Z</time>
      </trkpt>
      <trkpt lat="46.51459" lon="0.36911">
        <ele>84.4</ele>
        <time>2022-06-26T09:56:25Z</time>
      </trkpt>
      <trkpt lat="46.51461" lon="0.36913">
        <ele>83</ele>
        <time>2022-06-26T09:56:26Z</time>
      </trkpt>
      <trkpt lat="46.51462" lon="0.36916">
        <ele>82</ele>
        <time>2022-06-26T09:56:27Z</time>
      </trkpt>
      <trkpt lat="46.51466" lon="0.36923">
        <ele>81</ele>
        <time>2022-06-26T09:56:30Z</time>
      </trkpt>
      <trkpt lat="46.51469" lon="0.36934">
        <ele>80.8</ele>
        <time>2022-06-26T09:56:33Z</time>
      </trkpt>
      <trkpt lat="46.51479" lon="0.36969">
        <ele>81</ele>
        <time>2022-06-26T09:56:41Z</time>
      </trkpt>
      <trkpt lat="46.51481" lon="0.36974">
        <ele>81.2</ele>
        <time>2022-06-26T09:56:42Z</time>
      </trkpt>
      <trkpt lat="46.51486" lon="0.37003">
        <ele>81.6</ele>
        <time>2022-06-26T09:56:47Z</time>
      </trkpt>
      <trkpt lat="46.51491" lon="0.37018">
        <ele>81.6</ele>
        <time>2022-06-26T09:56:50Z</time>
      </trkpt>
      <trkpt lat="46.51495" lon="0.3703">
        <ele>81.4</ele>
        <time>2022-06-26T09:56:52Z</time>
      </trkpt>
      <trkpt lat="46.51496" lon="0.37035">
        <ele>81.6</ele>
        <time>2022-06-26T09:56:53Z</time>
      </trkpt>
      <trkpt lat="46.51497" lon="0.37039">
        <ele>81.6</ele>
        <time>2022-06-26T09:56:54Z</time>
      </trkpt>
      <trkpt lat="46.51496" lon="0.37045">
        <ele>82</ele>
        <time>2022-06-26T09:56:56Z</time>
      </trkpt>
      <trkpt lat="46.51496" lon="0.37049">
        <ele>82.2</ele>
        <time>2022-06-26T09:56:57Z</time>
      </trkpt>
      <trkpt lat="46.51495" lon="0.37059">
        <ele>83.2</ele>
        <time>2022-06-26T09:57:01Z</time>
      </trkpt>
      <trkpt lat="46.51494" lon="0.37061">
        <ele>83.4</ele>
        <time>2022-06-26T09:57:02Z</time>
      </trkpt>
      <trkpt lat="46.51492" lon="0.37065">
        <ele>83.8</ele>
        <time>2022-06-26T09:57:04Z</time>
      </trkpt>
      <trkpt lat="46.5149" lon="0.37068">
        <ele>84.4</ele>
        <time>2022-06-26T09:57:06Z</time>
      </trkpt>
      <trkpt lat="46.51487" lon="0.37071">
        <ele>85.4</ele>
        <time>2022-06-26T09:57:08Z</time>
      </trkpt>
      <trkpt lat="46.51484" lon="0.37073">
        <ele>86.4</ele>
        <time>2022-06-26T09:57:11Z</time>
      </trkpt>
      <trkpt lat="46.51483" lon="0.37075">
        <ele>86.6</ele>
        <time>2022-06-26T09:57:12Z</time>
      </trkpt>
      <trkpt lat="46.51478" lon="0.3708">
        <ele>87.6</ele>
        <time>2022-06-26T09:57:16Z</time>
      </trkpt>
      <trkpt lat="46.51473" lon="0.37085">
        <ele>88.8</ele>
        <time>2022-06-26T09:57:20Z</time>
      </trkpt>
      <trkpt lat="46.51469" lon="0.37093">
        <ele>89.8</ele>
        <time>2022-06-26T09:57:23Z</time>
      </trkpt>
      <trkpt lat="46.51464" lon="0.37101">
        <ele>90.6</ele>
        <time>2022-06-26T09:57:28Z</time>
      </trkpt>
      <trkpt lat="46.51462" lon="0.37103">
        <ele>91</ele>
        <time>2022-06-26T09:57:30Z</time>
      </trkpt>
      <trkpt lat="46.51459" lon="0.37109">
        <ele>91.8</ele>
        <time>2022-06-26T09:57:33Z</time>
      </trkpt>
      <trkpt lat="46.51459" lon="0.37111">
        <ele>92.2</ele>
        <time>2022-06-26T09:57:34Z</time>
      </trkpt>
      <trkpt lat="46.51454" lon="0.37116">
        <ele>92.8</ele>
        <time>2022-06-26T09:57:37Z</time>
      </trkpt>
      <trkpt lat="46.51453" lon="0.37117">
        <ele>93</ele>
        <time>2022-06-26T09:57:38Z</time>
      </trkpt>
      <trkpt lat="46.51451" lon="0.37118">
        <ele>93.2</ele>
        <time>2022-06-26T09:57:39Z</time>
      </trkpt>
      <trkpt lat="46.51448" lon="0.37124">
        <ele>94.2</ele>
        <time>2022-06-26T09:57:43Z</time>
      </trkpt>
      <trkpt lat="46.51448" lon="0.37127">
        <ele>94.6</ele>
        <time>2022-06-26T09:57:45Z</time>
      </trkpt>
      <trkpt lat="46.51447" lon="0.37128">
        <ele>94.8</ele>
        <time>2022-06-26T09:57:46Z</time>
      </trkpt>
      <trkpt lat="46.51446" lon="0.37133">
        <ele>95.4</ele>
        <time>2022-06-26T09:57:48Z</time>
      </trkpt>
      <trkpt lat="46.51446" lon="0.37137">
        <ele>96</ele>
        <time>2022-06-26T09:57:51Z</time>
      </trkpt>
      <trkpt lat="46.51446" lon="0.37139">
        <ele>96.2</ele>
        <time>2022-06-26T09:57:52Z</time>
      </trkpt>
      <trkpt lat="46.51447" lon="0.37143">
        <ele>96.4</ele>
        <time>2022-06-26T09:57:54Z</time>
      </trkpt>
      <trkpt lat="46.51446" lon="0.37152">
        <ele>97.4</ele>
        <time>2022-06-26T09:58:00Z</time>
      </trkpt>
      <trkpt lat="46.51446" lon="0.37155">
        <ele>97.4</ele>
        <time>2022-06-26T09:58:01Z</time>
      </trkpt>
      <trkpt lat="46.51443" lon="0.37163">
        <ele>98.6</ele>
        <time>2022-06-26T09:58:05Z</time>
      </trkpt>
      <trkpt lat="46.51441" lon="0.37169">
        <ele>99</ele>
        <time>2022-06-26T09:58:08Z</time>
      </trkpt>
      <trkpt lat="46.5144" lon="0.37173">
        <ele>99.6</ele>
        <time>2022-06-26T09:58:10Z</time>
      </trkpt>
      <trkpt lat="46.51436" lon="0.37181">
        <ele>100.6</ele>
        <time>2022-06-26T09:58:15Z</time>
      </trkpt>
      <trkpt lat="46.51434" lon="0.37182">
        <ele>101</ele>
        <time>2022-06-26T09:58:17Z</time>
      </trkpt>
      <trkpt lat="46.51433" lon="0.37181">
        <ele>101.2</ele>
        <time>2022-06-26T09:58:19Z</time>
      </trkpt>
      <trkpt lat="46.51433" lon="0.37178">
        <ele>101.2</ele>
        <time>2022-06-26T09:58:21Z</time>
      </trkpt>
      <trkpt lat="46.51433" lon="0.37176">
        <ele>101.2</ele>
        <time>2022-06-26T09:58:22Z</time>
      </trkpt>
      <trkpt lat="46.51432" lon="0.37149">
        <ele>99.6</ele>
        <time>2022-06-26T09:58:27Z</time>
      </trkpt>
      <trkpt lat="46.51431" lon="0.37137">
        <ele>98.4</ele>
        <time>2022-06-26T09:58:29Z</time>
      </trkpt>
      <trkpt lat="46.5143" lon="0.37133">
        <ele>97.6</ele>
        <time>2022-06-26T09:58:30Z</time>
      </trkpt>
      <trkpt lat="46.51429" lon="0.37129">
        <ele>97</ele>
        <time>2022-06-26T09:58:31Z</time>
      </trkpt>
      <trkpt lat="46.51427" lon="0.37125">
        <ele>96.8</ele>
        <time>2022-06-26T09:58:32Z</time>
      </trkpt>
      <trkpt lat="46.51424" lon="0.37119">
        <ele>95</ele>
        <time>2022-06-26T09:58:34Z</time>
      </trkpt>
      <trkpt lat="46.5142" lon="0.37112">
        <ele>93.8</ele>
        <time>2022-06-26T09:58:36Z</time>
      </trkpt>
      <trkpt lat="46.51418" lon="0.37099">
        <ele>92.2</ele>
        <time>2022-06-26T09:58:38Z</time>
      </trkpt>
      <trkpt lat="46.5142" lon="0.3709">
        <ele>91.2</ele>
        <time>2022-06-26T09:58:40Z</time>
      </trkpt>
      <trkpt lat="46.51422" lon="0.37086">
        <ele>90.8</ele>
        <time>2022-06-26T09:58:41Z</time>
      </trkpt>
      <trkpt lat="46.51422" lon="0.3708">
        <ele>90.6</ele>
        <time>2022-06-26T09:58:42Z</time>
      </trkpt>
      <trkpt lat="46.51419" lon="0.37066">
        <ele>90.4</ele>
        <time>2022-06-26T09:58:46Z</time>
      </trkpt>
      <trkpt lat="46.51416" lon="0.37056">
        <ele>91.6</ele>
        <time>2022-06-26T09:58:51Z</time>
      </trkpt>
      <trkpt lat="46.51415" lon="0.37052">
        <ele>92.2</ele>
        <time>2022-06-26T09:58:52Z</time>
      </trkpt>
      <trkpt lat="46.51414" lon="0.37052">
        <ele>92.8</ele>
        <time>2022-06-26T09:58:53Z</time>
      </trkpt>
      <trkpt lat="46.51413" lon="0.3705">
        <ele>93.6</ele>
        <time>2022-06-26T09:58:55Z</time>
      </trkpt>
      <trkpt lat="46.51411" lon="0.37047">
        <ele>94.6</ele>
        <time>2022-06-26T09:58:59Z</time>
      </trkpt>
      <trkpt lat="46.51411" lon="0.37046">
        <ele>95.2</ele>
        <time>2022-06-26T09:59:00Z</time>
      </trkpt>
      <trkpt lat="46.51409" lon="0.37043">
        <ele>95.8</ele>
        <time>2022-06-26T09:59:02Z</time>
      </trkpt>
      <trkpt lat="46.51402" lon="0.37035">
        <ele>97.2</ele>
        <time>2022-06-26T09:59:06Z</time>
      </trkpt>
      <trkpt lat="46.51401" lon="0.37033">
        <ele>97.4</ele>
        <time>2022-06-26T09:59:07Z</time>
      </trkpt>
      <trkpt lat="46.51399" lon="0.37031">
        <ele>97.8</ele>
        <time>2022-06-26T09:59:08Z</time>
      </trkpt>
      <trkpt lat="46.51395" lon="0.37027">
        <ele>98.6</ele>
        <time>2022-06-26T09:59:11Z</time>
      </trkpt>
      <trkpt lat="46.51391" lon="0.37025">
        <ele>99.2</ele>
        <time>2022-06-26T09:59:14Z</time>
      </trkpt>
      <trkpt lat="46.51387" lon="0.37024">
        <ele>99.4</ele>
        <time>2022-06-26T09:59:16Z</time>
      </trkpt>
      <trkpt lat="46.51384" lon="0.37023">
        <ele>99.6</ele>
        <time>2022-06-26T09:59:18Z</time>
      </trkpt>
      <trkpt lat="46.5138" lon="0.37023">
        <ele>100</ele>
        <time>2022-06-26T09:59:21Z</time>
      </trkpt>
      <trkpt lat="46.51375" lon="0.37022">
        <ele>100.8</ele>
        <time>2022-06-26T09:59:25Z</time>
      </trkpt>
      <trkpt lat="46.51373" lon="0.37021">
        <ele>101.2</ele>
        <time>2022-06-26T09:59:27Z</time>
      </trkpt>
      <trkpt lat="46.51372" lon="0.3702">
        <ele>101.2</ele>
        <time>2022-06-26T09:59:28Z</time>
      </trkpt>
      <trkpt lat="46.5137" lon="0.37018">
        <ele>101.6</ele>
        <time>2022-06-26T09:59:30Z</time>
      </trkpt>
      <trkpt lat="46.51368" lon="0.37017">
        <ele>102</ele>
        <time>2022-06-26T09:59:31Z</time>
      </trkpt>
      <trkpt lat="46.51364" lon="0.37013">
        <ele>102.6</ele>
        <time>2022-06-26T09:59:35Z</time>
      </trkpt>
      <trkpt lat="46.51363" lon="0.37012">
        <ele>102.8</ele>
        <time>2022-06-26T09:59:36Z</time>
      </trkpt>
      <trkpt lat="46.51362" lon="0.3701">
        <ele>103</ele>
        <time>2022-06-26T09:59:37Z</time>
      </trkpt>
      <trkpt lat="46.51359" lon="0.37008">
        <ele>103.6</ele>
        <time>2022-06-26T09:59:39Z</time>
      </trkpt>
      <trkpt lat="46.51356" lon="0.37005">
        <ele>104</ele>
        <time>2022-06-26T09:59:41Z</time>
      </trkpt>
      <trkpt lat="46.51354" lon="0.37004">
        <ele>104.2</ele>
        <time>2022-06-26T09:59:42Z</time>
      </trkpt>
      <trkpt lat="46.51343" lon="0.36997">
        <ele>105.2</ele>
        <time>2022-06-26T09:59:48Z</time>
      </trkpt>
      <trkpt lat="46.51328" lon="0.36991">
        <ele>106.4</ele>
        <time>2022-06-26T09:59:56Z</time>
      </trkpt>
      <trkpt lat="46.51328" lon="0.36991">
        <ele>107.4</ele>
        <time>2022-06-26T09:59:59Z</time>
      </trkpt>
      <trkpt lat="46.5132" lon="0.36982">
        <ele>108</ele>
        <time>2022-06-26T10:00:02Z</time>
      </trkpt>
      <trkpt lat="46.51318" lon="0.36979">
        <ele>108.2</ele>
        <time>2022-06-26T10:00:04Z</time>
      </trkpt>
      <trkpt lat="46.51315" lon="0.36977">
        <ele>108.4</ele>
        <time>2022-06-26T10:00:05Z</time>
      </trkpt>
      <trkpt lat="46.51313" lon="0.36976">
        <ele>108.6</ele>
        <time>2022-06-26T10:00:06Z</time>
      </trkpt>
      <trkpt lat="46.51308" lon="0.36976">
        <ele>109</ele>
        <time>2022-06-26T10:00:09Z</time>
      </trkpt>
      <trkpt lat="46.51293" lon="0.36977">
        <ele>109.8</ele>
        <time>2022-06-26T10:00:16Z</time>
      </trkpt>
      <trkpt lat="46.5129" lon="0.36978">
        <ele>110.2</ele>
        <time>2022-06-26T10:00:17Z</time>
      </trkpt>
      <trkpt lat="46.51278" lon="0.36979">
        <ele>110.6</ele>
        <time>2022-06-26T10:00:22Z</time>
      </trkpt>
      <trkpt lat="46.51275" lon="0.36979">
        <ele>110.6</ele>
        <time>2022-06-26T10:00:23Z</time>
      </trkpt>
      <trkpt lat="46.51258" lon="0.36979">
        <ele>110.8</ele>
        <time>2022-06-26T10:00:29Z</time>
      </trkpt>
      <trkpt lat="46.51247" lon="0.36982">
        <ele>110.8</ele>
        <time>2022-06-26T10:00:33Z</time>
      </trkpt>
      <trkpt lat="46.51241" lon="0.36981">
        <ele>111</ele>
        <time>2022-06-26T10:00:35Z</time>
      </trkpt>
      <trkpt lat="46.5123" lon="0.36987">
        <ele>111.8</ele>
        <time>2022-06-26T10:00:40Z</time>
      </trkpt>
      <trkpt lat="46.51221" lon="0.36995">
        <ele>112</ele>
        <time>2022-06-26T10:00:43Z</time>
      </trkpt>
      <trkpt lat="46.51214" lon="0.37001">
        <ele>112</ele>
        <time>2022-06-26T10:00:46Z</time>
      </trkpt>
      <trkpt lat="46.512" lon="0.3701">
        <ele>112.8</ele>
        <time>2022-06-26T10:00:52Z</time>
      </trkpt>
      <trkpt lat="46.51192" lon="0.37015">
        <ele>113</ele>
        <time>2022-06-26T10:00:55Z</time>
      </trkpt>
      <trkpt lat="46.51183" lon="0.37019">
        <ele>113.8</ele>
        <time>2022-06-26T10:00:59Z</time>
      </trkpt>
      <trkpt lat="46.51175" lon="0.3702">
        <ele>114.2</ele>
        <time>2022-06-26T10:01:02Z</time>
      </trkpt>
      <trkpt lat="46.51163" lon="0.37019">
        <ele>114.6</ele>
        <time>2022-06-26T10:01:06Z</time>
      </trkpt>
      <trkpt lat="46.51154" lon="0.3702">
        <ele>115.2</ele>
        <time>2022-06-26T10:01:09Z</time>
      </trkpt>
      <trkpt lat="46.51143" lon="0.3702">
        <ele>115.6</ele>
        <time>2022-06-26T10:01:13Z</time>
      </trkpt>
      <trkpt lat="46.51122" lon="0.37018">
        <ele>116</ele>
        <time>2022-06-26T10:01:19Z</time>
      </trkpt>
      <trkpt lat="46.51117" lon="0.37015">
        <ele>116.2</ele>
        <time>2022-06-26T10:01:21Z</time>
      </trkpt>
      <trkpt lat="46.51111" lon="0.37006">
        <ele>116.4</ele>
        <time>2022-06-26T10:01:24Z</time>
      </trkpt>
      <trkpt lat="46.51109" lon="0.37">
        <ele>116.2</ele>
        <time>2022-06-26T10:01:26Z</time>
      </trkpt>
      <trkpt lat="46.51106" lon="0.36994">
        <ele>116.2</ele>
        <time>2022-06-26T10:01:28Z</time>
      </trkpt>
      <trkpt lat="46.51103" lon="0.36992">
        <ele>116.2</ele>
        <time>2022-06-26T10:01:29Z</time>
      </trkpt>
      <trkpt lat="46.51099" lon="0.36989">
        <ele>116.2</ele>
        <time>2022-06-26T10:01:30Z</time>
      </trkpt>
      <trkpt lat="46.51085" lon="0.36984">
        <ele>116.6</ele>
        <time>2022-06-26T10:01:33Z</time>
      </trkpt>
      <trkpt lat="46.5108" lon="0.36984">
        <ele>116.6</ele>
        <time>2022-06-26T10:01:34Z</time>
      </trkpt>
      <trkpt lat="46.51071" lon="0.36986">
        <ele>116.8</ele>
        <time>2022-06-26T10:01:36Z</time>
      </trkpt>
      <trkpt lat="46.51063" lon="0.36988">
        <ele>117</ele>
        <time>2022-06-26T10:01:38Z</time>
      </trkpt>
      <trkpt lat="46.51054" lon="0.3699">
        <ele>117.4</ele>
        <time>2022-06-26T10:01:40Z</time>
      </trkpt>
      <trkpt lat="46.51033" lon="0.3699">
        <ele>117.6</ele>
        <time>2022-06-26T10:01:44Z</time>
      </trkpt>
      <trkpt lat="46.51025" lon="0.3699">
        <ele>117.6</ele>
        <time>2022-06-26T10:01:46Z</time>
      </trkpt>
      <trkpt lat="46.51018" lon="0.36986">
        <ele>117.6</ele>
        <time>2022-06-26T10:01:48Z</time>
      </trkpt>
      <trkpt lat="46.51016" lon="0.36984">
        <ele>117.6</ele>
        <time>2022-06-26T10:01:49Z</time>
      </trkpt>
      <trkpt lat="46.51008" lon="0.36979">
        <ele>117.6</ele>
        <time>2022-06-26T10:01:52Z</time>
      </trkpt>
      <trkpt lat="46.51005" lon="0.36977">
        <ele>117.6</ele>
        <time>2022-06-26T10:01:53Z</time>
      </trkpt>
      <trkpt lat="46.50996" lon="0.36973">
        <ele>117.4</ele>
        <time>2022-06-26T10:01:56Z</time>
      </trkpt>
      <trkpt lat="46.50993" lon="0.36968">
        <ele>117.4</ele>
        <time>2022-06-26T10:01:58Z</time>
      </trkpt>
      <trkpt lat="46.50988" lon="0.3696">
        <ele>117.6</ele>
        <time>2022-06-26T10:02:01Z</time>
      </trkpt>
      <trkpt lat="46.50983" lon="0.36952">
        <ele>117.6</ele>
        <time>2022-06-26T10:02:03Z</time>
      </trkpt>
      <trkpt lat="46.50979" lon="0.36943">
        <ele>117.6</ele>
        <time>2022-06-26T10:02:05Z</time>
      </trkpt>
      <trkpt lat="46.50964" lon="0.3691">
        <ele>117.4</ele>
        <time>2022-06-26T10:02:12Z</time>
      </trkpt>
      <trkpt lat="46.50961" lon="0.36906">
        <ele>117.4</ele>
        <time>2022-06-26T10:02:13Z</time>
      </trkpt>
      <trkpt lat="46.50947" lon="0.36889">
        <ele>117.4</ele>
        <time>2022-06-26T10:02:16Z</time>
      </trkpt>
      <trkpt lat="46.50924" lon="0.36871">
        <ele>117</ele>
        <time>2022-06-26T10:02:21Z</time>
      </trkpt>
      <trkpt lat="46.50918" lon="0.36869">
        <ele>116.8</ele>
        <time>2022-06-26T10:02:22Z</time>
      </trkpt>
      <trkpt lat="46.50889" lon="0.36858">
        <ele>116.6</ele>
        <time>2022-06-26T10:02:27Z</time>
      </trkpt>
      <trkpt lat="46.50884" lon="0.36853">
        <ele>116.4</ele>
        <time>2022-06-26T10:02:28Z</time>
      </trkpt>
      <trkpt lat="46.5088" lon="0.36847">
        <ele>116.4</ele>
        <time>2022-06-26T10:02:29Z</time>
      </trkpt>
      <trkpt lat="46.50873" lon="0.36835">
        <ele>116.2</ele>
        <time>2022-06-26T10:02:31Z</time>
      </trkpt>
      <trkpt lat="46.50869" lon="0.36828">
        <ele>116.2</ele>
        <time>2022-06-26T10:02:32Z</time>
      </trkpt>
      <trkpt lat="46.50865" lon="0.36822">
        <ele>116</ele>
        <time>2022-06-26T10:02:33Z</time>
      </trkpt>
      <trkpt lat="46.50857" lon="0.36816">
        <ele>115.4</ele>
        <time>2022-06-26T10:02:35Z</time>
      </trkpt>
      <trkpt lat="46.50853" lon="0.36813">
        <ele>115.4</ele>
        <time>2022-06-26T10:02:36Z</time>
      </trkpt>
      <trkpt lat="46.50847" lon="0.3681">
        <ele>115.2</ele>
        <time>2022-06-26T10:02:37Z</time>
      </trkpt>
      <trkpt lat="46.50841" lon="0.36809">
        <ele>115.2</ele>
        <time>2022-06-26T10:02:38Z</time>
      </trkpt>
      <trkpt lat="46.50835" lon="0.36806">
        <ele>115.2</ele>
        <time>2022-06-26T10:02:39Z</time>
      </trkpt>
      <trkpt lat="46.50823" lon="0.36802">
        <ele>115.6</ele>
        <time>2022-06-26T10:02:41Z</time>
      </trkpt>
      <trkpt lat="46.50793" lon="0.36797">
        <ele>115.6</ele>
        <time>2022-06-26T10:02:47Z</time>
      </trkpt>
      <trkpt lat="46.50783" lon="0.3679">
        <ele>115.8</ele>
        <time>2022-06-26T10:02:49Z</time>
      </trkpt>
      <trkpt lat="46.50766" lon="0.3678">
        <ele>115.8</ele>
        <time>2022-06-26T10:02:52Z</time>
      </trkpt>
      <trkpt lat="46.50762" lon="0.36777">
        <ele>115.8</ele>
        <time>2022-06-26T10:02:53Z</time>
      </trkpt>
      <trkpt lat="46.50758" lon="0.36775">
        <ele>115.8</ele>
        <time>2022-06-26T10:02:54Z</time>
      </trkpt>
      <trkpt lat="46.50742" lon="0.36769">
        <ele>116.2</ele>
        <time>2022-06-26T10:02:57Z</time>
      </trkpt>
      <trkpt lat="46.50732" lon="0.36765">
        <ele>116.2</ele>
        <time>2022-06-26T10:02:59Z</time>
      </trkpt>
      <trkpt lat="46.50724" lon="0.3676">
        <ele>116.4</ele>
        <time>2022-06-26T10:03:01Z</time>
      </trkpt>
      <trkpt lat="46.50716" lon="0.36756">
        <ele>116</ele>
        <time>2022-06-26T10:03:03Z</time>
      </trkpt>
      <trkpt lat="46.50707" lon="0.36755">
        <ele>115.8</ele>
        <time>2022-06-26T10:03:05Z</time>
      </trkpt>
      <trkpt lat="46.50686" lon="0.36754">
        <ele>115.4</ele>
        <time>2022-06-26T10:03:10Z</time>
      </trkpt>
      <trkpt lat="46.5067" lon="0.36747">
        <ele>115.4</ele>
        <time>2022-06-26T10:03:14Z</time>
      </trkpt>
      <trkpt lat="46.50667" lon="0.36744">
        <ele>115.2</ele>
        <time>2022-06-26T10:03:15Z</time>
      </trkpt>
      <trkpt lat="46.50665" lon="0.3674">
        <ele>115.2</ele>
        <time>2022-06-26T10:03:16Z</time>
      </trkpt>
      <trkpt lat="46.5066" lon="0.36731">
        <ele>114.8</ele>
        <time>2022-06-26T10:03:18Z</time>
      </trkpt>
      <trkpt lat="46.5066" lon="0.36726">
        <ele>114.6</ele>
        <time>2022-06-26T10:03:19Z</time>
      </trkpt>
      <trkpt lat="46.5066" lon="0.36719">
        <ele>114.4</ele>
        <time>2022-06-26T10:03:20Z</time>
      </trkpt>
      <trkpt lat="46.5066" lon="0.36704">
        <ele>114</ele>
        <time>2022-06-26T10:03:22Z</time>
      </trkpt>
      <trkpt lat="46.5066" lon="0.36696">
        <ele>113.6</ele>
        <time>2022-06-26T10:03:23Z</time>
      </trkpt>
      <trkpt lat="46.50661" lon="0.36679">
        <ele>113</ele>
        <time>2022-06-26T10:03:25Z</time>
      </trkpt>
      <trkpt lat="46.50664" lon="0.3665">
        <ele>112.4</ele>
        <time>2022-06-26T10:03:28Z</time>
      </trkpt>
      <trkpt lat="46.50668" lon="0.3664">
        <ele>111.6</ele>
        <time>2022-06-26T10:03:29Z</time>
      </trkpt>
      <trkpt lat="46.50677" lon="0.36621">
        <ele>110.6</ele>
        <time>2022-06-26T10:03:31Z</time>
      </trkpt>
      <trkpt lat="46.50683" lon="0.36612">
        <ele>110</ele>
        <time>2022-06-26T10:03:32Z</time>
      </trkpt>
      <trkpt lat="46.50694" lon="0.36595">
        <ele>108.8</ele>
        <time>2022-06-26T10:03:34Z</time>
      </trkpt>
      <trkpt lat="46.50698" lon="0.36584">
        <ele>108.4</ele>
        <time>2022-06-26T10:03:35Z</time>
      </trkpt>
      <trkpt lat="46.50701" lon="0.36573">
        <ele>108</ele>
        <time>2022-06-26T10:03:36Z</time>
      </trkpt>
      <trkpt lat="46.50703" lon="0.36561">
        <ele>107.6</ele>
        <time>2022-06-26T10:03:37Z</time>
      </trkpt>
      <trkpt lat="46.50704" lon="0.3655">
        <ele>107.4</ele>
        <time>2022-06-26T10:03:38Z</time>
      </trkpt>
      <trkpt lat="46.50709" lon="0.365">
        <ele>107</ele>
        <time>2022-06-26T10:03:43Z</time>
      </trkpt>
      <trkpt lat="46.50713" lon="0.36443">
        <ele>107.8</ele>
        <time>2022-06-26T10:03:50Z</time>
      </trkpt>
      <trkpt lat="46.50714" lon="0.36437">
        <ele>107.8</ele>
        <time>2022-06-26T10:03:51Z</time>
      </trkpt>
      <trkpt lat="46.50718" lon="0.36425">
        <ele>108.2</ele>
        <time>2022-06-26T10:03:53Z</time>
      </trkpt>
      <trkpt lat="46.5072" lon="0.36409">
        <ele>108.6</ele>
        <time>2022-06-26T10:03:55Z</time>
      </trkpt>
      <trkpt lat="46.5072" lon="0.364">
        <ele>109</ele>
        <time>2022-06-26T10:03:56Z</time>
      </trkpt>
      <trkpt lat="46.50723" lon="0.36367">
        <ele>110</ele>
        <time>2022-06-26T10:04:00Z</time>
      </trkpt>
      <trkpt lat="46.50725" lon="0.36338">
        <ele>111</ele>
        <time>2022-06-26T10:04:04Z</time>
      </trkpt>
      <trkpt lat="46.5073" lon="0.36297">
        <ele>112</ele>
        <time>2022-06-26T10:04:10Z</time>
      </trkpt>
      <trkpt lat="46.50733" lon="0.36283">
        <ele>112.2</ele>
        <time>2022-06-26T10:04:12Z</time>
      </trkpt>
      <trkpt lat="46.50741" lon="0.36242">
        <ele>112.8</ele>
        <time>2022-06-26T10:04:18Z</time>
      </trkpt>
      <trkpt lat="46.50743" lon="0.3623">
        <ele>113.2</ele>
        <time>2022-06-26T10:04:20Z</time>
      </trkpt>
      <trkpt lat="46.50749" lon="0.36192">
        <ele>114</ele>
        <time>2022-06-26T10:04:26Z</time>
      </trkpt>
      <trkpt lat="46.50752" lon="0.36179">
        <ele>114.4</ele>
        <time>2022-06-26T10:04:28Z</time>
      </trkpt>
      <trkpt lat="46.50759" lon="0.36146">
        <ele>114.6</ele>
        <time>2022-06-26T10:04:33Z</time>
      </trkpt>
      <trkpt lat="46.50764" lon="0.36134">
        <ele>114.6</ele>
        <time>2022-06-26T10:04:35Z</time>
      </trkpt>
      <trkpt lat="46.50773" lon="0.36119">
        <ele>114.6</ele>
        <time>2022-06-26T10:04:38Z</time>
      </trkpt>
      <trkpt lat="46.50777" lon="0.36113">
        <ele>114.6</ele>
        <time>2022-06-26T10:04:39Z</time>
      </trkpt>
      <trkpt lat="46.5078" lon="0.36105">
        <ele>114.4</ele>
        <time>2022-06-26T10:04:40Z</time>
      </trkpt>
      <trkpt lat="46.50783" lon="0.36089">
        <ele>113.8</ele>
        <time>2022-06-26T10:04:42Z</time>
      </trkpt>
      <trkpt lat="46.50785" lon="0.36064">
        <ele>113.2</ele>
        <time>2022-06-26T10:04:45Z</time>
      </trkpt>
      <trkpt lat="46.50784" lon="0.36053">
        <ele>113</ele>
        <time>2022-06-26T10:04:47Z</time>
      </trkpt>
      <trkpt lat="46.50783" lon="0.36047">
        <ele>113</ele>
        <time>2022-06-26T10:04:48Z</time>
      </trkpt>
      <trkpt lat="46.50782" lon="0.36029">
        <ele>114</ele>
        <time>2022-06-26T10:04:52Z</time>
      </trkpt>
      <trkpt lat="46.50782" lon="0.36025">
        <ele>114.4</ele>
        <time>2022-06-26T10:04:53Z</time>
      </trkpt>
      <trkpt lat="46.50782" lon="0.36001">
        <ele>115.6</ele>
        <time>2022-06-26T10:04:58Z</time>
      </trkpt>
      <trkpt lat="46.50779" lon="0.35985">
        <ele>116.6</ele>
        <time>2022-06-26T10:05:01Z</time>
      </trkpt>
      <trkpt lat="46.50778" lon="0.35974">
        <ele>116.8</ele>
        <time>2022-06-26T10:05:03Z</time>
      </trkpt>
      <trkpt lat="46.50778" lon="0.35964">
        <ele>117.6</ele>
        <time>2022-06-26T10:05:05Z</time>
      </trkpt>
      <trkpt lat="46.50773" lon="0.3594">
        <ele>118.2</ele>
        <time>2022-06-26T10:05:09Z</time>
      </trkpt>
      <trkpt lat="46.50763" lon="0.35897">
        <ele>118.6</ele>
        <time>2022-06-26T10:05:17Z</time>
      </trkpt>
      <trkpt lat="46.50762" lon="0.35892">
        <ele>119</ele>
        <time>2022-06-26T10:05:18Z</time>
      </trkpt>
      <trkpt lat="46.50758" lon="0.35875">
        <ele>120</ele>
        <time>2022-06-26T10:05:21Z</time>
      </trkpt>
      <trkpt lat="46.50759" lon="0.35858">
        <ele>120.2</ele>
        <time>2022-06-26T10:05:24Z</time>
      </trkpt>
      <trkpt lat="46.50767" lon="0.35825">
        <ele>120.6</ele>
        <time>2022-06-26T10:05:30Z</time>
      </trkpt>
      <trkpt lat="46.50783" lon="0.3579">
        <ele>120.6</ele>
        <time>2022-06-26T10:05:36Z</time>
      </trkpt>
      <trkpt lat="46.50797" lon="0.35767">
        <ele>120.4</ele>
        <time>2022-06-26T10:05:40Z</time>
      </trkpt>
      <trkpt lat="46.50801" lon="0.35762">
        <ele>120.2</ele>
        <time>2022-06-26T10:05:41Z</time>
      </trkpt>
      <trkpt lat="46.50808" lon="0.35752">
        <ele>120.2</ele>
        <time>2022-06-26T10:05:43Z</time>
      </trkpt>
      <trkpt lat="46.50816" lon="0.35742">
        <ele>120.2</ele>
        <time>2022-06-26T10:05:45Z</time>
      </trkpt>
      <trkpt lat="46.5082" lon="0.35737">
        <ele>120</ele>
        <time>2022-06-26T10:05:46Z</time>
      </trkpt>
      <trkpt lat="46.50829" lon="0.35727">
        <ele>120</ele>
        <time>2022-06-26T10:05:48Z</time>
      </trkpt>
      <trkpt lat="46.50836" lon="0.35713">
        <ele>120</ele>
        <time>2022-06-26T10:05:50Z</time>
      </trkpt>
      <trkpt lat="46.50847" lon="0.35693">
        <ele>120</ele>
        <time>2022-06-26T10:05:53Z</time>
      </trkpt>
      <trkpt lat="46.50856" lon="0.35683">
        <ele>120</ele>
        <time>2022-06-26T10:05:55Z</time>
      </trkpt>
      <trkpt lat="46.50861" lon="0.35679">
        <ele>120</ele>
        <time>2022-06-26T10:05:56Z</time>
      </trkpt>
      <trkpt lat="46.50878" lon="0.35658">
        <ele>120.2</ele>
        <time>2022-06-26T10:06:00Z</time>
      </trkpt>
      <trkpt lat="46.50908" lon="0.35612">
        <ele>119</ele>
        <time>2022-06-26T10:06:07Z</time>
      </trkpt>
      <trkpt lat="46.50912" lon="0.35604">
        <ele>118.8</ele>
        <time>2022-06-26T10:06:08Z</time>
      </trkpt>
      <trkpt lat="46.50937" lon="0.35557">
        <ele>117.8</ele>
        <time>2022-06-26T10:06:14Z</time>
      </trkpt>
      <trkpt lat="46.50941" lon="0.35549">
        <ele>117.6</ele>
        <time>2022-06-26T10:06:15Z</time>
      </trkpt>
      <trkpt lat="46.50951" lon="0.3553">
        <ele>117.2</ele>
        <time>2022-06-26T10:06:18Z</time>
      </trkpt>
      <trkpt lat="46.50951" lon="0.35522">
        <ele>116.6</ele>
        <time>2022-06-26T10:06:20Z</time>
      </trkpt>
      <trkpt lat="46.50949" lon="0.35519">
        <ele>116.4</ele>
        <time>2022-06-26T10:06:21Z</time>
      </trkpt>
      <trkpt lat="46.50941" lon="0.35519">
        <ele>115.8</ele>
        <time>2022-06-26T10:06:24Z</time>
      </trkpt>
      <trkpt lat="46.50935" lon="0.35525">
        <ele>116</ele>
        <time>2022-06-26T10:06:26Z</time>
      </trkpt>
      <trkpt lat="46.50928" lon="0.35533">
        <ele>116</ele>
        <time>2022-06-26T10:06:28Z</time>
      </trkpt>
      <trkpt lat="46.50919" lon="0.35534">
        <ele>116.2</ele>
        <time>2022-06-26T10:06:30Z</time>
      </trkpt>
      <trkpt lat="46.50915" lon="0.35533">
        <ele>116.2</ele>
        <time>2022-06-26T10:06:31Z</time>
      </trkpt>
      <trkpt lat="46.50911" lon="0.35531">
        <ele>116.4</ele>
        <time>2022-06-26T10:06:32Z</time>
      </trkpt>
      <trkpt lat="46.50904" lon="0.35525">
        <ele>116.6</ele>
        <time>2022-06-26T10:06:34Z</time>
      </trkpt>
      <trkpt lat="46.50901" lon="0.35521">
        <ele>116.6</ele>
        <time>2022-06-26T10:06:35Z</time>
      </trkpt>
      <trkpt lat="46.50877" lon="0.35487">
        <ele>117</ele>
        <time>2022-06-26T10:06:42Z</time>
      </trkpt>
      <trkpt lat="46.50864" lon="0.35473">
        <ele>117.6</ele>
        <time>2022-06-26T10:06:45Z</time>
      </trkpt>
      <trkpt lat="46.50859" lon="0.35469">
        <ele>117.8</ele>
        <time>2022-06-26T10:06:46Z</time>
      </trkpt>
      <trkpt lat="46.50849" lon="0.35468">
        <ele>118</ele>
        <time>2022-06-26T10:06:48Z</time>
      </trkpt>
      <trkpt lat="46.50841" lon="0.35464">
        <ele>118.4</ele>
        <time>2022-06-26T10:06:50Z</time>
      </trkpt>
      <trkpt lat="46.50839" lon="0.35458">
        <ele>118.4</ele>
        <time>2022-06-26T10:06:51Z</time>
      </trkpt>
      <trkpt lat="46.50837" lon="0.35451">
        <ele>118.4</ele>
        <time>2022-06-26T10:06:52Z</time>
      </trkpt>
      <trkpt lat="46.50836" lon="0.35435">
        <ele>118.6</ele>
        <time>2022-06-26T10:06:54Z</time>
      </trkpt>
      <trkpt lat="46.50836" lon="0.35427">
        <ele>118.6</ele>
        <time>2022-06-26T10:06:55Z</time>
      </trkpt>
      <trkpt lat="46.50837" lon="0.35406">
        <ele>118.2</ele>
        <time>2022-06-26T10:06:58Z</time>
      </trkpt>
      <trkpt lat="46.50836" lon="0.35401">
        <ele>118</ele>
        <time>2022-06-26T10:06:59Z</time>
      </trkpt>
      <trkpt lat="46.50835" lon="0.35396">
        <ele>117.8</ele>
        <time>2022-06-26T10:07:00Z</time>
      </trkpt>
      <trkpt lat="46.50834" lon="0.35383">
        <ele>117.4</ele>
        <time>2022-06-26T10:07:02Z</time>
      </trkpt>
      <trkpt lat="46.50835" lon="0.35377">
        <ele>117.2</ele>
        <time>2022-06-26T10:07:03Z</time>
      </trkpt>
      <trkpt lat="46.50838" lon="0.35346">
        <ele>116.6</ele>
        <time>2022-06-26T10:07:08Z</time>
      </trkpt>
      <trkpt lat="46.50839" lon="0.35342">
        <ele>116.4</ele>
        <time>2022-06-26T10:07:09Z</time>
      </trkpt>
      <trkpt lat="46.5084" lon="0.3534">
        <ele>116.2</ele>
        <time>2022-06-26T10:07:10Z</time>
      </trkpt>
      <trkpt lat="46.50844" lon="0.35335">
        <ele>115.6</ele>
        <time>2022-06-26T10:07:12Z</time>
      </trkpt>
      <trkpt lat="46.50849" lon="0.35317">
        <ele>114.6</ele>
        <time>2022-06-26T10:07:16Z</time>
      </trkpt>
      <trkpt lat="46.50849" lon="0.35315">
        <ele>114.4</ele>
        <time>2022-06-26T10:07:17Z</time>
      </trkpt>
      <trkpt lat="46.50847" lon="0.35313">
        <ele>114.4</ele>
        <time>2022-06-26T10:07:18Z</time>
      </trkpt>
      <trkpt lat="46.50846" lon="0.35312">
        <ele>114.2</ele>
        <time>2022-06-26T10:07:19Z</time>
      </trkpt>
      <trkpt lat="46.50845" lon="0.35309">
        <ele>114</ele>
        <time>2022-06-26T10:07:21Z</time>
      </trkpt>
      <trkpt lat="46.50845" lon="0.35303">
        <ele>114</ele>
        <time>2022-06-26T10:07:23Z</time>
      </trkpt>
      <trkpt lat="46.50846" lon="0.35289">
        <ele>113.4</ele>
        <time>2022-06-26T10:07:27Z</time>
      </trkpt>
      <trkpt lat="46.50845" lon="0.35282">
        <ele>113</ele>
        <time>2022-06-26T10:07:30Z</time>
      </trkpt>
      <trkpt lat="46.50844" lon="0.35276">
        <ele>112.8</ele>
        <time>2022-06-26T10:07:32Z</time>
      </trkpt>
      <trkpt lat="46.50841" lon="0.35269">
        <ele>112.6</ele>
        <time>2022-06-26T10:07:34Z</time>
      </trkpt>
      <trkpt lat="46.5084" lon="0.35264">
        <ele>112.2</ele>
        <time>2022-06-26T10:07:35Z</time>
      </trkpt>
      <trkpt lat="46.50838" lon="0.3526">
        <ele>112</ele>
        <time>2022-06-26T10:07:36Z</time>
      </trkpt>
      <trkpt lat="46.50835" lon="0.35251">
        <ele>111.2</ele>
        <time>2022-06-26T10:07:39Z</time>
      </trkpt>
      <trkpt lat="46.50826" lon="0.3524">
        <ele>110.2</ele>
        <time>2022-06-26T10:07:43Z</time>
      </trkpt>
      <trkpt lat="46.50823" lon="0.35237">
        <ele>110.2</ele>
        <time>2022-06-26T10:07:44Z</time>
      </trkpt>
      <trkpt lat="46.50809" lon="0.35238">
        <ele>110.6</ele>
        <time>2022-06-26T10:07:49Z</time>
      </trkpt>
      <trkpt lat="46.50793" lon="0.35245">
        <ele>111.2</ele>
        <time>2022-06-26T10:07:55Z</time>
      </trkpt>
      <trkpt lat="46.50791" lon="0.35247">
        <ele>111.4</ele>
        <time>2022-06-26T10:07:56Z</time>
      </trkpt>
      <trkpt lat="46.50789" lon="0.35248">
        <ele>111.4</ele>
        <time>2022-06-26T10:07:57Z</time>
      </trkpt>
      <trkpt lat="46.50791" lon="0.35251">
        <ele>112</ele>
        <time>2022-06-26T10:08:00Z</time>
      </trkpt>
      <trkpt lat="46.50793" lon="0.35247">
        <ele>112.4</ele>
        <time>2022-06-26T10:08:04Z</time>
      </trkpt>
      <trkpt lat="46.50795" lon="0.35246">
        <ele>112.2</ele>
        <time>2022-06-26T10:08:06Z</time>
      </trkpt>
      <trkpt lat="46.50796" lon="0.35248">
        <ele>112</ele>
        <time>2022-06-26T10:08:08Z</time>
      </trkpt>
      <trkpt lat="46.50797" lon="0.35251">
        <ele>112.2</ele>
        <time>2022-06-26T10:08:10Z</time>
      </trkpt>
      <trkpt lat="46.50798" lon="0.35253">
        <ele>112.2</ele>
        <time>2022-06-26T10:08:11Z</time>
      </trkpt>
      <trkpt lat="46.508" lon="0.35255">
        <ele>112.2</ele>
        <time>2022-06-26T10:08:12Z</time>
      </trkpt>
      <trkpt lat="46.50805" lon="0.35259">
        <ele>113</ele>
        <time>2022-06-26T10:08:16Z</time>
      </trkpt>
      <trkpt lat="46.50806" lon="0.35261">
        <ele>113</ele>
        <time>2022-06-26T10:08:17Z</time>
      </trkpt>
      <trkpt lat="46.50804" lon="0.35264">
        <ele>113.2</ele>
        <time>2022-06-26T10:08:20Z</time>
      </trkpt>
      <trkpt lat="46.50802" lon="0.35268">
        <ele>113.6</ele>
        <time>2022-06-26T10:08:22Z</time>
      </trkpt>
      <trkpt lat="46.50795" lon="0.35272">
        <ele>114</ele>
        <time>2022-06-26T10:08:26Z</time>
      </trkpt>
      <trkpt lat="46.50782" lon="0.35273">
        <ele>113.8</ele>
        <time>2022-06-26T10:08:32Z</time>
      </trkpt>
      <trkpt lat="46.50779" lon="0.35276">
        <ele>113.8</ele>
        <time>2022-06-26T10:08:35Z</time>
      </trkpt>
      <trkpt lat="46.50776" lon="0.35279">
        <ele>114</ele>
        <time>2022-06-26T10:08:37Z</time>
      </trkpt>
      <trkpt lat="46.50776" lon="0.3528">
        <ele>114</ele>
        <time>2022-06-26T10:08:38Z</time>
      </trkpt>
      <trkpt lat="46.50773" lon="0.35289">
        <ele>114.6</ele>
        <time>2022-06-26T10:08:42Z</time>
      </trkpt>
      <trkpt lat="46.5077" lon="0.35289">
        <ele>114.6</ele>
        <time>2022-06-26T10:08:44Z</time>
      </trkpt>
      <trkpt lat="46.50767" lon="0.35288">
        <ele>114.4</ele>
        <time>2022-06-26T10:08:46Z</time>
      </trkpt>
      <trkpt lat="46.50766" lon="0.35286">
        <ele>114.2</ele>
        <time>2022-06-26T10:08:47Z</time>
      </trkpt>
      <trkpt lat="46.50764" lon="0.35276">
        <ele>113.6</ele>
        <time>2022-06-26T10:08:50Z</time>
      </trkpt>
      <trkpt lat="46.50764" lon="0.3527">
        <ele>113.2</ele>
        <time>2022-06-26T10:08:51Z</time>
      </trkpt>
      <trkpt lat="46.50765" lon="0.35265">
        <ele>112.6</ele>
        <time>2022-06-26T10:08:52Z</time>
      </trkpt>
      <trkpt lat="46.50765" lon="0.35259">
        <ele>112</ele>
        <time>2022-06-26T10:08:53Z</time>
      </trkpt>
      <trkpt lat="46.50766" lon="0.35244">
        <ele>111</ele>
        <time>2022-06-26T10:08:56Z</time>
      </trkpt>
      <trkpt lat="46.50766" lon="0.3524">
        <ele>110.6</ele>
        <time>2022-06-26T10:08:57Z</time>
      </trkpt>
      <trkpt lat="46.5077" lon="0.35231">
        <ele>110.4</ele>
        <time>2022-06-26T10:08:59Z</time>
      </trkpt>
      <trkpt lat="46.50771" lon="0.35222">
        <ele>110.6</ele>
        <time>2022-06-26T10:09:01Z</time>
      </trkpt>
      <trkpt lat="46.50773" lon="0.35213">
        <ele>111.4</ele>
        <time>2022-06-26T10:09:04Z</time>
      </trkpt>
      <trkpt lat="46.50772" lon="0.35203">
        <ele>111.6</ele>
        <time>2022-06-26T10:09:06Z</time>
      </trkpt>
      <trkpt lat="46.50765" lon="0.3518">
        <ele>112</ele>
        <time>2022-06-26T10:09:11Z</time>
      </trkpt>
      <trkpt lat="46.50753" lon="0.35162">
        <ele>112.2</ele>
        <time>2022-06-26T10:09:15Z</time>
      </trkpt>
      <trkpt lat="46.5075" lon="0.35158">
        <ele>112.2</ele>
        <time>2022-06-26T10:09:16Z</time>
      </trkpt>
      <trkpt lat="46.50734" lon="0.35141">
        <ele>112</ele>
        <time>2022-06-26T10:09:21Z</time>
      </trkpt>
      <trkpt lat="46.50727" lon="0.35131">
        <ele>112</ele>
        <time>2022-06-26T10:09:25Z</time>
      </trkpt>
      <trkpt lat="46.50727" lon="0.3513">
        <ele>112</ele>
        <time>2022-06-26T10:09:26Z</time>
      </trkpt>
    </trkseg>
  </trk>
</gpx>